<?xml version="1.0" encoding="UTF-8" standalone="no" ?>
<gpx xmlns="http://www.topografix.com/GPX/1/1" xmlns:xsi="http://www.w3.org/2001/XMLSchema-instance" xsi:schemaLocation="http://www.topografix.com/GPX/1/1 http://www.topografix.com/GPX/1/1/gpx.xsd" version="1.1" creator="VisuGPX - https://www.visugpx.com">
  <metadata>
    <name>Margeriaz Rando Surf</name>
    <desc><![CDATA[Montée en raquette et/ou ski de rando par le parcours raquette
puis descente en snow/ski par les pistes. Bien pour un début de saison afin de faire ses réglages]]></desc>
  </metadata>
  <trk>
    <name><![CDATA[Margeriaz Rando Surf_1]]></name>
    <trkseg>
      <trkpt lat="45.64262" lon="6.06395">
        <ele>1376</ele>
        <time>2010-11-28T13:04:35Z</time>
      </trkpt>
      <trkpt lat="45.64235" lon="6.06385">
        <ele>1381</ele>
        <time>2010-11-28T13:07:05Z</time>
      </trkpt>
      <trkpt lat="45.64234" lon="6.06385">
        <ele>1381</ele>
        <time>2010-11-28T13:07:07Z</time>
      </trkpt>
      <trkpt lat="45.64233" lon="6.06386">
        <ele>1381</ele>
        <time>2010-11-28T13:07:09Z</time>
      </trkpt>
      <trkpt lat="45.64231" lon="6.06383">
        <ele>1381</ele>
        <time>2010-11-28T13:07:11Z</time>
      </trkpt>
      <trkpt lat="45.64228" lon="6.06381">
        <ele>1381</ele>
        <time>2010-11-28T13:07:13Z</time>
      </trkpt>
      <trkpt lat="45.64225" lon="6.06378">
        <ele>1381</ele>
        <time>2010-11-28T13:07:16Z</time>
      </trkpt>
      <trkpt lat="45.64222" lon="6.06376">
        <ele>1381</ele>
        <time>2010-11-28T13:07:18Z</time>
      </trkpt>
      <trkpt lat="45.6422" lon="6.06375">
        <ele>1381</ele>
        <time>2010-11-28T13:07:20Z</time>
      </trkpt>
      <trkpt lat="45.64217" lon="6.06375">
        <ele>1381</ele>
        <time>2010-11-28T13:07:22Z</time>
      </trkpt>
      <trkpt lat="45.64215" lon="6.06374">
        <ele>1381</ele>
        <time>2010-11-28T13:07:24Z</time>
      </trkpt>
      <trkpt lat="45.64213" lon="6.06373">
        <ele>1381</ele>
        <time>2010-11-28T13:07:26Z</time>
      </trkpt>
      <trkpt lat="45.64211" lon="6.06371">
        <ele>1381</ele>
        <time>2010-11-28T13:07:30Z</time>
      </trkpt>
      <trkpt lat="45.6421" lon="6.0637">
        <ele>1381</ele>
        <time>2010-11-28T13:07:32Z</time>
      </trkpt>
      <trkpt lat="45.64206" lon="6.0637">
        <ele>1381</ele>
        <time>2010-11-28T13:07:35Z</time>
      </trkpt>
      <trkpt lat="45.64204" lon="6.0637">
        <ele>1381</ele>
        <time>2010-11-28T13:07:37Z</time>
      </trkpt>
      <trkpt lat="45.64202" lon="6.0637">
        <ele>1381</ele>
        <time>2010-11-28T13:07:39Z</time>
      </trkpt>
      <trkpt lat="45.642" lon="6.0637">
        <ele>1381</ele>
        <time>2010-11-28T13:07:41Z</time>
      </trkpt>
      <trkpt lat="45.64198" lon="6.06371">
        <ele>1381</ele>
        <time>2010-11-28T13:07:43Z</time>
      </trkpt>
      <trkpt lat="45.64196" lon="6.0637">
        <ele>1381</ele>
        <time>2010-11-28T13:07:45Z</time>
      </trkpt>
      <trkpt lat="45.64194" lon="6.06369">
        <ele>1380</ele>
        <time>2010-11-28T13:07:47Z</time>
      </trkpt>
      <trkpt lat="45.64193" lon="6.06367">
        <ele>1380</ele>
        <time>2010-11-28T13:07:49Z</time>
      </trkpt>
      <trkpt lat="45.64191" lon="6.06368">
        <ele>1379</ele>
        <time>2010-11-28T13:07:51Z</time>
      </trkpt>
      <trkpt lat="45.64189" lon="6.06368">
        <ele>1379</ele>
        <time>2010-11-28T13:07:53Z</time>
      </trkpt>
      <trkpt lat="45.64186" lon="6.06368">
        <ele>1379</ele>
        <time>2010-11-28T13:07:55Z</time>
      </trkpt>
      <trkpt lat="45.64184" lon="6.06369">
        <ele>1379</ele>
        <time>2010-11-28T13:07:57Z</time>
      </trkpt>
      <trkpt lat="45.64183" lon="6.0637">
        <ele>1379</ele>
        <time>2010-11-28T13:07:59Z</time>
      </trkpt>
      <trkpt lat="45.64181" lon="6.06371">
        <ele>1379</ele>
        <time>2010-11-28T13:08:01Z</time>
      </trkpt>
      <trkpt lat="45.64179" lon="6.06372">
        <ele>1379</ele>
        <time>2010-11-28T13:08:03Z</time>
      </trkpt>
      <trkpt lat="45.64178" lon="6.06373">
        <ele>1379</ele>
        <time>2010-11-28T13:08:05Z</time>
      </trkpt>
      <trkpt lat="45.64176" lon="6.06374">
        <ele>1379</ele>
        <time>2010-11-28T13:08:07Z</time>
      </trkpt>
      <trkpt lat="45.64173" lon="6.06375">
        <ele>1378</ele>
        <time>2010-11-28T13:08:10Z</time>
      </trkpt>
      <trkpt lat="45.64171" lon="6.06375">
        <ele>1378</ele>
        <time>2010-11-28T13:08:12Z</time>
      </trkpt>
      <trkpt lat="45.64168" lon="6.06375">
        <ele>1378</ele>
        <time>2010-11-28T13:08:15Z</time>
      </trkpt>
      <trkpt lat="45.64167" lon="6.06377">
        <ele>1378</ele>
        <time>2010-11-28T13:08:27Z</time>
      </trkpt>
      <trkpt lat="45.64165" lon="6.06376">
        <ele>1378</ele>
        <time>2010-11-28T13:08:29Z</time>
      </trkpt>
      <trkpt lat="45.64164" lon="6.06376">
        <ele>1378</ele>
        <time>2010-11-28T13:08:34Z</time>
      </trkpt>
      <trkpt lat="45.64162" lon="6.06375">
        <ele>1378</ele>
        <time>2010-11-28T13:08:36Z</time>
      </trkpt>
      <trkpt lat="45.64161" lon="6.06374">
        <ele>1378</ele>
        <time>2010-11-28T13:08:38Z</time>
      </trkpt>
      <trkpt lat="45.64159" lon="6.06373">
        <ele>1378</ele>
        <time>2010-11-28T13:08:40Z</time>
      </trkpt>
      <trkpt lat="45.64156" lon="6.06373">
        <ele>1378</ele>
        <time>2010-11-28T13:08:42Z</time>
      </trkpt>
      <trkpt lat="45.64154" lon="6.06372">
        <ele>1378</ele>
        <time>2010-11-28T13:08:44Z</time>
      </trkpt>
      <trkpt lat="45.64153" lon="6.06371">
        <ele>1378</ele>
        <time>2010-11-28T13:08:48Z</time>
      </trkpt>
      <trkpt lat="45.64151" lon="6.06371">
        <ele>1378</ele>
        <time>2010-11-28T13:08:50Z</time>
      </trkpt>
      <trkpt lat="45.64148" lon="6.06371">
        <ele>1378</ele>
        <time>2010-11-28T13:08:52Z</time>
      </trkpt>
      <trkpt lat="45.64145" lon="6.0637">
        <ele>1378</ele>
        <time>2010-11-28T13:08:54Z</time>
      </trkpt>
      <trkpt lat="45.64142" lon="6.06369">
        <ele>1378</ele>
        <time>2010-11-28T13:08:56Z</time>
      </trkpt>
      <trkpt lat="45.6414" lon="6.06368">
        <ele>1378</ele>
        <time>2010-11-28T13:08:58Z</time>
      </trkpt>
      <trkpt lat="45.64138" lon="6.06367">
        <ele>1378</ele>
        <time>2010-11-28T13:09:00Z</time>
      </trkpt>
      <trkpt lat="45.64136" lon="6.06366">
        <ele>1378</ele>
        <time>2010-11-28T13:09:02Z</time>
      </trkpt>
      <trkpt lat="45.64135" lon="6.06366">
        <ele>1378</ele>
        <time>2010-11-28T13:09:04Z</time>
      </trkpt>
      <trkpt lat="45.64134" lon="6.06366">
        <ele>1378</ele>
        <time>2010-11-28T13:09:08Z</time>
      </trkpt>
      <trkpt lat="45.64132" lon="6.06366">
        <ele>1379</ele>
        <time>2010-11-28T13:09:10Z</time>
      </trkpt>
      <trkpt lat="45.64129" lon="6.06364">
        <ele>1379</ele>
        <time>2010-11-28T13:09:12Z</time>
      </trkpt>
      <trkpt lat="45.64127" lon="6.06363">
        <ele>1379</ele>
        <time>2010-11-28T13:09:14Z</time>
      </trkpt>
      <trkpt lat="45.64125" lon="6.06362">
        <ele>1379</ele>
        <time>2010-11-28T13:09:16Z</time>
      </trkpt>
      <trkpt lat="45.64123" lon="6.06361">
        <ele>1380</ele>
        <time>2010-11-28T13:09:18Z</time>
      </trkpt>
      <trkpt lat="45.64122" lon="6.06362">
        <ele>1380</ele>
        <time>2010-11-28T13:09:20Z</time>
      </trkpt>
      <trkpt lat="45.6412" lon="6.06361">
        <ele>1380</ele>
        <time>2010-11-28T13:09:22Z</time>
      </trkpt>
      <trkpt lat="45.64119" lon="6.0636">
        <ele>1380</ele>
        <time>2010-11-28T13:09:24Z</time>
      </trkpt>
      <trkpt lat="45.64117" lon="6.06356">
        <ele>1381</ele>
        <time>2010-11-28T13:09:26Z</time>
      </trkpt>
      <trkpt lat="45.64114" lon="6.06352">
        <ele>1382</ele>
        <time>2010-11-28T13:09:29Z</time>
      </trkpt>
      <trkpt lat="45.64112" lon="6.06351">
        <ele>1382</ele>
        <time>2010-11-28T13:09:31Z</time>
      </trkpt>
      <trkpt lat="45.6411" lon="6.0635">
        <ele>1382</ele>
        <time>2010-11-28T13:09:33Z</time>
      </trkpt>
      <trkpt lat="45.64109" lon="6.06349">
        <ele>1382</ele>
        <time>2010-11-28T13:09:35Z</time>
      </trkpt>
      <trkpt lat="45.64108" lon="6.06348">
        <ele>1383</ele>
        <time>2010-11-28T13:09:37Z</time>
      </trkpt>
      <trkpt lat="45.64106" lon="6.06346">
        <ele>1383</ele>
        <time>2010-11-28T13:09:39Z</time>
      </trkpt>
      <trkpt lat="45.64104" lon="6.06345">
        <ele>1384</ele>
        <time>2010-11-28T13:09:42Z</time>
      </trkpt>
      <trkpt lat="45.64103" lon="6.06344">
        <ele>1384</ele>
        <time>2010-11-28T13:09:44Z</time>
      </trkpt>
      <trkpt lat="45.64101" lon="6.06343">
        <ele>1384</ele>
        <time>2010-11-28T13:09:47Z</time>
      </trkpt>
      <trkpt lat="45.64099" lon="6.06341">
        <ele>1385</ele>
        <time>2010-11-28T13:09:49Z</time>
      </trkpt>
      <trkpt lat="45.64098" lon="6.06342">
        <ele>1387</ele>
        <time>2010-11-28T13:09:53Z</time>
      </trkpt>
      <trkpt lat="45.64096" lon="6.06341">
        <ele>1387</ele>
        <time>2010-11-28T13:09:55Z</time>
      </trkpt>
      <trkpt lat="45.64093" lon="6.06342">
        <ele>1388</ele>
        <time>2010-11-28T13:09:58Z</time>
      </trkpt>
      <trkpt lat="45.64091" lon="6.06344">
        <ele>1389</ele>
        <time>2010-11-28T13:10:00Z</time>
      </trkpt>
      <trkpt lat="45.6409" lon="6.06346">
        <ele>1389</ele>
        <time>2010-11-28T13:10:03Z</time>
      </trkpt>
      <trkpt lat="45.64088" lon="6.06349">
        <ele>1389</ele>
        <time>2010-11-28T13:10:05Z</time>
      </trkpt>
      <trkpt lat="45.64086" lon="6.06352">
        <ele>1389</ele>
        <time>2010-11-28T13:10:07Z</time>
      </trkpt>
      <trkpt lat="45.64084" lon="6.06353">
        <ele>1389</ele>
        <time>2010-11-28T13:10:09Z</time>
      </trkpt>
      <trkpt lat="45.64081" lon="6.06355">
        <ele>1389</ele>
        <time>2010-11-28T13:10:12Z</time>
      </trkpt>
      <trkpt lat="45.64079" lon="6.06356">
        <ele>1389</ele>
        <time>2010-11-28T13:10:14Z</time>
      </trkpt>
      <trkpt lat="45.64077" lon="6.06357">
        <ele>1389</ele>
        <time>2010-11-28T13:10:16Z</time>
      </trkpt>
      <trkpt lat="45.64079" lon="6.06357">
        <ele>1389</ele>
        <time>2010-11-28T13:10:29Z</time>
      </trkpt>
      <trkpt lat="45.64079" lon="6.06356">
        <ele>1385</ele>
        <time>2010-11-28T13:10:46Z</time>
      </trkpt>
      <trkpt lat="45.64076" lon="6.06356">
        <ele>1384</ele>
        <time>2010-11-28T13:10:48Z</time>
      </trkpt>
      <trkpt lat="45.64075" lon="6.06357">
        <ele>1383</ele>
        <time>2010-11-28T13:10:50Z</time>
      </trkpt>
      <trkpt lat="45.64075" lon="6.06359">
        <ele>1380</ele>
        <time>2010-11-28T13:10:53Z</time>
      </trkpt>
      <trkpt lat="45.64077" lon="6.06357">
        <ele>1378</ele>
        <time>2010-11-28T13:10:56Z</time>
      </trkpt>
      <trkpt lat="45.64077" lon="6.06358">
        <ele>1378</ele>
        <time>2010-11-28T13:10:58Z</time>
      </trkpt>
      <trkpt lat="45.64076" lon="6.06362">
        <ele>1378</ele>
        <time>2010-11-28T13:11:00Z</time>
      </trkpt>
      <trkpt lat="45.64077" lon="6.06361">
        <ele>1381</ele>
        <time>2010-11-28T13:11:06Z</time>
      </trkpt>
      <trkpt lat="45.64077" lon="6.06362">
        <ele>1384</ele>
        <time>2010-11-28T13:11:11Z</time>
      </trkpt>
      <trkpt lat="45.64077" lon="6.06364">
        <ele>1386</ele>
        <time>2010-11-28T13:11:13Z</time>
      </trkpt>
      <trkpt lat="45.64076" lon="6.06367">
        <ele>1390</ele>
        <time>2010-11-28T13:11:19Z</time>
      </trkpt>
      <trkpt lat="45.64075" lon="6.06365">
        <ele>1390</ele>
        <time>2010-11-28T13:11:23Z</time>
      </trkpt>
      <trkpt lat="45.64074" lon="6.06365">
        <ele>1390</ele>
        <time>2010-11-28T13:11:25Z</time>
      </trkpt>
      <trkpt lat="45.64075" lon="6.06363">
        <ele>1390</ele>
        <time>2010-11-28T13:11:34Z</time>
      </trkpt>
      <trkpt lat="45.64075" lon="6.06362">
        <ele>1390</ele>
        <time>2010-11-28T13:11:38Z</time>
      </trkpt>
      <trkpt lat="45.64075" lon="6.0636">
        <ele>1390</ele>
        <time>2010-11-28T13:11:41Z</time>
      </trkpt>
      <trkpt lat="45.64076" lon="6.0636">
        <ele>1389</ele>
        <time>2010-11-28T13:11:43Z</time>
      </trkpt>
      <trkpt lat="45.64075" lon="6.06358">
        <ele>1388</ele>
        <time>2010-11-28T13:11:45Z</time>
      </trkpt>
      <trkpt lat="45.64077" lon="6.06356">
        <ele>1386</ele>
        <time>2010-11-28T13:11:47Z</time>
      </trkpt>
      <trkpt lat="45.64079" lon="6.06354">
        <ele>1385</ele>
        <time>2010-11-28T13:11:53Z</time>
      </trkpt>
      <trkpt lat="45.64078" lon="6.06356">
        <ele>1385</ele>
        <time>2010-11-28T13:11:56Z</time>
      </trkpt>
      <trkpt lat="45.64077" lon="6.06356">
        <ele>1385</ele>
        <time>2010-11-28T13:12:00Z</time>
      </trkpt>
      <trkpt lat="45.64075" lon="6.06355">
        <ele>1385</ele>
        <time>2010-11-28T13:12:04Z</time>
      </trkpt>
      <trkpt lat="45.64077" lon="6.06355">
        <ele>1385</ele>
        <time>2010-11-28T13:12:09Z</time>
      </trkpt>
      <trkpt lat="45.64079" lon="6.06354">
        <ele>1385</ele>
        <time>2010-11-28T13:12:15Z</time>
      </trkpt>
      <trkpt lat="45.64079" lon="6.06356">
        <ele>1385</ele>
        <time>2010-11-28T13:12:21Z</time>
      </trkpt>
      <trkpt lat="45.6408" lon="6.06357">
        <ele>1385</ele>
        <time>2010-11-28T13:12:23Z</time>
      </trkpt>
      <trkpt lat="45.64078" lon="6.06357">
        <ele>1385</ele>
        <time>2010-11-28T13:12:32Z</time>
      </trkpt>
      <trkpt lat="45.64077" lon="6.06356">
        <ele>1385</ele>
        <time>2010-11-28T13:12:37Z</time>
      </trkpt>
      <trkpt lat="45.64078" lon="6.06357">
        <ele>1386</ele>
        <time>2010-11-28T13:12:40Z</time>
      </trkpt>
      <trkpt lat="45.64077" lon="6.06359">
        <ele>1387</ele>
        <time>2010-11-28T13:12:44Z</time>
      </trkpt>
      <trkpt lat="45.64078" lon="6.06356">
        <ele>1387</ele>
        <time>2010-11-28T13:12:52Z</time>
      </trkpt>
      <trkpt lat="45.64078" lon="6.06358">
        <ele>1383</ele>
        <time>2010-11-28T13:13:03Z</time>
      </trkpt>
      <trkpt lat="45.64075" lon="6.06358">
        <ele>1383</ele>
        <time>2010-11-28T13:13:08Z</time>
      </trkpt>
      <trkpt lat="45.64075" lon="6.0636">
        <ele>1387</ele>
        <time>2010-11-28T13:13:13Z</time>
      </trkpt>
      <trkpt lat="45.64077" lon="6.0636">
        <ele>1387</ele>
        <time>2010-11-28T13:13:17Z</time>
      </trkpt>
      <trkpt lat="45.64077" lon="6.06358">
        <ele>1386</ele>
        <time>2010-11-28T13:13:25Z</time>
      </trkpt>
      <trkpt lat="45.64078" lon="6.06355">
        <ele>1382</ele>
        <time>2010-11-28T13:13:31Z</time>
      </trkpt>
      <trkpt lat="45.64079" lon="6.06352">
        <ele>1381</ele>
        <time>2010-11-28T13:13:33Z</time>
      </trkpt>
      <trkpt lat="45.64079" lon="6.06353">
        <ele>1380</ele>
        <time>2010-11-28T13:13:37Z</time>
      </trkpt>
      <trkpt lat="45.64079" lon="6.06355">
        <ele>1380</ele>
        <time>2010-11-28T13:13:41Z</time>
      </trkpt>
      <trkpt lat="45.64077" lon="6.06356">
        <ele>1380</ele>
        <time>2010-11-28T13:13:43Z</time>
      </trkpt>
      <trkpt lat="45.64076" lon="6.06355">
        <ele>1380</ele>
        <time>2010-11-28T13:13:47Z</time>
      </trkpt>
      <trkpt lat="45.64075" lon="6.06356">
        <ele>1380</ele>
        <time>2010-11-28T13:13:49Z</time>
      </trkpt>
      <trkpt lat="45.64075" lon="6.06358">
        <ele>1380</ele>
        <time>2010-11-28T13:13:53Z</time>
      </trkpt>
      <trkpt lat="45.64074" lon="6.0636">
        <ele>1382</ele>
        <time>2010-11-28T13:13:56Z</time>
      </trkpt>
      <trkpt lat="45.64072" lon="6.06362">
        <ele>1384</ele>
        <time>2010-11-28T13:14:08Z</time>
      </trkpt>
      <trkpt lat="45.6407" lon="6.06362">
        <ele>1384</ele>
        <time>2010-11-28T13:14:10Z</time>
      </trkpt>
      <trkpt lat="45.64067" lon="6.06363">
        <ele>1384</ele>
        <time>2010-11-28T13:14:13Z</time>
      </trkpt>
      <trkpt lat="45.64064" lon="6.06363">
        <ele>1384</ele>
        <time>2010-11-28T13:14:16Z</time>
      </trkpt>
      <trkpt lat="45.64063" lon="6.06363">
        <ele>1384</ele>
        <time>2010-11-28T13:14:18Z</time>
      </trkpt>
      <trkpt lat="45.64061" lon="6.06361">
        <ele>1384</ele>
        <time>2010-11-28T13:14:20Z</time>
      </trkpt>
      <trkpt lat="45.6406" lon="6.06358">
        <ele>1384</ele>
        <time>2010-11-28T13:14:22Z</time>
      </trkpt>
      <trkpt lat="45.64058" lon="6.06357">
        <ele>1385</ele>
        <time>2010-11-28T13:14:24Z</time>
      </trkpt>
      <trkpt lat="45.64056" lon="6.06356">
        <ele>1385</ele>
        <time>2010-11-28T13:14:26Z</time>
      </trkpt>
      <trkpt lat="45.64055" lon="6.06356">
        <ele>1385</ele>
        <time>2010-11-28T13:14:28Z</time>
      </trkpt>
      <trkpt lat="45.64053" lon="6.06356">
        <ele>1385</ele>
        <time>2010-11-28T13:14:32Z</time>
      </trkpt>
      <trkpt lat="45.64052" lon="6.06355">
        <ele>1385</ele>
        <time>2010-11-28T13:14:34Z</time>
      </trkpt>
      <trkpt lat="45.64051" lon="6.06353">
        <ele>1385</ele>
        <time>2010-11-28T13:14:36Z</time>
      </trkpt>
      <trkpt lat="45.64049" lon="6.06353">
        <ele>1385</ele>
        <time>2010-11-28T13:14:39Z</time>
      </trkpt>
      <trkpt lat="45.64048" lon="6.06352">
        <ele>1385</ele>
        <time>2010-11-28T13:14:43Z</time>
      </trkpt>
      <trkpt lat="45.64047" lon="6.06353">
        <ele>1385</ele>
        <time>2010-11-28T13:14:45Z</time>
      </trkpt>
      <trkpt lat="45.64045" lon="6.06351">
        <ele>1385</ele>
        <time>2010-11-28T13:14:47Z</time>
      </trkpt>
      <trkpt lat="45.64043" lon="6.0635">
        <ele>1385</ele>
        <time>2010-11-28T13:14:49Z</time>
      </trkpt>
      <trkpt lat="45.6404" lon="6.06351">
        <ele>1385</ele>
        <time>2010-11-28T13:14:52Z</time>
      </trkpt>
      <trkpt lat="45.64038" lon="6.0635">
        <ele>1385</ele>
        <time>2010-11-28T13:14:54Z</time>
      </trkpt>
      <trkpt lat="45.64037" lon="6.06349">
        <ele>1385</ele>
        <time>2010-11-28T13:14:56Z</time>
      </trkpt>
      <trkpt lat="45.64036" lon="6.06349">
        <ele>1385</ele>
        <time>2010-11-28T13:14:58Z</time>
      </trkpt>
      <trkpt lat="45.64034" lon="6.06348">
        <ele>1386</ele>
        <time>2010-11-28T13:15:00Z</time>
      </trkpt>
      <trkpt lat="45.64032" lon="6.06348">
        <ele>1386</ele>
        <time>2010-11-28T13:15:03Z</time>
      </trkpt>
      <trkpt lat="45.6403" lon="6.06348">
        <ele>1386</ele>
        <time>2010-11-28T13:15:05Z</time>
      </trkpt>
      <trkpt lat="45.64029" lon="6.06347">
        <ele>1386</ele>
        <time>2010-11-28T13:15:07Z</time>
      </trkpt>
      <trkpt lat="45.64028" lon="6.06346">
        <ele>1387</ele>
        <time>2010-11-28T13:15:09Z</time>
      </trkpt>
      <trkpt lat="45.64026" lon="6.06345">
        <ele>1387</ele>
        <time>2010-11-28T13:15:11Z</time>
      </trkpt>
      <trkpt lat="45.64024" lon="6.06344">
        <ele>1388</ele>
        <time>2010-11-28T13:15:13Z</time>
      </trkpt>
      <trkpt lat="45.6402" lon="6.06342">
        <ele>1388</ele>
        <time>2010-11-28T13:15:16Z</time>
      </trkpt>
      <trkpt lat="45.64017" lon="6.06341">
        <ele>1389</ele>
        <time>2010-11-28T13:15:19Z</time>
      </trkpt>
      <trkpt lat="45.64016" lon="6.0634">
        <ele>1389</ele>
        <time>2010-11-28T13:15:21Z</time>
      </trkpt>
      <trkpt lat="45.64014" lon="6.06339">
        <ele>1389</ele>
        <time>2010-11-28T13:15:24Z</time>
      </trkpt>
      <trkpt lat="45.64013" lon="6.06337">
        <ele>1389</ele>
        <time>2010-11-28T13:15:31Z</time>
      </trkpt>
      <trkpt lat="45.64012" lon="6.06337">
        <ele>1389</ele>
        <time>2010-11-28T13:15:37Z</time>
      </trkpt>
      <trkpt lat="45.6401" lon="6.06335">
        <ele>1389</ele>
        <time>2010-11-28T13:15:39Z</time>
      </trkpt>
      <trkpt lat="45.64009" lon="6.06334">
        <ele>1389</ele>
        <time>2010-11-28T13:15:44Z</time>
      </trkpt>
      <trkpt lat="45.64007" lon="6.06332">
        <ele>1389</ele>
        <time>2010-11-28T13:15:46Z</time>
      </trkpt>
      <trkpt lat="45.64005" lon="6.06329">
        <ele>1389</ele>
        <time>2010-11-28T13:15:49Z</time>
      </trkpt>
      <trkpt lat="45.64003" lon="6.06326">
        <ele>1389</ele>
        <time>2010-11-28T13:15:51Z</time>
      </trkpt>
      <trkpt lat="45.64002" lon="6.06325">
        <ele>1389</ele>
        <time>2010-11-28T13:15:53Z</time>
      </trkpt>
      <trkpt lat="45.64001" lon="6.06324">
        <ele>1390</ele>
        <time>2010-11-28T13:15:55Z</time>
      </trkpt>
      <trkpt lat="45.64" lon="6.06322">
        <ele>1391</ele>
        <time>2010-11-28T13:15:57Z</time>
      </trkpt>
      <trkpt lat="45.63999" lon="6.06321">
        <ele>1391</ele>
        <time>2010-11-28T13:16:00Z</time>
      </trkpt>
      <trkpt lat="45.63997" lon="6.0632">
        <ele>1392</ele>
        <time>2010-11-28T13:16:03Z</time>
      </trkpt>
      <trkpt lat="45.63996" lon="6.06318">
        <ele>1392</ele>
        <time>2010-11-28T13:16:06Z</time>
      </trkpt>
      <trkpt lat="45.63995" lon="6.06317">
        <ele>1392</ele>
        <time>2010-11-28T13:16:08Z</time>
      </trkpt>
      <trkpt lat="45.63994" lon="6.06315">
        <ele>1392</ele>
        <time>2010-11-28T13:16:11Z</time>
      </trkpt>
      <trkpt lat="45.63993" lon="6.06314">
        <ele>1392</ele>
        <time>2010-11-28T13:16:13Z</time>
      </trkpt>
      <trkpt lat="45.63993" lon="6.06312">
        <ele>1392</ele>
        <time>2010-11-28T13:16:16Z</time>
      </trkpt>
      <trkpt lat="45.63991" lon="6.0631">
        <ele>1392</ele>
        <time>2010-11-28T13:16:19Z</time>
      </trkpt>
      <trkpt lat="45.6399" lon="6.06309">
        <ele>1392</ele>
        <time>2010-11-28T13:16:21Z</time>
      </trkpt>
      <trkpt lat="45.63989" lon="6.06307">
        <ele>1392</ele>
        <time>2010-11-28T13:16:24Z</time>
      </trkpt>
      <trkpt lat="45.63987" lon="6.06305">
        <ele>1392</ele>
        <time>2010-11-28T13:16:27Z</time>
      </trkpt>
      <trkpt lat="45.63987" lon="6.06303">
        <ele>1392</ele>
        <time>2010-11-28T13:16:30Z</time>
      </trkpt>
      <trkpt lat="45.63986" lon="6.06302">
        <ele>1392</ele>
        <time>2010-11-28T13:16:33Z</time>
      </trkpt>
      <trkpt lat="45.63985" lon="6.06299">
        <ele>1392</ele>
        <time>2010-11-28T13:16:35Z</time>
      </trkpt>
      <trkpt lat="45.63984" lon="6.06295">
        <ele>1392</ele>
        <time>2010-11-28T13:16:38Z</time>
      </trkpt>
      <trkpt lat="45.63982" lon="6.06292">
        <ele>1392</ele>
        <time>2010-11-28T13:16:41Z</time>
      </trkpt>
      <trkpt lat="45.63981" lon="6.06291">
        <ele>1392</ele>
        <time>2010-11-28T13:16:43Z</time>
      </trkpt>
      <trkpt lat="45.63979" lon="6.06289">
        <ele>1392</ele>
        <time>2010-11-28T13:16:47Z</time>
      </trkpt>
      <trkpt lat="45.63978" lon="6.06287">
        <ele>1392</ele>
        <time>2010-11-28T13:16:49Z</time>
      </trkpt>
      <trkpt lat="45.63978" lon="6.06284">
        <ele>1392</ele>
        <time>2010-11-28T13:16:51Z</time>
      </trkpt>
      <trkpt lat="45.63977" lon="6.06282">
        <ele>1392</ele>
        <time>2010-11-28T13:16:53Z</time>
      </trkpt>
      <trkpt lat="45.63977" lon="6.0628">
        <ele>1392</ele>
        <time>2010-11-28T13:16:56Z</time>
      </trkpt>
      <trkpt lat="45.63976" lon="6.06278">
        <ele>1392</ele>
        <time>2010-11-28T13:16:58Z</time>
      </trkpt>
      <trkpt lat="45.63976" lon="6.06277">
        <ele>1392</ele>
        <time>2010-11-28T13:17:00Z</time>
      </trkpt>
      <trkpt lat="45.63976" lon="6.06275">
        <ele>1392</ele>
        <time>2010-11-28T13:17:02Z</time>
      </trkpt>
      <trkpt lat="45.63974" lon="6.06272">
        <ele>1392</ele>
        <time>2010-11-28T13:17:04Z</time>
      </trkpt>
      <trkpt lat="45.63973" lon="6.06269">
        <ele>1392</ele>
        <time>2010-11-28T13:17:06Z</time>
      </trkpt>
      <trkpt lat="45.6397" lon="6.06266">
        <ele>1392</ele>
        <time>2010-11-28T13:17:09Z</time>
      </trkpt>
      <trkpt lat="45.63969" lon="6.06264">
        <ele>1392</ele>
        <time>2010-11-28T13:17:11Z</time>
      </trkpt>
      <trkpt lat="45.63968" lon="6.06262">
        <ele>1392</ele>
        <time>2010-11-28T13:17:13Z</time>
      </trkpt>
      <trkpt lat="45.63966" lon="6.06258">
        <ele>1392</ele>
        <time>2010-11-28T13:17:16Z</time>
      </trkpt>
      <trkpt lat="45.63965" lon="6.06256">
        <ele>1392</ele>
        <time>2010-11-28T13:17:18Z</time>
      </trkpt>
      <trkpt lat="45.63964" lon="6.06255">
        <ele>1392</ele>
        <time>2010-11-28T13:17:21Z</time>
      </trkpt>
      <trkpt lat="45.63963" lon="6.06254">
        <ele>1393</ele>
        <time>2010-11-28T13:17:23Z</time>
      </trkpt>
      <trkpt lat="45.63962" lon="6.06253">
        <ele>1393</ele>
        <time>2010-11-28T13:17:25Z</time>
      </trkpt>
      <trkpt lat="45.6396" lon="6.06251">
        <ele>1394</ele>
        <time>2010-11-28T13:17:27Z</time>
      </trkpt>
      <trkpt lat="45.63959" lon="6.0625">
        <ele>1394</ele>
        <time>2010-11-28T13:17:29Z</time>
      </trkpt>
      <trkpt lat="45.63958" lon="6.0625">
        <ele>1394</ele>
        <time>2010-11-28T13:17:31Z</time>
      </trkpt>
      <trkpt lat="45.63956" lon="6.06248">
        <ele>1394</ele>
        <time>2010-11-28T13:17:33Z</time>
      </trkpt>
      <trkpt lat="45.63953" lon="6.06248">
        <ele>1394</ele>
        <time>2010-11-28T13:17:35Z</time>
      </trkpt>
      <trkpt lat="45.63952" lon="6.06248">
        <ele>1394</ele>
        <time>2010-11-28T13:17:37Z</time>
      </trkpt>
      <trkpt lat="45.6395" lon="6.06246">
        <ele>1394</ele>
        <time>2010-11-28T13:17:39Z</time>
      </trkpt>
      <trkpt lat="45.63949" lon="6.06245">
        <ele>1394</ele>
        <time>2010-11-28T13:17:42Z</time>
      </trkpt>
      <trkpt lat="45.63947" lon="6.06243">
        <ele>1394</ele>
        <time>2010-11-28T13:17:44Z</time>
      </trkpt>
      <trkpt lat="45.63945" lon="6.06241">
        <ele>1396</ele>
        <time>2010-11-28T13:17:46Z</time>
      </trkpt>
      <trkpt lat="45.63944" lon="6.0624">
        <ele>1397</ele>
        <time>2010-11-28T13:17:48Z</time>
      </trkpt>
      <trkpt lat="45.63942" lon="6.06238">
        <ele>1397</ele>
        <time>2010-11-28T13:17:50Z</time>
      </trkpt>
      <trkpt lat="45.63939" lon="6.06234">
        <ele>1398</ele>
        <time>2010-11-28T13:17:53Z</time>
      </trkpt>
      <trkpt lat="45.63937" lon="6.06231">
        <ele>1399</ele>
        <time>2010-11-28T13:17:56Z</time>
      </trkpt>
      <trkpt lat="45.63936" lon="6.0623">
        <ele>1399</ele>
        <time>2010-11-28T13:17:58Z</time>
      </trkpt>
      <trkpt lat="45.63935" lon="6.06228">
        <ele>1399</ele>
        <time>2010-11-28T13:18:02Z</time>
      </trkpt>
      <trkpt lat="45.63933" lon="6.06225">
        <ele>1399</ele>
        <time>2010-11-28T13:18:05Z</time>
      </trkpt>
      <trkpt lat="45.6393" lon="6.06222">
        <ele>1399</ele>
        <time>2010-11-28T13:18:07Z</time>
      </trkpt>
      <trkpt lat="45.63928" lon="6.06223">
        <ele>1399</ele>
        <time>2010-11-28T13:18:11Z</time>
      </trkpt>
      <trkpt lat="45.63927" lon="6.06223">
        <ele>1399</ele>
        <time>2010-11-28T13:18:14Z</time>
      </trkpt>
      <trkpt lat="45.63924" lon="6.06221">
        <ele>1399</ele>
        <time>2010-11-28T13:18:18Z</time>
      </trkpt>
      <trkpt lat="45.63923" lon="6.0622">
        <ele>1399</ele>
        <time>2010-11-28T13:18:20Z</time>
      </trkpt>
      <trkpt lat="45.63921" lon="6.06218">
        <ele>1399</ele>
        <time>2010-11-28T13:18:22Z</time>
      </trkpt>
      <trkpt lat="45.63919" lon="6.06214">
        <ele>1399</ele>
        <time>2010-11-28T13:18:25Z</time>
      </trkpt>
      <trkpt lat="45.63919" lon="6.06213">
        <ele>1399</ele>
        <time>2010-11-28T13:18:27Z</time>
      </trkpt>
      <trkpt lat="45.63919" lon="6.06214">
        <ele>1399</ele>
        <time>2010-11-28T13:18:31Z</time>
      </trkpt>
      <trkpt lat="45.63918" lon="6.06216">
        <ele>1399</ele>
        <time>2010-11-28T13:18:33Z</time>
      </trkpt>
      <trkpt lat="45.63918" lon="6.06218">
        <ele>1399</ele>
        <time>2010-11-28T13:18:37Z</time>
      </trkpt>
      <trkpt lat="45.63918" lon="6.0622">
        <ele>1399</ele>
        <time>2010-11-28T13:18:43Z</time>
      </trkpt>
      <trkpt lat="45.63919" lon="6.0622">
        <ele>1399</ele>
        <time>2010-11-28T13:18:46Z</time>
      </trkpt>
      <trkpt lat="45.6392" lon="6.0622">
        <ele>1399</ele>
        <time>2010-11-28T13:18:49Z</time>
      </trkpt>
      <trkpt lat="45.63919" lon="6.06221">
        <ele>1399</ele>
        <time>2010-11-28T13:19:12Z</time>
      </trkpt>
      <trkpt lat="45.63921" lon="6.06219">
        <ele>1399</ele>
        <time>2010-11-28T13:19:17Z</time>
      </trkpt>
      <trkpt lat="45.63922" lon="6.06219">
        <ele>1399</ele>
        <time>2010-11-28T13:19:21Z</time>
      </trkpt>
      <trkpt lat="45.63923" lon="6.06219">
        <ele>1399</ele>
        <time>2010-11-28T13:19:23Z</time>
      </trkpt>
      <trkpt lat="45.63924" lon="6.06218">
        <ele>1399</ele>
        <time>2010-11-28T13:19:26Z</time>
      </trkpt>
      <trkpt lat="45.63924" lon="6.06216">
        <ele>1399</ele>
        <time>2010-11-28T13:19:33Z</time>
      </trkpt>
      <trkpt lat="45.63923" lon="6.06216">
        <ele>1399</ele>
        <time>2010-11-28T13:19:35Z</time>
      </trkpt>
      <trkpt lat="45.6392" lon="6.06216">
        <ele>1399</ele>
        <time>2010-11-28T13:19:38Z</time>
      </trkpt>
      <trkpt lat="45.63918" lon="6.06215">
        <ele>1400</ele>
        <time>2010-11-28T13:19:40Z</time>
      </trkpt>
      <trkpt lat="45.63918" lon="6.06213">
        <ele>1400</ele>
        <time>2010-11-28T13:19:43Z</time>
      </trkpt>
      <trkpt lat="45.63916" lon="6.06212">
        <ele>1400</ele>
        <time>2010-11-28T13:19:45Z</time>
      </trkpt>
      <trkpt lat="45.63915" lon="6.06213">
        <ele>1400</ele>
        <time>2010-11-28T13:19:47Z</time>
      </trkpt>
      <trkpt lat="45.63914" lon="6.06212">
        <ele>1400</ele>
        <time>2010-11-28T13:19:54Z</time>
      </trkpt>
      <trkpt lat="45.63913" lon="6.06213">
        <ele>1400</ele>
        <time>2010-11-28T13:20:09Z</time>
      </trkpt>
      <trkpt lat="45.63911" lon="6.06213">
        <ele>1400</ele>
        <time>2010-11-28T13:20:11Z</time>
      </trkpt>
      <trkpt lat="45.6391" lon="6.06212">
        <ele>1401</ele>
        <time>2010-11-28T13:20:15Z</time>
      </trkpt>
      <trkpt lat="45.63909" lon="6.06211">
        <ele>1401</ele>
        <time>2010-11-28T13:20:17Z</time>
      </trkpt>
      <trkpt lat="45.63908" lon="6.06209">
        <ele>1401</ele>
        <time>2010-11-28T13:20:22Z</time>
      </trkpt>
      <trkpt lat="45.63907" lon="6.06208">
        <ele>1401</ele>
        <time>2010-11-28T13:20:24Z</time>
      </trkpt>
      <trkpt lat="45.63908" lon="6.06207">
        <ele>1401</ele>
        <time>2010-11-28T13:20:27Z</time>
      </trkpt>
      <trkpt lat="45.63908" lon="6.06206">
        <ele>1401</ele>
        <time>2010-11-28T13:20:29Z</time>
      </trkpt>
      <trkpt lat="45.63907" lon="6.06205">
        <ele>1402</ele>
        <time>2010-11-28T13:20:31Z</time>
      </trkpt>
      <trkpt lat="45.63905" lon="6.06206">
        <ele>1402</ele>
        <time>2010-11-28T13:20:33Z</time>
      </trkpt>
      <trkpt lat="45.63903" lon="6.06204">
        <ele>1402</ele>
        <time>2010-11-28T13:20:35Z</time>
      </trkpt>
      <trkpt lat="45.63901" lon="6.06204">
        <ele>1403</ele>
        <time>2010-11-28T13:20:37Z</time>
      </trkpt>
      <trkpt lat="45.639" lon="6.06203">
        <ele>1404</ele>
        <time>2010-11-28T13:20:39Z</time>
      </trkpt>
      <trkpt lat="45.63898" lon="6.06203">
        <ele>1404</ele>
        <time>2010-11-28T13:20:41Z</time>
      </trkpt>
      <trkpt lat="45.63897" lon="6.06203">
        <ele>1404</ele>
        <time>2010-11-28T13:20:43Z</time>
      </trkpt>
      <trkpt lat="45.63895" lon="6.06202">
        <ele>1404</ele>
        <time>2010-11-28T13:20:45Z</time>
      </trkpt>
      <trkpt lat="45.63893" lon="6.062">
        <ele>1404</ele>
        <time>2010-11-28T13:20:48Z</time>
      </trkpt>
      <trkpt lat="45.63892" lon="6.06201">
        <ele>1404</ele>
        <time>2010-11-28T13:20:50Z</time>
      </trkpt>
      <trkpt lat="45.6389" lon="6.06202">
        <ele>1404</ele>
        <time>2010-11-28T13:20:53Z</time>
      </trkpt>
      <trkpt lat="45.63889" lon="6.06198">
        <ele>1404</ele>
        <time>2010-11-28T13:20:56Z</time>
      </trkpt>
      <trkpt lat="45.63888" lon="6.06195">
        <ele>1404</ele>
        <time>2010-11-28T13:20:58Z</time>
      </trkpt>
      <trkpt lat="45.63887" lon="6.06193">
        <ele>1404</ele>
        <time>2010-11-28T13:21:00Z</time>
      </trkpt>
      <trkpt lat="45.63887" lon="6.06191">
        <ele>1404</ele>
        <time>2010-11-28T13:21:02Z</time>
      </trkpt>
      <trkpt lat="45.63886" lon="6.06188">
        <ele>1404</ele>
        <time>2010-11-28T13:21:05Z</time>
      </trkpt>
      <trkpt lat="45.63884" lon="6.06187">
        <ele>1407</ele>
        <time>2010-11-28T13:21:09Z</time>
      </trkpt>
      <trkpt lat="45.63884" lon="6.06186">
        <ele>1409</ele>
        <time>2010-11-28T13:21:12Z</time>
      </trkpt>
      <trkpt lat="45.63884" lon="6.06183">
        <ele>1410</ele>
        <time>2010-11-28T13:21:14Z</time>
      </trkpt>
      <trkpt lat="45.63883" lon="6.06182">
        <ele>1410</ele>
        <time>2010-11-28T13:21:17Z</time>
      </trkpt>
      <trkpt lat="45.63881" lon="6.06181">
        <ele>1410</ele>
        <time>2010-11-28T13:21:19Z</time>
      </trkpt>
      <trkpt lat="45.63879" lon="6.06179">
        <ele>1411</ele>
        <time>2010-11-28T13:21:21Z</time>
      </trkpt>
      <trkpt lat="45.63877" lon="6.06177">
        <ele>1411</ele>
        <time>2010-11-28T13:21:23Z</time>
      </trkpt>
      <trkpt lat="45.63874" lon="6.06176">
        <ele>1412</ele>
        <time>2010-11-28T13:21:26Z</time>
      </trkpt>
      <trkpt lat="45.63873" lon="6.06176">
        <ele>1413</ele>
        <time>2010-11-28T13:21:30Z</time>
      </trkpt>
      <trkpt lat="45.63871" lon="6.06176">
        <ele>1414</ele>
        <time>2010-11-28T13:21:32Z</time>
      </trkpt>
      <trkpt lat="45.63868" lon="6.06175">
        <ele>1414</ele>
        <time>2010-11-28T13:21:35Z</time>
      </trkpt>
      <trkpt lat="45.63865" lon="6.06173">
        <ele>1414</ele>
        <time>2010-11-28T13:21:38Z</time>
      </trkpt>
      <trkpt lat="45.63863" lon="6.06173">
        <ele>1414</ele>
        <time>2010-11-28T13:21:40Z</time>
      </trkpt>
      <trkpt lat="45.63861" lon="6.06172">
        <ele>1414</ele>
        <time>2010-11-28T13:21:42Z</time>
      </trkpt>
      <trkpt lat="45.6386" lon="6.0617">
        <ele>1414</ele>
        <time>2010-11-28T13:21:46Z</time>
      </trkpt>
      <trkpt lat="45.63858" lon="6.0617">
        <ele>1414</ele>
        <time>2010-11-28T13:21:48Z</time>
      </trkpt>
      <trkpt lat="45.63855" lon="6.06169">
        <ele>1414</ele>
        <time>2010-11-28T13:21:50Z</time>
      </trkpt>
      <trkpt lat="45.63854" lon="6.06167">
        <ele>1414</ele>
        <time>2010-11-28T13:21:53Z</time>
      </trkpt>
      <trkpt lat="45.63853" lon="6.06165">
        <ele>1414</ele>
        <time>2010-11-28T13:21:55Z</time>
      </trkpt>
      <trkpt lat="45.63852" lon="6.06162">
        <ele>1414</ele>
        <time>2010-11-28T13:21:57Z</time>
      </trkpt>
      <trkpt lat="45.6385" lon="6.0616">
        <ele>1414</ele>
        <time>2010-11-28T13:21:59Z</time>
      </trkpt>
      <trkpt lat="45.63849" lon="6.06159">
        <ele>1415</ele>
        <time>2010-11-28T13:22:01Z</time>
      </trkpt>
      <trkpt lat="45.63847" lon="6.06159">
        <ele>1415</ele>
        <time>2010-11-28T13:22:03Z</time>
      </trkpt>
      <trkpt lat="45.63845" lon="6.06158">
        <ele>1415</ele>
        <time>2010-11-28T13:22:05Z</time>
      </trkpt>
      <trkpt lat="45.63843" lon="6.06157">
        <ele>1416</ele>
        <time>2010-11-28T13:22:07Z</time>
      </trkpt>
      <trkpt lat="45.6384" lon="6.06155">
        <ele>1417</ele>
        <time>2010-11-28T13:22:10Z</time>
      </trkpt>
      <trkpt lat="45.63841" lon="6.06154">
        <ele>1419</ele>
        <time>2010-11-28T13:22:17Z</time>
      </trkpt>
      <trkpt lat="45.6384" lon="6.06156">
        <ele>1419</ele>
        <time>2010-11-28T13:22:20Z</time>
      </trkpt>
      <trkpt lat="45.63842" lon="6.06157">
        <ele>1420</ele>
        <time>2010-11-28T13:22:24Z</time>
      </trkpt>
      <trkpt lat="45.63843" lon="6.06158">
        <ele>1420</ele>
        <time>2010-11-28T13:22:26Z</time>
      </trkpt>
      <trkpt lat="45.63842" lon="6.0616">
        <ele>1420</ele>
        <time>2010-11-28T13:22:29Z</time>
      </trkpt>
      <trkpt lat="45.63844" lon="6.0616">
        <ele>1420</ele>
        <time>2010-11-28T13:22:34Z</time>
      </trkpt>
      <trkpt lat="45.63845" lon="6.06161">
        <ele>1420</ele>
        <time>2010-11-28T13:22:36Z</time>
      </trkpt>
      <trkpt lat="45.63846" lon="6.06163">
        <ele>1420</ele>
        <time>2010-11-28T13:22:40Z</time>
      </trkpt>
      <trkpt lat="45.63847" lon="6.06164">
        <ele>1420</ele>
        <time>2010-11-28T13:22:44Z</time>
      </trkpt>
      <trkpt lat="45.63846" lon="6.06164">
        <ele>1420</ele>
        <time>2010-11-28T13:22:53Z</time>
      </trkpt>
      <trkpt lat="45.63845" lon="6.06162">
        <ele>1420</ele>
        <time>2010-11-28T13:22:56Z</time>
      </trkpt>
      <trkpt lat="45.63844" lon="6.06162">
        <ele>1420</ele>
        <time>2010-11-28T13:22:59Z</time>
      </trkpt>
      <trkpt lat="45.63841" lon="6.06163">
        <ele>1420</ele>
        <time>2010-11-28T13:23:02Z</time>
      </trkpt>
      <trkpt lat="45.63839" lon="6.06162">
        <ele>1420</ele>
        <time>2010-11-28T13:23:04Z</time>
      </trkpt>
      <trkpt lat="45.63836" lon="6.06162">
        <ele>1420</ele>
        <time>2010-11-28T13:23:06Z</time>
      </trkpt>
      <trkpt lat="45.63833" lon="6.06165">
        <ele>1420</ele>
        <time>2010-11-28T13:23:09Z</time>
      </trkpt>
      <trkpt lat="45.63831" lon="6.06164">
        <ele>1420</ele>
        <time>2010-11-28T13:23:13Z</time>
      </trkpt>
      <trkpt lat="45.6383" lon="6.06165">
        <ele>1420</ele>
        <time>2010-11-28T13:23:15Z</time>
      </trkpt>
      <trkpt lat="45.63829" lon="6.06167">
        <ele>1420</ele>
        <time>2010-11-28T13:23:17Z</time>
      </trkpt>
      <trkpt lat="45.63828" lon="6.06168">
        <ele>1420</ele>
        <time>2010-11-28T13:23:19Z</time>
      </trkpt>
      <trkpt lat="45.63826" lon="6.06167">
        <ele>1420</ele>
        <time>2010-11-28T13:23:21Z</time>
      </trkpt>
      <trkpt lat="45.63824" lon="6.06167">
        <ele>1420</ele>
        <time>2010-11-28T13:23:23Z</time>
      </trkpt>
      <trkpt lat="45.63822" lon="6.06168">
        <ele>1420</ele>
        <time>2010-11-28T13:23:25Z</time>
      </trkpt>
      <trkpt lat="45.63821" lon="6.06168">
        <ele>1420</ele>
        <time>2010-11-28T13:23:27Z</time>
      </trkpt>
      <trkpt lat="45.6382" lon="6.06167">
        <ele>1420</ele>
        <time>2010-11-28T13:23:29Z</time>
      </trkpt>
      <trkpt lat="45.63818" lon="6.06168">
        <ele>1420</ele>
        <time>2010-11-28T13:23:31Z</time>
      </trkpt>
      <trkpt lat="45.63817" lon="6.06167">
        <ele>1420</ele>
        <time>2010-11-28T13:23:33Z</time>
      </trkpt>
      <trkpt lat="45.63815" lon="6.06166">
        <ele>1420</ele>
        <time>2010-11-28T13:23:36Z</time>
      </trkpt>
      <trkpt lat="45.63814" lon="6.06165">
        <ele>1420</ele>
        <time>2010-11-28T13:23:38Z</time>
      </trkpt>
      <trkpt lat="45.63811" lon="6.06165">
        <ele>1420</ele>
        <time>2010-11-28T13:23:42Z</time>
      </trkpt>
      <trkpt lat="45.6381" lon="6.06164">
        <ele>1420</ele>
        <time>2010-11-28T13:23:44Z</time>
      </trkpt>
      <trkpt lat="45.63808" lon="6.06165">
        <ele>1420</ele>
        <time>2010-11-28T13:23:46Z</time>
      </trkpt>
      <trkpt lat="45.63806" lon="6.06165">
        <ele>1420</ele>
        <time>2010-11-28T13:23:48Z</time>
      </trkpt>
      <trkpt lat="45.63804" lon="6.06166">
        <ele>1421</ele>
        <time>2010-11-28T13:23:50Z</time>
      </trkpt>
      <trkpt lat="45.63802" lon="6.06164">
        <ele>1422</ele>
        <time>2010-11-28T13:23:53Z</time>
      </trkpt>
      <trkpt lat="45.638" lon="6.06163">
        <ele>1423</ele>
        <time>2010-11-28T13:23:56Z</time>
      </trkpt>
      <trkpt lat="45.63799" lon="6.0616">
        <ele>1424</ele>
        <time>2010-11-28T13:24:00Z</time>
      </trkpt>
      <trkpt lat="45.63797" lon="6.06161">
        <ele>1424</ele>
        <time>2010-11-28T13:24:02Z</time>
      </trkpt>
      <trkpt lat="45.63795" lon="6.06163">
        <ele>1426</ele>
        <time>2010-11-28T13:24:08Z</time>
      </trkpt>
      <trkpt lat="45.63794" lon="6.06164">
        <ele>1426</ele>
        <time>2010-11-28T13:24:11Z</time>
      </trkpt>
      <trkpt lat="45.63793" lon="6.06166">
        <ele>1426</ele>
        <time>2010-11-28T13:24:13Z</time>
      </trkpt>
      <trkpt lat="45.63791" lon="6.06165">
        <ele>1426</ele>
        <time>2010-11-28T13:24:17Z</time>
      </trkpt>
      <trkpt lat="45.63788" lon="6.06168">
        <ele>1426</ele>
        <time>2010-11-28T13:24:19Z</time>
      </trkpt>
      <trkpt lat="45.63786" lon="6.06169">
        <ele>1426</ele>
        <time>2010-11-28T13:24:21Z</time>
      </trkpt>
      <trkpt lat="45.63783" lon="6.06171">
        <ele>1426</ele>
        <time>2010-11-28T13:24:25Z</time>
      </trkpt>
      <trkpt lat="45.63781" lon="6.06172">
        <ele>1426</ele>
        <time>2010-11-28T13:24:27Z</time>
      </trkpt>
      <trkpt lat="45.6378" lon="6.0617">
        <ele>1426</ele>
        <time>2010-11-28T13:24:31Z</time>
      </trkpt>
      <trkpt lat="45.63779" lon="6.06169">
        <ele>1426</ele>
        <time>2010-11-28T13:24:33Z</time>
      </trkpt>
      <trkpt lat="45.63777" lon="6.06168">
        <ele>1426</ele>
        <time>2010-11-28T13:24:35Z</time>
      </trkpt>
      <trkpt lat="45.63775" lon="6.06167">
        <ele>1426</ele>
        <time>2010-11-28T13:24:37Z</time>
      </trkpt>
      <trkpt lat="45.63773" lon="6.06169">
        <ele>1426</ele>
        <time>2010-11-28T13:24:39Z</time>
      </trkpt>
      <trkpt lat="45.63772" lon="6.0617">
        <ele>1425</ele>
        <time>2010-11-28T13:24:43Z</time>
      </trkpt>
      <trkpt lat="45.63771" lon="6.06169">
        <ele>1425</ele>
        <time>2010-11-28T13:24:45Z</time>
      </trkpt>
      <trkpt lat="45.63769" lon="6.0617">
        <ele>1425</ele>
        <time>2010-11-28T13:24:47Z</time>
      </trkpt>
      <trkpt lat="45.63768" lon="6.0617">
        <ele>1425</ele>
        <time>2010-11-28T13:24:49Z</time>
      </trkpt>
      <trkpt lat="45.63766" lon="6.0617">
        <ele>1425</ele>
        <time>2010-11-28T13:24:51Z</time>
      </trkpt>
      <trkpt lat="45.63763" lon="6.06169">
        <ele>1425</ele>
        <time>2010-11-28T13:24:54Z</time>
      </trkpt>
      <trkpt lat="45.63761" lon="6.06169">
        <ele>1425</ele>
        <time>2010-11-28T13:24:56Z</time>
      </trkpt>
      <trkpt lat="45.6376" lon="6.06169">
        <ele>1425</ele>
        <time>2010-11-28T13:24:58Z</time>
      </trkpt>
      <trkpt lat="45.63758" lon="6.06168">
        <ele>1425</ele>
        <time>2010-11-28T13:25:00Z</time>
      </trkpt>
      <trkpt lat="45.63756" lon="6.06168">
        <ele>1425</ele>
        <time>2010-11-28T13:25:03Z</time>
      </trkpt>
      <trkpt lat="45.63755" lon="6.06167">
        <ele>1425</ele>
        <time>2010-11-28T13:25:05Z</time>
      </trkpt>
      <trkpt lat="45.63754" lon="6.06167">
        <ele>1425</ele>
        <time>2010-11-28T13:25:07Z</time>
      </trkpt>
      <trkpt lat="45.63753" lon="6.06168">
        <ele>1425</ele>
        <time>2010-11-28T13:25:09Z</time>
      </trkpt>
      <trkpt lat="45.63752" lon="6.06169">
        <ele>1425</ele>
        <time>2010-11-28T13:25:25Z</time>
      </trkpt>
      <trkpt lat="45.63753" lon="6.06167">
        <ele>1425</ele>
        <time>2010-11-28T13:25:29Z</time>
      </trkpt>
      <trkpt lat="45.63755" lon="6.06167">
        <ele>1425</ele>
        <time>2010-11-28T13:25:38Z</time>
      </trkpt>
      <trkpt lat="45.63756" lon="6.06167">
        <ele>1425</ele>
        <time>2010-11-28T13:25:43Z</time>
      </trkpt>
      <trkpt lat="45.63755" lon="6.06165">
        <ele>1425</ele>
        <time>2010-11-28T13:25:46Z</time>
      </trkpt>
      <trkpt lat="45.63751" lon="6.06165">
        <ele>1425</ele>
        <time>2010-11-28T13:25:48Z</time>
      </trkpt>
      <trkpt lat="45.63747" lon="6.06166">
        <ele>1425</ele>
        <time>2010-11-28T13:25:51Z</time>
      </trkpt>
      <trkpt lat="45.63746" lon="6.06164">
        <ele>1425</ele>
        <time>2010-11-28T13:25:53Z</time>
      </trkpt>
      <trkpt lat="45.63744" lon="6.06163">
        <ele>1425</ele>
        <time>2010-11-28T13:25:55Z</time>
      </trkpt>
      <trkpt lat="45.63742" lon="6.06161">
        <ele>1425</ele>
        <time>2010-11-28T13:25:57Z</time>
      </trkpt>
      <trkpt lat="45.63741" lon="6.06161">
        <ele>1425</ele>
        <time>2010-11-28T13:25:59Z</time>
      </trkpt>
      <trkpt lat="45.6374" lon="6.06159">
        <ele>1425</ele>
        <time>2010-11-28T13:26:01Z</time>
      </trkpt>
      <trkpt lat="45.63739" lon="6.06159">
        <ele>1426</ele>
        <time>2010-11-28T13:26:04Z</time>
      </trkpt>
      <trkpt lat="45.63737" lon="6.06157">
        <ele>1426</ele>
        <time>2010-11-28T13:26:08Z</time>
      </trkpt>
      <trkpt lat="45.63736" lon="6.06157">
        <ele>1428</ele>
        <time>2010-11-28T13:26:11Z</time>
      </trkpt>
      <trkpt lat="45.63735" lon="6.06157">
        <ele>1429</ele>
        <time>2010-11-28T13:26:17Z</time>
      </trkpt>
      <trkpt lat="45.63734" lon="6.06156">
        <ele>1429</ele>
        <time>2010-11-28T13:26:19Z</time>
      </trkpt>
      <trkpt lat="45.63732" lon="6.06158">
        <ele>1433</ele>
        <time>2010-11-28T13:26:36Z</time>
      </trkpt>
      <trkpt lat="45.63733" lon="6.06159">
        <ele>1433</ele>
        <time>2010-11-28T13:26:41Z</time>
      </trkpt>
      <trkpt lat="45.63733" lon="6.06162">
        <ele>1433</ele>
        <time>2010-11-28T13:26:43Z</time>
      </trkpt>
      <trkpt lat="45.63734" lon="6.06162">
        <ele>1434</ele>
        <time>2010-11-28T13:26:50Z</time>
      </trkpt>
      <trkpt lat="45.63733" lon="6.06161">
        <ele>1434</ele>
        <time>2010-11-28T13:26:56Z</time>
      </trkpt>
      <trkpt lat="45.63732" lon="6.06161">
        <ele>1436</ele>
        <time>2010-11-28T13:27:01Z</time>
      </trkpt>
      <trkpt lat="45.63733" lon="6.0616">
        <ele>1436</ele>
        <time>2010-11-28T13:27:04Z</time>
      </trkpt>
      <trkpt lat="45.63732" lon="6.06159">
        <ele>1436</ele>
        <time>2010-11-28T13:27:08Z</time>
      </trkpt>
      <trkpt lat="45.63731" lon="6.06157">
        <ele>1436</ele>
        <time>2010-11-28T13:27:13Z</time>
      </trkpt>
      <trkpt lat="45.63732" lon="6.06158">
        <ele>1434</ele>
        <time>2010-11-28T13:27:23Z</time>
      </trkpt>
      <trkpt lat="45.63733" lon="6.06159">
        <ele>1432</ele>
        <time>2010-11-28T13:27:28Z</time>
      </trkpt>
      <trkpt lat="45.63734" lon="6.0616">
        <ele>1432</ele>
        <time>2010-11-28T13:27:30Z</time>
      </trkpt>
      <trkpt lat="45.63733" lon="6.06158">
        <ele>1431</ele>
        <time>2010-11-28T13:27:33Z</time>
      </trkpt>
      <trkpt lat="45.63735" lon="6.0616">
        <ele>1431</ele>
        <time>2010-11-28T13:27:36Z</time>
      </trkpt>
      <trkpt lat="45.63735" lon="6.06162">
        <ele>1431</ele>
        <time>2010-11-28T13:27:39Z</time>
      </trkpt>
      <trkpt lat="45.63735" lon="6.0616">
        <ele>1431</ele>
        <time>2010-11-28T13:27:42Z</time>
      </trkpt>
      <trkpt lat="45.63734" lon="6.06158">
        <ele>1431</ele>
        <time>2010-11-28T13:27:56Z</time>
      </trkpt>
      <trkpt lat="45.63733" lon="6.06156">
        <ele>1431</ele>
        <time>2010-11-28T13:27:59Z</time>
      </trkpt>
      <trkpt lat="45.63733" lon="6.06154">
        <ele>1431</ele>
        <time>2010-11-28T13:28:02Z</time>
      </trkpt>
      <trkpt lat="45.63732" lon="6.06153">
        <ele>1431</ele>
        <time>2010-11-28T13:28:04Z</time>
      </trkpt>
      <trkpt lat="45.63729" lon="6.06152">
        <ele>1431</ele>
        <time>2010-11-28T13:28:06Z</time>
      </trkpt>
      <trkpt lat="45.63728" lon="6.06153">
        <ele>1431</ele>
        <time>2010-11-28T13:28:08Z</time>
      </trkpt>
      <trkpt lat="45.63726" lon="6.06153">
        <ele>1431</ele>
        <time>2010-11-28T13:28:12Z</time>
      </trkpt>
      <trkpt lat="45.63725" lon="6.06151">
        <ele>1431</ele>
        <time>2010-11-28T13:28:15Z</time>
      </trkpt>
      <trkpt lat="45.63723" lon="6.0615">
        <ele>1431</ele>
        <time>2010-11-28T13:28:17Z</time>
      </trkpt>
      <trkpt lat="45.63721" lon="6.06148">
        <ele>1431</ele>
        <time>2010-11-28T13:28:19Z</time>
      </trkpt>
      <trkpt lat="45.63719" lon="6.06146">
        <ele>1431</ele>
        <time>2010-11-28T13:28:21Z</time>
      </trkpt>
      <trkpt lat="45.63718" lon="6.06146">
        <ele>1431</ele>
        <time>2010-11-28T13:28:23Z</time>
      </trkpt>
      <trkpt lat="45.63719" lon="6.06144">
        <ele>1428</ele>
        <time>2010-11-28T13:28:35Z</time>
      </trkpt>
      <trkpt lat="45.6372" lon="6.06143">
        <ele>1427</ele>
        <time>2010-11-28T13:28:37Z</time>
      </trkpt>
      <trkpt lat="45.63719" lon="6.06141">
        <ele>1427</ele>
        <time>2010-11-28T13:28:40Z</time>
      </trkpt>
      <trkpt lat="45.63718" lon="6.06139">
        <ele>1427</ele>
        <time>2010-11-28T13:28:44Z</time>
      </trkpt>
      <trkpt lat="45.63716" lon="6.06138">
        <ele>1427</ele>
        <time>2010-11-28T13:28:46Z</time>
      </trkpt>
      <trkpt lat="45.63715" lon="6.06137">
        <ele>1427</ele>
        <time>2010-11-28T13:28:50Z</time>
      </trkpt>
      <trkpt lat="45.63715" lon="6.06139">
        <ele>1427</ele>
        <time>2010-11-28T13:28:52Z</time>
      </trkpt>
      <trkpt lat="45.63712" lon="6.0614">
        <ele>1430</ele>
        <time>2010-11-28T13:28:55Z</time>
      </trkpt>
      <trkpt lat="45.63711" lon="6.06141">
        <ele>1431</ele>
        <time>2010-11-28T13:28:58Z</time>
      </trkpt>
      <trkpt lat="45.6371" lon="6.06143">
        <ele>1431</ele>
        <time>2010-11-28T13:29:02Z</time>
      </trkpt>
      <trkpt lat="45.6371" lon="6.06141">
        <ele>1432</ele>
        <time>2010-11-28T13:29:05Z</time>
      </trkpt>
      <trkpt lat="45.63711" lon="6.0614">
        <ele>1432</ele>
        <time>2010-11-28T13:29:07Z</time>
      </trkpt>
      <trkpt lat="45.63711" lon="6.06138">
        <ele>1432</ele>
        <time>2010-11-28T13:29:09Z</time>
      </trkpt>
      <trkpt lat="45.63713" lon="6.06136">
        <ele>1432</ele>
        <time>2010-11-28T13:29:12Z</time>
      </trkpt>
      <trkpt lat="45.63713" lon="6.06134">
        <ele>1432</ele>
        <time>2010-11-28T13:29:14Z</time>
      </trkpt>
      <trkpt lat="45.63715" lon="6.06133">
        <ele>1433</ele>
        <time>2010-11-28T13:29:17Z</time>
      </trkpt>
      <trkpt lat="45.63714" lon="6.06131">
        <ele>1433</ele>
        <time>2010-11-28T13:29:19Z</time>
      </trkpt>
      <trkpt lat="45.63715" lon="6.0613">
        <ele>1434</ele>
        <time>2010-11-28T13:29:21Z</time>
      </trkpt>
      <trkpt lat="45.63713" lon="6.06128">
        <ele>1435</ele>
        <time>2010-11-28T13:29:24Z</time>
      </trkpt>
      <trkpt lat="45.63712" lon="6.06126">
        <ele>1436</ele>
        <time>2010-11-28T13:29:26Z</time>
      </trkpt>
      <trkpt lat="45.63711" lon="6.06124">
        <ele>1436</ele>
        <time>2010-11-28T13:29:28Z</time>
      </trkpt>
      <trkpt lat="45.6371" lon="6.06122">
        <ele>1436</ele>
        <time>2010-11-28T13:29:30Z</time>
      </trkpt>
      <trkpt lat="45.6371" lon="6.0612">
        <ele>1436</ele>
        <time>2010-11-28T13:29:35Z</time>
      </trkpt>
      <trkpt lat="45.6371" lon="6.06118">
        <ele>1436</ele>
        <time>2010-11-28T13:29:37Z</time>
      </trkpt>
      <trkpt lat="45.6371" lon="6.06116">
        <ele>1436</ele>
        <time>2010-11-28T13:29:39Z</time>
      </trkpt>
      <trkpt lat="45.63709" lon="6.06114">
        <ele>1436</ele>
        <time>2010-11-28T13:29:41Z</time>
      </trkpt>
      <trkpt lat="45.63708" lon="6.06112">
        <ele>1436</ele>
        <time>2010-11-28T13:29:44Z</time>
      </trkpt>
      <trkpt lat="45.63707" lon="6.0611">
        <ele>1436</ele>
        <time>2010-11-28T13:29:46Z</time>
      </trkpt>
      <trkpt lat="45.63707" lon="6.06108">
        <ele>1436</ele>
        <time>2010-11-28T13:29:48Z</time>
      </trkpt>
      <trkpt lat="45.63707" lon="6.06106">
        <ele>1436</ele>
        <time>2010-11-28T13:29:50Z</time>
      </trkpt>
      <trkpt lat="45.63707" lon="6.06103">
        <ele>1436</ele>
        <time>2010-11-28T13:29:53Z</time>
      </trkpt>
      <trkpt lat="45.63707" lon="6.061">
        <ele>1436</ele>
        <time>2010-11-28T13:29:55Z</time>
      </trkpt>
      <trkpt lat="45.63706" lon="6.06098">
        <ele>1436</ele>
        <time>2010-11-28T13:29:58Z</time>
      </trkpt>
      <trkpt lat="45.63706" lon="6.06097">
        <ele>1436</ele>
        <time>2010-11-28T13:30:01Z</time>
      </trkpt>
      <trkpt lat="45.63707" lon="6.06095">
        <ele>1436</ele>
        <time>2010-11-28T13:30:05Z</time>
      </trkpt>
      <trkpt lat="45.63706" lon="6.06093">
        <ele>1436</ele>
        <time>2010-11-28T13:30:08Z</time>
      </trkpt>
      <trkpt lat="45.63705" lon="6.06092">
        <ele>1436</ele>
        <time>2010-11-28T13:30:11Z</time>
      </trkpt>
      <trkpt lat="45.63705" lon="6.0609">
        <ele>1436</ele>
        <time>2010-11-28T13:30:13Z</time>
      </trkpt>
      <trkpt lat="45.63704" lon="6.06088">
        <ele>1436</ele>
        <time>2010-11-28T13:30:15Z</time>
      </trkpt>
      <trkpt lat="45.63704" lon="6.06086">
        <ele>1436</ele>
        <time>2010-11-28T13:30:17Z</time>
      </trkpt>
      <trkpt lat="45.63704" lon="6.06084">
        <ele>1436</ele>
        <time>2010-11-28T13:30:19Z</time>
      </trkpt>
      <trkpt lat="45.63704" lon="6.06083">
        <ele>1436</ele>
        <time>2010-11-28T13:30:22Z</time>
      </trkpt>
      <trkpt lat="45.63703" lon="6.0608">
        <ele>1436</ele>
        <time>2010-11-28T13:30:24Z</time>
      </trkpt>
      <trkpt lat="45.63702" lon="6.06079">
        <ele>1436</ele>
        <time>2010-11-28T13:30:28Z</time>
      </trkpt>
      <trkpt lat="45.637" lon="6.06076">
        <ele>1436</ele>
        <time>2010-11-28T13:30:31Z</time>
      </trkpt>
      <trkpt lat="45.637" lon="6.06075">
        <ele>1436</ele>
        <time>2010-11-28T13:30:33Z</time>
      </trkpt>
      <trkpt lat="45.637" lon="6.06073">
        <ele>1436</ele>
        <time>2010-11-28T13:30:36Z</time>
      </trkpt>
      <trkpt lat="45.637" lon="6.06071">
        <ele>1436</ele>
        <time>2010-11-28T13:30:38Z</time>
      </trkpt>
      <trkpt lat="45.637" lon="6.06069">
        <ele>1437</ele>
        <time>2010-11-28T13:30:40Z</time>
      </trkpt>
      <trkpt lat="45.63699" lon="6.06067">
        <ele>1438</ele>
        <time>2010-11-28T13:30:42Z</time>
      </trkpt>
      <trkpt lat="45.63698" lon="6.06065">
        <ele>1438</ele>
        <time>2010-11-28T13:30:44Z</time>
      </trkpt>
      <trkpt lat="45.63697" lon="6.06064">
        <ele>1438</ele>
        <time>2010-11-28T13:30:46Z</time>
      </trkpt>
      <trkpt lat="45.63698" lon="6.06062">
        <ele>1438</ele>
        <time>2010-11-28T13:30:48Z</time>
      </trkpt>
      <trkpt lat="45.63698" lon="6.06059">
        <ele>1438</ele>
        <time>2010-11-28T13:30:50Z</time>
      </trkpt>
      <trkpt lat="45.63698" lon="6.06057">
        <ele>1438</ele>
        <time>2010-11-28T13:30:52Z</time>
      </trkpt>
      <trkpt lat="45.63698" lon="6.06055">
        <ele>1439</ele>
        <time>2010-11-28T13:30:55Z</time>
      </trkpt>
      <trkpt lat="45.63698" lon="6.06054">
        <ele>1440</ele>
        <time>2010-11-28T13:30:57Z</time>
      </trkpt>
      <trkpt lat="45.63699" lon="6.06052">
        <ele>1440</ele>
        <time>2010-11-28T13:31:01Z</time>
      </trkpt>
      <trkpt lat="45.63699" lon="6.0605">
        <ele>1440</ele>
        <time>2010-11-28T13:31:03Z</time>
      </trkpt>
      <trkpt lat="45.63701" lon="6.06047">
        <ele>1441</ele>
        <time>2010-11-28T13:31:05Z</time>
      </trkpt>
      <trkpt lat="45.637" lon="6.06046">
        <ele>1442</ele>
        <time>2010-11-28T13:31:07Z</time>
      </trkpt>
      <trkpt lat="45.637" lon="6.06044">
        <ele>1443</ele>
        <time>2010-11-28T13:31:09Z</time>
      </trkpt>
      <trkpt lat="45.637" lon="6.06042">
        <ele>1443</ele>
        <time>2010-11-28T13:31:11Z</time>
      </trkpt>
      <trkpt lat="45.637" lon="6.06039">
        <ele>1443</ele>
        <time>2010-11-28T13:31:14Z</time>
      </trkpt>
      <trkpt lat="45.637" lon="6.06036">
        <ele>1443</ele>
        <time>2010-11-28T13:31:16Z</time>
      </trkpt>
      <trkpt lat="45.63698" lon="6.06034">
        <ele>1443</ele>
        <time>2010-11-28T13:31:18Z</time>
      </trkpt>
      <trkpt lat="45.63697" lon="6.06034">
        <ele>1443</ele>
        <time>2010-11-28T13:31:20Z</time>
      </trkpt>
      <trkpt lat="45.63694" lon="6.06036">
        <ele>1443</ele>
        <time>2010-11-28T13:31:22Z</time>
      </trkpt>
      <trkpt lat="45.6369" lon="6.06036">
        <ele>1443</ele>
        <time>2010-11-28T13:31:25Z</time>
      </trkpt>
      <trkpt lat="45.63688" lon="6.06035">
        <ele>1443</ele>
        <time>2010-11-28T13:31:27Z</time>
      </trkpt>
      <trkpt lat="45.63685" lon="6.06032">
        <ele>1443</ele>
        <time>2010-11-28T13:31:30Z</time>
      </trkpt>
      <trkpt lat="45.63683" lon="6.06031">
        <ele>1444</ele>
        <time>2010-11-28T13:31:34Z</time>
      </trkpt>
      <trkpt lat="45.63684" lon="6.06031">
        <ele>1445</ele>
        <time>2010-11-28T13:31:41Z</time>
      </trkpt>
      <trkpt lat="45.63684" lon="6.06029">
        <ele>1445</ele>
        <time>2010-11-28T13:31:43Z</time>
      </trkpt>
      <trkpt lat="45.63684" lon="6.06028">
        <ele>1445</ele>
        <time>2010-11-28T13:31:45Z</time>
      </trkpt>
      <trkpt lat="45.63685" lon="6.06029">
        <ele>1445</ele>
        <time>2010-11-28T13:31:54Z</time>
      </trkpt>
      <trkpt lat="45.63683" lon="6.06029">
        <ele>1447</ele>
        <time>2010-11-28T13:32:02Z</time>
      </trkpt>
      <trkpt lat="45.63685" lon="6.06029">
        <ele>1448</ele>
        <time>2010-11-28T13:32:05Z</time>
      </trkpt>
      <trkpt lat="45.63685" lon="6.06027">
        <ele>1448</ele>
        <time>2010-11-28T13:32:07Z</time>
      </trkpt>
      <trkpt lat="45.63684" lon="6.06025">
        <ele>1448</ele>
        <time>2010-11-28T13:32:10Z</time>
      </trkpt>
      <trkpt lat="45.63683" lon="6.06024">
        <ele>1449</ele>
        <time>2010-11-28T13:32:13Z</time>
      </trkpt>
      <trkpt lat="45.63683" lon="6.06021">
        <ele>1449</ele>
        <time>2010-11-28T13:32:16Z</time>
      </trkpt>
      <trkpt lat="45.63684" lon="6.0602">
        <ele>1449</ele>
        <time>2010-11-28T13:32:18Z</time>
      </trkpt>
      <trkpt lat="45.63683" lon="6.06018">
        <ele>1449</ele>
        <time>2010-11-28T13:32:20Z</time>
      </trkpt>
      <trkpt lat="45.63682" lon="6.06015">
        <ele>1449</ele>
        <time>2010-11-28T13:32:23Z</time>
      </trkpt>
      <trkpt lat="45.63683" lon="6.06014">
        <ele>1449</ele>
        <time>2010-11-28T13:32:25Z</time>
      </trkpt>
      <trkpt lat="45.63685" lon="6.06012">
        <ele>1450</ele>
        <time>2010-11-28T13:32:27Z</time>
      </trkpt>
      <trkpt lat="45.63687" lon="6.0601">
        <ele>1451</ele>
        <time>2010-11-28T13:32:30Z</time>
      </trkpt>
      <trkpt lat="45.63688" lon="6.06008">
        <ele>1452</ele>
        <time>2010-11-28T13:32:32Z</time>
      </trkpt>
      <trkpt lat="45.63688" lon="6.06006">
        <ele>1453</ele>
        <time>2010-11-28T13:32:34Z</time>
      </trkpt>
      <trkpt lat="45.63688" lon="6.06003">
        <ele>1453</ele>
        <time>2010-11-28T13:32:36Z</time>
      </trkpt>
      <trkpt lat="45.63688" lon="6.06001">
        <ele>1454</ele>
        <time>2010-11-28T13:32:38Z</time>
      </trkpt>
      <trkpt lat="45.63687" lon="6.05998">
        <ele>1454</ele>
        <time>2010-11-28T13:32:40Z</time>
      </trkpt>
      <trkpt lat="45.63686" lon="6.05997">
        <ele>1454</ele>
        <time>2010-11-28T13:32:42Z</time>
      </trkpt>
      <trkpt lat="45.63685" lon="6.05995">
        <ele>1454</ele>
        <time>2010-11-28T13:32:44Z</time>
      </trkpt>
      <trkpt lat="45.63686" lon="6.05993">
        <ele>1454</ele>
        <time>2010-11-28T13:32:46Z</time>
      </trkpt>
      <trkpt lat="45.63684" lon="6.05991">
        <ele>1454</ele>
        <time>2010-11-28T13:32:48Z</time>
      </trkpt>
      <trkpt lat="45.63682" lon="6.0599">
        <ele>1454</ele>
        <time>2010-11-28T13:32:50Z</time>
      </trkpt>
      <trkpt lat="45.6368" lon="6.05989">
        <ele>1454</ele>
        <time>2010-11-28T13:32:52Z</time>
      </trkpt>
      <trkpt lat="45.63679" lon="6.05989">
        <ele>1454</ele>
        <time>2010-11-28T13:32:54Z</time>
      </trkpt>
      <trkpt lat="45.63678" lon="6.05989">
        <ele>1454</ele>
        <time>2010-11-28T13:33:03Z</time>
      </trkpt>
      <trkpt lat="45.63676" lon="6.05989">
        <ele>1454</ele>
        <time>2010-11-28T13:33:06Z</time>
      </trkpt>
      <trkpt lat="45.63677" lon="6.05987">
        <ele>1454</ele>
        <time>2010-11-28T13:33:09Z</time>
      </trkpt>
      <trkpt lat="45.63678" lon="6.05987">
        <ele>1454</ele>
        <time>2010-11-28T13:33:13Z</time>
      </trkpt>
      <trkpt lat="45.63676" lon="6.05985">
        <ele>1454</ele>
        <time>2010-11-28T13:33:22Z</time>
      </trkpt>
      <trkpt lat="45.63674" lon="6.05983">
        <ele>1454</ele>
        <time>2010-11-28T13:33:24Z</time>
      </trkpt>
      <trkpt lat="45.63673" lon="6.05981">
        <ele>1454</ele>
        <time>2010-11-28T13:33:26Z</time>
      </trkpt>
      <trkpt lat="45.63671" lon="6.0598">
        <ele>1454</ele>
        <time>2010-11-28T13:33:28Z</time>
      </trkpt>
      <trkpt lat="45.6367" lon="6.05978">
        <ele>1454</ele>
        <time>2010-11-28T13:33:30Z</time>
      </trkpt>
      <trkpt lat="45.6367" lon="6.05976">
        <ele>1454</ele>
        <time>2010-11-28T13:33:32Z</time>
      </trkpt>
      <trkpt lat="45.6367" lon="6.05975">
        <ele>1454</ele>
        <time>2010-11-28T13:33:34Z</time>
      </trkpt>
      <trkpt lat="45.63672" lon="6.05973">
        <ele>1454</ele>
        <time>2010-11-28T13:33:36Z</time>
      </trkpt>
      <trkpt lat="45.63673" lon="6.05969">
        <ele>1454</ele>
        <time>2010-11-28T13:33:38Z</time>
      </trkpt>
      <trkpt lat="45.63673" lon="6.05967">
        <ele>1454</ele>
        <time>2010-11-28T13:33:40Z</time>
      </trkpt>
      <trkpt lat="45.63674" lon="6.05966">
        <ele>1454</ele>
        <time>2010-11-28T13:33:43Z</time>
      </trkpt>
      <trkpt lat="45.63673" lon="6.05965">
        <ele>1454</ele>
        <time>2010-11-28T13:33:45Z</time>
      </trkpt>
      <trkpt lat="45.63672" lon="6.05963">
        <ele>1454</ele>
        <time>2010-11-28T13:34:00Z</time>
      </trkpt>
      <trkpt lat="45.63672" lon="6.05962">
        <ele>1455</ele>
        <time>2010-11-28T13:34:02Z</time>
      </trkpt>
      <trkpt lat="45.63672" lon="6.0596">
        <ele>1455</ele>
        <time>2010-11-28T13:34:04Z</time>
      </trkpt>
      <trkpt lat="45.63671" lon="6.05958">
        <ele>1455</ele>
        <time>2010-11-28T13:34:06Z</time>
      </trkpt>
      <trkpt lat="45.63673" lon="6.05956">
        <ele>1455</ele>
        <time>2010-11-28T13:34:10Z</time>
      </trkpt>
      <trkpt lat="45.63673" lon="6.05955">
        <ele>1455</ele>
        <time>2010-11-28T13:34:13Z</time>
      </trkpt>
      <trkpt lat="45.63674" lon="6.05953">
        <ele>1455</ele>
        <time>2010-11-28T13:34:15Z</time>
      </trkpt>
      <trkpt lat="45.63675" lon="6.05952">
        <ele>1455</ele>
        <time>2010-11-28T13:34:17Z</time>
      </trkpt>
      <trkpt lat="45.63675" lon="6.0595">
        <ele>1456</ele>
        <time>2010-11-28T13:34:22Z</time>
      </trkpt>
      <trkpt lat="45.63674" lon="6.05949">
        <ele>1456</ele>
        <time>2010-11-28T13:34:31Z</time>
      </trkpt>
      <trkpt lat="45.63673" lon="6.05946">
        <ele>1456</ele>
        <time>2010-11-28T13:34:39Z</time>
      </trkpt>
      <trkpt lat="45.63671" lon="6.05944">
        <ele>1458</ele>
        <time>2010-11-28T13:34:47Z</time>
      </trkpt>
      <trkpt lat="45.63673" lon="6.05946">
        <ele>1462</ele>
        <time>2010-11-28T13:35:00Z</time>
      </trkpt>
      <trkpt lat="45.63673" lon="6.05948">
        <ele>1462</ele>
        <time>2010-11-28T13:35:05Z</time>
      </trkpt>
      <trkpt lat="45.63673" lon="6.05946">
        <ele>1461</ele>
        <time>2010-11-28T13:35:10Z</time>
      </trkpt>
      <trkpt lat="45.63672" lon="6.05944">
        <ele>1461</ele>
        <time>2010-11-28T13:35:12Z</time>
      </trkpt>
      <trkpt lat="45.63671" lon="6.05943">
        <ele>1461</ele>
        <time>2010-11-28T13:35:17Z</time>
      </trkpt>
      <trkpt lat="45.63673" lon="6.05943">
        <ele>1461</ele>
        <time>2010-11-28T13:35:19Z</time>
      </trkpt>
      <trkpt lat="45.63676" lon="6.05945">
        <ele>1461</ele>
        <time>2010-11-28T13:35:21Z</time>
      </trkpt>
      <trkpt lat="45.63678" lon="6.05945">
        <ele>1461</ele>
        <time>2010-11-28T13:35:25Z</time>
      </trkpt>
      <trkpt lat="45.63676" lon="6.05943">
        <ele>1461</ele>
        <time>2010-11-28T13:35:34Z</time>
      </trkpt>
      <trkpt lat="45.63678" lon="6.05943">
        <ele>1465</ele>
        <time>2010-11-28T13:35:41Z</time>
      </trkpt>
      <trkpt lat="45.63677" lon="6.05941">
        <ele>1473</ele>
        <time>2010-11-28T13:35:50Z</time>
      </trkpt>
      <trkpt lat="45.63677" lon="6.05943">
        <ele>1473</ele>
        <time>2010-11-28T13:35:54Z</time>
      </trkpt>
      <trkpt lat="45.63679" lon="6.05944">
        <ele>1473</ele>
        <time>2010-11-28T13:35:57Z</time>
      </trkpt>
      <trkpt lat="45.63678" lon="6.05945">
        <ele>1471</ele>
        <time>2010-11-28T13:36:03Z</time>
      </trkpt>
      <trkpt lat="45.6368" lon="6.05944">
        <ele>1469</ele>
        <time>2010-11-28T13:36:11Z</time>
      </trkpt>
      <trkpt lat="45.63676" lon="6.05946">
        <ele>1468</ele>
        <time>2010-11-28T13:36:15Z</time>
      </trkpt>
      <trkpt lat="45.63675" lon="6.05946">
        <ele>1467</ele>
        <time>2010-11-28T13:36:17Z</time>
      </trkpt>
      <trkpt lat="45.63674" lon="6.05945">
        <ele>1467</ele>
        <time>2010-11-28T13:36:19Z</time>
      </trkpt>
      <trkpt lat="45.63672" lon="6.05944">
        <ele>1467</ele>
        <time>2010-11-28T13:36:23Z</time>
      </trkpt>
      <trkpt lat="45.6367" lon="6.05946">
        <ele>1467</ele>
        <time>2010-11-28T13:36:25Z</time>
      </trkpt>
      <trkpt lat="45.63672" lon="6.05947">
        <ele>1467</ele>
        <time>2010-11-28T13:36:28Z</time>
      </trkpt>
      <trkpt lat="45.63673" lon="6.05948">
        <ele>1466</ele>
        <time>2010-11-28T13:36:36Z</time>
      </trkpt>
      <trkpt lat="45.63674" lon="6.0595">
        <ele>1466</ele>
        <time>2010-11-28T13:36:38Z</time>
      </trkpt>
      <trkpt lat="45.63673" lon="6.0595">
        <ele>1466</ele>
        <time>2010-11-28T13:36:41Z</time>
      </trkpt>
      <trkpt lat="45.63674" lon="6.0595">
        <ele>1466</ele>
        <time>2010-11-28T13:36:48Z</time>
      </trkpt>
      <trkpt lat="45.63676" lon="6.0595">
        <ele>1466</ele>
        <time>2010-11-28T13:36:51Z</time>
      </trkpt>
      <trkpt lat="45.63677" lon="6.05948">
        <ele>1466</ele>
        <time>2010-11-28T13:36:54Z</time>
      </trkpt>
      <trkpt lat="45.63678" lon="6.05947">
        <ele>1466</ele>
        <time>2010-11-28T13:36:58Z</time>
      </trkpt>
      <trkpt lat="45.63679" lon="6.05945">
        <ele>1466</ele>
        <time>2010-11-28T13:37:00Z</time>
      </trkpt>
      <trkpt lat="45.6368" lon="6.05943">
        <ele>1466</ele>
        <time>2010-11-28T13:37:02Z</time>
      </trkpt>
      <trkpt lat="45.63681" lon="6.05941">
        <ele>1466</ele>
        <time>2010-11-28T13:37:04Z</time>
      </trkpt>
      <trkpt lat="45.63683" lon="6.05939">
        <ele>1466</ele>
        <time>2010-11-28T13:37:06Z</time>
      </trkpt>
      <trkpt lat="45.63683" lon="6.05937">
        <ele>1466</ele>
        <time>2010-11-28T13:37:08Z</time>
      </trkpt>
      <trkpt lat="45.63683" lon="6.05935">
        <ele>1466</ele>
        <time>2010-11-28T13:37:10Z</time>
      </trkpt>
      <trkpt lat="45.63683" lon="6.05934">
        <ele>1466</ele>
        <time>2010-11-28T13:37:12Z</time>
      </trkpt>
      <trkpt lat="45.63684" lon="6.05931">
        <ele>1466</ele>
        <time>2010-11-28T13:37:14Z</time>
      </trkpt>
      <trkpt lat="45.63684" lon="6.05929">
        <ele>1466</ele>
        <time>2010-11-28T13:37:16Z</time>
      </trkpt>
      <trkpt lat="45.63682" lon="6.05925">
        <ele>1466</ele>
        <time>2010-11-28T13:37:19Z</time>
      </trkpt>
      <trkpt lat="45.63679" lon="6.05924">
        <ele>1466</ele>
        <time>2010-11-28T13:37:22Z</time>
      </trkpt>
      <trkpt lat="45.63676" lon="6.05922">
        <ele>1466</ele>
        <time>2010-11-28T13:37:25Z</time>
      </trkpt>
      <trkpt lat="45.63677" lon="6.05921">
        <ele>1466</ele>
        <time>2010-11-28T13:37:28Z</time>
      </trkpt>
      <trkpt lat="45.63675" lon="6.05919">
        <ele>1466</ele>
        <time>2010-11-28T13:37:31Z</time>
      </trkpt>
      <trkpt lat="45.63676" lon="6.05917">
        <ele>1466</ele>
        <time>2010-11-28T13:37:34Z</time>
      </trkpt>
      <trkpt lat="45.63678" lon="6.05916">
        <ele>1466</ele>
        <time>2010-11-28T13:37:49Z</time>
      </trkpt>
      <trkpt lat="45.63679" lon="6.05915">
        <ele>1466</ele>
        <time>2010-11-28T13:37:51Z</time>
      </trkpt>
      <trkpt lat="45.6368" lon="6.05913">
        <ele>1466</ele>
        <time>2010-11-28T13:37:54Z</time>
      </trkpt>
      <trkpt lat="45.63678" lon="6.05912">
        <ele>1466</ele>
        <time>2010-11-28T13:37:56Z</time>
      </trkpt>
      <trkpt lat="45.63676" lon="6.05912">
        <ele>1466</ele>
        <time>2010-11-28T13:37:58Z</time>
      </trkpt>
      <trkpt lat="45.63673" lon="6.05911">
        <ele>1466</ele>
        <time>2010-11-28T13:38:00Z</time>
      </trkpt>
      <trkpt lat="45.63672" lon="6.05909">
        <ele>1466</ele>
        <time>2010-11-28T13:38:02Z</time>
      </trkpt>
      <trkpt lat="45.6367" lon="6.05907">
        <ele>1466</ele>
        <time>2010-11-28T13:38:05Z</time>
      </trkpt>
      <trkpt lat="45.63669" lon="6.05906">
        <ele>1466</ele>
        <time>2010-11-28T13:38:07Z</time>
      </trkpt>
      <trkpt lat="45.63667" lon="6.05906">
        <ele>1466</ele>
        <time>2010-11-28T13:38:10Z</time>
      </trkpt>
      <trkpt lat="45.63666" lon="6.05907">
        <ele>1466</ele>
        <time>2010-11-28T13:38:12Z</time>
      </trkpt>
      <trkpt lat="45.63665" lon="6.05907">
        <ele>1466</ele>
        <time>2010-11-28T13:38:14Z</time>
      </trkpt>
      <trkpt lat="45.63663" lon="6.05905">
        <ele>1466</ele>
        <time>2010-11-28T13:38:16Z</time>
      </trkpt>
      <trkpt lat="45.63663" lon="6.05903">
        <ele>1466</ele>
        <time>2010-11-28T13:38:21Z</time>
      </trkpt>
      <trkpt lat="45.63662" lon="6.05901">
        <ele>1466</ele>
        <time>2010-11-28T13:38:23Z</time>
      </trkpt>
      <trkpt lat="45.63661" lon="6.05899">
        <ele>1466</ele>
        <time>2010-11-28T13:38:26Z</time>
      </trkpt>
      <trkpt lat="45.6366" lon="6.05898">
        <ele>1466</ele>
        <time>2010-11-28T13:38:28Z</time>
      </trkpt>
      <trkpt lat="45.63658" lon="6.05896">
        <ele>1466</ele>
        <time>2010-11-28T13:38:32Z</time>
      </trkpt>
      <trkpt lat="45.63657" lon="6.05894">
        <ele>1466</ele>
        <time>2010-11-28T13:38:34Z</time>
      </trkpt>
      <trkpt lat="45.63655" lon="6.05894">
        <ele>1466</ele>
        <time>2010-11-28T13:38:36Z</time>
      </trkpt>
      <trkpt lat="45.63655" lon="6.05892">
        <ele>1466</ele>
        <time>2010-11-28T13:38:38Z</time>
      </trkpt>
      <trkpt lat="45.63653" lon="6.0589">
        <ele>1466</ele>
        <time>2010-11-28T13:38:40Z</time>
      </trkpt>
      <trkpt lat="45.63652" lon="6.05888">
        <ele>1466</ele>
        <time>2010-11-28T13:38:43Z</time>
      </trkpt>
      <trkpt lat="45.63651" lon="6.05887">
        <ele>1466</ele>
        <time>2010-11-28T13:38:45Z</time>
      </trkpt>
      <trkpt lat="45.63649" lon="6.05885">
        <ele>1466</ele>
        <time>2010-11-28T13:38:47Z</time>
      </trkpt>
      <trkpt lat="45.63647" lon="6.05886">
        <ele>1466</ele>
        <time>2010-11-28T13:38:50Z</time>
      </trkpt>
      <trkpt lat="45.63645" lon="6.05885">
        <ele>1466</ele>
        <time>2010-11-28T13:38:52Z</time>
      </trkpt>
      <trkpt lat="45.63644" lon="6.05885">
        <ele>1466</ele>
        <time>2010-11-28T13:38:54Z</time>
      </trkpt>
      <trkpt lat="45.63641" lon="6.05883">
        <ele>1465</ele>
        <time>2010-11-28T13:38:56Z</time>
      </trkpt>
      <trkpt lat="45.63639" lon="6.05882">
        <ele>1465</ele>
        <time>2010-11-28T13:38:58Z</time>
      </trkpt>
      <trkpt lat="45.63636" lon="6.05884">
        <ele>1465</ele>
        <time>2010-11-28T13:39:01Z</time>
      </trkpt>
      <trkpt lat="45.63634" lon="6.05884">
        <ele>1465</ele>
        <time>2010-11-28T13:39:04Z</time>
      </trkpt>
      <trkpt lat="45.63633" lon="6.05884">
        <ele>1465</ele>
        <time>2010-11-28T13:39:06Z</time>
      </trkpt>
      <trkpt lat="45.63631" lon="6.05885">
        <ele>1465</ele>
        <time>2010-11-28T13:39:08Z</time>
      </trkpt>
      <trkpt lat="45.6363" lon="6.05886">
        <ele>1465</ele>
        <time>2010-11-28T13:39:10Z</time>
      </trkpt>
      <trkpt lat="45.63627" lon="6.05887">
        <ele>1465</ele>
        <time>2010-11-28T13:39:14Z</time>
      </trkpt>
      <trkpt lat="45.63626" lon="6.05886">
        <ele>1465</ele>
        <time>2010-11-28T13:39:16Z</time>
      </trkpt>
      <trkpt lat="45.63625" lon="6.05884">
        <ele>1465</ele>
        <time>2010-11-28T13:39:19Z</time>
      </trkpt>
      <trkpt lat="45.63625" lon="6.05882">
        <ele>1465</ele>
        <time>2010-11-28T13:39:21Z</time>
      </trkpt>
      <trkpt lat="45.63626" lon="6.05882">
        <ele>1466</ele>
        <time>2010-11-28T13:39:24Z</time>
      </trkpt>
      <trkpt lat="45.63625" lon="6.05879">
        <ele>1467</ele>
        <time>2010-11-28T13:39:26Z</time>
      </trkpt>
      <trkpt lat="45.63623" lon="6.05877">
        <ele>1467</ele>
        <time>2010-11-28T13:39:28Z</time>
      </trkpt>
      <trkpt lat="45.63621" lon="6.05876">
        <ele>1467</ele>
        <time>2010-11-28T13:39:30Z</time>
      </trkpt>
      <trkpt lat="45.63619" lon="6.05877">
        <ele>1467</ele>
        <time>2010-11-28T13:39:32Z</time>
      </trkpt>
      <trkpt lat="45.6362" lon="6.05875">
        <ele>1467</ele>
        <time>2010-11-28T13:39:35Z</time>
      </trkpt>
      <trkpt lat="45.63619" lon="6.05873">
        <ele>1467</ele>
        <time>2010-11-28T13:39:47Z</time>
      </trkpt>
      <trkpt lat="45.63618" lon="6.05873">
        <ele>1467</ele>
        <time>2010-11-28T13:39:50Z</time>
      </trkpt>
      <trkpt lat="45.63616" lon="6.05874">
        <ele>1469</ele>
        <time>2010-11-28T13:39:57Z</time>
      </trkpt>
      <trkpt lat="45.63615" lon="6.05875">
        <ele>1469</ele>
        <time>2010-11-28T13:39:59Z</time>
      </trkpt>
      <trkpt lat="45.63614" lon="6.05874">
        <ele>1470</ele>
        <time>2010-11-28T13:40:01Z</time>
      </trkpt>
      <trkpt lat="45.6361" lon="6.05875">
        <ele>1472</ele>
        <time>2010-11-28T13:40:03Z</time>
      </trkpt>
      <trkpt lat="45.63609" lon="6.05874">
        <ele>1473</ele>
        <time>2010-11-28T13:40:05Z</time>
      </trkpt>
      <trkpt lat="45.63609" lon="6.05873">
        <ele>1474</ele>
        <time>2010-11-28T13:40:09Z</time>
      </trkpt>
      <trkpt lat="45.63607" lon="6.05872">
        <ele>1475</ele>
        <time>2010-11-28T13:40:14Z</time>
      </trkpt>
      <trkpt lat="45.63606" lon="6.0587">
        <ele>1475</ele>
        <time>2010-11-28T13:40:23Z</time>
      </trkpt>
      <trkpt lat="45.63607" lon="6.05872">
        <ele>1475</ele>
        <time>2010-11-28T13:40:29Z</time>
      </trkpt>
      <trkpt lat="45.63606" lon="6.0587">
        <ele>1475</ele>
        <time>2010-11-28T13:40:32Z</time>
      </trkpt>
      <trkpt lat="45.63605" lon="6.05868">
        <ele>1475</ele>
        <time>2010-11-28T13:40:34Z</time>
      </trkpt>
      <trkpt lat="45.63603" lon="6.05864">
        <ele>1475</ele>
        <time>2010-11-28T13:40:37Z</time>
      </trkpt>
      <trkpt lat="45.63601" lon="6.05862">
        <ele>1475</ele>
        <time>2010-11-28T13:40:40Z</time>
      </trkpt>
      <trkpt lat="45.636" lon="6.05863">
        <ele>1475</ele>
        <time>2010-11-28T13:40:44Z</time>
      </trkpt>
      <trkpt lat="45.63601" lon="6.05863">
        <ele>1475</ele>
        <time>2010-11-28T13:40:54Z</time>
      </trkpt>
      <trkpt lat="45.63599" lon="6.05862">
        <ele>1475</ele>
        <time>2010-11-28T13:41:09Z</time>
      </trkpt>
      <trkpt lat="45.636" lon="6.05861">
        <ele>1475</ele>
        <time>2010-11-28T13:41:11Z</time>
      </trkpt>
      <trkpt lat="45.63601" lon="6.05862">
        <ele>1475</ele>
        <time>2010-11-28T13:41:20Z</time>
      </trkpt>
      <trkpt lat="45.63602" lon="6.05862">
        <ele>1475</ele>
        <time>2010-11-28T13:41:25Z</time>
      </trkpt>
      <trkpt lat="45.63601" lon="6.05863">
        <ele>1475</ele>
        <time>2010-11-28T13:41:34Z</time>
      </trkpt>
      <trkpt lat="45.63602" lon="6.05863">
        <ele>1475</ele>
        <time>2010-11-28T13:41:36Z</time>
      </trkpt>
      <trkpt lat="45.63602" lon="6.05864">
        <ele>1475</ele>
        <time>2010-11-28T13:41:38Z</time>
      </trkpt>
      <trkpt lat="45.636" lon="6.05863">
        <ele>1475</ele>
        <time>2010-11-28T13:41:41Z</time>
      </trkpt>
      <trkpt lat="45.63599" lon="6.05861">
        <ele>1470</ele>
        <time>2010-11-28T13:41:56Z</time>
      </trkpt>
      <trkpt lat="45.63599" lon="6.0586">
        <ele>1470</ele>
        <time>2010-11-28T13:41:59Z</time>
      </trkpt>
      <trkpt lat="45.63599" lon="6.05858">
        <ele>1473</ele>
        <time>2010-11-28T13:42:05Z</time>
      </trkpt>
      <trkpt lat="45.636" lon="6.05857">
        <ele>1476</ele>
        <time>2010-11-28T13:42:13Z</time>
      </trkpt>
      <trkpt lat="45.636" lon="6.05855">
        <ele>1477</ele>
        <time>2010-11-28T13:42:18Z</time>
      </trkpt>
      <trkpt lat="45.63599" lon="6.05854">
        <ele>1479</ele>
        <time>2010-11-28T13:42:26Z</time>
      </trkpt>
      <trkpt lat="45.63597" lon="6.05854">
        <ele>1480</ele>
        <time>2010-11-28T13:42:33Z</time>
      </trkpt>
      <trkpt lat="45.63596" lon="6.05856">
        <ele>1480</ele>
        <time>2010-11-28T13:42:44Z</time>
      </trkpt>
      <trkpt lat="45.63596" lon="6.05858">
        <ele>1480</ele>
        <time>2010-11-28T13:42:55Z</time>
      </trkpt>
      <trkpt lat="45.63594" lon="6.05858">
        <ele>1480</ele>
        <time>2010-11-28T13:43:13Z</time>
      </trkpt>
      <trkpt lat="45.63594" lon="6.0586">
        <ele>1481</ele>
        <time>2010-11-28T13:43:26Z</time>
      </trkpt>
      <trkpt lat="45.63595" lon="6.05861">
        <ele>1481</ele>
        <time>2010-11-28T13:43:28Z</time>
      </trkpt>
      <trkpt lat="45.63596" lon="6.05863">
        <ele>1481</ele>
        <time>2010-11-28T13:43:33Z</time>
      </trkpt>
      <trkpt lat="45.63598" lon="6.05864">
        <ele>1481</ele>
        <time>2010-11-28T13:43:35Z</time>
      </trkpt>
      <trkpt lat="45.636" lon="6.05866">
        <ele>1481</ele>
        <time>2010-11-28T13:43:39Z</time>
      </trkpt>
      <trkpt lat="45.63602" lon="6.05869">
        <ele>1481</ele>
        <time>2010-11-28T13:43:42Z</time>
      </trkpt>
      <trkpt lat="45.63603" lon="6.05871">
        <ele>1481</ele>
        <time>2010-11-28T13:43:45Z</time>
      </trkpt>
      <trkpt lat="45.63604" lon="6.05873">
        <ele>1480</ele>
        <time>2010-11-28T13:43:48Z</time>
      </trkpt>
      <trkpt lat="45.63603" lon="6.05875">
        <ele>1479</ele>
        <time>2010-11-28T13:43:51Z</time>
      </trkpt>
      <trkpt lat="45.63606" lon="6.05875">
        <ele>1477</ele>
        <time>2010-11-28T13:43:53Z</time>
      </trkpt>
      <trkpt lat="45.63607" lon="6.05873">
        <ele>1475</ele>
        <time>2010-11-28T13:43:56Z</time>
      </trkpt>
      <trkpt lat="45.6361" lon="6.05866">
        <ele>1473</ele>
        <time>2010-11-28T13:43:59Z</time>
      </trkpt>
      <trkpt lat="45.63612" lon="6.05862">
        <ele>1472</ele>
        <time>2010-11-28T13:44:01Z</time>
      </trkpt>
      <trkpt lat="45.63613" lon="6.05859">
        <ele>1471</ele>
        <time>2010-11-28T13:44:03Z</time>
      </trkpt>
      <trkpt lat="45.63613" lon="6.05856">
        <ele>1469</ele>
        <time>2010-11-28T13:44:08Z</time>
      </trkpt>
      <trkpt lat="45.63612" lon="6.05854">
        <ele>1469</ele>
        <time>2010-11-28T13:44:11Z</time>
      </trkpt>
      <trkpt lat="45.63612" lon="6.0585">
        <ele>1468</ele>
        <time>2010-11-28T13:44:15Z</time>
      </trkpt>
      <trkpt lat="45.63611" lon="6.05851">
        <ele>1468</ele>
        <time>2010-11-28T13:44:18Z</time>
      </trkpt>
      <trkpt lat="45.63611" lon="6.05849">
        <ele>1468</ele>
        <time>2010-11-28T13:44:21Z</time>
      </trkpt>
      <trkpt lat="45.6361" lon="6.05848">
        <ele>1468</ele>
        <time>2010-11-28T13:44:25Z</time>
      </trkpt>
      <trkpt lat="45.63608" lon="6.05848">
        <ele>1470</ele>
        <time>2010-11-28T13:44:29Z</time>
      </trkpt>
      <trkpt lat="45.63607" lon="6.05847">
        <ele>1471</ele>
        <time>2010-11-28T13:44:33Z</time>
      </trkpt>
      <trkpt lat="45.63606" lon="6.05847">
        <ele>1472</ele>
        <time>2010-11-28T13:44:38Z</time>
      </trkpt>
      <trkpt lat="45.63605" lon="6.05849">
        <ele>1472</ele>
        <time>2010-11-28T13:44:40Z</time>
      </trkpt>
      <trkpt lat="45.63604" lon="6.05851">
        <ele>1474</ele>
        <time>2010-11-28T13:44:43Z</time>
      </trkpt>
      <trkpt lat="45.63603" lon="6.05852">
        <ele>1476</ele>
        <time>2010-11-28T13:44:48Z</time>
      </trkpt>
      <trkpt lat="45.63602" lon="6.05854">
        <ele>1477</ele>
        <time>2010-11-28T13:44:51Z</time>
      </trkpt>
      <trkpt lat="45.63601" lon="6.05855">
        <ele>1478</ele>
        <time>2010-11-28T13:44:54Z</time>
      </trkpt>
      <trkpt lat="45.63601" lon="6.05857">
        <ele>1479</ele>
        <time>2010-11-28T13:44:57Z</time>
      </trkpt>
      <trkpt lat="45.63602" lon="6.05855">
        <ele>1482</ele>
        <time>2010-11-28T13:45:02Z</time>
      </trkpt>
      <trkpt lat="45.63603" lon="6.05855">
        <ele>1483</ele>
        <time>2010-11-28T13:45:04Z</time>
      </trkpt>
      <trkpt lat="45.63604" lon="6.05855">
        <ele>1483</ele>
        <time>2010-11-28T13:45:08Z</time>
      </trkpt>
      <trkpt lat="45.63607" lon="6.05855">
        <ele>1481</ele>
        <time>2010-11-28T13:45:12Z</time>
      </trkpt>
      <trkpt lat="45.63607" lon="6.05857">
        <ele>1479</ele>
        <time>2010-11-28T13:45:15Z</time>
      </trkpt>
      <trkpt lat="45.63608" lon="6.05861">
        <ele>1476</ele>
        <time>2010-11-28T13:45:19Z</time>
      </trkpt>
      <trkpt lat="45.63608" lon="6.05862">
        <ele>1474</ele>
        <time>2010-11-28T13:45:32Z</time>
      </trkpt>
      <trkpt lat="45.63609" lon="6.05864">
        <ele>1474</ele>
        <time>2010-11-28T13:45:36Z</time>
      </trkpt>
      <trkpt lat="45.63611" lon="6.05864">
        <ele>1474</ele>
        <time>2010-11-28T13:45:40Z</time>
      </trkpt>
      <trkpt lat="45.63614" lon="6.05865">
        <ele>1474</ele>
        <time>2010-11-28T13:45:42Z</time>
      </trkpt>
      <trkpt lat="45.63616" lon="6.05865">
        <ele>1474</ele>
        <time>2010-11-28T13:45:44Z</time>
      </trkpt>
      <trkpt lat="45.63617" lon="6.05869">
        <ele>1475</ele>
        <time>2010-11-28T13:45:47Z</time>
      </trkpt>
      <trkpt lat="45.63617" lon="6.05874">
        <ele>1478</ele>
        <time>2010-11-28T13:45:50Z</time>
      </trkpt>
      <trkpt lat="45.63617" lon="6.05876">
        <ele>1483</ele>
        <time>2010-11-28T13:45:54Z</time>
      </trkpt>
      <trkpt lat="45.63616" lon="6.05877">
        <ele>1485</ele>
        <time>2010-11-28T13:45:57Z</time>
      </trkpt>
      <trkpt lat="45.63615" lon="6.05877">
        <ele>1485</ele>
        <time>2010-11-28T13:45:59Z</time>
      </trkpt>
      <trkpt lat="45.63614" lon="6.05877">
        <ele>1488</ele>
        <time>2010-11-28T13:46:06Z</time>
      </trkpt>
      <trkpt lat="45.63612" lon="6.05876">
        <ele>1488</ele>
        <time>2010-11-28T13:46:09Z</time>
      </trkpt>
      <trkpt lat="45.63613" lon="6.05874">
        <ele>1488</ele>
        <time>2010-11-28T13:46:12Z</time>
      </trkpt>
      <trkpt lat="45.63609" lon="6.05872">
        <ele>1487</ele>
        <time>2010-11-28T13:46:16Z</time>
      </trkpt>
      <trkpt lat="45.63609" lon="6.0587">
        <ele>1487</ele>
        <time>2010-11-28T13:46:20Z</time>
      </trkpt>
      <trkpt lat="45.63609" lon="6.05867">
        <ele>1486</ele>
        <time>2010-11-28T13:46:24Z</time>
      </trkpt>
      <trkpt lat="45.63611" lon="6.05867">
        <ele>1486</ele>
        <time>2010-11-28T13:46:26Z</time>
      </trkpt>
      <trkpt lat="45.6361" lon="6.05864">
        <ele>1486</ele>
        <time>2010-11-28T13:46:30Z</time>
      </trkpt>
      <trkpt lat="45.63608" lon="6.05861">
        <ele>1486</ele>
        <time>2010-11-28T13:46:32Z</time>
      </trkpt>
      <trkpt lat="45.63607" lon="6.05862">
        <ele>1486</ele>
        <time>2010-11-28T13:46:39Z</time>
      </trkpt>
      <trkpt lat="45.63605" lon="6.05862">
        <ele>1486</ele>
        <time>2010-11-28T13:46:42Z</time>
      </trkpt>
      <trkpt lat="45.63604" lon="6.05861">
        <ele>1486</ele>
        <time>2010-11-28T13:46:46Z</time>
      </trkpt>
      <trkpt lat="45.63602" lon="6.05865">
        <ele>1486</ele>
        <time>2010-11-28T13:46:49Z</time>
      </trkpt>
      <trkpt lat="45.63601" lon="6.05866">
        <ele>1483</ele>
        <time>2010-11-28T13:46:58Z</time>
      </trkpt>
      <trkpt lat="45.636" lon="6.05866">
        <ele>1479</ele>
        <time>2010-11-28T13:47:01Z</time>
      </trkpt>
      <trkpt lat="45.63599" lon="6.05868">
        <ele>1467</ele>
        <time>2010-11-28T13:47:14Z</time>
      </trkpt>
      <trkpt lat="45.63597" lon="6.0587">
        <ele>1466</ele>
        <time>2010-11-28T13:47:17Z</time>
      </trkpt>
      <trkpt lat="45.63597" lon="6.05874">
        <ele>1466</ele>
        <time>2010-11-28T13:47:20Z</time>
      </trkpt>
      <trkpt lat="45.63598" lon="6.05873">
        <ele>1468</ele>
        <time>2010-11-28T13:47:24Z</time>
      </trkpt>
      <trkpt lat="45.63599" lon="6.05877">
        <ele>1472</ele>
        <time>2010-11-28T13:47:27Z</time>
      </trkpt>
      <trkpt lat="45.636" lon="6.05875">
        <ele>1474</ele>
        <time>2010-11-28T13:47:37Z</time>
      </trkpt>
      <trkpt lat="45.63599" lon="6.05872">
        <ele>1474</ele>
        <time>2010-11-28T13:47:40Z</time>
      </trkpt>
      <trkpt lat="45.63599" lon="6.05869">
        <ele>1474</ele>
        <time>2010-11-28T13:47:42Z</time>
      </trkpt>
      <trkpt lat="45.63599" lon="6.05868">
        <ele>1474</ele>
        <time>2010-11-28T13:47:44Z</time>
      </trkpt>
      <trkpt lat="45.63599" lon="6.05866">
        <ele>1474</ele>
        <time>2010-11-28T13:47:48Z</time>
      </trkpt>
      <trkpt lat="45.63599" lon="6.05864">
        <ele>1474</ele>
        <time>2010-11-28T13:47:50Z</time>
      </trkpt>
      <trkpt lat="45.63598" lon="6.05862">
        <ele>1478</ele>
        <time>2010-11-28T13:48:08Z</time>
      </trkpt>
      <trkpt lat="45.63596" lon="6.05859">
        <ele>1480</ele>
        <time>2010-11-28T13:48:12Z</time>
      </trkpt>
      <trkpt lat="45.63597" lon="6.0586">
        <ele>1480</ele>
        <time>2010-11-28T13:48:22Z</time>
      </trkpt>
      <trkpt lat="45.63596" lon="6.0586">
        <ele>1480</ele>
        <time>2010-11-28T13:48:24Z</time>
      </trkpt>
      <trkpt lat="45.63594" lon="6.0586">
        <ele>1480</ele>
        <time>2010-11-28T13:48:32Z</time>
      </trkpt>
      <trkpt lat="45.63596" lon="6.0586">
        <ele>1480</ele>
        <time>2010-11-28T13:48:34Z</time>
      </trkpt>
      <trkpt lat="45.63598" lon="6.05861">
        <ele>1480</ele>
        <time>2010-11-28T13:48:36Z</time>
      </trkpt>
      <trkpt lat="45.636" lon="6.05863">
        <ele>1477</ele>
        <time>2010-11-28T13:48:39Z</time>
      </trkpt>
      <trkpt lat="45.63599" lon="6.05864">
        <ele>1472</ele>
        <time>2010-11-28T13:48:45Z</time>
      </trkpt>
      <trkpt lat="45.63598" lon="6.05864">
        <ele>1469</ele>
        <time>2010-11-28T13:48:47Z</time>
      </trkpt>
      <trkpt lat="45.636" lon="6.05866">
        <ele>1465</ele>
        <time>2010-11-28T13:48:52Z</time>
      </trkpt>
      <trkpt lat="45.636" lon="6.05867">
        <ele>1464</ele>
        <time>2010-11-28T13:48:57Z</time>
      </trkpt>
      <trkpt lat="45.636" lon="6.05865">
        <ele>1464</ele>
        <time>2010-11-28T13:49:04Z</time>
      </trkpt>
      <trkpt lat="45.63601" lon="6.05866">
        <ele>1466</ele>
        <time>2010-11-28T13:49:15Z</time>
      </trkpt>
      <trkpt lat="45.636" lon="6.05868">
        <ele>1466</ele>
        <time>2010-11-28T13:49:18Z</time>
      </trkpt>
      <trkpt lat="45.636" lon="6.05869">
        <ele>1466</ele>
        <time>2010-11-28T13:49:21Z</time>
      </trkpt>
      <trkpt lat="45.636" lon="6.05868">
        <ele>1467</ele>
        <time>2010-11-28T13:49:23Z</time>
      </trkpt>
      <trkpt lat="45.63601" lon="6.05866">
        <ele>1467</ele>
        <time>2010-11-28T13:49:25Z</time>
      </trkpt>
      <trkpt lat="45.636" lon="6.05867">
        <ele>1467</ele>
        <time>2010-11-28T13:49:29Z</time>
      </trkpt>
      <trkpt lat="45.636" lon="6.05865">
        <ele>1467</ele>
        <time>2010-11-28T13:49:32Z</time>
      </trkpt>
      <trkpt lat="45.63602" lon="6.05865">
        <ele>1467</ele>
        <time>2010-11-28T13:49:36Z</time>
      </trkpt>
      <trkpt lat="45.636" lon="6.05864">
        <ele>1467</ele>
        <time>2010-11-28T13:49:38Z</time>
      </trkpt>
      <trkpt lat="45.63599" lon="6.05863">
        <ele>1467</ele>
        <time>2010-11-28T13:49:43Z</time>
      </trkpt>
      <trkpt lat="45.63598" lon="6.05865">
        <ele>1469</ele>
        <time>2010-11-28T13:49:48Z</time>
      </trkpt>
      <trkpt lat="45.63599" lon="6.05866">
        <ele>1476</ele>
        <time>2010-11-28T13:50:08Z</time>
      </trkpt>
      <trkpt lat="45.63597" lon="6.05864">
        <ele>1476</ele>
        <time>2010-11-28T13:50:11Z</time>
      </trkpt>
      <trkpt lat="45.63599" lon="6.05865">
        <ele>1476</ele>
        <time>2010-11-28T13:50:20Z</time>
      </trkpt>
      <trkpt lat="45.63599" lon="6.05867">
        <ele>1478</ele>
        <time>2010-11-28T13:50:33Z</time>
      </trkpt>
      <trkpt lat="45.636" lon="6.05868">
        <ele>1478</ele>
        <time>2010-11-28T13:50:43Z</time>
      </trkpt>
      <trkpt lat="45.63602" lon="6.05871">
        <ele>1478</ele>
        <time>2010-11-28T13:50:45Z</time>
      </trkpt>
      <trkpt lat="45.63601" lon="6.0587">
        <ele>1478</ele>
        <time>2010-11-28T13:50:48Z</time>
      </trkpt>
      <trkpt lat="45.636" lon="6.05869">
        <ele>1478</ele>
        <time>2010-11-28T13:50:52Z</time>
      </trkpt>
      <trkpt lat="45.636" lon="6.05867">
        <ele>1478</ele>
        <time>2010-11-28T13:50:59Z</time>
      </trkpt>
      <trkpt lat="45.63601" lon="6.05865">
        <ele>1476</ele>
        <time>2010-11-28T13:51:01Z</time>
      </trkpt>
      <trkpt lat="45.63601" lon="6.05864">
        <ele>1474</ele>
        <time>2010-11-28T13:51:04Z</time>
      </trkpt>
      <trkpt lat="45.636" lon="6.05862">
        <ele>1473</ele>
        <time>2010-11-28T13:51:11Z</time>
      </trkpt>
      <trkpt lat="45.63602" lon="6.05864">
        <ele>1470</ele>
        <time>2010-11-28T13:51:22Z</time>
      </trkpt>
      <trkpt lat="45.63603" lon="6.05864">
        <ele>1470</ele>
        <time>2010-11-28T13:51:29Z</time>
      </trkpt>
      <trkpt lat="45.63602" lon="6.05864">
        <ele>1470</ele>
        <time>2010-11-28T13:51:36Z</time>
      </trkpt>
      <trkpt lat="45.63601" lon="6.05863">
        <ele>1473</ele>
        <time>2010-11-28T13:51:46Z</time>
      </trkpt>
      <trkpt lat="45.636" lon="6.05863">
        <ele>1474</ele>
        <time>2010-11-28T13:51:52Z</time>
      </trkpt>
      <trkpt lat="45.63597" lon="6.05864">
        <ele>1474</ele>
        <time>2010-11-28T13:51:54Z</time>
      </trkpt>
      <trkpt lat="45.63596" lon="6.05864">
        <ele>1474</ele>
        <time>2010-11-28T13:51:56Z</time>
      </trkpt>
      <trkpt lat="45.63593" lon="6.05864">
        <ele>1474</ele>
        <time>2010-11-28T13:51:58Z</time>
      </trkpt>
      <trkpt lat="45.63591" lon="6.05865">
        <ele>1474</ele>
        <time>2010-11-28T13:52:00Z</time>
      </trkpt>
      <trkpt lat="45.63588" lon="6.05866">
        <ele>1474</ele>
        <time>2010-11-28T13:52:03Z</time>
      </trkpt>
      <trkpt lat="45.63586" lon="6.05867">
        <ele>1474</ele>
        <time>2010-11-28T13:52:05Z</time>
      </trkpt>
      <trkpt lat="45.63584" lon="6.05867">
        <ele>1474</ele>
        <time>2010-11-28T13:52:08Z</time>
      </trkpt>
      <trkpt lat="45.63581" lon="6.0587">
        <ele>1474</ele>
        <time>2010-11-28T13:52:10Z</time>
      </trkpt>
      <trkpt lat="45.6358" lon="6.05872">
        <ele>1474</ele>
        <time>2010-11-28T13:52:12Z</time>
      </trkpt>
      <trkpt lat="45.63579" lon="6.05873">
        <ele>1474</ele>
        <time>2010-11-28T13:52:16Z</time>
      </trkpt>
      <trkpt lat="45.63577" lon="6.05872">
        <ele>1474</ele>
        <time>2010-11-28T13:52:18Z</time>
      </trkpt>
      <trkpt lat="45.63575" lon="6.05871">
        <ele>1474</ele>
        <time>2010-11-28T13:52:24Z</time>
      </trkpt>
      <trkpt lat="45.63573" lon="6.05868">
        <ele>1474</ele>
        <time>2010-11-28T13:52:27Z</time>
      </trkpt>
      <trkpt lat="45.63572" lon="6.05868">
        <ele>1474</ele>
        <time>2010-11-28T13:52:29Z</time>
      </trkpt>
      <trkpt lat="45.63571" lon="6.05866">
        <ele>1474</ele>
        <time>2010-11-28T13:52:33Z</time>
      </trkpt>
      <trkpt lat="45.6357" lon="6.05864">
        <ele>1474</ele>
        <time>2010-11-28T13:52:35Z</time>
      </trkpt>
      <trkpt lat="45.63568" lon="6.05863">
        <ele>1474</ele>
        <time>2010-11-28T13:52:37Z</time>
      </trkpt>
      <trkpt lat="45.63567" lon="6.05862">
        <ele>1474</ele>
        <time>2010-11-28T13:52:39Z</time>
      </trkpt>
      <trkpt lat="45.63567" lon="6.0586">
        <ele>1474</ele>
        <time>2010-11-28T13:52:42Z</time>
      </trkpt>
      <trkpt lat="45.63565" lon="6.05859">
        <ele>1474</ele>
        <time>2010-11-28T13:52:44Z</time>
      </trkpt>
      <trkpt lat="45.63564" lon="6.05859">
        <ele>1474</ele>
        <time>2010-11-28T13:52:46Z</time>
      </trkpt>
      <trkpt lat="45.63562" lon="6.05857">
        <ele>1474</ele>
        <time>2010-11-28T13:52:48Z</time>
      </trkpt>
      <trkpt lat="45.6356" lon="6.05855">
        <ele>1475</ele>
        <time>2010-11-28T13:52:51Z</time>
      </trkpt>
      <trkpt lat="45.6356" lon="6.05853">
        <ele>1475</ele>
        <time>2010-11-28T13:52:53Z</time>
      </trkpt>
      <trkpt lat="45.6356" lon="6.05851">
        <ele>1476</ele>
        <time>2010-11-28T13:52:55Z</time>
      </trkpt>
      <trkpt lat="45.6356" lon="6.05849">
        <ele>1476</ele>
        <time>2010-11-28T13:52:57Z</time>
      </trkpt>
      <trkpt lat="45.63559" lon="6.05847">
        <ele>1477</ele>
        <time>2010-11-28T13:52:59Z</time>
      </trkpt>
      <trkpt lat="45.63557" lon="6.05846">
        <ele>1477</ele>
        <time>2010-11-28T13:53:01Z</time>
      </trkpt>
      <trkpt lat="45.63555" lon="6.05845">
        <ele>1477</ele>
        <time>2010-11-28T13:53:03Z</time>
      </trkpt>
      <trkpt lat="45.63553" lon="6.05843">
        <ele>1477</ele>
        <time>2010-11-28T13:53:06Z</time>
      </trkpt>
      <trkpt lat="45.63551" lon="6.05843">
        <ele>1477</ele>
        <time>2010-11-28T13:53:08Z</time>
      </trkpt>
      <trkpt lat="45.6355" lon="6.05842">
        <ele>1477</ele>
        <time>2010-11-28T13:53:10Z</time>
      </trkpt>
      <trkpt lat="45.63549" lon="6.05841">
        <ele>1477</ele>
        <time>2010-11-28T13:53:12Z</time>
      </trkpt>
      <trkpt lat="45.63548" lon="6.05841">
        <ele>1477</ele>
        <time>2010-11-28T13:53:14Z</time>
      </trkpt>
      <trkpt lat="45.63546" lon="6.05841">
        <ele>1477</ele>
        <time>2010-11-28T13:53:16Z</time>
      </trkpt>
      <trkpt lat="45.63545" lon="6.05841">
        <ele>1477</ele>
        <time>2010-11-28T13:53:18Z</time>
      </trkpt>
      <trkpt lat="45.63543" lon="6.05842">
        <ele>1480</ele>
        <time>2010-11-28T13:53:25Z</time>
      </trkpt>
      <trkpt lat="45.63541" lon="6.05843">
        <ele>1481</ele>
        <time>2010-11-28T13:53:30Z</time>
      </trkpt>
      <trkpt lat="45.63541" lon="6.05845">
        <ele>1481</ele>
        <time>2010-11-28T13:53:33Z</time>
      </trkpt>
      <trkpt lat="45.6354" lon="6.05846">
        <ele>1481</ele>
        <time>2010-11-28T13:53:35Z</time>
      </trkpt>
      <trkpt lat="45.63538" lon="6.05848">
        <ele>1481</ele>
        <time>2010-11-28T13:53:37Z</time>
      </trkpt>
      <trkpt lat="45.63537" lon="6.05849">
        <ele>1481</ele>
        <time>2010-11-28T13:53:41Z</time>
      </trkpt>
      <trkpt lat="45.63536" lon="6.05848">
        <ele>1481</ele>
        <time>2010-11-28T13:53:43Z</time>
      </trkpt>
      <trkpt lat="45.63535" lon="6.05849">
        <ele>1481</ele>
        <time>2010-11-28T13:53:45Z</time>
      </trkpt>
      <trkpt lat="45.63533" lon="6.05848">
        <ele>1481</ele>
        <time>2010-11-28T13:53:50Z</time>
      </trkpt>
      <trkpt lat="45.6353" lon="6.05846">
        <ele>1481</ele>
        <time>2010-11-28T13:53:52Z</time>
      </trkpt>
      <trkpt lat="45.63527" lon="6.05845">
        <ele>1481</ele>
        <time>2010-11-28T13:53:55Z</time>
      </trkpt>
      <trkpt lat="45.63526" lon="6.05843">
        <ele>1481</ele>
        <time>2010-11-28T13:53:58Z</time>
      </trkpt>
      <trkpt lat="45.63525" lon="6.05843">
        <ele>1481</ele>
        <time>2010-11-28T13:54:00Z</time>
      </trkpt>
      <trkpt lat="45.63522" lon="6.05843">
        <ele>1481</ele>
        <time>2010-11-28T13:54:02Z</time>
      </trkpt>
      <trkpt lat="45.63521" lon="6.05843">
        <ele>1481</ele>
        <time>2010-11-28T13:54:04Z</time>
      </trkpt>
      <trkpt lat="45.6352" lon="6.05841">
        <ele>1481</ele>
        <time>2010-11-28T13:54:08Z</time>
      </trkpt>
      <trkpt lat="45.63521" lon="6.05842">
        <ele>1481</ele>
        <time>2010-11-28T13:54:11Z</time>
      </trkpt>
      <trkpt lat="45.63522" lon="6.05841">
        <ele>1481</ele>
        <time>2010-11-28T13:54:14Z</time>
      </trkpt>
      <trkpt lat="45.63522" lon="6.05839">
        <ele>1480</ele>
        <time>2010-11-28T13:54:17Z</time>
      </trkpt>
      <trkpt lat="45.63521" lon="6.05838">
        <ele>1479</ele>
        <time>2010-11-28T13:54:20Z</time>
      </trkpt>
      <trkpt lat="45.6352" lon="6.05836">
        <ele>1479</ele>
        <time>2010-11-28T13:54:22Z</time>
      </trkpt>
      <trkpt lat="45.63519" lon="6.05834">
        <ele>1479</ele>
        <time>2010-11-28T13:54:24Z</time>
      </trkpt>
      <trkpt lat="45.63518" lon="6.05831">
        <ele>1479</ele>
        <time>2010-11-28T13:54:26Z</time>
      </trkpt>
      <trkpt lat="45.63517" lon="6.0583">
        <ele>1479</ele>
        <time>2010-11-28T13:54:28Z</time>
      </trkpt>
      <trkpt lat="45.63517" lon="6.05829">
        <ele>1479</ele>
        <time>2010-11-28T13:54:30Z</time>
      </trkpt>
      <trkpt lat="45.63517" lon="6.05827">
        <ele>1479</ele>
        <time>2010-11-28T13:54:33Z</time>
      </trkpt>
      <trkpt lat="45.63517" lon="6.05825">
        <ele>1479</ele>
        <time>2010-11-28T13:54:36Z</time>
      </trkpt>
      <trkpt lat="45.63517" lon="6.05823">
        <ele>1479</ele>
        <time>2010-11-28T13:54:38Z</time>
      </trkpt>
      <trkpt lat="45.63517" lon="6.05821">
        <ele>1479</ele>
        <time>2010-11-28T13:54:41Z</time>
      </trkpt>
      <trkpt lat="45.63518" lon="6.05819">
        <ele>1479</ele>
        <time>2010-11-28T13:54:44Z</time>
      </trkpt>
      <trkpt lat="45.63518" lon="6.05817">
        <ele>1479</ele>
        <time>2010-11-28T13:54:47Z</time>
      </trkpt>
      <trkpt lat="45.63518" lon="6.05813">
        <ele>1480</ele>
        <time>2010-11-28T13:54:50Z</time>
      </trkpt>
      <trkpt lat="45.63517" lon="6.05811">
        <ele>1480</ele>
        <time>2010-11-28T13:54:52Z</time>
      </trkpt>
      <trkpt lat="45.63514" lon="6.0581">
        <ele>1480</ele>
        <time>2010-11-28T13:54:55Z</time>
      </trkpt>
      <trkpt lat="45.63512" lon="6.05809">
        <ele>1480</ele>
        <time>2010-11-28T13:54:59Z</time>
      </trkpt>
      <trkpt lat="45.6351" lon="6.05809">
        <ele>1481</ele>
        <time>2010-11-28T13:55:01Z</time>
      </trkpt>
      <trkpt lat="45.63507" lon="6.05808">
        <ele>1481</ele>
        <time>2010-11-28T13:55:04Z</time>
      </trkpt>
      <trkpt lat="45.63506" lon="6.05807">
        <ele>1481</ele>
        <time>2010-11-28T13:55:10Z</time>
      </trkpt>
      <trkpt lat="45.63503" lon="6.05805">
        <ele>1481</ele>
        <time>2010-11-28T13:55:13Z</time>
      </trkpt>
      <trkpt lat="45.63503" lon="6.05803">
        <ele>1482</ele>
        <time>2010-11-28T13:55:17Z</time>
      </trkpt>
      <trkpt lat="45.63502" lon="6.05801">
        <ele>1482</ele>
        <time>2010-11-28T13:55:19Z</time>
      </trkpt>
      <trkpt lat="45.635" lon="6.05799">
        <ele>1482</ele>
        <time>2010-11-28T13:55:21Z</time>
      </trkpt>
      <trkpt lat="45.63499" lon="6.05799">
        <ele>1482</ele>
        <time>2010-11-28T13:55:23Z</time>
      </trkpt>
      <trkpt lat="45.63497" lon="6.05799">
        <ele>1482</ele>
        <time>2010-11-28T13:55:25Z</time>
      </trkpt>
      <trkpt lat="45.63496" lon="6.05799">
        <ele>1482</ele>
        <time>2010-11-28T13:55:27Z</time>
      </trkpt>
      <trkpt lat="45.63495" lon="6.05798">
        <ele>1482</ele>
        <time>2010-11-28T13:55:29Z</time>
      </trkpt>
      <trkpt lat="45.63492" lon="6.05797">
        <ele>1482</ele>
        <time>2010-11-28T13:55:32Z</time>
      </trkpt>
      <trkpt lat="45.63489" lon="6.05797">
        <ele>1482</ele>
        <time>2010-11-28T13:55:35Z</time>
      </trkpt>
      <trkpt lat="45.63487" lon="6.05797">
        <ele>1482</ele>
        <time>2010-11-28T13:55:37Z</time>
      </trkpt>
      <trkpt lat="45.63485" lon="6.05797">
        <ele>1482</ele>
        <time>2010-11-28T13:55:39Z</time>
      </trkpt>
      <trkpt lat="45.63484" lon="6.05796">
        <ele>1482</ele>
        <time>2010-11-28T13:55:43Z</time>
      </trkpt>
      <trkpt lat="45.63482" lon="6.05795">
        <ele>1482</ele>
        <time>2010-11-28T13:55:47Z</time>
      </trkpt>
      <trkpt lat="45.63481" lon="6.05794">
        <ele>1482</ele>
        <time>2010-11-28T13:55:50Z</time>
      </trkpt>
      <trkpt lat="45.63479" lon="6.05793">
        <ele>1482</ele>
        <time>2010-11-28T13:55:54Z</time>
      </trkpt>
      <trkpt lat="45.63478" lon="6.05792">
        <ele>1482</ele>
        <time>2010-11-28T13:55:56Z</time>
      </trkpt>
      <trkpt lat="45.63478" lon="6.0579">
        <ele>1482</ele>
        <time>2010-11-28T13:55:59Z</time>
      </trkpt>
      <trkpt lat="45.63477" lon="6.05789">
        <ele>1482</ele>
        <time>2010-11-28T13:56:01Z</time>
      </trkpt>
      <trkpt lat="45.63476" lon="6.05787">
        <ele>1483</ele>
        <time>2010-11-28T13:56:03Z</time>
      </trkpt>
      <trkpt lat="45.63477" lon="6.05785">
        <ele>1483</ele>
        <time>2010-11-28T13:56:07Z</time>
      </trkpt>
      <trkpt lat="45.63475" lon="6.05783">
        <ele>1484</ele>
        <time>2010-11-28T13:56:10Z</time>
      </trkpt>
      <trkpt lat="45.63473" lon="6.05782">
        <ele>1484</ele>
        <time>2010-11-28T13:56:12Z</time>
      </trkpt>
      <trkpt lat="45.63472" lon="6.05781">
        <ele>1484</ele>
        <time>2010-11-28T13:56:14Z</time>
      </trkpt>
      <trkpt lat="45.63472" lon="6.05779">
        <ele>1484</ele>
        <time>2010-11-28T13:56:16Z</time>
      </trkpt>
      <trkpt lat="45.63472" lon="6.05777">
        <ele>1484</ele>
        <time>2010-11-28T13:56:18Z</time>
      </trkpt>
      <trkpt lat="45.63471" lon="6.05776">
        <ele>1484</ele>
        <time>2010-11-28T13:56:20Z</time>
      </trkpt>
      <trkpt lat="45.63469" lon="6.05775">
        <ele>1484</ele>
        <time>2010-11-28T13:56:24Z</time>
      </trkpt>
      <trkpt lat="45.63468" lon="6.05775">
        <ele>1484</ele>
        <time>2010-11-28T13:56:27Z</time>
      </trkpt>
      <trkpt lat="45.63465" lon="6.05774">
        <ele>1484</ele>
        <time>2010-11-28T13:56:30Z</time>
      </trkpt>
      <trkpt lat="45.63464" lon="6.05772">
        <ele>1484</ele>
        <time>2010-11-28T13:56:33Z</time>
      </trkpt>
      <trkpt lat="45.63464" lon="6.0577">
        <ele>1484</ele>
        <time>2010-11-28T13:56:37Z</time>
      </trkpt>
      <trkpt lat="45.63464" lon="6.05768">
        <ele>1485</ele>
        <time>2010-11-28T13:56:40Z</time>
      </trkpt>
      <trkpt lat="45.63465" lon="6.05766">
        <ele>1485</ele>
        <time>2010-11-28T13:56:42Z</time>
      </trkpt>
      <trkpt lat="45.63464" lon="6.05767">
        <ele>1485</ele>
        <time>2010-11-28T13:56:46Z</time>
      </trkpt>
      <trkpt lat="45.63462" lon="6.05765">
        <ele>1485</ele>
        <time>2010-11-28T13:56:49Z</time>
      </trkpt>
      <trkpt lat="45.63462" lon="6.05763">
        <ele>1485</ele>
        <time>2010-11-28T13:56:52Z</time>
      </trkpt>
      <trkpt lat="45.63463" lon="6.05761">
        <ele>1485</ele>
        <time>2010-11-28T13:56:55Z</time>
      </trkpt>
      <trkpt lat="45.63463" lon="6.05759">
        <ele>1485</ele>
        <time>2010-11-28T13:56:57Z</time>
      </trkpt>
      <trkpt lat="45.63464" lon="6.05757">
        <ele>1485</ele>
        <time>2010-11-28T13:56:59Z</time>
      </trkpt>
      <trkpt lat="45.63464" lon="6.05756">
        <ele>1485</ele>
        <time>2010-11-28T13:57:01Z</time>
      </trkpt>
      <trkpt lat="45.63466" lon="6.05753">
        <ele>1485</ele>
        <time>2010-11-28T13:57:03Z</time>
      </trkpt>
      <trkpt lat="45.63466" lon="6.05751">
        <ele>1485</ele>
        <time>2010-11-28T13:57:05Z</time>
      </trkpt>
      <trkpt lat="45.63465" lon="6.05749">
        <ele>1485</ele>
        <time>2010-11-28T13:57:07Z</time>
      </trkpt>
      <trkpt lat="45.63465" lon="6.05747">
        <ele>1485</ele>
        <time>2010-11-28T13:57:09Z</time>
      </trkpt>
      <trkpt lat="45.63465" lon="6.05745">
        <ele>1485</ele>
        <time>2010-11-28T13:57:11Z</time>
      </trkpt>
      <trkpt lat="45.63466" lon="6.05743">
        <ele>1485</ele>
        <time>2010-11-28T13:57:13Z</time>
      </trkpt>
      <trkpt lat="45.63466" lon="6.05741">
        <ele>1485</ele>
        <time>2010-11-28T13:57:16Z</time>
      </trkpt>
      <trkpt lat="45.63467" lon="6.05739">
        <ele>1485</ele>
        <time>2010-11-28T13:57:18Z</time>
      </trkpt>
      <trkpt lat="45.63467" lon="6.05737">
        <ele>1485</ele>
        <time>2010-11-28T13:57:20Z</time>
      </trkpt>
      <trkpt lat="45.63468" lon="6.05737">
        <ele>1486</ele>
        <time>2010-11-28T13:57:25Z</time>
      </trkpt>
      <trkpt lat="45.63468" lon="6.05739">
        <ele>1486</ele>
        <time>2010-11-28T13:57:27Z</time>
      </trkpt>
      <trkpt lat="45.63467" lon="6.05737">
        <ele>1486</ele>
        <time>2010-11-28T13:57:30Z</time>
      </trkpt>
      <trkpt lat="45.63467" lon="6.05735">
        <ele>1486</ele>
        <time>2010-11-28T13:57:36Z</time>
      </trkpt>
      <trkpt lat="45.63466" lon="6.05733">
        <ele>1486</ele>
        <time>2010-11-28T13:57:38Z</time>
      </trkpt>
      <trkpt lat="45.63464" lon="6.05731">
        <ele>1486</ele>
        <time>2010-11-28T13:57:40Z</time>
      </trkpt>
      <trkpt lat="45.63464" lon="6.0573">
        <ele>1486</ele>
        <time>2010-11-28T13:57:42Z</time>
      </trkpt>
      <trkpt lat="45.63463" lon="6.05728">
        <ele>1486</ele>
        <time>2010-11-28T13:57:44Z</time>
      </trkpt>
      <trkpt lat="45.63464" lon="6.05726">
        <ele>1487</ele>
        <time>2010-11-28T13:57:46Z</time>
      </trkpt>
      <trkpt lat="45.63464" lon="6.05723">
        <ele>1487</ele>
        <time>2010-11-28T13:57:48Z</time>
      </trkpt>
      <trkpt lat="45.63465" lon="6.05722">
        <ele>1488</ele>
        <time>2010-11-28T13:57:50Z</time>
      </trkpt>
      <trkpt lat="45.63465" lon="6.05719">
        <ele>1488</ele>
        <time>2010-11-28T13:57:53Z</time>
      </trkpt>
      <trkpt lat="45.63465" lon="6.05717">
        <ele>1489</ele>
        <time>2010-11-28T13:57:55Z</time>
      </trkpt>
      <trkpt lat="45.63465" lon="6.05715">
        <ele>1489</ele>
        <time>2010-11-28T13:57:57Z</time>
      </trkpt>
      <trkpt lat="45.63464" lon="6.05713">
        <ele>1489</ele>
        <time>2010-11-28T13:58:00Z</time>
      </trkpt>
      <trkpt lat="45.63464" lon="6.05711">
        <ele>1489</ele>
        <time>2010-11-28T13:58:02Z</time>
      </trkpt>
      <trkpt lat="45.63463" lon="6.0571">
        <ele>1491</ele>
        <time>2010-11-28T13:58:04Z</time>
      </trkpt>
      <trkpt lat="45.63462" lon="6.05708">
        <ele>1492</ele>
        <time>2010-11-28T13:58:06Z</time>
      </trkpt>
      <trkpt lat="45.63461" lon="6.05707">
        <ele>1493</ele>
        <time>2010-11-28T13:58:08Z</time>
      </trkpt>
      <trkpt lat="45.63459" lon="6.05706">
        <ele>1493</ele>
        <time>2010-11-28T13:58:10Z</time>
      </trkpt>
      <trkpt lat="45.63458" lon="6.05705">
        <ele>1494</ele>
        <time>2010-11-28T13:58:13Z</time>
      </trkpt>
      <trkpt lat="45.63457" lon="6.05704">
        <ele>1494</ele>
        <time>2010-11-28T13:58:16Z</time>
      </trkpt>
      <trkpt lat="45.63456" lon="6.05701">
        <ele>1494</ele>
        <time>2010-11-28T13:58:19Z</time>
      </trkpt>
      <trkpt lat="45.63456" lon="6.05699">
        <ele>1494</ele>
        <time>2010-11-28T13:58:21Z</time>
      </trkpt>
      <trkpt lat="45.63455" lon="6.05697">
        <ele>1494</ele>
        <time>2010-11-28T13:58:23Z</time>
      </trkpt>
      <trkpt lat="45.63455" lon="6.05695">
        <ele>1494</ele>
        <time>2010-11-28T13:58:25Z</time>
      </trkpt>
      <trkpt lat="45.63454" lon="6.05694">
        <ele>1494</ele>
        <time>2010-11-28T13:58:27Z</time>
      </trkpt>
      <trkpt lat="45.63455" lon="6.05692">
        <ele>1494</ele>
        <time>2010-11-28T13:58:29Z</time>
      </trkpt>
      <trkpt lat="45.63455" lon="6.05691">
        <ele>1494</ele>
        <time>2010-11-28T13:58:31Z</time>
      </trkpt>
      <trkpt lat="45.63456" lon="6.0569">
        <ele>1494</ele>
        <time>2010-11-28T13:58:33Z</time>
      </trkpt>
      <trkpt lat="45.63457" lon="6.0569">
        <ele>1495</ele>
        <time>2010-11-28T13:58:35Z</time>
      </trkpt>
      <trkpt lat="45.63459" lon="6.05689">
        <ele>1496</ele>
        <time>2010-11-28T13:58:37Z</time>
      </trkpt>
      <trkpt lat="45.6346" lon="6.05689">
        <ele>1496</ele>
        <time>2010-11-28T13:58:39Z</time>
      </trkpt>
      <trkpt lat="45.6346" lon="6.05686">
        <ele>1497</ele>
        <time>2010-11-28T13:58:45Z</time>
      </trkpt>
      <trkpt lat="45.6346" lon="6.05685">
        <ele>1497</ele>
        <time>2010-11-28T13:58:47Z</time>
      </trkpt>
      <trkpt lat="45.6346" lon="6.05683">
        <ele>1497</ele>
        <time>2010-11-28T13:58:49Z</time>
      </trkpt>
      <trkpt lat="45.6346" lon="6.05681">
        <ele>1497</ele>
        <time>2010-11-28T13:58:52Z</time>
      </trkpt>
      <trkpt lat="45.63458" lon="6.05681">
        <ele>1497</ele>
        <time>2010-11-28T13:58:55Z</time>
      </trkpt>
      <trkpt lat="45.63457" lon="6.05679">
        <ele>1497</ele>
        <time>2010-11-28T13:58:58Z</time>
      </trkpt>
      <trkpt lat="45.63455" lon="6.05679">
        <ele>1497</ele>
        <time>2010-11-28T13:59:01Z</time>
      </trkpt>
      <trkpt lat="45.63454" lon="6.05676">
        <ele>1497</ele>
        <time>2010-11-28T13:59:04Z</time>
      </trkpt>
      <trkpt lat="45.63453" lon="6.05674">
        <ele>1497</ele>
        <time>2010-11-28T13:59:06Z</time>
      </trkpt>
      <trkpt lat="45.63452" lon="6.05672">
        <ele>1497</ele>
        <time>2010-11-28T13:59:09Z</time>
      </trkpt>
      <trkpt lat="45.63451" lon="6.05671">
        <ele>1498</ele>
        <time>2010-11-28T13:59:11Z</time>
      </trkpt>
      <trkpt lat="45.6345" lon="6.0567">
        <ele>1498</ele>
        <time>2010-11-28T13:59:13Z</time>
      </trkpt>
      <trkpt lat="45.63448" lon="6.05669">
        <ele>1498</ele>
        <time>2010-11-28T13:59:15Z</time>
      </trkpt>
      <trkpt lat="45.6345" lon="6.05668">
        <ele>1499</ele>
        <time>2010-11-28T13:59:21Z</time>
      </trkpt>
      <trkpt lat="45.63452" lon="6.05668">
        <ele>1499</ele>
        <time>2010-11-28T13:59:24Z</time>
      </trkpt>
      <trkpt lat="45.63453" lon="6.05667">
        <ele>1499</ele>
        <time>2010-11-28T13:59:26Z</time>
      </trkpt>
      <trkpt lat="45.63454" lon="6.05667">
        <ele>1499</ele>
        <time>2010-11-28T13:59:28Z</time>
      </trkpt>
      <trkpt lat="45.63456" lon="6.05667">
        <ele>1497</ele>
        <time>2010-11-28T13:59:32Z</time>
      </trkpt>
      <trkpt lat="45.63457" lon="6.05667">
        <ele>1494</ele>
        <time>2010-11-28T13:59:41Z</time>
      </trkpt>
      <trkpt lat="45.63459" lon="6.05667">
        <ele>1493</ele>
        <time>2010-11-28T13:59:43Z</time>
      </trkpt>
      <trkpt lat="45.63461" lon="6.05666">
        <ele>1491</ele>
        <time>2010-11-28T13:59:45Z</time>
      </trkpt>
      <trkpt lat="45.63459" lon="6.05666">
        <ele>1491</ele>
        <time>2010-11-28T13:59:47Z</time>
      </trkpt>
      <trkpt lat="45.63458" lon="6.05665">
        <ele>1491</ele>
        <time>2010-11-28T13:59:49Z</time>
      </trkpt>
      <trkpt lat="45.63456" lon="6.05665">
        <ele>1491</ele>
        <time>2010-11-28T13:59:51Z</time>
      </trkpt>
      <trkpt lat="45.63455" lon="6.05665">
        <ele>1491</ele>
        <time>2010-11-28T13:59:53Z</time>
      </trkpt>
      <trkpt lat="45.63454" lon="6.05665">
        <ele>1493</ele>
        <time>2010-11-28T13:59:55Z</time>
      </trkpt>
      <trkpt lat="45.63453" lon="6.05664">
        <ele>1494</ele>
        <time>2010-11-28T13:59:57Z</time>
      </trkpt>
      <trkpt lat="45.63453" lon="6.05662">
        <ele>1497</ele>
        <time>2010-11-28T14:00:19Z</time>
      </trkpt>
      <trkpt lat="45.63454" lon="6.05661">
        <ele>1498</ele>
        <time>2010-11-28T14:00:22Z</time>
      </trkpt>
      <trkpt lat="45.63455" lon="6.05663">
        <ele>1500</ele>
        <time>2010-11-28T14:00:27Z</time>
      </trkpt>
      <trkpt lat="45.63456" lon="6.05663">
        <ele>1500</ele>
        <time>2010-11-28T14:00:31Z</time>
      </trkpt>
      <trkpt lat="45.63455" lon="6.05664">
        <ele>1500</ele>
        <time>2010-11-28T14:00:45Z</time>
      </trkpt>
      <trkpt lat="45.63454" lon="6.05664">
        <ele>1500</ele>
        <time>2010-11-28T14:00:47Z</time>
      </trkpt>
      <trkpt lat="45.63452" lon="6.05665">
        <ele>1500</ele>
        <time>2010-11-28T14:00:52Z</time>
      </trkpt>
      <trkpt lat="45.63451" lon="6.05665">
        <ele>1500</ele>
        <time>2010-11-28T14:00:55Z</time>
      </trkpt>
      <trkpt lat="45.63449" lon="6.05665">
        <ele>1500</ele>
        <time>2010-11-28T14:00:58Z</time>
      </trkpt>
      <trkpt lat="45.63448" lon="6.05664">
        <ele>1500</ele>
        <time>2010-11-28T14:01:02Z</time>
      </trkpt>
      <trkpt lat="45.63447" lon="6.05664">
        <ele>1501</ele>
        <time>2010-11-28T14:01:08Z</time>
      </trkpt>
      <trkpt lat="45.63447" lon="6.05666">
        <ele>1501</ele>
        <time>2010-11-28T14:01:17Z</time>
      </trkpt>
      <trkpt lat="45.63448" lon="6.05667">
        <ele>1501</ele>
        <time>2010-11-28T14:01:19Z</time>
      </trkpt>
      <trkpt lat="45.63449" lon="6.05665">
        <ele>1501</ele>
        <time>2010-11-28T14:01:22Z</time>
      </trkpt>
      <trkpt lat="45.6345" lon="6.05667">
        <ele>1501</ele>
        <time>2010-11-28T14:01:43Z</time>
      </trkpt>
      <trkpt lat="45.63448" lon="6.05667">
        <ele>1501</ele>
        <time>2010-11-28T14:01:47Z</time>
      </trkpt>
      <trkpt lat="45.63447" lon="6.05666">
        <ele>1501</ele>
        <time>2010-11-28T14:01:55Z</time>
      </trkpt>
      <trkpt lat="45.63446" lon="6.05665">
        <ele>1501</ele>
        <time>2010-11-28T14:01:58Z</time>
      </trkpt>
      <trkpt lat="45.63445" lon="6.05665">
        <ele>1501</ele>
        <time>2010-11-28T14:02:01Z</time>
      </trkpt>
      <trkpt lat="45.63443" lon="6.05664">
        <ele>1501</ele>
        <time>2010-11-28T14:02:03Z</time>
      </trkpt>
      <trkpt lat="45.63442" lon="6.05664">
        <ele>1501</ele>
        <time>2010-11-28T14:02:05Z</time>
      </trkpt>
      <trkpt lat="45.63441" lon="6.05663">
        <ele>1501</ele>
        <time>2010-11-28T14:02:07Z</time>
      </trkpt>
      <trkpt lat="45.63439" lon="6.05662">
        <ele>1501</ele>
        <time>2010-11-28T14:02:09Z</time>
      </trkpt>
      <trkpt lat="45.63438" lon="6.05661">
        <ele>1501</ele>
        <time>2010-11-28T14:02:12Z</time>
      </trkpt>
      <trkpt lat="45.63437" lon="6.05661">
        <ele>1501</ele>
        <time>2010-11-28T14:02:15Z</time>
      </trkpt>
      <trkpt lat="45.63437" lon="6.05663">
        <ele>1501</ele>
        <time>2010-11-28T14:02:18Z</time>
      </trkpt>
      <trkpt lat="45.63436" lon="6.05662">
        <ele>1502</ele>
        <time>2010-11-28T14:02:22Z</time>
      </trkpt>
      <trkpt lat="45.63435" lon="6.05662">
        <ele>1502</ele>
        <time>2010-11-28T14:02:24Z</time>
      </trkpt>
      <trkpt lat="45.63433" lon="6.05661">
        <ele>1503</ele>
        <time>2010-11-28T14:02:27Z</time>
      </trkpt>
      <trkpt lat="45.63432" lon="6.0566">
        <ele>1503</ele>
        <time>2010-11-28T14:02:29Z</time>
      </trkpt>
      <trkpt lat="45.63431" lon="6.05658">
        <ele>1503</ele>
        <time>2010-11-28T14:02:32Z</time>
      </trkpt>
      <trkpt lat="45.6343" lon="6.05656">
        <ele>1503</ele>
        <time>2010-11-28T14:02:35Z</time>
      </trkpt>
      <trkpt lat="45.63428" lon="6.05656">
        <ele>1503</ele>
        <time>2010-11-28T14:02:37Z</time>
      </trkpt>
      <trkpt lat="45.63426" lon="6.05655">
        <ele>1503</ele>
        <time>2010-11-28T14:02:39Z</time>
      </trkpt>
      <trkpt lat="45.63425" lon="6.05654">
        <ele>1503</ele>
        <time>2010-11-28T14:02:41Z</time>
      </trkpt>
      <trkpt lat="45.63424" lon="6.05653">
        <ele>1503</ele>
        <time>2010-11-28T14:02:43Z</time>
      </trkpt>
      <trkpt lat="45.63422" lon="6.05653">
        <ele>1503</ele>
        <time>2010-11-28T14:02:45Z</time>
      </trkpt>
      <trkpt lat="45.6342" lon="6.05652">
        <ele>1504</ele>
        <time>2010-11-28T14:02:47Z</time>
      </trkpt>
      <trkpt lat="45.63419" lon="6.05651">
        <ele>1505</ele>
        <time>2010-11-28T14:02:50Z</time>
      </trkpt>
      <trkpt lat="45.63417" lon="6.0565">
        <ele>1505</ele>
        <time>2010-11-28T14:02:52Z</time>
      </trkpt>
      <trkpt lat="45.63416" lon="6.05649">
        <ele>1506</ele>
        <time>2010-11-28T14:02:56Z</time>
      </trkpt>
      <trkpt lat="45.63414" lon="6.05647">
        <ele>1507</ele>
        <time>2010-11-28T14:02:59Z</time>
      </trkpt>
      <trkpt lat="45.63413" lon="6.05645">
        <ele>1507</ele>
        <time>2010-11-28T14:03:01Z</time>
      </trkpt>
      <trkpt lat="45.63411" lon="6.05644">
        <ele>1507</ele>
        <time>2010-11-28T14:03:04Z</time>
      </trkpt>
      <trkpt lat="45.63409" lon="6.05642">
        <ele>1507</ele>
        <time>2010-11-28T14:03:06Z</time>
      </trkpt>
      <trkpt lat="45.63406" lon="6.05641">
        <ele>1507</ele>
        <time>2010-11-28T14:03:09Z</time>
      </trkpt>
      <trkpt lat="45.63405" lon="6.05642">
        <ele>1507</ele>
        <time>2010-11-28T14:03:11Z</time>
      </trkpt>
      <trkpt lat="45.63402" lon="6.05641">
        <ele>1507</ele>
        <time>2010-11-28T14:03:13Z</time>
      </trkpt>
      <trkpt lat="45.63399" lon="6.0564">
        <ele>1507</ele>
        <time>2010-11-28T14:03:15Z</time>
      </trkpt>
      <trkpt lat="45.63395" lon="6.0564">
        <ele>1507</ele>
        <time>2010-11-28T14:03:17Z</time>
      </trkpt>
      <trkpt lat="45.63393" lon="6.0564">
        <ele>1508</ele>
        <time>2010-11-28T14:03:19Z</time>
      </trkpt>
      <trkpt lat="45.63391" lon="6.0564">
        <ele>1508</ele>
        <time>2010-11-28T14:03:22Z</time>
      </trkpt>
      <trkpt lat="45.6339" lon="6.05639">
        <ele>1508</ele>
        <time>2010-11-28T14:03:24Z</time>
      </trkpt>
      <trkpt lat="45.63389" lon="6.05638">
        <ele>1508</ele>
        <time>2010-11-28T14:03:26Z</time>
      </trkpt>
      <trkpt lat="45.63388" lon="6.05636">
        <ele>1508</ele>
        <time>2010-11-28T14:03:28Z</time>
      </trkpt>
      <trkpt lat="45.63387" lon="6.05634">
        <ele>1508</ele>
        <time>2010-11-28T14:03:30Z</time>
      </trkpt>
      <trkpt lat="45.63387" lon="6.05632">
        <ele>1508</ele>
        <time>2010-11-28T14:03:32Z</time>
      </trkpt>
      <trkpt lat="45.63385" lon="6.05632">
        <ele>1508</ele>
        <time>2010-11-28T14:03:34Z</time>
      </trkpt>
      <trkpt lat="45.63384" lon="6.05631">
        <ele>1508</ele>
        <time>2010-11-28T14:03:38Z</time>
      </trkpt>
      <trkpt lat="45.63384" lon="6.05629">
        <ele>1508</ele>
        <time>2010-11-28T14:03:40Z</time>
      </trkpt>
      <trkpt lat="45.63385" lon="6.05626">
        <ele>1508</ele>
        <time>2010-11-28T14:03:42Z</time>
      </trkpt>
      <trkpt lat="45.63386" lon="6.05624">
        <ele>1508</ele>
        <time>2010-11-28T14:03:44Z</time>
      </trkpt>
      <trkpt lat="45.63385" lon="6.05622">
        <ele>1508</ele>
        <time>2010-11-28T14:03:47Z</time>
      </trkpt>
      <trkpt lat="45.63383" lon="6.05621">
        <ele>1508</ele>
        <time>2010-11-28T14:03:49Z</time>
      </trkpt>
      <trkpt lat="45.63382" lon="6.05619">
        <ele>1508</ele>
        <time>2010-11-28T14:03:54Z</time>
      </trkpt>
      <trkpt lat="45.63382" lon="6.05617">
        <ele>1508</ele>
        <time>2010-11-28T14:03:56Z</time>
      </trkpt>
      <trkpt lat="45.6338" lon="6.05615">
        <ele>1508</ele>
        <time>2010-11-28T14:03:59Z</time>
      </trkpt>
      <trkpt lat="45.63379" lon="6.05613">
        <ele>1508</ele>
        <time>2010-11-28T14:04:02Z</time>
      </trkpt>
      <trkpt lat="45.63377" lon="6.05612">
        <ele>1508</ele>
        <time>2010-11-28T14:04:04Z</time>
      </trkpt>
      <trkpt lat="45.63374" lon="6.05611">
        <ele>1508</ele>
        <time>2010-11-28T14:04:10Z</time>
      </trkpt>
      <trkpt lat="45.63373" lon="6.0561">
        <ele>1508</ele>
        <time>2010-11-28T14:04:15Z</time>
      </trkpt>
      <trkpt lat="45.63371" lon="6.05612">
        <ele>1509</ele>
        <time>2010-11-28T14:04:18Z</time>
      </trkpt>
      <trkpt lat="45.63369" lon="6.05611">
        <ele>1509</ele>
        <time>2010-11-28T14:04:21Z</time>
      </trkpt>
      <trkpt lat="45.63368" lon="6.0561">
        <ele>1509</ele>
        <time>2010-11-28T14:04:23Z</time>
      </trkpt>
      <trkpt lat="45.63366" lon="6.0561">
        <ele>1509</ele>
        <time>2010-11-28T14:04:25Z</time>
      </trkpt>
      <trkpt lat="45.63365" lon="6.05608">
        <ele>1509</ele>
        <time>2010-11-28T14:04:27Z</time>
      </trkpt>
      <trkpt lat="45.63364" lon="6.05607">
        <ele>1510</ele>
        <time>2010-11-28T14:04:29Z</time>
      </trkpt>
      <trkpt lat="45.63363" lon="6.05605">
        <ele>1510</ele>
        <time>2010-11-28T14:04:32Z</time>
      </trkpt>
      <trkpt lat="45.63362" lon="6.05603">
        <ele>1510</ele>
        <time>2010-11-28T14:04:34Z</time>
      </trkpt>
      <trkpt lat="45.63361" lon="6.05602">
        <ele>1510</ele>
        <time>2010-11-28T14:04:39Z</time>
      </trkpt>
      <trkpt lat="45.63359" lon="6.05602">
        <ele>1510</ele>
        <time>2010-11-28T14:04:41Z</time>
      </trkpt>
      <trkpt lat="45.63358" lon="6.05603">
        <ele>1510</ele>
        <time>2010-11-28T14:04:44Z</time>
      </trkpt>
      <trkpt lat="45.63356" lon="6.05602">
        <ele>1510</ele>
        <time>2010-11-28T14:04:48Z</time>
      </trkpt>
      <trkpt lat="45.63354" lon="6.05601">
        <ele>1510</ele>
        <time>2010-11-28T14:04:50Z</time>
      </trkpt>
      <trkpt lat="45.63353" lon="6.056">
        <ele>1510</ele>
        <time>2010-11-28T14:04:52Z</time>
      </trkpt>
      <trkpt lat="45.63351" lon="6.056">
        <ele>1511</ele>
        <time>2010-11-28T14:04:54Z</time>
      </trkpt>
      <trkpt lat="45.6335" lon="6.056">
        <ele>1511</ele>
        <time>2010-11-28T14:04:56Z</time>
      </trkpt>
      <trkpt lat="45.63349" lon="6.056">
        <ele>1511</ele>
        <time>2010-11-28T14:04:58Z</time>
      </trkpt>
      <trkpt lat="45.63347" lon="6.05599">
        <ele>1511</ele>
        <time>2010-11-28T14:05:00Z</time>
      </trkpt>
      <trkpt lat="45.63345" lon="6.05597">
        <ele>1512</ele>
        <time>2010-11-28T14:05:03Z</time>
      </trkpt>
      <trkpt lat="45.63344" lon="6.05596">
        <ele>1512</ele>
        <time>2010-11-28T14:05:06Z</time>
      </trkpt>
      <trkpt lat="45.63342" lon="6.05594">
        <ele>1513</ele>
        <time>2010-11-28T14:05:08Z</time>
      </trkpt>
      <trkpt lat="45.6334" lon="6.05593">
        <ele>1513</ele>
        <time>2010-11-28T14:05:10Z</time>
      </trkpt>
      <trkpt lat="45.63337" lon="6.05593">
        <ele>1513</ele>
        <time>2010-11-28T14:05:12Z</time>
      </trkpt>
      <trkpt lat="45.63335" lon="6.05593">
        <ele>1514</ele>
        <time>2010-11-28T14:05:14Z</time>
      </trkpt>
      <trkpt lat="45.63333" lon="6.05594">
        <ele>1515</ele>
        <time>2010-11-28T14:05:16Z</time>
      </trkpt>
      <trkpt lat="45.63331" lon="6.05594">
        <ele>1515</ele>
        <time>2010-11-28T14:05:18Z</time>
      </trkpt>
      <trkpt lat="45.6333" lon="6.05594">
        <ele>1515</ele>
        <time>2010-11-28T14:05:20Z</time>
      </trkpt>
      <trkpt lat="45.63328" lon="6.05594">
        <ele>1515</ele>
        <time>2010-11-28T14:05:22Z</time>
      </trkpt>
      <trkpt lat="45.63327" lon="6.05592">
        <ele>1515</ele>
        <time>2010-11-28T14:05:24Z</time>
      </trkpt>
      <trkpt lat="45.63325" lon="6.05592">
        <ele>1515</ele>
        <time>2010-11-28T14:05:26Z</time>
      </trkpt>
      <trkpt lat="45.63324" lon="6.05591">
        <ele>1515</ele>
        <time>2010-11-28T14:05:28Z</time>
      </trkpt>
      <trkpt lat="45.63322" lon="6.05591">
        <ele>1515</ele>
        <time>2010-11-28T14:05:30Z</time>
      </trkpt>
      <trkpt lat="45.63321" lon="6.05591">
        <ele>1515</ele>
        <time>2010-11-28T14:05:32Z</time>
      </trkpt>
      <trkpt lat="45.63319" lon="6.0559">
        <ele>1515</ele>
        <time>2010-11-28T14:05:34Z</time>
      </trkpt>
      <trkpt lat="45.63318" lon="6.05589">
        <ele>1515</ele>
        <time>2010-11-28T14:05:36Z</time>
      </trkpt>
      <trkpt lat="45.63317" lon="6.05587">
        <ele>1515</ele>
        <time>2010-11-28T14:05:38Z</time>
      </trkpt>
      <trkpt lat="45.63316" lon="6.05588">
        <ele>1515</ele>
        <time>2010-11-28T14:05:41Z</time>
      </trkpt>
      <trkpt lat="45.63314" lon="6.05586">
        <ele>1515</ele>
        <time>2010-11-28T14:05:44Z</time>
      </trkpt>
      <trkpt lat="45.63314" lon="6.05584">
        <ele>1515</ele>
        <time>2010-11-28T14:05:46Z</time>
      </trkpt>
      <trkpt lat="45.63313" lon="6.05582">
        <ele>1515</ele>
        <time>2010-11-28T14:05:48Z</time>
      </trkpt>
      <trkpt lat="45.63314" lon="6.0558">
        <ele>1515</ele>
        <time>2010-11-28T14:05:50Z</time>
      </trkpt>
      <trkpt lat="45.63314" lon="6.05579">
        <ele>1515</ele>
        <time>2010-11-28T14:05:52Z</time>
      </trkpt>
      <trkpt lat="45.63312" lon="6.05577">
        <ele>1515</ele>
        <time>2010-11-28T14:05:55Z</time>
      </trkpt>
      <trkpt lat="45.63311" lon="6.05575">
        <ele>1515</ele>
        <time>2010-11-28T14:05:59Z</time>
      </trkpt>
      <trkpt lat="45.63308" lon="6.05571">
        <ele>1515</ele>
        <time>2010-11-28T14:06:02Z</time>
      </trkpt>
      <trkpt lat="45.63307" lon="6.05569">
        <ele>1515</ele>
        <time>2010-11-28T14:06:04Z</time>
      </trkpt>
      <trkpt lat="45.63306" lon="6.05567">
        <ele>1515</ele>
        <time>2010-11-28T14:06:07Z</time>
      </trkpt>
      <trkpt lat="45.63305" lon="6.05566">
        <ele>1515</ele>
        <time>2010-11-28T14:06:09Z</time>
      </trkpt>
      <trkpt lat="45.63305" lon="6.05564">
        <ele>1515</ele>
        <time>2010-11-28T14:06:11Z</time>
      </trkpt>
      <trkpt lat="45.63303" lon="6.05563">
        <ele>1515</ele>
        <time>2010-11-28T14:06:21Z</time>
      </trkpt>
      <trkpt lat="45.63302" lon="6.05563">
        <ele>1518</ele>
        <time>2010-11-28T14:06:26Z</time>
      </trkpt>
      <trkpt lat="45.63302" lon="6.05561">
        <ele>1518</ele>
        <time>2010-11-28T14:06:31Z</time>
      </trkpt>
      <trkpt lat="45.63302" lon="6.0556">
        <ele>1518</ele>
        <time>2010-11-28T14:06:33Z</time>
      </trkpt>
      <trkpt lat="45.633" lon="6.05558">
        <ele>1518</ele>
        <time>2010-11-28T14:06:35Z</time>
      </trkpt>
      <trkpt lat="45.633" lon="6.05555">
        <ele>1518</ele>
        <time>2010-11-28T14:06:38Z</time>
      </trkpt>
      <trkpt lat="45.63299" lon="6.05554">
        <ele>1518</ele>
        <time>2010-11-28T14:06:41Z</time>
      </trkpt>
      <trkpt lat="45.63299" lon="6.05552">
        <ele>1518</ele>
        <time>2010-11-28T14:06:44Z</time>
      </trkpt>
      <trkpt lat="45.63298" lon="6.0555">
        <ele>1518</ele>
        <time>2010-11-28T14:06:48Z</time>
      </trkpt>
      <trkpt lat="45.63298" lon="6.05548">
        <ele>1520</ele>
        <time>2010-11-28T14:06:55Z</time>
      </trkpt>
      <trkpt lat="45.63298" lon="6.05547">
        <ele>1520</ele>
        <time>2010-11-28T14:06:57Z</time>
      </trkpt>
      <trkpt lat="45.63298" lon="6.05545">
        <ele>1520</ele>
        <time>2010-11-28T14:07:00Z</time>
      </trkpt>
      <trkpt lat="45.63298" lon="6.05543">
        <ele>1520</ele>
        <time>2010-11-28T14:07:02Z</time>
      </trkpt>
      <trkpt lat="45.63297" lon="6.05541">
        <ele>1520</ele>
        <time>2010-11-28T14:07:06Z</time>
      </trkpt>
      <trkpt lat="45.63296" lon="6.0554">
        <ele>1520</ele>
        <time>2010-11-28T14:07:08Z</time>
      </trkpt>
      <trkpt lat="45.63295" lon="6.05538">
        <ele>1520</ele>
        <time>2010-11-28T14:07:10Z</time>
      </trkpt>
      <trkpt lat="45.63294" lon="6.05536">
        <ele>1520</ele>
        <time>2010-11-28T14:07:12Z</time>
      </trkpt>
      <trkpt lat="45.63293" lon="6.05534">
        <ele>1520</ele>
        <time>2010-11-28T14:07:14Z</time>
      </trkpt>
      <trkpt lat="45.63293" lon="6.05532">
        <ele>1520</ele>
        <time>2010-11-28T14:07:16Z</time>
      </trkpt>
      <trkpt lat="45.63293" lon="6.05531">
        <ele>1520</ele>
        <time>2010-11-28T14:07:18Z</time>
      </trkpt>
      <trkpt lat="45.63293" lon="6.05529">
        <ele>1521</ele>
        <time>2010-11-28T14:07:20Z</time>
      </trkpt>
      <trkpt lat="45.63292" lon="6.05526">
        <ele>1521</ele>
        <time>2010-11-28T14:07:23Z</time>
      </trkpt>
      <trkpt lat="45.63291" lon="6.05525">
        <ele>1521</ele>
        <time>2010-11-28T14:07:26Z</time>
      </trkpt>
      <trkpt lat="45.6329" lon="6.05523">
        <ele>1522</ele>
        <time>2010-11-28T14:07:29Z</time>
      </trkpt>
      <trkpt lat="45.63289" lon="6.05521">
        <ele>1522</ele>
        <time>2010-11-28T14:07:31Z</time>
      </trkpt>
      <trkpt lat="45.63287" lon="6.05519">
        <ele>1523</ele>
        <time>2010-11-28T14:07:34Z</time>
      </trkpt>
      <trkpt lat="45.63286" lon="6.05517">
        <ele>1524</ele>
        <time>2010-11-28T14:07:37Z</time>
      </trkpt>
      <trkpt lat="45.63286" lon="6.05515">
        <ele>1525</ele>
        <time>2010-11-28T14:07:47Z</time>
      </trkpt>
      <trkpt lat="45.63285" lon="6.05513">
        <ele>1525</ele>
        <time>2010-11-28T14:07:50Z</time>
      </trkpt>
      <trkpt lat="45.63284" lon="6.05512">
        <ele>1525</ele>
        <time>2010-11-28T14:07:53Z</time>
      </trkpt>
      <trkpt lat="45.63283" lon="6.05511">
        <ele>1525</ele>
        <time>2010-11-28T14:07:55Z</time>
      </trkpt>
      <trkpt lat="45.63282" lon="6.0551">
        <ele>1525</ele>
        <time>2010-11-28T14:07:57Z</time>
      </trkpt>
      <trkpt lat="45.6328" lon="6.05508">
        <ele>1525</ele>
        <time>2010-11-28T14:08:00Z</time>
      </trkpt>
      <trkpt lat="45.63279" lon="6.05508">
        <ele>1525</ele>
        <time>2010-11-28T14:08:02Z</time>
      </trkpt>
      <trkpt lat="45.63277" lon="6.05507">
        <ele>1525</ele>
        <time>2010-11-28T14:08:04Z</time>
      </trkpt>
      <trkpt lat="45.63276" lon="6.05507">
        <ele>1526</ele>
        <time>2010-11-28T14:08:07Z</time>
      </trkpt>
      <trkpt lat="45.63274" lon="6.05507">
        <ele>1526</ele>
        <time>2010-11-28T14:08:10Z</time>
      </trkpt>
      <trkpt lat="45.63273" lon="6.05506">
        <ele>1527</ele>
        <time>2010-11-28T14:08:13Z</time>
      </trkpt>
      <trkpt lat="45.63272" lon="6.05505">
        <ele>1527</ele>
        <time>2010-11-28T14:08:16Z</time>
      </trkpt>
      <trkpt lat="45.6327" lon="6.05504">
        <ele>1528</ele>
        <time>2010-11-28T14:08:19Z</time>
      </trkpt>
      <trkpt lat="45.6327" lon="6.05505">
        <ele>1528</ele>
        <time>2010-11-28T14:08:26Z</time>
      </trkpt>
      <trkpt lat="45.63272" lon="6.05504">
        <ele>1528</ele>
        <time>2010-11-28T14:08:28Z</time>
      </trkpt>
      <trkpt lat="45.63272" lon="6.05499">
        <ele>1528</ele>
        <time>2010-11-28T14:08:31Z</time>
      </trkpt>
      <trkpt lat="45.63271" lon="6.05495">
        <ele>1528</ele>
        <time>2010-11-28T14:08:33Z</time>
      </trkpt>
      <trkpt lat="45.6327" lon="6.05494">
        <ele>1528</ele>
        <time>2010-11-28T14:08:36Z</time>
      </trkpt>
      <trkpt lat="45.6327" lon="6.05492">
        <ele>1528</ele>
        <time>2010-11-28T14:08:38Z</time>
      </trkpt>
      <trkpt lat="45.63269" lon="6.0549">
        <ele>1528</ele>
        <time>2010-11-28T14:08:41Z</time>
      </trkpt>
      <trkpt lat="45.63269" lon="6.05488">
        <ele>1529</ele>
        <time>2010-11-28T14:08:44Z</time>
      </trkpt>
      <trkpt lat="45.63268" lon="6.05487">
        <ele>1530</ele>
        <time>2010-11-28T14:08:46Z</time>
      </trkpt>
      <trkpt lat="45.63268" lon="6.05485">
        <ele>1530</ele>
        <time>2010-11-28T14:08:48Z</time>
      </trkpt>
      <trkpt lat="45.63266" lon="6.05483">
        <ele>1530</ele>
        <time>2010-11-28T14:08:52Z</time>
      </trkpt>
      <trkpt lat="45.63264" lon="6.05482">
        <ele>1530</ele>
        <time>2010-11-28T14:08:56Z</time>
      </trkpt>
      <trkpt lat="45.63263" lon="6.05481">
        <ele>1531</ele>
        <time>2010-11-28T14:08:58Z</time>
      </trkpt>
      <trkpt lat="45.63261" lon="6.0548">
        <ele>1532</ele>
        <time>2010-11-28T14:09:01Z</time>
      </trkpt>
      <trkpt lat="45.6326" lon="6.05479">
        <ele>1533</ele>
        <time>2010-11-28T14:09:03Z</time>
      </trkpt>
      <trkpt lat="45.63258" lon="6.05479">
        <ele>1534</ele>
        <time>2010-11-28T14:09:12Z</time>
      </trkpt>
      <trkpt lat="45.63258" lon="6.05477">
        <ele>1534</ele>
        <time>2010-11-28T14:09:17Z</time>
      </trkpt>
      <trkpt lat="45.63257" lon="6.05476">
        <ele>1534</ele>
        <time>2010-11-28T14:09:19Z</time>
      </trkpt>
      <trkpt lat="45.63256" lon="6.05474">
        <ele>1534</ele>
        <time>2010-11-28T14:09:22Z</time>
      </trkpt>
      <trkpt lat="45.63256" lon="6.05472">
        <ele>1534</ele>
        <time>2010-11-28T14:09:24Z</time>
      </trkpt>
      <trkpt lat="45.63256" lon="6.05471">
        <ele>1534</ele>
        <time>2010-11-28T14:09:26Z</time>
      </trkpt>
      <trkpt lat="45.63256" lon="6.05469">
        <ele>1534</ele>
        <time>2010-11-28T14:09:28Z</time>
      </trkpt>
      <trkpt lat="45.63256" lon="6.05468">
        <ele>1535</ele>
        <time>2010-11-28T14:09:30Z</time>
      </trkpt>
      <trkpt lat="45.63255" lon="6.05466">
        <ele>1535</ele>
        <time>2010-11-28T14:09:32Z</time>
      </trkpt>
      <trkpt lat="45.63255" lon="6.05465">
        <ele>1536</ele>
        <time>2010-11-28T14:09:34Z</time>
      </trkpt>
      <trkpt lat="45.63253" lon="6.05463">
        <ele>1536</ele>
        <time>2010-11-28T14:09:36Z</time>
      </trkpt>
      <trkpt lat="45.63252" lon="6.05462">
        <ele>1537</ele>
        <time>2010-11-28T14:09:38Z</time>
      </trkpt>
      <trkpt lat="45.63251" lon="6.05461">
        <ele>1537</ele>
        <time>2010-11-28T14:09:40Z</time>
      </trkpt>
      <trkpt lat="45.6325" lon="6.05459">
        <ele>1538</ele>
        <time>2010-11-28T14:09:42Z</time>
      </trkpt>
      <trkpt lat="45.63248" lon="6.05457">
        <ele>1538</ele>
        <time>2010-11-28T14:09:44Z</time>
      </trkpt>
      <trkpt lat="45.63248" lon="6.05456">
        <ele>1538</ele>
        <time>2010-11-28T14:09:46Z</time>
      </trkpt>
      <trkpt lat="45.63246" lon="6.05453">
        <ele>1538</ele>
        <time>2010-11-28T14:09:48Z</time>
      </trkpt>
      <trkpt lat="45.63245" lon="6.05452">
        <ele>1538</ele>
        <time>2010-11-28T14:09:51Z</time>
      </trkpt>
      <trkpt lat="45.63244" lon="6.05451">
        <ele>1538</ele>
        <time>2010-11-28T14:09:53Z</time>
      </trkpt>
      <trkpt lat="45.63244" lon="6.05449">
        <ele>1538</ele>
        <time>2010-11-28T14:10:03Z</time>
      </trkpt>
      <trkpt lat="45.63244" lon="6.05447">
        <ele>1538</ele>
        <time>2010-11-28T14:10:06Z</time>
      </trkpt>
      <trkpt lat="45.63243" lon="6.05445">
        <ele>1538</ele>
        <time>2010-11-28T14:10:09Z</time>
      </trkpt>
      <trkpt lat="45.63242" lon="6.05442">
        <ele>1538</ele>
        <time>2010-11-28T14:10:12Z</time>
      </trkpt>
      <trkpt lat="45.63241" lon="6.0544">
        <ele>1538</ele>
        <time>2010-11-28T14:10:17Z</time>
      </trkpt>
      <trkpt lat="45.63239" lon="6.05438">
        <ele>1538</ele>
        <time>2010-11-28T14:10:20Z</time>
      </trkpt>
      <trkpt lat="45.63238" lon="6.05437">
        <ele>1538</ele>
        <time>2010-11-28T14:10:22Z</time>
      </trkpt>
      <trkpt lat="45.63237" lon="6.05436">
        <ele>1539</ele>
        <time>2010-11-28T14:10:24Z</time>
      </trkpt>
      <trkpt lat="45.63235" lon="6.05435">
        <ele>1539</ele>
        <time>2010-11-28T14:10:28Z</time>
      </trkpt>
      <trkpt lat="45.63237" lon="6.05436">
        <ele>1540</ele>
        <time>2010-11-28T14:10:35Z</time>
      </trkpt>
      <trkpt lat="45.63235" lon="6.05434">
        <ele>1540</ele>
        <time>2010-11-28T14:10:49Z</time>
      </trkpt>
      <trkpt lat="45.63234" lon="6.05433">
        <ele>1540</ele>
        <time>2010-11-28T14:10:51Z</time>
      </trkpt>
      <trkpt lat="45.63235" lon="6.05434">
        <ele>1543</ele>
        <time>2010-11-28T14:11:33Z</time>
      </trkpt>
      <trkpt lat="45.63236" lon="6.05435">
        <ele>1543</ele>
        <time>2010-11-28T14:11:40Z</time>
      </trkpt>
      <trkpt lat="45.63236" lon="6.05434">
        <ele>1543</ele>
        <time>2010-11-28T14:11:56Z</time>
      </trkpt>
      <trkpt lat="45.63237" lon="6.05434">
        <ele>1543</ele>
        <time>2010-11-28T14:12:04Z</time>
      </trkpt>
      <trkpt lat="45.63237" lon="6.05436">
        <ele>1543</ele>
        <time>2010-11-28T14:12:12Z</time>
      </trkpt>
      <trkpt lat="45.63238" lon="6.05436">
        <ele>1543</ele>
        <time>2010-11-28T14:12:24Z</time>
      </trkpt>
      <trkpt lat="45.63237" lon="6.05435">
        <ele>1543</ele>
        <time>2010-11-28T14:12:43Z</time>
      </trkpt>
      <trkpt lat="45.63235" lon="6.05435">
        <ele>1543</ele>
        <time>2010-11-28T14:12:45Z</time>
      </trkpt>
      <trkpt lat="45.63234" lon="6.05435">
        <ele>1543</ele>
        <time>2010-11-28T14:12:49Z</time>
      </trkpt>
      <trkpt lat="45.63235" lon="6.05433">
        <ele>1547</ele>
        <time>2010-11-28T14:13:03Z</time>
      </trkpt>
      <trkpt lat="45.63235" lon="6.05432">
        <ele>1547</ele>
        <time>2010-11-28T14:13:10Z</time>
      </trkpt>
      <trkpt lat="45.63236" lon="6.0543">
        <ele>1547</ele>
        <time>2010-11-28T14:13:15Z</time>
      </trkpt>
      <trkpt lat="45.63234" lon="6.05431">
        <ele>1547</ele>
        <time>2010-11-28T14:13:24Z</time>
      </trkpt>
      <trkpt lat="45.63233" lon="6.05432">
        <ele>1547</ele>
        <time>2010-11-28T14:13:31Z</time>
      </trkpt>
      <trkpt lat="45.63233" lon="6.05434">
        <ele>1547</ele>
        <time>2010-11-28T14:13:43Z</time>
      </trkpt>
      <trkpt lat="45.63234" lon="6.05435">
        <ele>1547</ele>
        <time>2010-11-28T14:14:57Z</time>
      </trkpt>
      <trkpt lat="45.63235" lon="6.05433">
        <ele>1547</ele>
        <time>2010-11-28T14:15:00Z</time>
      </trkpt>
      <trkpt lat="45.63236" lon="6.05434">
        <ele>1547</ele>
        <time>2010-11-28T14:15:15Z</time>
      </trkpt>
      <trkpt lat="45.63237" lon="6.05434">
        <ele>1547</ele>
        <time>2010-11-28T14:15:30Z</time>
      </trkpt>
      <trkpt lat="45.63235" lon="6.05433">
        <ele>1547</ele>
        <time>2010-11-28T14:15:40Z</time>
      </trkpt>
      <trkpt lat="45.63234" lon="6.05432">
        <ele>1547</ele>
        <time>2010-11-28T14:15:42Z</time>
      </trkpt>
      <trkpt lat="45.63232" lon="6.05432">
        <ele>1547</ele>
        <time>2010-11-28T14:15:44Z</time>
      </trkpt>
      <trkpt lat="45.6323" lon="6.05431">
        <ele>1547</ele>
        <time>2010-11-28T14:15:47Z</time>
      </trkpt>
      <trkpt lat="45.63228" lon="6.05431">
        <ele>1547</ele>
        <time>2010-11-28T14:15:49Z</time>
      </trkpt>
      <trkpt lat="45.63227" lon="6.0543">
        <ele>1547</ele>
        <time>2010-11-28T14:15:51Z</time>
      </trkpt>
      <trkpt lat="45.63225" lon="6.0543">
        <ele>1547</ele>
        <time>2010-11-28T14:15:53Z</time>
      </trkpt>
      <trkpt lat="45.63224" lon="6.05429">
        <ele>1547</ele>
        <time>2010-11-28T14:15:55Z</time>
      </trkpt>
      <trkpt lat="45.63222" lon="6.05429">
        <ele>1547</ele>
        <time>2010-11-28T14:15:57Z</time>
      </trkpt>
      <trkpt lat="45.63221" lon="6.05428">
        <ele>1547</ele>
        <time>2010-11-28T14:16:00Z</time>
      </trkpt>
      <trkpt lat="45.63219" lon="6.05428">
        <ele>1547</ele>
        <time>2010-11-28T14:16:03Z</time>
      </trkpt>
      <trkpt lat="45.63217" lon="6.05427">
        <ele>1547</ele>
        <time>2010-11-28T14:16:05Z</time>
      </trkpt>
      <trkpt lat="45.63216" lon="6.05427">
        <ele>1548</ele>
        <time>2010-11-28T14:16:07Z</time>
      </trkpt>
      <trkpt lat="45.63214" lon="6.05427">
        <ele>1548</ele>
        <time>2010-11-28T14:16:09Z</time>
      </trkpt>
      <trkpt lat="45.63213" lon="6.05427">
        <ele>1548</ele>
        <time>2010-11-28T14:16:12Z</time>
      </trkpt>
      <trkpt lat="45.63212" lon="6.05427">
        <ele>1549</ele>
        <time>2010-11-28T14:16:14Z</time>
      </trkpt>
      <trkpt lat="45.6321" lon="6.05426">
        <ele>1549</ele>
        <time>2010-11-28T14:16:17Z</time>
      </trkpt>
      <trkpt lat="45.63209" lon="6.05425">
        <ele>1549</ele>
        <time>2010-11-28T14:16:19Z</time>
      </trkpt>
      <trkpt lat="45.63207" lon="6.05425">
        <ele>1550</ele>
        <time>2010-11-28T14:16:22Z</time>
      </trkpt>
      <trkpt lat="45.63206" lon="6.05424">
        <ele>1550</ele>
        <time>2010-11-28T14:16:24Z</time>
      </trkpt>
      <trkpt lat="45.63205" lon="6.05423">
        <ele>1551</ele>
        <time>2010-11-28T14:16:27Z</time>
      </trkpt>
      <trkpt lat="45.63203" lon="6.05422">
        <ele>1551</ele>
        <time>2010-11-28T14:16:30Z</time>
      </trkpt>
      <trkpt lat="45.63203" lon="6.0542">
        <ele>1552</ele>
        <time>2010-11-28T14:16:33Z</time>
      </trkpt>
      <trkpt lat="45.63202" lon="6.05417">
        <ele>1552</ele>
        <time>2010-11-28T14:16:36Z</time>
      </trkpt>
      <trkpt lat="45.63202" lon="6.05416">
        <ele>1552</ele>
        <time>2010-11-28T14:16:38Z</time>
      </trkpt>
      <trkpt lat="45.63202" lon="6.05414">
        <ele>1553</ele>
        <time>2010-11-28T14:16:40Z</time>
      </trkpt>
      <trkpt lat="45.63201" lon="6.05413">
        <ele>1553</ele>
        <time>2010-11-28T14:16:43Z</time>
      </trkpt>
      <trkpt lat="45.632" lon="6.05411">
        <ele>1553</ele>
        <time>2010-11-28T14:16:46Z</time>
      </trkpt>
      <trkpt lat="45.63198" lon="6.05409">
        <ele>1553</ele>
        <time>2010-11-28T14:16:48Z</time>
      </trkpt>
      <trkpt lat="45.63197" lon="6.05408">
        <ele>1553</ele>
        <time>2010-11-28T14:16:50Z</time>
      </trkpt>
      <trkpt lat="45.63196" lon="6.05408">
        <ele>1553</ele>
        <time>2010-11-28T14:16:52Z</time>
      </trkpt>
      <trkpt lat="45.63194" lon="6.05407">
        <ele>1554</ele>
        <time>2010-11-28T14:16:54Z</time>
      </trkpt>
      <trkpt lat="45.63192" lon="6.05407">
        <ele>1554</ele>
        <time>2010-11-28T14:16:56Z</time>
      </trkpt>
      <trkpt lat="45.63194" lon="6.05408">
        <ele>1554</ele>
        <time>2010-11-28T14:17:05Z</time>
      </trkpt>
      <trkpt lat="45.63192" lon="6.05408">
        <ele>1555</ele>
        <time>2010-11-28T14:17:09Z</time>
      </trkpt>
      <trkpt lat="45.63191" lon="6.05407">
        <ele>1555</ele>
        <time>2010-11-28T14:17:12Z</time>
      </trkpt>
      <trkpt lat="45.6319" lon="6.05406">
        <ele>1555</ele>
        <time>2010-11-28T14:17:15Z</time>
      </trkpt>
      <trkpt lat="45.63189" lon="6.05405">
        <ele>1555</ele>
        <time>2010-11-28T14:17:18Z</time>
      </trkpt>
      <trkpt lat="45.63187" lon="6.05403">
        <ele>1555</ele>
        <time>2010-11-28T14:17:21Z</time>
      </trkpt>
      <trkpt lat="45.63186" lon="6.05401">
        <ele>1555</ele>
        <time>2010-11-28T14:17:24Z</time>
      </trkpt>
      <trkpt lat="45.63185" lon="6.05399">
        <ele>1556</ele>
        <time>2010-11-28T14:17:31Z</time>
      </trkpt>
      <trkpt lat="45.63184" lon="6.05398">
        <ele>1557</ele>
        <time>2010-11-28T14:17:35Z</time>
      </trkpt>
      <trkpt lat="45.63183" lon="6.05396">
        <ele>1557</ele>
        <time>2010-11-28T14:17:38Z</time>
      </trkpt>
      <trkpt lat="45.63182" lon="6.05394">
        <ele>1557</ele>
        <time>2010-11-28T14:17:41Z</time>
      </trkpt>
      <trkpt lat="45.63181" lon="6.05392">
        <ele>1557</ele>
        <time>2010-11-28T14:17:44Z</time>
      </trkpt>
      <trkpt lat="45.6318" lon="6.0539">
        <ele>1557</ele>
        <time>2010-11-28T14:17:47Z</time>
      </trkpt>
      <trkpt lat="45.6318" lon="6.05388">
        <ele>1557</ele>
        <time>2010-11-28T14:17:50Z</time>
      </trkpt>
      <trkpt lat="45.63179" lon="6.05389">
        <ele>1558</ele>
        <time>2010-11-28T14:18:47Z</time>
      </trkpt>
      <trkpt lat="45.6318" lon="6.05388">
        <ele>1558</ele>
        <time>2010-11-28T14:19:09Z</time>
      </trkpt>
      <trkpt lat="45.63182" lon="6.05389">
        <ele>1558</ele>
        <time>2010-11-28T14:19:13Z</time>
      </trkpt>
      <trkpt lat="45.63182" lon="6.05388">
        <ele>1558</ele>
        <time>2010-11-28T14:19:28Z</time>
      </trkpt>
      <trkpt lat="45.63181" lon="6.05386">
        <ele>1558</ele>
        <time>2010-11-28T14:19:36Z</time>
      </trkpt>
      <trkpt lat="45.6318" lon="6.05385">
        <ele>1558</ele>
        <time>2010-11-28T14:19:38Z</time>
      </trkpt>
      <trkpt lat="45.6318" lon="6.05383">
        <ele>1558</ele>
        <time>2010-11-28T14:19:40Z</time>
      </trkpt>
      <trkpt lat="45.63179" lon="6.05381">
        <ele>1558</ele>
        <time>2010-11-28T14:19:42Z</time>
      </trkpt>
      <trkpt lat="45.63179" lon="6.05379">
        <ele>1558</ele>
        <time>2010-11-28T14:19:44Z</time>
      </trkpt>
      <trkpt lat="45.63178" lon="6.05377">
        <ele>1558</ele>
        <time>2010-11-28T14:19:46Z</time>
      </trkpt>
      <trkpt lat="45.63178" lon="6.05375">
        <ele>1558</ele>
        <time>2010-11-28T14:19:48Z</time>
      </trkpt>
      <trkpt lat="45.63177" lon="6.05373">
        <ele>1558</ele>
        <time>2010-11-28T14:19:50Z</time>
      </trkpt>
      <trkpt lat="45.63176" lon="6.05372">
        <ele>1558</ele>
        <time>2010-11-28T14:19:52Z</time>
      </trkpt>
      <trkpt lat="45.63176" lon="6.0537">
        <ele>1558</ele>
        <time>2010-11-28T14:19:54Z</time>
      </trkpt>
      <trkpt lat="45.63176" lon="6.05368">
        <ele>1558</ele>
        <time>2010-11-28T14:19:56Z</time>
      </trkpt>
      <trkpt lat="45.63176" lon="6.05366">
        <ele>1558</ele>
        <time>2010-11-28T14:19:58Z</time>
      </trkpt>
      <trkpt lat="45.63175" lon="6.05364">
        <ele>1558</ele>
        <time>2010-11-28T14:20:00Z</time>
      </trkpt>
      <trkpt lat="45.63175" lon="6.05362">
        <ele>1558</ele>
        <time>2010-11-28T14:20:02Z</time>
      </trkpt>
      <trkpt lat="45.63174" lon="6.05359">
        <ele>1559</ele>
        <time>2010-11-28T14:20:04Z</time>
      </trkpt>
      <trkpt lat="45.63173" lon="6.05357">
        <ele>1559</ele>
        <time>2010-11-28T14:20:06Z</time>
      </trkpt>
      <trkpt lat="45.63173" lon="6.05355">
        <ele>1559</ele>
        <time>2010-11-28T14:20:08Z</time>
      </trkpt>
      <trkpt lat="45.63173" lon="6.05353">
        <ele>1560</ele>
        <time>2010-11-28T14:20:10Z</time>
      </trkpt>
      <trkpt lat="45.63172" lon="6.05352">
        <ele>1560</ele>
        <time>2010-11-28T14:20:12Z</time>
      </trkpt>
      <trkpt lat="45.63172" lon="6.0535">
        <ele>1560</ele>
        <time>2010-11-28T14:20:14Z</time>
      </trkpt>
      <trkpt lat="45.63171" lon="6.05348">
        <ele>1561</ele>
        <time>2010-11-28T14:20:16Z</time>
      </trkpt>
      <trkpt lat="45.63171" lon="6.05346">
        <ele>1561</ele>
        <time>2010-11-28T14:20:18Z</time>
      </trkpt>
      <trkpt lat="45.6317" lon="6.05344">
        <ele>1562</ele>
        <time>2010-11-28T14:20:21Z</time>
      </trkpt>
      <trkpt lat="45.63169" lon="6.05342">
        <ele>1562</ele>
        <time>2010-11-28T14:20:23Z</time>
      </trkpt>
      <trkpt lat="45.63169" lon="6.05341">
        <ele>1563</ele>
        <time>2010-11-28T14:20:25Z</time>
      </trkpt>
      <trkpt lat="45.63169" lon="6.05339">
        <ele>1563</ele>
        <time>2010-11-28T14:20:27Z</time>
      </trkpt>
      <trkpt lat="45.63168" lon="6.05338">
        <ele>1563</ele>
        <time>2010-11-28T14:20:29Z</time>
      </trkpt>
      <trkpt lat="45.63168" lon="6.05336">
        <ele>1563</ele>
        <time>2010-11-28T14:20:31Z</time>
      </trkpt>
      <trkpt lat="45.63167" lon="6.05334">
        <ele>1564</ele>
        <time>2010-11-28T14:20:34Z</time>
      </trkpt>
      <trkpt lat="45.63166" lon="6.05332">
        <ele>1565</ele>
        <time>2010-11-28T14:20:37Z</time>
      </trkpt>
      <trkpt lat="45.63166" lon="6.0533">
        <ele>1565</ele>
        <time>2010-11-28T14:20:40Z</time>
      </trkpt>
      <trkpt lat="45.63165" lon="6.05329">
        <ele>1565</ele>
        <time>2010-11-28T14:20:43Z</time>
      </trkpt>
      <trkpt lat="45.63163" lon="6.05328">
        <ele>1565</ele>
        <time>2010-11-28T14:20:46Z</time>
      </trkpt>
      <trkpt lat="45.63162" lon="6.05327">
        <ele>1565</ele>
        <time>2010-11-28T14:20:48Z</time>
      </trkpt>
      <trkpt lat="45.63161" lon="6.05325">
        <ele>1566</ele>
        <time>2010-11-28T14:20:51Z</time>
      </trkpt>
      <trkpt lat="45.6316" lon="6.05323">
        <ele>1566</ele>
        <time>2010-11-28T14:20:53Z</time>
      </trkpt>
      <trkpt lat="45.63159" lon="6.05322">
        <ele>1566</ele>
        <time>2010-11-28T14:20:56Z</time>
      </trkpt>
      <trkpt lat="45.63158" lon="6.0532">
        <ele>1566</ele>
        <time>2010-11-28T14:20:58Z</time>
      </trkpt>
      <trkpt lat="45.63158" lon="6.05318">
        <ele>1567</ele>
        <time>2010-11-28T14:21:10Z</time>
      </trkpt>
      <trkpt lat="45.63156" lon="6.05316">
        <ele>1568</ele>
        <time>2010-11-28T14:21:13Z</time>
      </trkpt>
      <trkpt lat="45.63155" lon="6.05314">
        <ele>1569</ele>
        <time>2010-11-28T14:21:16Z</time>
      </trkpt>
      <trkpt lat="45.63154" lon="6.05312">
        <ele>1570</ele>
        <time>2010-11-28T14:21:19Z</time>
      </trkpt>
      <trkpt lat="45.63153" lon="6.05311">
        <ele>1570</ele>
        <time>2010-11-28T14:21:21Z</time>
      </trkpt>
      <trkpt lat="45.63152" lon="6.05309">
        <ele>1570</ele>
        <time>2010-11-28T14:21:23Z</time>
      </trkpt>
      <trkpt lat="45.63151" lon="6.05308">
        <ele>1571</ele>
        <time>2010-11-28T14:21:25Z</time>
      </trkpt>
      <trkpt lat="45.63151" lon="6.05306">
        <ele>1571</ele>
        <time>2010-11-28T14:21:28Z</time>
      </trkpt>
      <trkpt lat="45.63151" lon="6.05303">
        <ele>1571</ele>
        <time>2010-11-28T14:21:31Z</time>
      </trkpt>
      <trkpt lat="45.6315" lon="6.05302">
        <ele>1572</ele>
        <time>2010-11-28T14:21:33Z</time>
      </trkpt>
      <trkpt lat="45.6315" lon="6.053">
        <ele>1572</ele>
        <time>2010-11-28T14:21:35Z</time>
      </trkpt>
      <trkpt lat="45.6315" lon="6.05299">
        <ele>1572</ele>
        <time>2010-11-28T14:21:37Z</time>
      </trkpt>
      <trkpt lat="45.6315" lon="6.05297">
        <ele>1572</ele>
        <time>2010-11-28T14:21:39Z</time>
      </trkpt>
      <trkpt lat="45.6315" lon="6.05295">
        <ele>1572</ele>
        <time>2010-11-28T14:21:41Z</time>
      </trkpt>
      <trkpt lat="45.6315" lon="6.05293">
        <ele>1572</ele>
        <time>2010-11-28T14:21:43Z</time>
      </trkpt>
      <trkpt lat="45.6315" lon="6.05292">
        <ele>1572</ele>
        <time>2010-11-28T14:21:45Z</time>
      </trkpt>
      <trkpt lat="45.6315" lon="6.0529">
        <ele>1573</ele>
        <time>2010-11-28T14:21:48Z</time>
      </trkpt>
      <trkpt lat="45.6315" lon="6.05288">
        <ele>1573</ele>
        <time>2010-11-28T14:21:50Z</time>
      </trkpt>
      <trkpt lat="45.6315" lon="6.05285">
        <ele>1573</ele>
        <time>2010-11-28T14:21:52Z</time>
      </trkpt>
      <trkpt lat="45.63149" lon="6.05283">
        <ele>1573</ele>
        <time>2010-11-28T14:21:54Z</time>
      </trkpt>
      <trkpt lat="45.63148" lon="6.05281">
        <ele>1573</ele>
        <time>2010-11-28T14:22:12Z</time>
      </trkpt>
      <trkpt lat="45.63148" lon="6.05279">
        <ele>1573</ele>
        <time>2010-11-28T14:22:14Z</time>
      </trkpt>
      <trkpt lat="45.63147" lon="6.05278">
        <ele>1573</ele>
        <time>2010-11-28T14:22:16Z</time>
      </trkpt>
      <trkpt lat="45.63147" lon="6.05276">
        <ele>1573</ele>
        <time>2010-11-28T14:22:18Z</time>
      </trkpt>
      <trkpt lat="45.63146" lon="6.05274">
        <ele>1573</ele>
        <time>2010-11-28T14:22:20Z</time>
      </trkpt>
      <trkpt lat="45.63145" lon="6.05273">
        <ele>1573</ele>
        <time>2010-11-28T14:22:22Z</time>
      </trkpt>
      <trkpt lat="45.63145" lon="6.05271">
        <ele>1574</ele>
        <time>2010-11-28T14:22:24Z</time>
      </trkpt>
      <trkpt lat="45.63144" lon="6.0527">
        <ele>1574</ele>
        <time>2010-11-28T14:22:26Z</time>
      </trkpt>
      <trkpt lat="45.63142" lon="6.05268">
        <ele>1574</ele>
        <time>2010-11-28T14:22:29Z</time>
      </trkpt>
      <trkpt lat="45.63141" lon="6.05266">
        <ele>1574</ele>
        <time>2010-11-28T14:22:31Z</time>
      </trkpt>
      <trkpt lat="45.6314" lon="6.05265">
        <ele>1575</ele>
        <time>2010-11-28T14:22:34Z</time>
      </trkpt>
      <trkpt lat="45.63139" lon="6.05264">
        <ele>1575</ele>
        <time>2010-11-28T14:22:36Z</time>
      </trkpt>
      <trkpt lat="45.63137" lon="6.05262">
        <ele>1575</ele>
        <time>2010-11-28T14:22:39Z</time>
      </trkpt>
      <trkpt lat="45.63136" lon="6.05261">
        <ele>1576</ele>
        <time>2010-11-28T14:22:41Z</time>
      </trkpt>
      <trkpt lat="45.63134" lon="6.0526">
        <ele>1576</ele>
        <time>2010-11-28T14:22:43Z</time>
      </trkpt>
      <trkpt lat="45.63132" lon="6.05259">
        <ele>1576</ele>
        <time>2010-11-28T14:22:46Z</time>
      </trkpt>
      <trkpt lat="45.63131" lon="6.05258">
        <ele>1576</ele>
        <time>2010-11-28T14:22:48Z</time>
      </trkpt>
      <trkpt lat="45.6313" lon="6.05257">
        <ele>1577</ele>
        <time>2010-11-28T14:22:50Z</time>
      </trkpt>
      <trkpt lat="45.63129" lon="6.05255">
        <ele>1577</ele>
        <time>2010-11-28T14:22:52Z</time>
      </trkpt>
      <trkpt lat="45.63127" lon="6.05254">
        <ele>1577</ele>
        <time>2010-11-28T14:22:54Z</time>
      </trkpt>
      <trkpt lat="45.63126" lon="6.05253">
        <ele>1578</ele>
        <time>2010-11-28T14:22:57Z</time>
      </trkpt>
      <trkpt lat="45.63124" lon="6.05251">
        <ele>1578</ele>
        <time>2010-11-28T14:23:00Z</time>
      </trkpt>
      <trkpt lat="45.63123" lon="6.0525">
        <ele>1579</ele>
        <time>2010-11-28T14:23:02Z</time>
      </trkpt>
      <trkpt lat="45.63122" lon="6.05249">
        <ele>1579</ele>
        <time>2010-11-28T14:23:04Z</time>
      </trkpt>
      <trkpt lat="45.6312" lon="6.05248">
        <ele>1579</ele>
        <time>2010-11-28T14:23:06Z</time>
      </trkpt>
      <trkpt lat="45.63119" lon="6.05247">
        <ele>1580</ele>
        <time>2010-11-28T14:23:09Z</time>
      </trkpt>
      <trkpt lat="45.63118" lon="6.05246">
        <ele>1580</ele>
        <time>2010-11-28T14:23:11Z</time>
      </trkpt>
      <trkpt lat="45.63116" lon="6.05245">
        <ele>1581</ele>
        <time>2010-11-28T14:23:13Z</time>
      </trkpt>
      <trkpt lat="45.63115" lon="6.05244">
        <ele>1581</ele>
        <time>2010-11-28T14:23:15Z</time>
      </trkpt>
      <trkpt lat="45.63114" lon="6.05243">
        <ele>1581</ele>
        <time>2010-11-28T14:23:27Z</time>
      </trkpt>
      <trkpt lat="45.63113" lon="6.05242">
        <ele>1581</ele>
        <time>2010-11-28T14:23:29Z</time>
      </trkpt>
      <trkpt lat="45.6311" lon="6.0524">
        <ele>1581</ele>
        <time>2010-11-28T14:23:33Z</time>
      </trkpt>
      <trkpt lat="45.63109" lon="6.0524">
        <ele>1582</ele>
        <time>2010-11-28T14:23:35Z</time>
      </trkpt>
      <trkpt lat="45.63108" lon="6.05239">
        <ele>1582</ele>
        <time>2010-11-28T14:23:37Z</time>
      </trkpt>
      <trkpt lat="45.63106" lon="6.05237">
        <ele>1582</ele>
        <time>2010-11-28T14:23:40Z</time>
      </trkpt>
      <trkpt lat="45.63105" lon="6.05237">
        <ele>1583</ele>
        <time>2010-11-28T14:23:42Z</time>
      </trkpt>
      <trkpt lat="45.63103" lon="6.05235">
        <ele>1583</ele>
        <time>2010-11-28T14:23:45Z</time>
      </trkpt>
      <trkpt lat="45.63102" lon="6.05234">
        <ele>1583</ele>
        <time>2010-11-28T14:23:47Z</time>
      </trkpt>
      <trkpt lat="45.63101" lon="6.05233">
        <ele>1584</ele>
        <time>2010-11-28T14:23:49Z</time>
      </trkpt>
      <trkpt lat="45.631" lon="6.05232">
        <ele>1584</ele>
        <time>2010-11-28T14:23:51Z</time>
      </trkpt>
      <trkpt lat="45.63098" lon="6.05231">
        <ele>1584</ele>
        <time>2010-11-28T14:23:53Z</time>
      </trkpt>
      <trkpt lat="45.63097" lon="6.0523">
        <ele>1585</ele>
        <time>2010-11-28T14:23:55Z</time>
      </trkpt>
      <trkpt lat="45.63095" lon="6.05229">
        <ele>1586</ele>
        <time>2010-11-28T14:23:58Z</time>
      </trkpt>
      <trkpt lat="45.63094" lon="6.05229">
        <ele>1586</ele>
        <time>2010-11-28T14:24:00Z</time>
      </trkpt>
      <trkpt lat="45.63093" lon="6.05227">
        <ele>1586</ele>
        <time>2010-11-28T14:24:06Z</time>
      </trkpt>
      <trkpt lat="45.63092" lon="6.05226">
        <ele>1586</ele>
        <time>2010-11-28T14:24:08Z</time>
      </trkpt>
      <trkpt lat="45.63091" lon="6.05225">
        <ele>1586</ele>
        <time>2010-11-28T14:24:10Z</time>
      </trkpt>
      <trkpt lat="45.63089" lon="6.05223">
        <ele>1586</ele>
        <time>2010-11-28T14:24:13Z</time>
      </trkpt>
      <trkpt lat="45.63087" lon="6.05222">
        <ele>1587</ele>
        <time>2010-11-28T14:24:16Z</time>
      </trkpt>
      <trkpt lat="45.63086" lon="6.05221">
        <ele>1587</ele>
        <time>2010-11-28T14:24:19Z</time>
      </trkpt>
      <trkpt lat="45.63084" lon="6.05219">
        <ele>1587</ele>
        <time>2010-11-28T14:24:22Z</time>
      </trkpt>
      <trkpt lat="45.63083" lon="6.05218">
        <ele>1588</ele>
        <time>2010-11-28T14:24:25Z</time>
      </trkpt>
      <trkpt lat="45.63081" lon="6.05216">
        <ele>1588</ele>
        <time>2010-11-28T14:24:28Z</time>
      </trkpt>
      <trkpt lat="45.63081" lon="6.05214">
        <ele>1589</ele>
        <time>2010-11-28T14:24:39Z</time>
      </trkpt>
      <trkpt lat="45.63079" lon="6.05212">
        <ele>1589</ele>
        <time>2010-11-28T14:24:41Z</time>
      </trkpt>
      <trkpt lat="45.63078" lon="6.05211">
        <ele>1589</ele>
        <time>2010-11-28T14:24:44Z</time>
      </trkpt>
      <trkpt lat="45.63076" lon="6.05209">
        <ele>1590</ele>
        <time>2010-11-28T14:24:47Z</time>
      </trkpt>
      <trkpt lat="45.63074" lon="6.05208">
        <ele>1590</ele>
        <time>2010-11-28T14:24:50Z</time>
      </trkpt>
      <trkpt lat="45.63073" lon="6.05206">
        <ele>1591</ele>
        <time>2010-11-28T14:24:53Z</time>
      </trkpt>
      <trkpt lat="45.63071" lon="6.05205">
        <ele>1591</ele>
        <time>2010-11-28T14:24:55Z</time>
      </trkpt>
      <trkpt lat="45.6307" lon="6.05204">
        <ele>1591</ele>
        <time>2010-11-28T14:24:58Z</time>
      </trkpt>
      <trkpt lat="45.63068" lon="6.05203">
        <ele>1592</ele>
        <time>2010-11-28T14:25:01Z</time>
      </trkpt>
      <trkpt lat="45.63068" lon="6.05201">
        <ele>1593</ele>
        <time>2010-11-28T14:25:05Z</time>
      </trkpt>
      <trkpt lat="45.63066" lon="6.052">
        <ele>1593</ele>
        <time>2010-11-28T14:25:07Z</time>
      </trkpt>
      <trkpt lat="45.63065" lon="6.05199">
        <ele>1594</ele>
        <time>2010-11-28T14:25:18Z</time>
      </trkpt>
      <trkpt lat="45.63064" lon="6.05197">
        <ele>1594</ele>
        <time>2010-11-28T14:25:21Z</time>
      </trkpt>
      <trkpt lat="45.63063" lon="6.05196">
        <ele>1594</ele>
        <time>2010-11-28T14:25:24Z</time>
      </trkpt>
      <trkpt lat="45.63061" lon="6.05195">
        <ele>1594</ele>
        <time>2010-11-28T14:25:26Z</time>
      </trkpt>
      <trkpt lat="45.6306" lon="6.05194">
        <ele>1594</ele>
        <time>2010-11-28T14:25:28Z</time>
      </trkpt>
      <trkpt lat="45.63059" lon="6.05193">
        <ele>1595</ele>
        <time>2010-11-28T14:25:30Z</time>
      </trkpt>
      <trkpt lat="45.63057" lon="6.05193">
        <ele>1595</ele>
        <time>2010-11-28T14:25:33Z</time>
      </trkpt>
      <trkpt lat="45.63056" lon="6.05192">
        <ele>1595</ele>
        <time>2010-11-28T14:25:35Z</time>
      </trkpt>
      <trkpt lat="45.63055" lon="6.0519">
        <ele>1595</ele>
        <time>2010-11-28T14:25:38Z</time>
      </trkpt>
      <trkpt lat="45.63054" lon="6.05189">
        <ele>1595</ele>
        <time>2010-11-28T14:25:40Z</time>
      </trkpt>
      <trkpt lat="45.63052" lon="6.05188">
        <ele>1595</ele>
        <time>2010-11-28T14:25:42Z</time>
      </trkpt>
      <trkpt lat="45.63051" lon="6.05187">
        <ele>1596</ele>
        <time>2010-11-28T14:25:44Z</time>
      </trkpt>
      <trkpt lat="45.63049" lon="6.05187">
        <ele>1596</ele>
        <time>2010-11-28T14:25:46Z</time>
      </trkpt>
      <trkpt lat="45.63048" lon="6.05187">
        <ele>1596</ele>
        <time>2010-11-28T14:25:48Z</time>
      </trkpt>
      <trkpt lat="45.63047" lon="6.05186">
        <ele>1597</ele>
        <time>2010-11-28T14:25:50Z</time>
      </trkpt>
      <trkpt lat="45.63045" lon="6.05186">
        <ele>1597</ele>
        <time>2010-11-28T14:25:52Z</time>
      </trkpt>
      <trkpt lat="45.63044" lon="6.05188">
        <ele>1598</ele>
        <time>2010-11-28T14:25:58Z</time>
      </trkpt>
      <trkpt lat="45.63045" lon="6.05189">
        <ele>1599</ele>
        <time>2010-11-28T14:26:22Z</time>
      </trkpt>
      <trkpt lat="45.63046" lon="6.05189">
        <ele>1599</ele>
        <time>2010-11-28T14:26:33Z</time>
      </trkpt>
      <trkpt lat="45.63047" lon="6.05188">
        <ele>1599</ele>
        <time>2010-11-28T14:26:41Z</time>
      </trkpt>
      <trkpt lat="45.63048" lon="6.05186">
        <ele>1599</ele>
        <time>2010-11-28T14:26:49Z</time>
      </trkpt>
      <trkpt lat="45.63046" lon="6.05185">
        <ele>1599</ele>
        <time>2010-11-28T14:26:54Z</time>
      </trkpt>
      <trkpt lat="45.63045" lon="6.05184">
        <ele>1599</ele>
        <time>2010-11-28T14:26:57Z</time>
      </trkpt>
      <trkpt lat="45.63043" lon="6.05184">
        <ele>1599</ele>
        <time>2010-11-28T14:26:59Z</time>
      </trkpt>
      <trkpt lat="45.63042" lon="6.05183">
        <ele>1599</ele>
        <time>2010-11-28T14:27:01Z</time>
      </trkpt>
      <trkpt lat="45.6304" lon="6.05183">
        <ele>1599</ele>
        <time>2010-11-28T14:27:03Z</time>
      </trkpt>
      <trkpt lat="45.63038" lon="6.05183">
        <ele>1599</ele>
        <time>2010-11-28T14:27:05Z</time>
      </trkpt>
      <trkpt lat="45.63036" lon="6.05183">
        <ele>1599</ele>
        <time>2010-11-28T14:27:07Z</time>
      </trkpt>
      <trkpt lat="45.63034" lon="6.05183">
        <ele>1599</ele>
        <time>2010-11-28T14:27:09Z</time>
      </trkpt>
      <trkpt lat="45.63033" lon="6.05183">
        <ele>1599</ele>
        <time>2010-11-28T14:27:11Z</time>
      </trkpt>
      <trkpt lat="45.63032" lon="6.05182">
        <ele>1599</ele>
        <time>2010-11-28T14:27:13Z</time>
      </trkpt>
      <trkpt lat="45.63031" lon="6.05182">
        <ele>1599</ele>
        <time>2010-11-28T14:27:15Z</time>
      </trkpt>
      <trkpt lat="45.63029" lon="6.05182">
        <ele>1599</ele>
        <time>2010-11-28T14:27:18Z</time>
      </trkpt>
      <trkpt lat="45.63028" lon="6.05182">
        <ele>1599</ele>
        <time>2010-11-28T14:27:20Z</time>
      </trkpt>
      <trkpt lat="45.63026" lon="6.05182">
        <ele>1599</ele>
        <time>2010-11-28T14:27:22Z</time>
      </trkpt>
      <trkpt lat="45.63025" lon="6.05182">
        <ele>1599</ele>
        <time>2010-11-28T14:27:24Z</time>
      </trkpt>
      <trkpt lat="45.63023" lon="6.05181">
        <ele>1600</ele>
        <time>2010-11-28T14:27:26Z</time>
      </trkpt>
      <trkpt lat="45.63022" lon="6.05181">
        <ele>1600</ele>
        <time>2010-11-28T14:27:28Z</time>
      </trkpt>
      <trkpt lat="45.63021" lon="6.05181">
        <ele>1601</ele>
        <time>2010-11-28T14:27:30Z</time>
      </trkpt>
      <trkpt lat="45.63019" lon="6.0518">
        <ele>1602</ele>
        <time>2010-11-28T14:27:33Z</time>
      </trkpt>
      <trkpt lat="45.63017" lon="6.0518">
        <ele>1602</ele>
        <time>2010-11-28T14:27:35Z</time>
      </trkpt>
      <trkpt lat="45.63015" lon="6.0518">
        <ele>1603</ele>
        <time>2010-11-28T14:27:38Z</time>
      </trkpt>
      <trkpt lat="45.63014" lon="6.05179">
        <ele>1603</ele>
        <time>2010-11-28T14:27:40Z</time>
      </trkpt>
      <trkpt lat="45.63013" lon="6.0518">
        <ele>1603</ele>
        <time>2010-11-28T14:27:42Z</time>
      </trkpt>
      <trkpt lat="45.63012" lon="6.0518">
        <ele>1603</ele>
        <time>2010-11-28T14:27:44Z</time>
      </trkpt>
      <trkpt lat="45.6301" lon="6.0518">
        <ele>1603</ele>
        <time>2010-11-28T14:27:46Z</time>
      </trkpt>
      <trkpt lat="45.63009" lon="6.05179">
        <ele>1603</ele>
        <time>2010-11-28T14:27:48Z</time>
      </trkpt>
      <trkpt lat="45.63007" lon="6.05179">
        <ele>1603</ele>
        <time>2010-11-28T14:27:50Z</time>
      </trkpt>
      <trkpt lat="45.63006" lon="6.05178">
        <ele>1603</ele>
        <time>2010-11-28T14:27:53Z</time>
      </trkpt>
      <trkpt lat="45.63004" lon="6.05177">
        <ele>1603</ele>
        <time>2010-11-28T14:27:55Z</time>
      </trkpt>
      <trkpt lat="45.63003" lon="6.05177">
        <ele>1604</ele>
        <time>2010-11-28T14:27:57Z</time>
      </trkpt>
      <trkpt lat="45.63001" lon="6.05176">
        <ele>1604</ele>
        <time>2010-11-28T14:27:59Z</time>
      </trkpt>
      <trkpt lat="45.63" lon="6.05176">
        <ele>1604</ele>
        <time>2010-11-28T14:28:01Z</time>
      </trkpt>
      <trkpt lat="45.62998" lon="6.05176">
        <ele>1605</ele>
        <time>2010-11-28T14:28:03Z</time>
      </trkpt>
      <trkpt lat="45.62996" lon="6.05175">
        <ele>1605</ele>
        <time>2010-11-28T14:28:05Z</time>
      </trkpt>
      <trkpt lat="45.62995" lon="6.05175">
        <ele>1606</ele>
        <time>2010-11-28T14:28:07Z</time>
      </trkpt>
      <trkpt lat="45.62993" lon="6.05175">
        <ele>1606</ele>
        <time>2010-11-28T14:28:09Z</time>
      </trkpt>
      <trkpt lat="45.62991" lon="6.05174">
        <ele>1606</ele>
        <time>2010-11-28T14:28:11Z</time>
      </trkpt>
      <trkpt lat="45.6299" lon="6.05174">
        <ele>1606</ele>
        <time>2010-11-28T14:28:13Z</time>
      </trkpt>
      <trkpt lat="45.62989" lon="6.05174">
        <ele>1607</ele>
        <time>2010-11-28T14:28:15Z</time>
      </trkpt>
      <trkpt lat="45.62987" lon="6.05173">
        <ele>1607</ele>
        <time>2010-11-28T14:28:17Z</time>
      </trkpt>
      <trkpt lat="45.62986" lon="6.05173">
        <ele>1607</ele>
        <time>2010-11-28T14:28:19Z</time>
      </trkpt>
      <trkpt lat="45.62984" lon="6.05173">
        <ele>1607</ele>
        <time>2010-11-28T14:28:22Z</time>
      </trkpt>
      <trkpt lat="45.62983" lon="6.05172">
        <ele>1608</ele>
        <time>2010-11-28T14:28:25Z</time>
      </trkpt>
      <trkpt lat="45.62981" lon="6.05172">
        <ele>1608</ele>
        <time>2010-11-28T14:28:27Z</time>
      </trkpt>
      <trkpt lat="45.6298" lon="6.05172">
        <ele>1608</ele>
        <time>2010-11-28T14:28:29Z</time>
      </trkpt>
      <trkpt lat="45.62979" lon="6.05173">
        <ele>1608</ele>
        <time>2010-11-28T14:28:32Z</time>
      </trkpt>
      <trkpt lat="45.62977" lon="6.05172">
        <ele>1608</ele>
        <time>2010-11-28T14:28:35Z</time>
      </trkpt>
      <trkpt lat="45.62976" lon="6.05171">
        <ele>1609</ele>
        <time>2010-11-28T14:28:45Z</time>
      </trkpt>
      <trkpt lat="45.62974" lon="6.0517">
        <ele>1609</ele>
        <time>2010-11-28T14:28:57Z</time>
      </trkpt>
      <trkpt lat="45.62972" lon="6.0517">
        <ele>1609</ele>
        <time>2010-11-28T14:28:59Z</time>
      </trkpt>
      <trkpt lat="45.62971" lon="6.05169">
        <ele>1610</ele>
        <time>2010-11-28T14:29:01Z</time>
      </trkpt>
      <trkpt lat="45.62969" lon="6.05168">
        <ele>1610</ele>
        <time>2010-11-28T14:29:03Z</time>
      </trkpt>
      <trkpt lat="45.6297" lon="6.05168">
        <ele>1610</ele>
        <time>2010-11-28T14:29:18Z</time>
      </trkpt>
      <trkpt lat="45.62969" lon="6.05169">
        <ele>1610</ele>
        <time>2010-11-28T14:29:42Z</time>
      </trkpt>
      <trkpt lat="45.62968" lon="6.05168">
        <ele>1610</ele>
        <time>2010-11-28T14:29:50Z</time>
      </trkpt>
      <trkpt lat="45.62967" lon="6.05166">
        <ele>1610</ele>
        <time>2010-11-28T14:29:52Z</time>
      </trkpt>
      <trkpt lat="45.62965" lon="6.05165">
        <ele>1610</ele>
        <time>2010-11-28T14:29:54Z</time>
      </trkpt>
      <trkpt lat="45.62963" lon="6.05164">
        <ele>1610</ele>
        <time>2010-11-28T14:29:57Z</time>
      </trkpt>
      <trkpt lat="45.62962" lon="6.05162">
        <ele>1610</ele>
        <time>2010-11-28T14:29:59Z</time>
      </trkpt>
      <trkpt lat="45.62961" lon="6.05161">
        <ele>1610</ele>
        <time>2010-11-28T14:30:01Z</time>
      </trkpt>
      <trkpt lat="45.6296" lon="6.0516">
        <ele>1610</ele>
        <time>2010-11-28T14:30:03Z</time>
      </trkpt>
      <trkpt lat="45.62959" lon="6.05159">
        <ele>1610</ele>
        <time>2010-11-28T14:30:05Z</time>
      </trkpt>
      <trkpt lat="45.62957" lon="6.05158">
        <ele>1610</ele>
        <time>2010-11-28T14:30:07Z</time>
      </trkpt>
      <trkpt lat="45.62956" lon="6.05157">
        <ele>1610</ele>
        <time>2010-11-28T14:30:09Z</time>
      </trkpt>
      <trkpt lat="45.62955" lon="6.05155">
        <ele>1610</ele>
        <time>2010-11-28T14:30:11Z</time>
      </trkpt>
      <trkpt lat="45.62953" lon="6.05153">
        <ele>1610</ele>
        <time>2010-11-28T14:30:14Z</time>
      </trkpt>
      <trkpt lat="45.62952" lon="6.05152">
        <ele>1610</ele>
        <time>2010-11-28T14:30:16Z</time>
      </trkpt>
      <trkpt lat="45.62951" lon="6.05151">
        <ele>1610</ele>
        <time>2010-11-28T14:30:18Z</time>
      </trkpt>
      <trkpt lat="45.62949" lon="6.05149">
        <ele>1610</ele>
        <time>2010-11-28T14:30:21Z</time>
      </trkpt>
      <trkpt lat="45.62948" lon="6.05147">
        <ele>1611</ele>
        <time>2010-11-28T14:30:23Z</time>
      </trkpt>
      <trkpt lat="45.62946" lon="6.05146">
        <ele>1611</ele>
        <time>2010-11-28T14:30:25Z</time>
      </trkpt>
      <trkpt lat="45.62945" lon="6.05145">
        <ele>1612</ele>
        <time>2010-11-28T14:30:27Z</time>
      </trkpt>
      <trkpt lat="45.62944" lon="6.05143">
        <ele>1612</ele>
        <time>2010-11-28T14:30:30Z</time>
      </trkpt>
      <trkpt lat="45.62943" lon="6.05143">
        <ele>1612</ele>
        <time>2010-11-28T14:30:32Z</time>
      </trkpt>
      <trkpt lat="45.62941" lon="6.05142">
        <ele>1613</ele>
        <time>2010-11-28T14:30:34Z</time>
      </trkpt>
      <trkpt lat="45.6294" lon="6.05141">
        <ele>1613</ele>
        <time>2010-11-28T14:30:36Z</time>
      </trkpt>
      <trkpt lat="45.62938" lon="6.0514">
        <ele>1613</ele>
        <time>2010-11-28T14:30:39Z</time>
      </trkpt>
      <trkpt lat="45.62937" lon="6.05138">
        <ele>1614</ele>
        <time>2010-11-28T14:30:42Z</time>
      </trkpt>
      <trkpt lat="45.62936" lon="6.05137">
        <ele>1614</ele>
        <time>2010-11-28T14:30:45Z</time>
      </trkpt>
      <trkpt lat="45.62936" lon="6.05135">
        <ele>1614</ele>
        <time>2010-11-28T14:30:49Z</time>
      </trkpt>
      <trkpt lat="45.62937" lon="6.05133">
        <ele>1614</ele>
        <time>2010-11-28T14:30:52Z</time>
      </trkpt>
      <trkpt lat="45.62936" lon="6.05132">
        <ele>1614</ele>
        <time>2010-11-28T14:30:56Z</time>
      </trkpt>
      <trkpt lat="45.62937" lon="6.0513">
        <ele>1615</ele>
        <time>2010-11-28T14:31:00Z</time>
      </trkpt>
      <trkpt lat="45.62938" lon="6.05129">
        <ele>1615</ele>
        <time>2010-11-28T14:31:04Z</time>
      </trkpt>
      <trkpt lat="45.62939" lon="6.05127">
        <ele>1615</ele>
        <time>2010-11-28T14:31:09Z</time>
      </trkpt>
      <trkpt lat="45.6294" lon="6.05129">
        <ele>1615</ele>
        <time>2010-11-28T14:32:18Z</time>
      </trkpt>
      <trkpt lat="45.62939" lon="6.05128">
        <ele>1616</ele>
        <time>2010-11-28T14:33:29Z</time>
      </trkpt>
      <trkpt lat="45.62938" lon="6.05127">
        <ele>1616</ele>
        <time>2010-11-28T14:35:07Z</time>
      </trkpt>
      <trkpt lat="45.62939" lon="6.05126">
        <ele>1616</ele>
        <time>2010-11-28T14:35:19Z</time>
      </trkpt>
      <trkpt lat="45.62941" lon="6.05125">
        <ele>1616</ele>
        <time>2010-11-28T14:35:24Z</time>
      </trkpt>
      <trkpt lat="45.62941" lon="6.05123">
        <ele>1616</ele>
        <time>2010-11-28T14:35:29Z</time>
      </trkpt>
      <trkpt lat="45.6294" lon="6.05124">
        <ele>1617</ele>
        <time>2010-11-28T14:36:26Z</time>
      </trkpt>
      <trkpt lat="45.6294" lon="6.05125">
        <ele>1617</ele>
        <time>2010-11-28T14:36:30Z</time>
      </trkpt>
      <trkpt lat="45.62939" lon="6.05127">
        <ele>1617</ele>
        <time>2010-11-28T14:36:34Z</time>
      </trkpt>
      <trkpt lat="45.6294" lon="6.05127">
        <ele>1617</ele>
        <time>2010-11-28T14:37:03Z</time>
      </trkpt>
      <trkpt lat="45.62941" lon="6.05127">
        <ele>1617</ele>
        <time>2010-11-28T14:37:34Z</time>
      </trkpt>
      <trkpt lat="45.62942" lon="6.05126">
        <ele>1617</ele>
        <time>2010-11-28T14:39:38Z</time>
      </trkpt>
      <trkpt lat="45.62942" lon="6.05125">
        <ele>1617</ele>
        <time>2010-11-28T14:39:53Z</time>
      </trkpt>
      <trkpt lat="45.62941" lon="6.05126">
        <ele>1617</ele>
        <time>2010-11-28T14:40:34Z</time>
      </trkpt>
      <trkpt lat="45.6294" lon="6.05127">
        <ele>1617</ele>
        <time>2010-11-28T14:43:10Z</time>
      </trkpt>
      <trkpt lat="45.62939" lon="6.05127">
        <ele>1617</ele>
        <time>2010-11-28T14:43:50Z</time>
      </trkpt>
      <trkpt lat="45.6294" lon="6.05127">
        <ele>1617</ele>
        <time>2010-11-28T14:50:29Z</time>
      </trkpt>
      <trkpt lat="45.62939" lon="6.05126">
        <ele>1617</ele>
        <time>2010-11-28T14:50:38Z</time>
      </trkpt>
      <trkpt lat="45.6294" lon="6.05128">
        <ele>1618</ele>
        <time>2010-11-28T14:51:08Z</time>
      </trkpt>
      <trkpt lat="45.62941" lon="6.05127">
        <ele>1618</ele>
        <time>2010-11-28T14:51:26Z</time>
      </trkpt>
      <trkpt lat="45.62941" lon="6.05126">
        <ele>1618</ele>
        <time>2010-11-28T14:51:46Z</time>
      </trkpt>
      <trkpt lat="45.6294" lon="6.05125">
        <ele>1618</ele>
        <time>2010-11-28T14:51:57Z</time>
      </trkpt>
      <trkpt lat="45.62941" lon="6.05126">
        <ele>1618</ele>
        <time>2010-11-28T14:53:04Z</time>
      </trkpt>
      <trkpt lat="45.62941" lon="6.05124">
        <ele>1618</ele>
        <time>2010-11-28T14:53:14Z</time>
      </trkpt>
      <trkpt lat="45.6294" lon="6.05124">
        <ele>1618</ele>
        <time>2010-11-28T14:53:23Z</time>
      </trkpt>
      <trkpt lat="45.62941" lon="6.05125">
        <ele>1618</ele>
        <time>2010-11-28T14:53:26Z</time>
      </trkpt>
      <trkpt lat="45.62941" lon="6.05127">
        <ele>1618</ele>
        <time>2010-11-28T14:53:28Z</time>
      </trkpt>
      <trkpt lat="45.6294" lon="6.05126">
        <ele>1618</ele>
        <time>2010-11-28T14:53:41Z</time>
      </trkpt>
      <trkpt lat="45.62938" lon="6.05125">
        <ele>1618</ele>
        <time>2010-11-28T14:53:54Z</time>
      </trkpt>
      <trkpt lat="45.62939" lon="6.05126">
        <ele>1618</ele>
        <time>2010-11-28T14:54:01Z</time>
      </trkpt>
      <trkpt lat="45.6294" lon="6.05126">
        <ele>1618</ele>
        <time>2010-11-28T14:54:16Z</time>
      </trkpt>
      <trkpt lat="45.62939" lon="6.05127">
        <ele>1616</ele>
        <time>2010-11-28T14:55:16Z</time>
      </trkpt>
      <trkpt lat="45.62939" lon="6.05128">
        <ele>1616</ele>
        <time>2010-11-28T14:55:26Z</time>
      </trkpt>
      <trkpt lat="45.62938" lon="6.0513">
        <ele>1616</ele>
        <time>2010-11-28T14:55:38Z</time>
      </trkpt>
      <trkpt lat="45.62936" lon="6.05131">
        <ele>1616</ele>
        <time>2010-11-28T14:55:41Z</time>
      </trkpt>
      <trkpt lat="45.62935" lon="6.05133">
        <ele>1616</ele>
        <time>2010-11-28T14:55:44Z</time>
      </trkpt>
      <trkpt lat="45.62934" lon="6.05134">
        <ele>1616</ele>
        <time>2010-11-28T14:55:46Z</time>
      </trkpt>
      <trkpt lat="45.62933" lon="6.05136">
        <ele>1616</ele>
        <time>2010-11-28T14:55:49Z</time>
      </trkpt>
      <trkpt lat="45.62931" lon="6.05135">
        <ele>1616</ele>
        <time>2010-11-28T14:55:52Z</time>
      </trkpt>
      <trkpt lat="45.6293" lon="6.05133">
        <ele>1616</ele>
        <time>2010-11-28T14:55:56Z</time>
      </trkpt>
      <trkpt lat="45.62929" lon="6.05131">
        <ele>1616</ele>
        <time>2010-11-28T14:55:59Z</time>
      </trkpt>
      <trkpt lat="45.62928" lon="6.0513">
        <ele>1616</ele>
        <time>2010-11-28T14:56:02Z</time>
      </trkpt>
      <trkpt lat="45.62926" lon="6.05128">
        <ele>1616</ele>
        <time>2010-11-28T14:56:05Z</time>
      </trkpt>
      <trkpt lat="45.62925" lon="6.05126">
        <ele>1616</ele>
        <time>2010-11-28T14:56:07Z</time>
      </trkpt>
      <trkpt lat="45.62923" lon="6.05125">
        <ele>1616</ele>
        <time>2010-11-28T14:56:12Z</time>
      </trkpt>
      <trkpt lat="45.62922" lon="6.05124">
        <ele>1616</ele>
        <time>2010-11-28T14:56:15Z</time>
      </trkpt>
      <trkpt lat="45.6292" lon="6.05122">
        <ele>1616</ele>
        <time>2010-11-28T14:56:18Z</time>
      </trkpt>
      <trkpt lat="45.62919" lon="6.05122">
        <ele>1616</ele>
        <time>2010-11-28T14:56:20Z</time>
      </trkpt>
      <trkpt lat="45.62917" lon="6.05121">
        <ele>1616</ele>
        <time>2010-11-28T14:56:23Z</time>
      </trkpt>
      <trkpt lat="45.62916" lon="6.0512">
        <ele>1616</ele>
        <time>2010-11-28T14:56:25Z</time>
      </trkpt>
      <trkpt lat="45.62915" lon="6.05118">
        <ele>1616</ele>
        <time>2010-11-28T14:56:28Z</time>
      </trkpt>
      <trkpt lat="45.62916" lon="6.05117">
        <ele>1617</ele>
        <time>2010-11-28T14:56:57Z</time>
      </trkpt>
      <trkpt lat="45.62916" lon="6.05116">
        <ele>1617</ele>
        <time>2010-11-28T14:57:07Z</time>
      </trkpt>
      <trkpt lat="45.62914" lon="6.05116">
        <ele>1617</ele>
        <time>2010-11-28T14:57:25Z</time>
      </trkpt>
      <trkpt lat="45.62913" lon="6.05115">
        <ele>1617</ele>
        <time>2010-11-28T14:57:38Z</time>
      </trkpt>
      <trkpt lat="45.62912" lon="6.05113">
        <ele>1617</ele>
        <time>2010-11-28T14:57:41Z</time>
      </trkpt>
      <trkpt lat="45.6291" lon="6.05112">
        <ele>1617</ele>
        <time>2010-11-28T14:57:43Z</time>
      </trkpt>
      <trkpt lat="45.62909" lon="6.0511">
        <ele>1617</ele>
        <time>2010-11-28T14:57:45Z</time>
      </trkpt>
      <trkpt lat="45.62908" lon="6.05108">
        <ele>1617</ele>
        <time>2010-11-28T14:57:47Z</time>
      </trkpt>
      <trkpt lat="45.62907" lon="6.05106">
        <ele>1617</ele>
        <time>2010-11-28T14:57:49Z</time>
      </trkpt>
      <trkpt lat="45.62907" lon="6.05103">
        <ele>1617</ele>
        <time>2010-11-28T14:57:51Z</time>
      </trkpt>
      <trkpt lat="45.62907" lon="6.05101">
        <ele>1617</ele>
        <time>2010-11-28T14:57:53Z</time>
      </trkpt>
      <trkpt lat="45.62906" lon="6.05099">
        <ele>1617</ele>
        <time>2010-11-28T14:57:55Z</time>
      </trkpt>
      <trkpt lat="45.62905" lon="6.05096">
        <ele>1617</ele>
        <time>2010-11-28T14:57:57Z</time>
      </trkpt>
      <trkpt lat="45.62905" lon="6.05094">
        <ele>1617</ele>
        <time>2010-11-28T14:57:59Z</time>
      </trkpt>
      <trkpt lat="45.62904" lon="6.05092">
        <ele>1617</ele>
        <time>2010-11-28T14:58:01Z</time>
      </trkpt>
      <trkpt lat="45.62904" lon="6.0509">
        <ele>1618</ele>
        <time>2010-11-28T14:58:03Z</time>
      </trkpt>
      <trkpt lat="45.62903" lon="6.05088">
        <ele>1618</ele>
        <time>2010-11-28T14:58:05Z</time>
      </trkpt>
      <trkpt lat="45.62903" lon="6.05086">
        <ele>1618</ele>
        <time>2010-11-28T14:58:07Z</time>
      </trkpt>
      <trkpt lat="45.62902" lon="6.05084">
        <ele>1618</ele>
        <time>2010-11-28T14:58:09Z</time>
      </trkpt>
      <trkpt lat="45.62902" lon="6.05082">
        <ele>1618</ele>
        <time>2010-11-28T14:58:11Z</time>
      </trkpt>
      <trkpt lat="45.62902" lon="6.05081">
        <ele>1619</ele>
        <time>2010-11-28T14:58:14Z</time>
      </trkpt>
      <trkpt lat="45.62901" lon="6.05078">
        <ele>1619</ele>
        <time>2010-11-28T14:58:16Z</time>
      </trkpt>
      <trkpt lat="45.62901" lon="6.05077">
        <ele>1620</ele>
        <time>2010-11-28T14:58:18Z</time>
      </trkpt>
      <trkpt lat="45.62899" lon="6.05074">
        <ele>1620</ele>
        <time>2010-11-28T14:58:21Z</time>
      </trkpt>
      <trkpt lat="45.62898" lon="6.05072">
        <ele>1621</ele>
        <time>2010-11-28T14:58:25Z</time>
      </trkpt>
      <trkpt lat="45.62898" lon="6.0507">
        <ele>1621</ele>
        <time>2010-11-28T14:58:27Z</time>
      </trkpt>
      <trkpt lat="45.62897" lon="6.05068">
        <ele>1621</ele>
        <time>2010-11-28T14:58:29Z</time>
      </trkpt>
      <trkpt lat="45.62896" lon="6.05065">
        <ele>1621</ele>
        <time>2010-11-28T14:58:31Z</time>
      </trkpt>
      <trkpt lat="45.62895" lon="6.05063">
        <ele>1621</ele>
        <time>2010-11-28T14:58:33Z</time>
      </trkpt>
      <trkpt lat="45.62894" lon="6.05061">
        <ele>1621</ele>
        <time>2010-11-28T14:58:35Z</time>
      </trkpt>
      <trkpt lat="45.62894" lon="6.05059">
        <ele>1621</ele>
        <time>2010-11-28T14:58:37Z</time>
      </trkpt>
      <trkpt lat="45.62893" lon="6.05057">
        <ele>1621</ele>
        <time>2010-11-28T14:58:39Z</time>
      </trkpt>
      <trkpt lat="45.62892" lon="6.05056">
        <ele>1622</ele>
        <time>2010-11-28T14:58:41Z</time>
      </trkpt>
      <trkpt lat="45.62891" lon="6.05054">
        <ele>1622</ele>
        <time>2010-11-28T14:58:43Z</time>
      </trkpt>
      <trkpt lat="45.62891" lon="6.05052">
        <ele>1622</ele>
        <time>2010-11-28T14:58:45Z</time>
      </trkpt>
      <trkpt lat="45.6289" lon="6.0505">
        <ele>1622</ele>
        <time>2010-11-28T14:58:47Z</time>
      </trkpt>
      <trkpt lat="45.62889" lon="6.05048">
        <ele>1622</ele>
        <time>2010-11-28T14:58:51Z</time>
      </trkpt>
      <trkpt lat="45.62888" lon="6.05047">
        <ele>1622</ele>
        <time>2010-11-28T14:58:53Z</time>
      </trkpt>
      <trkpt lat="45.62888" lon="6.05045">
        <ele>1622</ele>
        <time>2010-11-28T14:58:55Z</time>
      </trkpt>
      <trkpt lat="45.62887" lon="6.05043">
        <ele>1622</ele>
        <time>2010-11-28T14:58:57Z</time>
      </trkpt>
      <trkpt lat="45.62886" lon="6.05041">
        <ele>1623</ele>
        <time>2010-11-28T14:58:59Z</time>
      </trkpt>
      <trkpt lat="45.62886" lon="6.05039">
        <ele>1623</ele>
        <time>2010-11-28T14:59:01Z</time>
      </trkpt>
      <trkpt lat="45.62885" lon="6.05037">
        <ele>1623</ele>
        <time>2010-11-28T14:59:03Z</time>
      </trkpt>
      <trkpt lat="45.62885" lon="6.05035">
        <ele>1624</ele>
        <time>2010-11-28T14:59:05Z</time>
      </trkpt>
      <trkpt lat="45.62884" lon="6.05033">
        <ele>1624</ele>
        <time>2010-11-28T14:59:07Z</time>
      </trkpt>
      <trkpt lat="45.62884" lon="6.05031">
        <ele>1624</ele>
        <time>2010-11-28T14:59:09Z</time>
      </trkpt>
      <trkpt lat="45.62883" lon="6.05029">
        <ele>1624</ele>
        <time>2010-11-28T14:59:11Z</time>
      </trkpt>
      <trkpt lat="45.62883" lon="6.05028">
        <ele>1625</ele>
        <time>2010-11-28T14:59:13Z</time>
      </trkpt>
      <trkpt lat="45.62883" lon="6.05026">
        <ele>1625</ele>
        <time>2010-11-28T14:59:15Z</time>
      </trkpt>
      <trkpt lat="45.62884" lon="6.05024">
        <ele>1625</ele>
        <time>2010-11-28T14:59:17Z</time>
      </trkpt>
      <trkpt lat="45.62884" lon="6.05022">
        <ele>1626</ele>
        <time>2010-11-28T14:59:19Z</time>
      </trkpt>
      <trkpt lat="45.62884" lon="6.05021">
        <ele>1626</ele>
        <time>2010-11-28T14:59:21Z</time>
      </trkpt>
      <trkpt lat="45.62884" lon="6.05019">
        <ele>1626</ele>
        <time>2010-11-28T14:59:23Z</time>
      </trkpt>
      <trkpt lat="45.62885" lon="6.05017">
        <ele>1626</ele>
        <time>2010-11-28T14:59:25Z</time>
      </trkpt>
      <trkpt lat="45.62885" lon="6.05015">
        <ele>1626</ele>
        <time>2010-11-28T14:59:27Z</time>
      </trkpt>
      <trkpt lat="45.62886" lon="6.05014">
        <ele>1626</ele>
        <time>2010-11-28T14:59:29Z</time>
      </trkpt>
      <trkpt lat="45.62886" lon="6.05012">
        <ele>1626</ele>
        <time>2010-11-28T14:59:31Z</time>
      </trkpt>
      <trkpt lat="45.62887" lon="6.0501">
        <ele>1626</ele>
        <time>2010-11-28T14:59:33Z</time>
      </trkpt>
      <trkpt lat="45.62888" lon="6.05009">
        <ele>1626</ele>
        <time>2010-11-28T14:59:35Z</time>
      </trkpt>
      <trkpt lat="45.62889" lon="6.05007">
        <ele>1626</ele>
        <time>2010-11-28T14:59:37Z</time>
      </trkpt>
      <trkpt lat="45.62891" lon="6.05004">
        <ele>1626</ele>
        <time>2010-11-28T14:59:41Z</time>
      </trkpt>
      <trkpt lat="45.62891" lon="6.05002">
        <ele>1626</ele>
        <time>2010-11-28T14:59:43Z</time>
      </trkpt>
      <trkpt lat="45.62892" lon="6.05001">
        <ele>1626</ele>
        <time>2010-11-28T14:59:45Z</time>
      </trkpt>
      <trkpt lat="45.62893" lon="6.04999">
        <ele>1626</ele>
        <time>2010-11-28T14:59:47Z</time>
      </trkpt>
      <trkpt lat="45.62894" lon="6.04997">
        <ele>1626</ele>
        <time>2010-11-28T14:59:50Z</time>
      </trkpt>
      <trkpt lat="45.62896" lon="6.04995">
        <ele>1626</ele>
        <time>2010-11-28T14:59:53Z</time>
      </trkpt>
      <trkpt lat="45.62896" lon="6.04993">
        <ele>1627</ele>
        <time>2010-11-28T14:59:55Z</time>
      </trkpt>
      <trkpt lat="45.62897" lon="6.04992">
        <ele>1627</ele>
        <time>2010-11-28T14:59:57Z</time>
      </trkpt>
      <trkpt lat="45.62898" lon="6.0499">
        <ele>1627</ele>
        <time>2010-11-28T15:00:00Z</time>
      </trkpt>
      <trkpt lat="45.62899" lon="6.04988">
        <ele>1628</ele>
        <time>2010-11-28T15:00:02Z</time>
      </trkpt>
      <trkpt lat="45.629" lon="6.04987">
        <ele>1628</ele>
        <time>2010-11-28T15:00:04Z</time>
      </trkpt>
      <trkpt lat="45.62901" lon="6.04985">
        <ele>1628</ele>
        <time>2010-11-28T15:00:06Z</time>
      </trkpt>
      <trkpt lat="45.62901" lon="6.04983">
        <ele>1628</ele>
        <time>2010-11-28T15:00:08Z</time>
      </trkpt>
      <trkpt lat="45.62902" lon="6.04982">
        <ele>1629</ele>
        <time>2010-11-28T15:00:10Z</time>
      </trkpt>
      <trkpt lat="45.62902" lon="6.0498">
        <ele>1629</ele>
        <time>2010-11-28T15:00:12Z</time>
      </trkpt>
      <trkpt lat="45.62903" lon="6.04978">
        <ele>1629</ele>
        <time>2010-11-28T15:00:14Z</time>
      </trkpt>
      <trkpt lat="45.62903" lon="6.04976">
        <ele>1629</ele>
        <time>2010-11-28T15:00:16Z</time>
      </trkpt>
      <trkpt lat="45.62904" lon="6.04973">
        <ele>1629</ele>
        <time>2010-11-28T15:00:18Z</time>
      </trkpt>
      <trkpt lat="45.62904" lon="6.04971">
        <ele>1629</ele>
        <time>2010-11-28T15:00:20Z</time>
      </trkpt>
      <trkpt lat="45.62905" lon="6.04969">
        <ele>1630</ele>
        <time>2010-11-28T15:00:22Z</time>
      </trkpt>
      <trkpt lat="45.62905" lon="6.04967">
        <ele>1630</ele>
        <time>2010-11-28T15:00:24Z</time>
      </trkpt>
      <trkpt lat="45.62905" lon="6.04965">
        <ele>1630</ele>
        <time>2010-11-28T15:00:26Z</time>
      </trkpt>
      <trkpt lat="45.62905" lon="6.04963">
        <ele>1631</ele>
        <time>2010-11-28T15:00:28Z</time>
      </trkpt>
      <trkpt lat="45.62905" lon="6.04961">
        <ele>1631</ele>
        <time>2010-11-28T15:00:30Z</time>
      </trkpt>
      <trkpt lat="45.62905" lon="6.04959">
        <ele>1631</ele>
        <time>2010-11-28T15:00:32Z</time>
      </trkpt>
      <trkpt lat="45.62905" lon="6.04957">
        <ele>1631</ele>
        <time>2010-11-28T15:00:34Z</time>
      </trkpt>
      <trkpt lat="45.62906" lon="6.04955">
        <ele>1631</ele>
        <time>2010-11-28T15:00:36Z</time>
      </trkpt>
      <trkpt lat="45.62906" lon="6.04953">
        <ele>1631</ele>
        <time>2010-11-28T15:00:38Z</time>
      </trkpt>
      <trkpt lat="45.62905" lon="6.0495">
        <ele>1631</ele>
        <time>2010-11-28T15:00:40Z</time>
      </trkpt>
      <trkpt lat="45.62905" lon="6.04948">
        <ele>1631</ele>
        <time>2010-11-28T15:00:42Z</time>
      </trkpt>
      <trkpt lat="45.62904" lon="6.04947">
        <ele>1631</ele>
        <time>2010-11-28T15:00:44Z</time>
      </trkpt>
      <trkpt lat="45.62904" lon="6.04945">
        <ele>1631</ele>
        <time>2010-11-28T15:00:46Z</time>
      </trkpt>
      <trkpt lat="45.62903" lon="6.04943">
        <ele>1632</ele>
        <time>2010-11-28T15:00:49Z</time>
      </trkpt>
      <trkpt lat="45.62902" lon="6.04941">
        <ele>1632</ele>
        <time>2010-11-28T15:00:52Z</time>
      </trkpt>
      <trkpt lat="45.62901" lon="6.04939">
        <ele>1633</ele>
        <time>2010-11-28T15:00:55Z</time>
      </trkpt>
      <trkpt lat="45.62899" lon="6.04938">
        <ele>1634</ele>
        <time>2010-11-28T15:00:58Z</time>
      </trkpt>
      <trkpt lat="45.62898" lon="6.04936">
        <ele>1634</ele>
        <time>2010-11-28T15:01:01Z</time>
      </trkpt>
      <trkpt lat="45.62896" lon="6.04935">
        <ele>1635</ele>
        <time>2010-11-28T15:01:04Z</time>
      </trkpt>
      <trkpt lat="45.62895" lon="6.04933">
        <ele>1636</ele>
        <time>2010-11-28T15:01:07Z</time>
      </trkpt>
      <trkpt lat="45.62894" lon="6.04931">
        <ele>1636</ele>
        <time>2010-11-28T15:01:09Z</time>
      </trkpt>
      <trkpt lat="45.62893" lon="6.04931">
        <ele>1636</ele>
        <time>2010-11-28T15:01:11Z</time>
      </trkpt>
      <trkpt lat="45.62892" lon="6.04929">
        <ele>1637</ele>
        <time>2010-11-28T15:01:15Z</time>
      </trkpt>
      <trkpt lat="45.62891" lon="6.04927">
        <ele>1638</ele>
        <time>2010-11-28T15:01:18Z</time>
      </trkpt>
      <trkpt lat="45.6289" lon="6.04925">
        <ele>1639</ele>
        <time>2010-11-28T15:01:21Z</time>
      </trkpt>
      <trkpt lat="45.62888" lon="6.04923">
        <ele>1639</ele>
        <time>2010-11-28T15:01:25Z</time>
      </trkpt>
      <trkpt lat="45.62887" lon="6.04922">
        <ele>1639</ele>
        <time>2010-11-28T15:01:28Z</time>
      </trkpt>
      <trkpt lat="45.62886" lon="6.04921">
        <ele>1639</ele>
        <time>2010-11-28T15:01:30Z</time>
      </trkpt>
      <trkpt lat="45.62885" lon="6.0492">
        <ele>1640</ele>
        <time>2010-11-28T15:01:33Z</time>
      </trkpt>
      <trkpt lat="45.62883" lon="6.04919">
        <ele>1640</ele>
        <time>2010-11-28T15:01:35Z</time>
      </trkpt>
      <trkpt lat="45.62882" lon="6.04918">
        <ele>1640</ele>
        <time>2010-11-28T15:01:37Z</time>
      </trkpt>
      <trkpt lat="45.62881" lon="6.04916">
        <ele>1640</ele>
        <time>2010-11-28T15:01:39Z</time>
      </trkpt>
      <trkpt lat="45.6288" lon="6.04915">
        <ele>1640</ele>
        <time>2010-11-28T15:01:41Z</time>
      </trkpt>
      <trkpt lat="45.6288" lon="6.04912">
        <ele>1641</ele>
        <time>2010-11-28T15:01:43Z</time>
      </trkpt>
      <trkpt lat="45.6288" lon="6.0491">
        <ele>1641</ele>
        <time>2010-11-28T15:01:45Z</time>
      </trkpt>
      <trkpt lat="45.6288" lon="6.04908">
        <ele>1641</ele>
        <time>2010-11-28T15:01:47Z</time>
      </trkpt>
      <trkpt lat="45.62882" lon="6.04907">
        <ele>1641</ele>
        <time>2010-11-28T15:01:50Z</time>
      </trkpt>
      <trkpt lat="45.62883" lon="6.04907">
        <ele>1641</ele>
        <time>2010-11-28T15:01:52Z</time>
      </trkpt>
      <trkpt lat="45.62885" lon="6.04907">
        <ele>1641</ele>
        <time>2010-11-28T15:01:54Z</time>
      </trkpt>
      <trkpt lat="45.62887" lon="6.04906">
        <ele>1641</ele>
        <time>2010-11-28T15:01:56Z</time>
      </trkpt>
      <trkpt lat="45.62888" lon="6.04906">
        <ele>1641</ele>
        <time>2010-11-28T15:01:58Z</time>
      </trkpt>
      <trkpt lat="45.62889" lon="6.04905">
        <ele>1641</ele>
        <time>2010-11-28T15:02:00Z</time>
      </trkpt>
      <trkpt lat="45.62891" lon="6.04904">
        <ele>1641</ele>
        <time>2010-11-28T15:02:02Z</time>
      </trkpt>
      <trkpt lat="45.62891" lon="6.04902">
        <ele>1641</ele>
        <time>2010-11-28T15:02:04Z</time>
      </trkpt>
      <trkpt lat="45.62891" lon="6.04901">
        <ele>1641</ele>
        <time>2010-11-28T15:02:06Z</time>
      </trkpt>
      <trkpt lat="45.62892" lon="6.04899">
        <ele>1641</ele>
        <time>2010-11-28T15:02:08Z</time>
      </trkpt>
      <trkpt lat="45.62892" lon="6.04897">
        <ele>1641</ele>
        <time>2010-11-28T15:02:10Z</time>
      </trkpt>
      <trkpt lat="45.62891" lon="6.04896">
        <ele>1641</ele>
        <time>2010-11-28T15:02:12Z</time>
      </trkpt>
      <trkpt lat="45.62891" lon="6.04894">
        <ele>1641</ele>
        <time>2010-11-28T15:02:14Z</time>
      </trkpt>
      <trkpt lat="45.62891" lon="6.04892">
        <ele>1641</ele>
        <time>2010-11-28T15:02:17Z</time>
      </trkpt>
      <trkpt lat="45.62891" lon="6.04891">
        <ele>1641</ele>
        <time>2010-11-28T15:02:19Z</time>
      </trkpt>
      <trkpt lat="45.62891" lon="6.04888">
        <ele>1641</ele>
        <time>2010-11-28T15:02:22Z</time>
      </trkpt>
      <trkpt lat="45.62892" lon="6.04886">
        <ele>1641</ele>
        <time>2010-11-28T15:02:24Z</time>
      </trkpt>
      <trkpt lat="45.62892" lon="6.04883">
        <ele>1641</ele>
        <time>2010-11-28T15:02:26Z</time>
      </trkpt>
      <trkpt lat="45.62892" lon="6.04882">
        <ele>1641</ele>
        <time>2010-11-28T15:02:28Z</time>
      </trkpt>
      <trkpt lat="45.62891" lon="6.0488">
        <ele>1641</ele>
        <time>2010-11-28T15:02:30Z</time>
      </trkpt>
      <trkpt lat="45.6289" lon="6.04878">
        <ele>1641</ele>
        <time>2010-11-28T15:02:33Z</time>
      </trkpt>
      <trkpt lat="45.62889" lon="6.04876">
        <ele>1641</ele>
        <time>2010-11-28T15:02:36Z</time>
      </trkpt>
      <trkpt lat="45.62888" lon="6.04875">
        <ele>1641</ele>
        <time>2010-11-28T15:02:38Z</time>
      </trkpt>
      <trkpt lat="45.62887" lon="6.04873">
        <ele>1642</ele>
        <time>2010-11-28T15:02:41Z</time>
      </trkpt>
      <trkpt lat="45.62886" lon="6.04872">
        <ele>1642</ele>
        <time>2010-11-28T15:02:44Z</time>
      </trkpt>
      <trkpt lat="45.62885" lon="6.04871">
        <ele>1642</ele>
        <time>2010-11-28T15:02:46Z</time>
      </trkpt>
      <trkpt lat="45.62883" lon="6.04871">
        <ele>1643</ele>
        <time>2010-11-28T15:02:48Z</time>
      </trkpt>
      <trkpt lat="45.62882" lon="6.04869">
        <ele>1643</ele>
        <time>2010-11-28T15:02:51Z</time>
      </trkpt>
      <trkpt lat="45.62881" lon="6.04869">
        <ele>1643</ele>
        <time>2010-11-28T15:02:53Z</time>
      </trkpt>
      <trkpt lat="45.62879" lon="6.04868">
        <ele>1644</ele>
        <time>2010-11-28T15:02:57Z</time>
      </trkpt>
      <trkpt lat="45.62878" lon="6.04867">
        <ele>1644</ele>
        <time>2010-11-28T15:03:00Z</time>
      </trkpt>
      <trkpt lat="45.62877" lon="6.04867">
        <ele>1644</ele>
        <time>2010-11-28T15:03:03Z</time>
      </trkpt>
      <trkpt lat="45.62875" lon="6.04866">
        <ele>1645</ele>
        <time>2010-11-28T15:03:06Z</time>
      </trkpt>
      <trkpt lat="45.62874" lon="6.04865">
        <ele>1645</ele>
        <time>2010-11-28T15:03:10Z</time>
      </trkpt>
      <trkpt lat="45.62873" lon="6.04864">
        <ele>1645</ele>
        <time>2010-11-28T15:03:12Z</time>
      </trkpt>
      <trkpt lat="45.62873" lon="6.04862">
        <ele>1645</ele>
        <time>2010-11-28T15:03:14Z</time>
      </trkpt>
      <trkpt lat="45.62873" lon="6.04859">
        <ele>1645</ele>
        <time>2010-11-28T15:03:17Z</time>
      </trkpt>
      <trkpt lat="45.62872" lon="6.04858">
        <ele>1645</ele>
        <time>2010-11-28T15:03:19Z</time>
      </trkpt>
      <trkpt lat="45.62872" lon="6.04856">
        <ele>1646</ele>
        <time>2010-11-28T15:03:21Z</time>
      </trkpt>
      <trkpt lat="45.62872" lon="6.04855">
        <ele>1646</ele>
        <time>2010-11-28T15:03:23Z</time>
      </trkpt>
      <trkpt lat="45.62872" lon="6.04853">
        <ele>1647</ele>
        <time>2010-11-28T15:03:25Z</time>
      </trkpt>
      <trkpt lat="45.62871" lon="6.04851">
        <ele>1647</ele>
        <time>2010-11-28T15:03:27Z</time>
      </trkpt>
      <trkpt lat="45.62871" lon="6.0485">
        <ele>1647</ele>
        <time>2010-11-28T15:03:30Z</time>
      </trkpt>
      <trkpt lat="45.62872" lon="6.04848">
        <ele>1648</ele>
        <time>2010-11-28T15:03:32Z</time>
      </trkpt>
      <trkpt lat="45.62872" lon="6.04846">
        <ele>1648</ele>
        <time>2010-11-28T15:03:35Z</time>
      </trkpt>
      <trkpt lat="45.62873" lon="6.04845">
        <ele>1649</ele>
        <time>2010-11-28T15:03:37Z</time>
      </trkpt>
      <trkpt lat="45.62873" lon="6.04843">
        <ele>1649</ele>
        <time>2010-11-28T15:03:39Z</time>
      </trkpt>
      <trkpt lat="45.62873" lon="6.04842">
        <ele>1649</ele>
        <time>2010-11-28T15:03:41Z</time>
      </trkpt>
      <trkpt lat="45.62873" lon="6.0484">
        <ele>1649</ele>
        <time>2010-11-28T15:03:43Z</time>
      </trkpt>
      <trkpt lat="45.62874" lon="6.04838">
        <ele>1649</ele>
        <time>2010-11-28T15:03:45Z</time>
      </trkpt>
      <trkpt lat="45.62874" lon="6.04837">
        <ele>1649</ele>
        <time>2010-11-28T15:03:47Z</time>
      </trkpt>
      <trkpt lat="45.62873" lon="6.04835">
        <ele>1650</ele>
        <time>2010-11-28T15:03:49Z</time>
      </trkpt>
      <trkpt lat="45.62873" lon="6.04834">
        <ele>1650</ele>
        <time>2010-11-28T15:03:51Z</time>
      </trkpt>
      <trkpt lat="45.62873" lon="6.04832">
        <ele>1650</ele>
        <time>2010-11-28T15:03:53Z</time>
      </trkpt>
      <trkpt lat="45.62873" lon="6.0483">
        <ele>1650</ele>
        <time>2010-11-28T15:03:55Z</time>
      </trkpt>
      <trkpt lat="45.62873" lon="6.04828">
        <ele>1650</ele>
        <time>2010-11-28T15:03:58Z</time>
      </trkpt>
      <trkpt lat="45.62874" lon="6.04826">
        <ele>1651</ele>
        <time>2010-11-28T15:04:01Z</time>
      </trkpt>
      <trkpt lat="45.62874" lon="6.04824">
        <ele>1651</ele>
        <time>2010-11-28T15:04:04Z</time>
      </trkpt>
      <trkpt lat="45.62875" lon="6.04823">
        <ele>1652</ele>
        <time>2010-11-28T15:04:07Z</time>
      </trkpt>
      <trkpt lat="45.62875" lon="6.04821">
        <ele>1652</ele>
        <time>2010-11-28T15:04:09Z</time>
      </trkpt>
      <trkpt lat="45.62876" lon="6.0482">
        <ele>1653</ele>
        <time>2010-11-28T15:04:11Z</time>
      </trkpt>
      <trkpt lat="45.62876" lon="6.04818">
        <ele>1653</ele>
        <time>2010-11-28T15:04:13Z</time>
      </trkpt>
      <trkpt lat="45.62877" lon="6.04817">
        <ele>1654</ele>
        <time>2010-11-28T15:04:17Z</time>
      </trkpt>
      <trkpt lat="45.62876" lon="6.04815">
        <ele>1654</ele>
        <time>2010-11-28T15:04:19Z</time>
      </trkpt>
      <trkpt lat="45.62875" lon="6.04814">
        <ele>1654</ele>
        <time>2010-11-28T15:04:21Z</time>
      </trkpt>
      <trkpt lat="45.62874" lon="6.04813">
        <ele>1654</ele>
        <time>2010-11-28T15:04:24Z</time>
      </trkpt>
      <trkpt lat="45.62874" lon="6.04814">
        <ele>1655</ele>
        <time>2010-11-28T15:04:29Z</time>
      </trkpt>
      <trkpt lat="45.62874" lon="6.04816">
        <ele>1655</ele>
        <time>2010-11-28T15:04:35Z</time>
      </trkpt>
      <trkpt lat="45.62873" lon="6.04814">
        <ele>1655</ele>
        <time>2010-11-28T15:04:42Z</time>
      </trkpt>
      <trkpt lat="45.62872" lon="6.04812">
        <ele>1655</ele>
        <time>2010-11-28T15:04:45Z</time>
      </trkpt>
      <trkpt lat="45.62871" lon="6.04811">
        <ele>1655</ele>
        <time>2010-11-28T15:04:47Z</time>
      </trkpt>
      <trkpt lat="45.62869" lon="6.0481">
        <ele>1655</ele>
        <time>2010-11-28T15:04:50Z</time>
      </trkpt>
      <trkpt lat="45.62868" lon="6.04808">
        <ele>1655</ele>
        <time>2010-11-28T15:04:53Z</time>
      </trkpt>
      <trkpt lat="45.62867" lon="6.04808">
        <ele>1655</ele>
        <time>2010-11-28T15:04:56Z</time>
      </trkpt>
      <trkpt lat="45.62866" lon="6.04806">
        <ele>1655</ele>
        <time>2010-11-28T15:04:59Z</time>
      </trkpt>
      <trkpt lat="45.62865" lon="6.04804">
        <ele>1655</ele>
        <time>2010-11-28T15:05:02Z</time>
      </trkpt>
      <trkpt lat="45.62863" lon="6.04803">
        <ele>1655</ele>
        <time>2010-11-28T15:05:04Z</time>
      </trkpt>
      <trkpt lat="45.62862" lon="6.04801">
        <ele>1655</ele>
        <time>2010-11-28T15:05:06Z</time>
      </trkpt>
      <trkpt lat="45.62861" lon="6.048">
        <ele>1655</ele>
        <time>2010-11-28T15:05:08Z</time>
      </trkpt>
      <trkpt lat="45.62859" lon="6.04798">
        <ele>1655</ele>
        <time>2010-11-28T15:05:11Z</time>
      </trkpt>
      <trkpt lat="45.62858" lon="6.04796">
        <ele>1655</ele>
        <time>2010-11-28T15:05:13Z</time>
      </trkpt>
      <trkpt lat="45.62857" lon="6.04795">
        <ele>1655</ele>
        <time>2010-11-28T15:05:15Z</time>
      </trkpt>
      <trkpt lat="45.62856" lon="6.04793">
        <ele>1656</ele>
        <time>2010-11-28T15:05:20Z</time>
      </trkpt>
      <trkpt lat="45.62855" lon="6.04792">
        <ele>1657</ele>
        <time>2010-11-28T15:05:22Z</time>
      </trkpt>
      <trkpt lat="45.62853" lon="6.0479">
        <ele>1657</ele>
        <time>2010-11-28T15:05:25Z</time>
      </trkpt>
      <trkpt lat="45.62852" lon="6.04789">
        <ele>1657</ele>
        <time>2010-11-28T15:05:28Z</time>
      </trkpt>
      <trkpt lat="45.6285" lon="6.04788">
        <ele>1657</ele>
        <time>2010-11-28T15:05:31Z</time>
      </trkpt>
      <trkpt lat="45.62849" lon="6.04787">
        <ele>1657</ele>
        <time>2010-11-28T15:05:33Z</time>
      </trkpt>
      <trkpt lat="45.62847" lon="6.04785">
        <ele>1657</ele>
        <time>2010-11-28T15:05:36Z</time>
      </trkpt>
      <trkpt lat="45.62846" lon="6.04783">
        <ele>1657</ele>
        <time>2010-11-28T15:05:39Z</time>
      </trkpt>
      <trkpt lat="45.62846" lon="6.04781">
        <ele>1657</ele>
        <time>2010-11-28T15:05:41Z</time>
      </trkpt>
      <trkpt lat="45.62845" lon="6.04779">
        <ele>1657</ele>
        <time>2010-11-28T15:05:43Z</time>
      </trkpt>
      <trkpt lat="45.62845" lon="6.04778">
        <ele>1658</ele>
        <time>2010-11-28T15:05:45Z</time>
      </trkpt>
      <trkpt lat="45.62845" lon="6.04776">
        <ele>1658</ele>
        <time>2010-11-28T15:05:47Z</time>
      </trkpt>
      <trkpt lat="45.62844" lon="6.04774">
        <ele>1658</ele>
        <time>2010-11-28T15:05:50Z</time>
      </trkpt>
      <trkpt lat="45.62844" lon="6.04772">
        <ele>1658</ele>
        <time>2010-11-28T15:05:52Z</time>
      </trkpt>
      <trkpt lat="45.62843" lon="6.04771">
        <ele>1658</ele>
        <time>2010-11-28T15:05:54Z</time>
      </trkpt>
      <trkpt lat="45.62843" lon="6.04769">
        <ele>1659</ele>
        <time>2010-11-28T15:05:56Z</time>
      </trkpt>
      <trkpt lat="45.62844" lon="6.04767">
        <ele>1659</ele>
        <time>2010-11-28T15:05:58Z</time>
      </trkpt>
      <trkpt lat="45.62844" lon="6.04765">
        <ele>1659</ele>
        <time>2010-11-28T15:06:00Z</time>
      </trkpt>
      <trkpt lat="45.62844" lon="6.04764">
        <ele>1660</ele>
        <time>2010-11-28T15:06:02Z</time>
      </trkpt>
      <trkpt lat="45.62844" lon="6.04762">
        <ele>1660</ele>
        <time>2010-11-28T15:06:04Z</time>
      </trkpt>
      <trkpt lat="45.62844" lon="6.0476">
        <ele>1660</ele>
        <time>2010-11-28T15:06:06Z</time>
      </trkpt>
      <trkpt lat="45.62845" lon="6.04758">
        <ele>1661</ele>
        <time>2010-11-28T15:06:08Z</time>
      </trkpt>
      <trkpt lat="45.62845" lon="6.04756">
        <ele>1661</ele>
        <time>2010-11-28T15:06:10Z</time>
      </trkpt>
      <trkpt lat="45.62846" lon="6.04755">
        <ele>1661</ele>
        <time>2010-11-28T15:06:12Z</time>
      </trkpt>
      <trkpt lat="45.62846" lon="6.04753">
        <ele>1662</ele>
        <time>2010-11-28T15:06:14Z</time>
      </trkpt>
      <trkpt lat="45.62846" lon="6.04751">
        <ele>1662</ele>
        <time>2010-11-28T15:06:16Z</time>
      </trkpt>
      <trkpt lat="45.62846" lon="6.04749">
        <ele>1662</ele>
        <time>2010-11-28T15:06:18Z</time>
      </trkpt>
      <trkpt lat="45.62848" lon="6.04747">
        <ele>1662</ele>
        <time>2010-11-28T15:06:21Z</time>
      </trkpt>
      <trkpt lat="45.62849" lon="6.04745">
        <ele>1662</ele>
        <time>2010-11-28T15:06:24Z</time>
      </trkpt>
      <trkpt lat="45.6285" lon="6.04743">
        <ele>1662</ele>
        <time>2010-11-28T15:06:27Z</time>
      </trkpt>
      <trkpt lat="45.62851" lon="6.04741">
        <ele>1663</ele>
        <time>2010-11-28T15:06:29Z</time>
      </trkpt>
      <trkpt lat="45.62852" lon="6.0474">
        <ele>1663</ele>
        <time>2010-11-28T15:06:31Z</time>
      </trkpt>
      <trkpt lat="45.62852" lon="6.04739">
        <ele>1663</ele>
        <time>2010-11-28T15:06:33Z</time>
      </trkpt>
      <trkpt lat="45.62853" lon="6.04737">
        <ele>1663</ele>
        <time>2010-11-28T15:06:35Z</time>
      </trkpt>
      <trkpt lat="45.62854" lon="6.04735">
        <ele>1663</ele>
        <time>2010-11-28T15:06:38Z</time>
      </trkpt>
      <trkpt lat="45.62854" lon="6.04733">
        <ele>1663</ele>
        <time>2010-11-28T15:06:40Z</time>
      </trkpt>
      <trkpt lat="45.62855" lon="6.04731">
        <ele>1664</ele>
        <time>2010-11-28T15:06:42Z</time>
      </trkpt>
      <trkpt lat="45.62856" lon="6.0473">
        <ele>1664</ele>
        <time>2010-11-28T15:06:44Z</time>
      </trkpt>
      <trkpt lat="45.62857" lon="6.04728">
        <ele>1664</ele>
        <time>2010-11-28T15:06:46Z</time>
      </trkpt>
      <trkpt lat="45.62858" lon="6.04727">
        <ele>1665</ele>
        <time>2010-11-28T15:06:48Z</time>
      </trkpt>
      <trkpt lat="45.62858" lon="6.04725">
        <ele>1665</ele>
        <time>2010-11-28T15:06:51Z</time>
      </trkpt>
      <trkpt lat="45.62859" lon="6.04723">
        <ele>1665</ele>
        <time>2010-11-28T15:06:53Z</time>
      </trkpt>
      <trkpt lat="45.6286" lon="6.04722">
        <ele>1666</ele>
        <time>2010-11-28T15:06:55Z</time>
      </trkpt>
      <trkpt lat="45.62861" lon="6.0472">
        <ele>1666</ele>
        <time>2010-11-28T15:06:57Z</time>
      </trkpt>
      <trkpt lat="45.62862" lon="6.04718">
        <ele>1666</ele>
        <time>2010-11-28T15:06:59Z</time>
      </trkpt>
      <trkpt lat="45.62862" lon="6.04717">
        <ele>1666</ele>
        <time>2010-11-28T15:07:01Z</time>
      </trkpt>
      <trkpt lat="45.62862" lon="6.04715">
        <ele>1667</ele>
        <time>2010-11-28T15:07:03Z</time>
      </trkpt>
      <trkpt lat="45.62863" lon="6.04713">
        <ele>1667</ele>
        <time>2010-11-28T15:07:05Z</time>
      </trkpt>
      <trkpt lat="45.62864" lon="6.04712">
        <ele>1667</ele>
        <time>2010-11-28T15:07:07Z</time>
      </trkpt>
      <trkpt lat="45.62864" lon="6.0471">
        <ele>1667</ele>
        <time>2010-11-28T15:07:09Z</time>
      </trkpt>
      <trkpt lat="45.62864" lon="6.04708">
        <ele>1668</ele>
        <time>2010-11-28T15:07:12Z</time>
      </trkpt>
      <trkpt lat="45.62865" lon="6.04706">
        <ele>1668</ele>
        <time>2010-11-28T15:07:15Z</time>
      </trkpt>
      <trkpt lat="45.62865" lon="6.04705">
        <ele>1668</ele>
        <time>2010-11-28T15:07:17Z</time>
      </trkpt>
      <trkpt lat="45.62865" lon="6.04703">
        <ele>1668</ele>
        <time>2010-11-28T15:07:19Z</time>
      </trkpt>
      <trkpt lat="45.62865" lon="6.04701">
        <ele>1668</ele>
        <time>2010-11-28T15:07:21Z</time>
      </trkpt>
      <trkpt lat="45.62865" lon="6.04699">
        <ele>1668</ele>
        <time>2010-11-28T15:07:23Z</time>
      </trkpt>
      <trkpt lat="45.62864" lon="6.04697">
        <ele>1668</ele>
        <time>2010-11-28T15:07:26Z</time>
      </trkpt>
      <trkpt lat="45.62863" lon="6.04695">
        <ele>1669</ele>
        <time>2010-11-28T15:07:29Z</time>
      </trkpt>
      <trkpt lat="45.62862" lon="6.04694">
        <ele>1669</ele>
        <time>2010-11-28T15:07:32Z</time>
      </trkpt>
      <trkpt lat="45.62861" lon="6.04692">
        <ele>1669</ele>
        <time>2010-11-28T15:07:35Z</time>
      </trkpt>
      <trkpt lat="45.6286" lon="6.04691">
        <ele>1669</ele>
        <time>2010-11-28T15:07:38Z</time>
      </trkpt>
      <trkpt lat="45.62858" lon="6.0469">
        <ele>1669</ele>
        <time>2010-11-28T15:07:42Z</time>
      </trkpt>
      <trkpt lat="45.62857" lon="6.04689">
        <ele>1669</ele>
        <time>2010-11-28T15:07:46Z</time>
      </trkpt>
      <trkpt lat="45.62856" lon="6.04688">
        <ele>1669</ele>
        <time>2010-11-28T15:07:49Z</time>
      </trkpt>
      <trkpt lat="45.62854" lon="6.04686">
        <ele>1669</ele>
        <time>2010-11-28T15:07:52Z</time>
      </trkpt>
      <trkpt lat="45.62853" lon="6.04685">
        <ele>1669</ele>
        <time>2010-11-28T15:07:55Z</time>
      </trkpt>
      <trkpt lat="45.62852" lon="6.04683">
        <ele>1670</ele>
        <time>2010-11-28T15:07:59Z</time>
      </trkpt>
      <trkpt lat="45.62851" lon="6.04681">
        <ele>1670</ele>
        <time>2010-11-28T15:08:02Z</time>
      </trkpt>
      <trkpt lat="45.6285" lon="6.04679">
        <ele>1671</ele>
        <time>2010-11-28T15:08:05Z</time>
      </trkpt>
      <trkpt lat="45.62849" lon="6.04678">
        <ele>1671</ele>
        <time>2010-11-28T15:08:08Z</time>
      </trkpt>
      <trkpt lat="45.62847" lon="6.04676">
        <ele>1672</ele>
        <time>2010-11-28T15:08:11Z</time>
      </trkpt>
      <trkpt lat="45.62846" lon="6.04674">
        <ele>1672</ele>
        <time>2010-11-28T15:08:14Z</time>
      </trkpt>
      <trkpt lat="45.62845" lon="6.04672">
        <ele>1673</ele>
        <time>2010-11-28T15:08:17Z</time>
      </trkpt>
      <trkpt lat="45.62844" lon="6.04671">
        <ele>1673</ele>
        <time>2010-11-28T15:08:19Z</time>
      </trkpt>
      <trkpt lat="45.62843" lon="6.04669">
        <ele>1673</ele>
        <time>2010-11-28T15:08:22Z</time>
      </trkpt>
      <trkpt lat="45.62843" lon="6.04667">
        <ele>1674</ele>
        <time>2010-11-28T15:08:24Z</time>
      </trkpt>
      <trkpt lat="45.62842" lon="6.04666">
        <ele>1674</ele>
        <time>2010-11-28T15:08:26Z</time>
      </trkpt>
      <trkpt lat="45.62841" lon="6.04664">
        <ele>1674</ele>
        <time>2010-11-28T15:08:28Z</time>
      </trkpt>
      <trkpt lat="45.62841" lon="6.04663">
        <ele>1675</ele>
        <time>2010-11-28T15:08:30Z</time>
      </trkpt>
      <trkpt lat="45.62841" lon="6.04661">
        <ele>1675</ele>
        <time>2010-11-28T15:08:32Z</time>
      </trkpt>
      <trkpt lat="45.6284" lon="6.04659">
        <ele>1675</ele>
        <time>2010-11-28T15:08:35Z</time>
      </trkpt>
      <trkpt lat="45.6284" lon="6.04657">
        <ele>1675</ele>
        <time>2010-11-28T15:08:37Z</time>
      </trkpt>
      <trkpt lat="45.62839" lon="6.04655">
        <ele>1675</ele>
        <time>2010-11-28T15:08:40Z</time>
      </trkpt>
      <trkpt lat="45.62838" lon="6.04654">
        <ele>1675</ele>
        <time>2010-11-28T15:08:42Z</time>
      </trkpt>
      <trkpt lat="45.62838" lon="6.04652">
        <ele>1675</ele>
        <time>2010-11-28T15:08:44Z</time>
      </trkpt>
      <trkpt lat="45.62837" lon="6.0465">
        <ele>1675</ele>
        <time>2010-11-28T15:08:46Z</time>
      </trkpt>
      <trkpt lat="45.62837" lon="6.04649">
        <ele>1676</ele>
        <time>2010-11-28T15:08:48Z</time>
      </trkpt>
      <trkpt lat="45.62836" lon="6.04647">
        <ele>1676</ele>
        <time>2010-11-28T15:08:51Z</time>
      </trkpt>
      <trkpt lat="45.62836" lon="6.04645">
        <ele>1676</ele>
        <time>2010-11-28T15:08:53Z</time>
      </trkpt>
      <trkpt lat="45.62835" lon="6.04643">
        <ele>1676</ele>
        <time>2010-11-28T15:08:56Z</time>
      </trkpt>
      <trkpt lat="45.62834" lon="6.04641">
        <ele>1677</ele>
        <time>2010-11-28T15:08:58Z</time>
      </trkpt>
      <trkpt lat="45.62834" lon="6.0464">
        <ele>1677</ele>
        <time>2010-11-28T15:09:00Z</time>
      </trkpt>
      <trkpt lat="45.62833" lon="6.04638">
        <ele>1677</ele>
        <time>2010-11-28T15:09:03Z</time>
      </trkpt>
      <trkpt lat="45.62832" lon="6.04636">
        <ele>1677</ele>
        <time>2010-11-28T15:09:06Z</time>
      </trkpt>
      <trkpt lat="45.62831" lon="6.04634">
        <ele>1678</ele>
        <time>2010-11-28T15:09:09Z</time>
      </trkpt>
      <trkpt lat="45.62831" lon="6.04632">
        <ele>1678</ele>
        <time>2010-11-28T15:09:11Z</time>
      </trkpt>
      <trkpt lat="45.6283" lon="6.0463">
        <ele>1678</ele>
        <time>2010-11-28T15:09:13Z</time>
      </trkpt>
      <trkpt lat="45.6283" lon="6.04629">
        <ele>1679</ele>
        <time>2010-11-28T15:09:15Z</time>
      </trkpt>
      <trkpt lat="45.62829" lon="6.04627">
        <ele>1679</ele>
        <time>2010-11-28T15:09:17Z</time>
      </trkpt>
      <trkpt lat="45.62829" lon="6.04626">
        <ele>1680</ele>
        <time>2010-11-28T15:09:19Z</time>
      </trkpt>
      <trkpt lat="45.62829" lon="6.04624">
        <ele>1680</ele>
        <time>2010-11-28T15:09:22Z</time>
      </trkpt>
      <trkpt lat="45.62829" lon="6.04622">
        <ele>1681</ele>
        <time>2010-11-28T15:09:25Z</time>
      </trkpt>
      <trkpt lat="45.62829" lon="6.04621">
        <ele>1681</ele>
        <time>2010-11-28T15:09:27Z</time>
      </trkpt>
      <trkpt lat="45.62828" lon="6.04619">
        <ele>1681</ele>
        <time>2010-11-28T15:09:30Z</time>
      </trkpt>
      <trkpt lat="45.62828" lon="6.04617">
        <ele>1681</ele>
        <time>2010-11-28T15:09:33Z</time>
      </trkpt>
      <trkpt lat="45.62828" lon="6.04615">
        <ele>1682</ele>
        <time>2010-11-28T15:09:36Z</time>
      </trkpt>
      <trkpt lat="45.62828" lon="6.04613">
        <ele>1682</ele>
        <time>2010-11-28T15:09:38Z</time>
      </trkpt>
      <trkpt lat="45.62828" lon="6.04612">
        <ele>1683</ele>
        <time>2010-11-28T15:09:40Z</time>
      </trkpt>
      <trkpt lat="45.62828" lon="6.0461">
        <ele>1683</ele>
        <time>2010-11-28T15:09:43Z</time>
      </trkpt>
      <trkpt lat="45.62828" lon="6.04608">
        <ele>1683</ele>
        <time>2010-11-28T15:09:46Z</time>
      </trkpt>
      <trkpt lat="45.62828" lon="6.04606">
        <ele>1684</ele>
        <time>2010-11-28T15:09:48Z</time>
      </trkpt>
      <trkpt lat="45.62828" lon="6.04605">
        <ele>1684</ele>
        <time>2010-11-28T15:09:51Z</time>
      </trkpt>
      <trkpt lat="45.62828" lon="6.04602">
        <ele>1684</ele>
        <time>2010-11-28T15:09:54Z</time>
      </trkpt>
      <trkpt lat="45.62828" lon="6.046">
        <ele>1684</ele>
        <time>2010-11-28T15:09:57Z</time>
      </trkpt>
      <trkpt lat="45.62828" lon="6.04599">
        <ele>1684</ele>
        <time>2010-11-28T15:10:00Z</time>
      </trkpt>
      <trkpt lat="45.62828" lon="6.04597">
        <ele>1685</ele>
        <time>2010-11-28T15:10:03Z</time>
      </trkpt>
      <trkpt lat="45.62828" lon="6.04595">
        <ele>1685</ele>
        <time>2010-11-28T15:10:05Z</time>
      </trkpt>
      <trkpt lat="45.62828" lon="6.04594">
        <ele>1686</ele>
        <time>2010-11-28T15:10:14Z</time>
      </trkpt>
      <trkpt lat="45.62828" lon="6.04592">
        <ele>1686</ele>
        <time>2010-11-28T15:10:16Z</time>
      </trkpt>
      <trkpt lat="45.62828" lon="6.04591">
        <ele>1686</ele>
        <time>2010-11-28T15:10:19Z</time>
      </trkpt>
      <trkpt lat="45.62828" lon="6.04589">
        <ele>1687</ele>
        <time>2010-11-28T15:10:22Z</time>
      </trkpt>
      <trkpt lat="45.62828" lon="6.04586">
        <ele>1688</ele>
        <time>2010-11-28T15:10:25Z</time>
      </trkpt>
      <trkpt lat="45.62828" lon="6.04585">
        <ele>1688</ele>
        <time>2010-11-28T15:10:29Z</time>
      </trkpt>
      <trkpt lat="45.6283" lon="6.04584">
        <ele>1689</ele>
        <time>2010-11-28T15:10:33Z</time>
      </trkpt>
      <trkpt lat="45.6283" lon="6.04582">
        <ele>1689</ele>
        <time>2010-11-28T15:10:36Z</time>
      </trkpt>
      <trkpt lat="45.6283" lon="6.04581">
        <ele>1689</ele>
        <time>2010-11-28T15:10:39Z</time>
      </trkpt>
      <trkpt lat="45.62831" lon="6.04579">
        <ele>1690</ele>
        <time>2010-11-28T15:10:43Z</time>
      </trkpt>
      <trkpt lat="45.62831" lon="6.04577">
        <ele>1690</ele>
        <time>2010-11-28T15:10:46Z</time>
      </trkpt>
      <trkpt lat="45.62832" lon="6.04575">
        <ele>1690</ele>
        <time>2010-11-28T15:10:49Z</time>
      </trkpt>
      <trkpt lat="45.62832" lon="6.04574">
        <ele>1691</ele>
        <time>2010-11-28T15:10:52Z</time>
      </trkpt>
      <trkpt lat="45.62833" lon="6.04572">
        <ele>1691</ele>
        <time>2010-11-28T15:10:56Z</time>
      </trkpt>
      <trkpt lat="45.62834" lon="6.0457">
        <ele>1691</ele>
        <time>2010-11-28T15:10:58Z</time>
      </trkpt>
      <trkpt lat="45.62835" lon="6.04568">
        <ele>1691</ele>
        <time>2010-11-28T15:11:01Z</time>
      </trkpt>
      <trkpt lat="45.62835" lon="6.04566">
        <ele>1692</ele>
        <time>2010-11-28T15:11:03Z</time>
      </trkpt>
      <trkpt lat="45.62835" lon="6.04565">
        <ele>1692</ele>
        <time>2010-11-28T15:11:05Z</time>
      </trkpt>
      <trkpt lat="45.62835" lon="6.04566">
        <ele>1692</ele>
        <time>2010-11-28T15:11:22Z</time>
      </trkpt>
      <trkpt lat="45.62834" lon="6.04565">
        <ele>1693</ele>
        <time>2010-11-28T15:11:33Z</time>
      </trkpt>
      <trkpt lat="45.62835" lon="6.04566">
        <ele>1693</ele>
        <time>2010-11-28T15:11:59Z</time>
      </trkpt>
      <trkpt lat="45.62834" lon="6.04566">
        <ele>1693</ele>
        <time>2010-11-28T15:12:07Z</time>
      </trkpt>
      <trkpt lat="45.62833" lon="6.04564">
        <ele>1694</ele>
        <time>2010-11-28T15:12:19Z</time>
      </trkpt>
      <trkpt lat="45.62832" lon="6.04563">
        <ele>1695</ele>
        <time>2010-11-28T15:13:07Z</time>
      </trkpt>
      <trkpt lat="45.62833" lon="6.04564">
        <ele>1695</ele>
        <time>2010-11-28T15:13:28Z</time>
      </trkpt>
      <trkpt lat="45.62834" lon="6.04565">
        <ele>1695</ele>
        <time>2010-11-28T15:13:37Z</time>
      </trkpt>
      <trkpt lat="45.62833" lon="6.04564">
        <ele>1695</ele>
        <time>2010-11-28T15:13:58Z</time>
      </trkpt>
      <trkpt lat="45.62834" lon="6.04565">
        <ele>1695</ele>
        <time>2010-11-28T15:14:31Z</time>
      </trkpt>
      <trkpt lat="45.62835" lon="6.04565">
        <ele>1695</ele>
        <time>2010-11-28T15:15:00Z</time>
      </trkpt>
      <trkpt lat="45.62836" lon="6.04567">
        <ele>1695</ele>
        <time>2010-11-28T15:15:21Z</time>
      </trkpt>
      <trkpt lat="45.62837" lon="6.04568">
        <ele>1695</ele>
        <time>2010-11-28T15:15:32Z</time>
      </trkpt>
      <trkpt lat="45.62836" lon="6.04566">
        <ele>1695</ele>
        <time>2010-11-28T15:15:39Z</time>
      </trkpt>
      <trkpt lat="45.62835" lon="6.04566">
        <ele>1695</ele>
        <time>2010-11-28T15:15:48Z</time>
      </trkpt>
      <trkpt lat="45.62835" lon="6.04565">
        <ele>1695</ele>
        <time>2010-11-28T15:15:54Z</time>
      </trkpt>
      <trkpt lat="45.62835" lon="6.04566">
        <ele>1695</ele>
        <time>2010-11-28T15:16:07Z</time>
      </trkpt>
      <trkpt lat="45.62834" lon="6.04568">
        <ele>1695</ele>
        <time>2010-11-28T15:16:19Z</time>
      </trkpt>
      <trkpt lat="45.62833" lon="6.04566">
        <ele>1695</ele>
        <time>2010-11-28T15:16:28Z</time>
      </trkpt>
      <trkpt lat="45.62833" lon="6.04565">
        <ele>1695</ele>
        <time>2010-11-28T15:16:52Z</time>
      </trkpt>
      <trkpt lat="45.62833" lon="6.04563">
        <ele>1695</ele>
        <time>2010-11-28T15:17:01Z</time>
      </trkpt>
      <trkpt lat="45.62832" lon="6.04562">
        <ele>1692</ele>
        <time>2010-11-28T15:18:13Z</time>
      </trkpt>
      <trkpt lat="45.62833" lon="6.04564">
        <ele>1692</ele>
        <time>2010-11-28T15:18:42Z</time>
      </trkpt>
      <trkpt lat="45.62832" lon="6.04564">
        <ele>1692</ele>
        <time>2010-11-28T15:18:46Z</time>
      </trkpt>
      <trkpt lat="45.62831" lon="6.04564">
        <ele>1692</ele>
        <time>2010-11-28T15:19:17Z</time>
      </trkpt>
      <trkpt lat="45.6283" lon="6.04565">
        <ele>1692</ele>
        <time>2010-11-28T15:19:24Z</time>
      </trkpt>
      <trkpt lat="45.62831" lon="6.04565">
        <ele>1692</ele>
        <time>2010-11-28T15:19:41Z</time>
      </trkpt>
      <trkpt lat="45.62833" lon="6.04566">
        <ele>1692</ele>
        <time>2010-11-28T15:19:49Z</time>
      </trkpt>
      <trkpt lat="45.62832" lon="6.04565">
        <ele>1692</ele>
        <time>2010-11-28T15:20:26Z</time>
      </trkpt>
      <trkpt lat="45.62834" lon="6.04565">
        <ele>1689</ele>
        <time>2010-11-28T15:20:55Z</time>
      </trkpt>
      <trkpt lat="45.62836" lon="6.04564">
        <ele>1689</ele>
        <time>2010-11-28T15:20:57Z</time>
      </trkpt>
      <trkpt lat="45.62837" lon="6.04563">
        <ele>1689</ele>
        <time>2010-11-28T15:21:01Z</time>
      </trkpt>
      <trkpt lat="45.62839" lon="6.04562">
        <ele>1689</ele>
        <time>2010-11-28T15:21:04Z</time>
      </trkpt>
      <trkpt lat="45.6284" lon="6.0456">
        <ele>1689</ele>
        <time>2010-11-28T15:21:06Z</time>
      </trkpt>
      <trkpt lat="45.62841" lon="6.04559">
        <ele>1689</ele>
        <time>2010-11-28T15:21:09Z</time>
      </trkpt>
      <trkpt lat="45.62842" lon="6.04557">
        <ele>1689</ele>
        <time>2010-11-28T15:21:11Z</time>
      </trkpt>
      <trkpt lat="45.62843" lon="6.04555">
        <ele>1689</ele>
        <time>2010-11-28T15:21:13Z</time>
      </trkpt>
      <trkpt lat="45.62844" lon="6.04553">
        <ele>1689</ele>
        <time>2010-11-28T15:21:15Z</time>
      </trkpt>
      <trkpt lat="45.62845" lon="6.04552">
        <ele>1689</ele>
        <time>2010-11-28T15:21:17Z</time>
      </trkpt>
      <trkpt lat="45.62846" lon="6.0455">
        <ele>1689</ele>
        <time>2010-11-28T15:21:19Z</time>
      </trkpt>
      <trkpt lat="45.62847" lon="6.04549">
        <ele>1689</ele>
        <time>2010-11-28T15:21:21Z</time>
      </trkpt>
      <trkpt lat="45.62849" lon="6.04547">
        <ele>1689</ele>
        <time>2010-11-28T15:21:23Z</time>
      </trkpt>
      <trkpt lat="45.6285" lon="6.04545">
        <ele>1690</ele>
        <time>2010-11-28T15:21:25Z</time>
      </trkpt>
      <trkpt lat="45.62851" lon="6.04544">
        <ele>1690</ele>
        <time>2010-11-28T15:21:28Z</time>
      </trkpt>
      <trkpt lat="45.62852" lon="6.04542">
        <ele>1690</ele>
        <time>2010-11-28T15:21:31Z</time>
      </trkpt>
      <trkpt lat="45.62853" lon="6.0454">
        <ele>1691</ele>
        <time>2010-11-28T15:21:34Z</time>
      </trkpt>
      <trkpt lat="45.62854" lon="6.04538">
        <ele>1691</ele>
        <time>2010-11-28T15:21:36Z</time>
      </trkpt>
      <trkpt lat="45.62855" lon="6.04537">
        <ele>1692</ele>
        <time>2010-11-28T15:21:38Z</time>
      </trkpt>
      <trkpt lat="45.62856" lon="6.04535">
        <ele>1692</ele>
        <time>2010-11-28T15:21:41Z</time>
      </trkpt>
      <trkpt lat="45.62857" lon="6.04533">
        <ele>1692</ele>
        <time>2010-11-28T15:21:44Z</time>
      </trkpt>
      <trkpt lat="45.62858" lon="6.04532">
        <ele>1693</ele>
        <time>2010-11-28T15:21:47Z</time>
      </trkpt>
      <trkpt lat="45.62859" lon="6.04531">
        <ele>1693</ele>
        <time>2010-11-28T15:21:50Z</time>
      </trkpt>
      <trkpt lat="45.62861" lon="6.0453">
        <ele>1693</ele>
        <time>2010-11-28T15:21:53Z</time>
      </trkpt>
      <trkpt lat="45.62862" lon="6.04529">
        <ele>1694</ele>
        <time>2010-11-28T15:21:55Z</time>
      </trkpt>
      <trkpt lat="45.62864" lon="6.04528">
        <ele>1694</ele>
        <time>2010-11-28T15:21:58Z</time>
      </trkpt>
      <trkpt lat="45.62865" lon="6.04528">
        <ele>1694</ele>
        <time>2010-11-28T15:22:00Z</time>
      </trkpt>
      <trkpt lat="45.62867" lon="6.04527">
        <ele>1695</ele>
        <time>2010-11-28T15:22:02Z</time>
      </trkpt>
      <trkpt lat="45.62868" lon="6.04526">
        <ele>1695</ele>
        <time>2010-11-28T15:22:04Z</time>
      </trkpt>
      <trkpt lat="45.62869" lon="6.04525">
        <ele>1696</ele>
        <time>2010-11-28T15:22:06Z</time>
      </trkpt>
      <trkpt lat="45.6287" lon="6.04524">
        <ele>1696</ele>
        <time>2010-11-28T15:22:08Z</time>
      </trkpt>
      <trkpt lat="45.62872" lon="6.04523">
        <ele>1697</ele>
        <time>2010-11-28T15:22:10Z</time>
      </trkpt>
      <trkpt lat="45.62873" lon="6.04522">
        <ele>1697</ele>
        <time>2010-11-28T15:22:12Z</time>
      </trkpt>
      <trkpt lat="45.62875" lon="6.0452">
        <ele>1698</ele>
        <time>2010-11-28T15:22:15Z</time>
      </trkpt>
      <trkpt lat="45.62876" lon="6.04519">
        <ele>1698</ele>
        <time>2010-11-28T15:22:18Z</time>
      </trkpt>
      <trkpt lat="45.62878" lon="6.04517">
        <ele>1698</ele>
        <time>2010-11-28T15:22:21Z</time>
      </trkpt>
      <trkpt lat="45.62879" lon="6.04516">
        <ele>1698</ele>
        <time>2010-11-28T15:22:23Z</time>
      </trkpt>
      <trkpt lat="45.6288" lon="6.04514">
        <ele>1698</ele>
        <time>2010-11-28T15:22:26Z</time>
      </trkpt>
      <trkpt lat="45.62882" lon="6.04512">
        <ele>1699</ele>
        <time>2010-11-28T15:22:29Z</time>
      </trkpt>
      <trkpt lat="45.62883" lon="6.0451">
        <ele>1699</ele>
        <time>2010-11-28T15:22:32Z</time>
      </trkpt>
      <trkpt lat="45.62884" lon="6.04509">
        <ele>1699</ele>
        <time>2010-11-28T15:22:35Z</time>
      </trkpt>
      <trkpt lat="45.62886" lon="6.04506">
        <ele>1699</ele>
        <time>2010-11-28T15:22:38Z</time>
      </trkpt>
      <trkpt lat="45.62886" lon="6.04504">
        <ele>1700</ele>
        <time>2010-11-28T15:22:41Z</time>
      </trkpt>
      <trkpt lat="45.62887" lon="6.04502">
        <ele>1700</ele>
        <time>2010-11-28T15:22:45Z</time>
      </trkpt>
      <trkpt lat="45.62888" lon="6.04501">
        <ele>1700</ele>
        <time>2010-11-28T15:22:47Z</time>
      </trkpt>
      <trkpt lat="45.62889" lon="6.04499">
        <ele>1700</ele>
        <time>2010-11-28T15:22:51Z</time>
      </trkpt>
      <trkpt lat="45.62889" lon="6.04497">
        <ele>1701</ele>
        <time>2010-11-28T15:22:54Z</time>
      </trkpt>
      <trkpt lat="45.62889" lon="6.04495">
        <ele>1701</ele>
        <time>2010-11-28T15:22:56Z</time>
      </trkpt>
      <trkpt lat="45.62889" lon="6.04494">
        <ele>1702</ele>
        <time>2010-11-28T15:22:58Z</time>
      </trkpt>
      <trkpt lat="45.6289" lon="6.04492">
        <ele>1702</ele>
        <time>2010-11-28T15:23:00Z</time>
      </trkpt>
      <trkpt lat="45.6289" lon="6.0449">
        <ele>1702</ele>
        <time>2010-11-28T15:23:02Z</time>
      </trkpt>
      <trkpt lat="45.6289" lon="6.04488">
        <ele>1703</ele>
        <time>2010-11-28T15:23:05Z</time>
      </trkpt>
      <trkpt lat="45.6289" lon="6.04487">
        <ele>1703</ele>
        <time>2010-11-28T15:23:08Z</time>
      </trkpt>
      <trkpt lat="45.6289" lon="6.04485">
        <ele>1703</ele>
        <time>2010-11-28T15:23:10Z</time>
      </trkpt>
      <trkpt lat="45.6289" lon="6.04483">
        <ele>1704</ele>
        <time>2010-11-28T15:23:13Z</time>
      </trkpt>
      <trkpt lat="45.6289" lon="6.04481">
        <ele>1704</ele>
        <time>2010-11-28T15:23:15Z</time>
      </trkpt>
      <trkpt lat="45.62891" lon="6.0448">
        <ele>1704</ele>
        <time>2010-11-28T15:23:17Z</time>
      </trkpt>
      <trkpt lat="45.62891" lon="6.04478">
        <ele>1704</ele>
        <time>2010-11-28T15:23:19Z</time>
      </trkpt>
      <trkpt lat="45.62891" lon="6.04476">
        <ele>1704</ele>
        <time>2010-11-28T15:23:21Z</time>
      </trkpt>
      <trkpt lat="45.62892" lon="6.04475">
        <ele>1705</ele>
        <time>2010-11-28T15:23:23Z</time>
      </trkpt>
      <trkpt lat="45.62892" lon="6.04473">
        <ele>1705</ele>
        <time>2010-11-28T15:23:26Z</time>
      </trkpt>
      <trkpt lat="45.62893" lon="6.04472">
        <ele>1706</ele>
        <time>2010-11-28T15:23:29Z</time>
      </trkpt>
      <trkpt lat="45.62894" lon="6.0447">
        <ele>1706</ele>
        <time>2010-11-28T15:23:33Z</time>
      </trkpt>
      <trkpt lat="45.62894" lon="6.04468">
        <ele>1706</ele>
        <time>2010-11-28T15:23:36Z</time>
      </trkpt>
      <trkpt lat="45.62895" lon="6.04466">
        <ele>1706</ele>
        <time>2010-11-28T15:23:39Z</time>
      </trkpt>
      <trkpt lat="45.62896" lon="6.04463">
        <ele>1706</ele>
        <time>2010-11-28T15:23:42Z</time>
      </trkpt>
      <trkpt lat="45.62897" lon="6.04462">
        <ele>1706</ele>
        <time>2010-11-28T15:23:44Z</time>
      </trkpt>
      <trkpt lat="45.62897" lon="6.0446">
        <ele>1706</ele>
        <time>2010-11-28T15:23:46Z</time>
      </trkpt>
      <trkpt lat="45.62898" lon="6.04458">
        <ele>1706</ele>
        <time>2010-11-28T15:23:48Z</time>
      </trkpt>
      <trkpt lat="45.62899" lon="6.04457">
        <ele>1706</ele>
        <time>2010-11-28T15:23:50Z</time>
      </trkpt>
      <trkpt lat="45.62899" lon="6.04455">
        <ele>1706</ele>
        <time>2010-11-28T15:23:52Z</time>
      </trkpt>
      <trkpt lat="45.62901" lon="6.04453">
        <ele>1706</ele>
        <time>2010-11-28T15:23:55Z</time>
      </trkpt>
      <trkpt lat="45.62902" lon="6.04452">
        <ele>1706</ele>
        <time>2010-11-28T15:23:57Z</time>
      </trkpt>
      <trkpt lat="45.62902" lon="6.0445">
        <ele>1706</ele>
        <time>2010-11-28T15:24:01Z</time>
      </trkpt>
      <trkpt lat="45.62903" lon="6.04448">
        <ele>1706</ele>
        <time>2010-11-28T15:24:04Z</time>
      </trkpt>
      <trkpt lat="45.62903" lon="6.04446">
        <ele>1706</ele>
        <time>2010-11-28T15:24:07Z</time>
      </trkpt>
      <trkpt lat="45.62904" lon="6.04443">
        <ele>1706</ele>
        <time>2010-11-28T15:24:10Z</time>
      </trkpt>
      <trkpt lat="45.62905" lon="6.04442">
        <ele>1706</ele>
        <time>2010-11-28T15:24:12Z</time>
      </trkpt>
      <trkpt lat="45.62906" lon="6.0444">
        <ele>1706</ele>
        <time>2010-11-28T15:24:14Z</time>
      </trkpt>
      <trkpt lat="45.62906" lon="6.04438">
        <ele>1706</ele>
        <time>2010-11-28T15:24:17Z</time>
      </trkpt>
      <trkpt lat="45.62907" lon="6.04436">
        <ele>1707</ele>
        <time>2010-11-28T15:24:19Z</time>
      </trkpt>
      <trkpt lat="45.62907" lon="6.04435">
        <ele>1707</ele>
        <time>2010-11-28T15:24:21Z</time>
      </trkpt>
      <trkpt lat="45.62907" lon="6.04433">
        <ele>1707</ele>
        <time>2010-11-28T15:24:23Z</time>
      </trkpt>
      <trkpt lat="45.62907" lon="6.04431">
        <ele>1708</ele>
        <time>2010-11-28T15:24:25Z</time>
      </trkpt>
      <trkpt lat="45.62908" lon="6.0443">
        <ele>1708</ele>
        <time>2010-11-28T15:24:27Z</time>
      </trkpt>
      <trkpt lat="45.62908" lon="6.04428">
        <ele>1708</ele>
        <time>2010-11-28T15:24:29Z</time>
      </trkpt>
      <trkpt lat="45.62909" lon="6.04426">
        <ele>1708</ele>
        <time>2010-11-28T15:24:31Z</time>
      </trkpt>
      <trkpt lat="45.62909" lon="6.04425">
        <ele>1708</ele>
        <time>2010-11-28T15:24:33Z</time>
      </trkpt>
      <trkpt lat="45.6291" lon="6.04423">
        <ele>1708</ele>
        <time>2010-11-28T15:24:35Z</time>
      </trkpt>
      <trkpt lat="45.62911" lon="6.04421">
        <ele>1708</ele>
        <time>2010-11-28T15:24:38Z</time>
      </trkpt>
      <trkpt lat="45.62911" lon="6.0442">
        <ele>1708</ele>
        <time>2010-11-28T15:24:40Z</time>
      </trkpt>
      <trkpt lat="45.62912" lon="6.04418">
        <ele>1708</ele>
        <time>2010-11-28T15:24:42Z</time>
      </trkpt>
      <trkpt lat="45.62912" lon="6.04416">
        <ele>1708</ele>
        <time>2010-11-28T15:24:44Z</time>
      </trkpt>
      <trkpt lat="45.62912" lon="6.04414">
        <ele>1708</ele>
        <time>2010-11-28T15:24:46Z</time>
      </trkpt>
      <trkpt lat="45.62913" lon="6.04413">
        <ele>1708</ele>
        <time>2010-11-28T15:24:48Z</time>
      </trkpt>
      <trkpt lat="45.62913" lon="6.04411">
        <ele>1708</ele>
        <time>2010-11-28T15:24:50Z</time>
      </trkpt>
      <trkpt lat="45.62914" lon="6.0441">
        <ele>1708</ele>
        <time>2010-11-28T15:24:53Z</time>
      </trkpt>
      <trkpt lat="45.62914" lon="6.04408">
        <ele>1708</ele>
        <time>2010-11-28T15:24:55Z</time>
      </trkpt>
      <trkpt lat="45.62914" lon="6.04406">
        <ele>1708</ele>
        <time>2010-11-28T15:24:58Z</time>
      </trkpt>
      <trkpt lat="45.62914" lon="6.04404">
        <ele>1708</ele>
        <time>2010-11-28T15:25:01Z</time>
      </trkpt>
      <trkpt lat="45.62915" lon="6.04403">
        <ele>1708</ele>
        <time>2010-11-28T15:25:04Z</time>
      </trkpt>
      <trkpt lat="45.62915" lon="6.04401">
        <ele>1709</ele>
        <time>2010-11-28T15:25:07Z</time>
      </trkpt>
      <trkpt lat="45.62915" lon="6.04399">
        <ele>1709</ele>
        <time>2010-11-28T15:25:10Z</time>
      </trkpt>
      <trkpt lat="45.62915" lon="6.04398">
        <ele>1710</ele>
        <time>2010-11-28T15:25:12Z</time>
      </trkpt>
      <trkpt lat="45.62915" lon="6.04396">
        <ele>1710</ele>
        <time>2010-11-28T15:25:14Z</time>
      </trkpt>
      <trkpt lat="45.62915" lon="6.04395">
        <ele>1710</ele>
        <time>2010-11-28T15:25:16Z</time>
      </trkpt>
      <trkpt lat="45.62914" lon="6.04393">
        <ele>1711</ele>
        <time>2010-11-28T15:25:18Z</time>
      </trkpt>
      <trkpt lat="45.62914" lon="6.04391">
        <ele>1711</ele>
        <time>2010-11-28T15:25:21Z</time>
      </trkpt>
      <trkpt lat="45.62914" lon="6.04389">
        <ele>1711</ele>
        <time>2010-11-28T15:25:23Z</time>
      </trkpt>
      <trkpt lat="45.62914" lon="6.04388">
        <ele>1711</ele>
        <time>2010-11-28T15:25:25Z</time>
      </trkpt>
      <trkpt lat="45.62913" lon="6.04386">
        <ele>1711</ele>
        <time>2010-11-28T15:25:27Z</time>
      </trkpt>
      <trkpt lat="45.62912" lon="6.04384">
        <ele>1711</ele>
        <time>2010-11-28T15:25:29Z</time>
      </trkpt>
      <trkpt lat="45.62912" lon="6.04383">
        <ele>1711</ele>
        <time>2010-11-28T15:25:31Z</time>
      </trkpt>
      <trkpt lat="45.62912" lon="6.04381">
        <ele>1712</ele>
        <time>2010-11-28T15:25:33Z</time>
      </trkpt>
      <trkpt lat="45.6291" lon="6.0438">
        <ele>1713</ele>
        <time>2010-11-28T15:25:37Z</time>
      </trkpt>
      <trkpt lat="45.62909" lon="6.04378">
        <ele>1713</ele>
        <time>2010-11-28T15:25:40Z</time>
      </trkpt>
      <trkpt lat="45.62909" lon="6.04376">
        <ele>1713</ele>
        <time>2010-11-28T15:25:43Z</time>
      </trkpt>
      <trkpt lat="45.62908" lon="6.04374">
        <ele>1714</ele>
        <time>2010-11-28T15:25:47Z</time>
      </trkpt>
      <trkpt lat="45.62908" lon="6.04372">
        <ele>1714</ele>
        <time>2010-11-28T15:25:52Z</time>
      </trkpt>
      <trkpt lat="45.62907" lon="6.04371">
        <ele>1714</ele>
        <time>2010-11-28T15:25:54Z</time>
      </trkpt>
      <trkpt lat="45.62907" lon="6.04369">
        <ele>1714</ele>
        <time>2010-11-28T15:25:57Z</time>
      </trkpt>
      <trkpt lat="45.62906" lon="6.04367">
        <ele>1714</ele>
        <time>2010-11-28T15:26:00Z</time>
      </trkpt>
      <trkpt lat="45.62906" lon="6.04365">
        <ele>1714</ele>
        <time>2010-11-28T15:26:03Z</time>
      </trkpt>
      <trkpt lat="45.62905" lon="6.04363">
        <ele>1714</ele>
        <time>2010-11-28T15:26:06Z</time>
      </trkpt>
      <trkpt lat="45.62905" lon="6.04361">
        <ele>1714</ele>
        <time>2010-11-28T15:26:09Z</time>
      </trkpt>
      <trkpt lat="45.62904" lon="6.04359">
        <ele>1714</ele>
        <time>2010-11-28T15:26:12Z</time>
      </trkpt>
      <trkpt lat="45.62903" lon="6.04358">
        <ele>1715</ele>
        <time>2010-11-28T15:26:15Z</time>
      </trkpt>
      <trkpt lat="45.62903" lon="6.04355">
        <ele>1715</ele>
        <time>2010-11-28T15:26:18Z</time>
      </trkpt>
      <trkpt lat="45.62903" lon="6.04353">
        <ele>1715</ele>
        <time>2010-11-28T15:26:22Z</time>
      </trkpt>
      <trkpt lat="45.62903" lon="6.04352">
        <ele>1716</ele>
        <time>2010-11-28T15:26:24Z</time>
      </trkpt>
      <trkpt lat="45.62903" lon="6.0435">
        <ele>1716</ele>
        <time>2010-11-28T15:26:26Z</time>
      </trkpt>
      <trkpt lat="45.62903" lon="6.04348">
        <ele>1716</ele>
        <time>2010-11-28T15:26:28Z</time>
      </trkpt>
      <trkpt lat="45.62903" lon="6.04347">
        <ele>1716</ele>
        <time>2010-11-28T15:26:30Z</time>
      </trkpt>
      <trkpt lat="45.62903" lon="6.04345">
        <ele>1717</ele>
        <time>2010-11-28T15:26:32Z</time>
      </trkpt>
      <trkpt lat="45.62904" lon="6.04343">
        <ele>1717</ele>
        <time>2010-11-28T15:26:34Z</time>
      </trkpt>
      <trkpt lat="45.62904" lon="6.04342">
        <ele>1717</ele>
        <time>2010-11-28T15:26:36Z</time>
      </trkpt>
      <trkpt lat="45.62905" lon="6.0434">
        <ele>1718</ele>
        <time>2010-11-28T15:26:39Z</time>
      </trkpt>
      <trkpt lat="45.62906" lon="6.04338">
        <ele>1718</ele>
        <time>2010-11-28T15:26:42Z</time>
      </trkpt>
      <trkpt lat="45.62907" lon="6.04336">
        <ele>1719</ele>
        <time>2010-11-28T15:26:45Z</time>
      </trkpt>
      <trkpt lat="45.62908" lon="6.04334">
        <ele>1719</ele>
        <time>2010-11-28T15:26:48Z</time>
      </trkpt>
      <trkpt lat="45.62909" lon="6.04333">
        <ele>1720</ele>
        <time>2010-11-28T15:26:52Z</time>
      </trkpt>
      <trkpt lat="45.6291" lon="6.04331">
        <ele>1720</ele>
        <time>2010-11-28T15:26:54Z</time>
      </trkpt>
      <trkpt lat="45.6291" lon="6.0433">
        <ele>1721</ele>
        <time>2010-11-28T15:26:56Z</time>
      </trkpt>
      <trkpt lat="45.6291" lon="6.04328">
        <ele>1721</ele>
        <time>2010-11-28T15:26:59Z</time>
      </trkpt>
      <trkpt lat="45.6291" lon="6.04326">
        <ele>1721</ele>
        <time>2010-11-28T15:27:02Z</time>
      </trkpt>
      <trkpt lat="45.6291" lon="6.04324">
        <ele>1721</ele>
        <time>2010-11-28T15:27:05Z</time>
      </trkpt>
      <trkpt lat="45.6291" lon="6.04322">
        <ele>1722</ele>
        <time>2010-11-28T15:27:07Z</time>
      </trkpt>
      <trkpt lat="45.6291" lon="6.04321">
        <ele>1722</ele>
        <time>2010-11-28T15:27:09Z</time>
      </trkpt>
      <trkpt lat="45.6291" lon="6.04319">
        <ele>1722</ele>
        <time>2010-11-28T15:27:11Z</time>
      </trkpt>
      <trkpt lat="45.62911" lon="6.04318">
        <ele>1722</ele>
        <time>2010-11-28T15:27:13Z</time>
      </trkpt>
      <trkpt lat="45.62911" lon="6.04316">
        <ele>1722</ele>
        <time>2010-11-28T15:27:15Z</time>
      </trkpt>
      <trkpt lat="45.62912" lon="6.04314">
        <ele>1722</ele>
        <time>2010-11-28T15:27:17Z</time>
      </trkpt>
      <trkpt lat="45.62913" lon="6.04312">
        <ele>1722</ele>
        <time>2010-11-28T15:27:20Z</time>
      </trkpt>
      <trkpt lat="45.62914" lon="6.0431">
        <ele>1722</ele>
        <time>2010-11-28T15:27:23Z</time>
      </trkpt>
      <trkpt lat="45.62915" lon="6.04309">
        <ele>1722</ele>
        <time>2010-11-28T15:27:25Z</time>
      </trkpt>
      <trkpt lat="45.62917" lon="6.04308">
        <ele>1722</ele>
        <time>2010-11-28T15:27:27Z</time>
      </trkpt>
      <trkpt lat="45.62917" lon="6.04307">
        <ele>1723</ele>
        <time>2010-11-28T15:27:29Z</time>
      </trkpt>
      <trkpt lat="45.62917" lon="6.04304">
        <ele>1723</ele>
        <time>2010-11-28T15:27:32Z</time>
      </trkpt>
      <trkpt lat="45.62917" lon="6.04303">
        <ele>1723</ele>
        <time>2010-11-28T15:27:34Z</time>
      </trkpt>
      <trkpt lat="45.62917" lon="6.04301">
        <ele>1723</ele>
        <time>2010-11-28T15:27:37Z</time>
      </trkpt>
      <trkpt lat="45.62917" lon="6.04299">
        <ele>1723</ele>
        <time>2010-11-28T15:27:45Z</time>
      </trkpt>
      <trkpt lat="45.62916" lon="6.043">
        <ele>1723</ele>
        <time>2010-11-28T15:28:01Z</time>
      </trkpt>
      <trkpt lat="45.62915" lon="6.04298">
        <ele>1723</ele>
        <time>2010-11-28T15:28:04Z</time>
      </trkpt>
      <trkpt lat="45.62915" lon="6.04296">
        <ele>1723</ele>
        <time>2010-11-28T15:28:08Z</time>
      </trkpt>
      <trkpt lat="45.62915" lon="6.04295">
        <ele>1723</ele>
        <time>2010-11-28T15:28:14Z</time>
      </trkpt>
      <trkpt lat="45.62915" lon="6.04293">
        <ele>1723</ele>
        <time>2010-11-28T15:28:33Z</time>
      </trkpt>
      <trkpt lat="45.62915" lon="6.04291">
        <ele>1723</ele>
        <time>2010-11-28T15:28:35Z</time>
      </trkpt>
      <trkpt lat="45.62915" lon="6.04289">
        <ele>1723</ele>
        <time>2010-11-28T15:28:37Z</time>
      </trkpt>
      <trkpt lat="45.62917" lon="6.04287">
        <ele>1724</ele>
        <time>2010-11-28T15:28:41Z</time>
      </trkpt>
      <trkpt lat="45.62917" lon="6.04286">
        <ele>1724</ele>
        <time>2010-11-28T15:28:44Z</time>
      </trkpt>
      <trkpt lat="45.62918" lon="6.04284">
        <ele>1725</ele>
        <time>2010-11-28T15:28:47Z</time>
      </trkpt>
      <trkpt lat="45.62919" lon="6.04282">
        <ele>1725</ele>
        <time>2010-11-28T15:28:50Z</time>
      </trkpt>
      <trkpt lat="45.6292" lon="6.04281">
        <ele>1725</ele>
        <time>2010-11-28T15:28:52Z</time>
      </trkpt>
      <trkpt lat="45.6292" lon="6.04279">
        <ele>1725</ele>
        <time>2010-11-28T15:28:54Z</time>
      </trkpt>
      <trkpt lat="45.6292" lon="6.04277">
        <ele>1725</ele>
        <time>2010-11-28T15:28:56Z</time>
      </trkpt>
      <trkpt lat="45.6292" lon="6.04276">
        <ele>1725</ele>
        <time>2010-11-28T15:28:58Z</time>
      </trkpt>
      <trkpt lat="45.6292" lon="6.04274">
        <ele>1726</ele>
        <time>2010-11-28T15:29:00Z</time>
      </trkpt>
      <trkpt lat="45.6292" lon="6.04272">
        <ele>1726</ele>
        <time>2010-11-28T15:29:03Z</time>
      </trkpt>
      <trkpt lat="45.62919" lon="6.04271">
        <ele>1726</ele>
        <time>2010-11-28T15:29:05Z</time>
      </trkpt>
      <trkpt lat="45.62918" lon="6.04269">
        <ele>1726</ele>
        <time>2010-11-28T15:29:07Z</time>
      </trkpt>
      <trkpt lat="45.62918" lon="6.04267">
        <ele>1726</ele>
        <time>2010-11-28T15:29:10Z</time>
      </trkpt>
      <trkpt lat="45.62918" lon="6.04265">
        <ele>1727</ele>
        <time>2010-11-28T15:29:12Z</time>
      </trkpt>
      <trkpt lat="45.62918" lon="6.04264">
        <ele>1727</ele>
        <time>2010-11-28T15:29:14Z</time>
      </trkpt>
      <trkpt lat="45.62918" lon="6.04262">
        <ele>1727</ele>
        <time>2010-11-28T15:29:16Z</time>
      </trkpt>
      <trkpt lat="45.62919" lon="6.04261">
        <ele>1727</ele>
        <time>2010-11-28T15:29:18Z</time>
      </trkpt>
      <trkpt lat="45.62919" lon="6.04259">
        <ele>1727</ele>
        <time>2010-11-28T15:29:20Z</time>
      </trkpt>
      <trkpt lat="45.62919" lon="6.04258">
        <ele>1727</ele>
        <time>2010-11-28T15:29:22Z</time>
      </trkpt>
      <trkpt lat="45.62919" lon="6.04255">
        <ele>1728</ele>
        <time>2010-11-28T15:29:24Z</time>
      </trkpt>
      <trkpt lat="45.62919" lon="6.04253">
        <ele>1728</ele>
        <time>2010-11-28T15:29:27Z</time>
      </trkpt>
      <trkpt lat="45.62919" lon="6.04252">
        <ele>1728</ele>
        <time>2010-11-28T15:29:29Z</time>
      </trkpt>
      <trkpt lat="45.6292" lon="6.0425">
        <ele>1728</ele>
        <time>2010-11-28T15:29:31Z</time>
      </trkpt>
      <trkpt lat="45.6292" lon="6.04248">
        <ele>1728</ele>
        <time>2010-11-28T15:29:33Z</time>
      </trkpt>
      <trkpt lat="45.6292" lon="6.04247">
        <ele>1728</ele>
        <time>2010-11-28T15:29:37Z</time>
      </trkpt>
      <trkpt lat="45.6292" lon="6.04245">
        <ele>1728</ele>
        <time>2010-11-28T15:29:40Z</time>
      </trkpt>
      <trkpt lat="45.6292" lon="6.04243">
        <ele>1728</ele>
        <time>2010-11-28T15:29:42Z</time>
      </trkpt>
      <trkpt lat="45.6292" lon="6.04241">
        <ele>1728</ele>
        <time>2010-11-28T15:29:44Z</time>
      </trkpt>
      <trkpt lat="45.62921" lon="6.04239">
        <ele>1728</ele>
        <time>2010-11-28T15:29:46Z</time>
      </trkpt>
      <trkpt lat="45.62921" lon="6.04237">
        <ele>1728</ele>
        <time>2010-11-28T15:29:48Z</time>
      </trkpt>
      <trkpt lat="45.62921" lon="6.04235">
        <ele>1728</ele>
        <time>2010-11-28T15:29:50Z</time>
      </trkpt>
      <trkpt lat="45.62921" lon="6.04234">
        <ele>1728</ele>
        <time>2010-11-28T15:30:01Z</time>
      </trkpt>
      <trkpt lat="45.62921" lon="6.04232">
        <ele>1728</ele>
        <time>2010-11-28T15:30:03Z</time>
      </trkpt>
      <trkpt lat="45.62921" lon="6.0423">
        <ele>1729</ele>
        <time>2010-11-28T15:30:05Z</time>
      </trkpt>
      <trkpt lat="45.62921" lon="6.04227">
        <ele>1729</ele>
        <time>2010-11-28T15:30:08Z</time>
      </trkpt>
      <trkpt lat="45.62921" lon="6.04226">
        <ele>1730</ele>
        <time>2010-11-28T15:30:15Z</time>
      </trkpt>
      <trkpt lat="45.62921" lon="6.04224">
        <ele>1730</ele>
        <time>2010-11-28T15:30:18Z</time>
      </trkpt>
      <trkpt lat="45.62921" lon="6.04222">
        <ele>1731</ele>
        <time>2010-11-28T15:30:22Z</time>
      </trkpt>
      <trkpt lat="45.62921" lon="6.04221">
        <ele>1731</ele>
        <time>2010-11-28T15:30:24Z</time>
      </trkpt>
      <trkpt lat="45.62922" lon="6.04219">
        <ele>1731</ele>
        <time>2010-11-28T15:30:27Z</time>
      </trkpt>
      <trkpt lat="45.62923" lon="6.04217">
        <ele>1731</ele>
        <time>2010-11-28T15:30:34Z</time>
      </trkpt>
      <trkpt lat="45.62923" lon="6.04215">
        <ele>1732</ele>
        <time>2010-11-28T15:30:38Z</time>
      </trkpt>
      <trkpt lat="45.62924" lon="6.04214">
        <ele>1732</ele>
        <time>2010-11-28T15:30:41Z</time>
      </trkpt>
      <trkpt lat="45.62923" lon="6.04212">
        <ele>1732</ele>
        <time>2010-11-28T15:30:44Z</time>
      </trkpt>
      <trkpt lat="45.62923" lon="6.0421">
        <ele>1733</ele>
        <time>2010-11-28T15:30:52Z</time>
      </trkpt>
      <trkpt lat="45.62925" lon="6.04208">
        <ele>1733</ele>
        <time>2010-11-28T15:30:57Z</time>
      </trkpt>
      <trkpt lat="45.62926" lon="6.04207">
        <ele>1733</ele>
        <time>2010-11-28T15:31:01Z</time>
      </trkpt>
      <trkpt lat="45.62928" lon="6.04207">
        <ele>1733</ele>
        <time>2010-11-28T15:31:03Z</time>
      </trkpt>
      <trkpt lat="45.62928" lon="6.04205">
        <ele>1734</ele>
        <time>2010-11-28T15:31:07Z</time>
      </trkpt>
      <trkpt lat="45.62929" lon="6.04203">
        <ele>1734</ele>
        <time>2010-11-28T15:31:10Z</time>
      </trkpt>
      <trkpt lat="45.62929" lon="6.04201">
        <ele>1735</ele>
        <time>2010-11-28T15:31:12Z</time>
      </trkpt>
      <trkpt lat="45.62929" lon="6.042">
        <ele>1735</ele>
        <time>2010-11-28T15:31:14Z</time>
      </trkpt>
      <trkpt lat="45.62928" lon="6.04198">
        <ele>1735</ele>
        <time>2010-11-28T15:31:18Z</time>
      </trkpt>
      <trkpt lat="45.62928" lon="6.04197">
        <ele>1735</ele>
        <time>2010-11-28T15:31:20Z</time>
      </trkpt>
      <trkpt lat="45.62928" lon="6.04194">
        <ele>1736</ele>
        <time>2010-11-28T15:31:23Z</time>
      </trkpt>
      <trkpt lat="45.62928" lon="6.04193">
        <ele>1736</ele>
        <time>2010-11-28T15:31:26Z</time>
      </trkpt>
      <trkpt lat="45.62927" lon="6.04191">
        <ele>1737</ele>
        <time>2010-11-28T15:31:30Z</time>
      </trkpt>
      <trkpt lat="45.62927" lon="6.04189">
        <ele>1737</ele>
        <time>2010-11-28T15:31:33Z</time>
      </trkpt>
      <trkpt lat="45.62929" lon="6.04188">
        <ele>1738</ele>
        <time>2010-11-28T15:31:37Z</time>
      </trkpt>
      <trkpt lat="45.6293" lon="6.04186">
        <ele>1738</ele>
        <time>2010-11-28T15:31:42Z</time>
      </trkpt>
      <trkpt lat="45.62932" lon="6.04185">
        <ele>1738</ele>
        <time>2010-11-28T15:31:45Z</time>
      </trkpt>
      <trkpt lat="45.62933" lon="6.04183">
        <ele>1739</ele>
        <time>2010-11-28T15:31:48Z</time>
      </trkpt>
      <trkpt lat="45.62934" lon="6.04181">
        <ele>1739</ele>
        <time>2010-11-28T15:31:50Z</time>
      </trkpt>
      <trkpt lat="45.62935" lon="6.0418">
        <ele>1739</ele>
        <time>2010-11-28T15:31:52Z</time>
      </trkpt>
      <trkpt lat="45.62936" lon="6.04178">
        <ele>1739</ele>
        <time>2010-11-28T15:31:55Z</time>
      </trkpt>
      <trkpt lat="45.62938" lon="6.04176">
        <ele>1739</ele>
        <time>2010-11-28T15:31:57Z</time>
      </trkpt>
      <trkpt lat="45.62939" lon="6.04174">
        <ele>1739</ele>
        <time>2010-11-28T15:32:01Z</time>
      </trkpt>
      <trkpt lat="45.62939" lon="6.04172">
        <ele>1739</ele>
        <time>2010-11-28T15:32:03Z</time>
      </trkpt>
      <trkpt lat="45.62941" lon="6.04171">
        <ele>1739</ele>
        <time>2010-11-28T15:32:06Z</time>
      </trkpt>
      <trkpt lat="45.62939" lon="6.0417">
        <ele>1741</ele>
        <time>2010-11-28T15:32:34Z</time>
      </trkpt>
      <trkpt lat="45.62938" lon="6.0417">
        <ele>1742</ele>
        <time>2010-11-28T15:32:40Z</time>
      </trkpt>
      <trkpt lat="45.62937" lon="6.0417">
        <ele>1742</ele>
        <time>2010-11-28T15:32:46Z</time>
      </trkpt>
      <trkpt lat="45.62938" lon="6.0417">
        <ele>1742</ele>
        <time>2010-11-28T15:33:10Z</time>
      </trkpt>
      <trkpt lat="45.62939" lon="6.04171">
        <ele>1742</ele>
        <time>2010-11-28T15:33:16Z</time>
      </trkpt>
      <trkpt lat="45.6294" lon="6.04172">
        <ele>1742</ele>
        <time>2010-11-28T15:33:24Z</time>
      </trkpt>
      <trkpt lat="45.6294" lon="6.04171">
        <ele>1742</ele>
        <time>2010-11-28T15:33:45Z</time>
      </trkpt>
      <trkpt lat="45.6294" lon="6.04172">
        <ele>1742</ele>
        <time>2010-11-28T15:34:00Z</time>
      </trkpt>
      <trkpt lat="45.62941" lon="6.04172">
        <ele>1742</ele>
        <time>2010-11-28T15:34:07Z</time>
      </trkpt>
      <trkpt lat="45.6294" lon="6.04171">
        <ele>1742</ele>
        <time>2010-11-28T15:34:26Z</time>
      </trkpt>
      <trkpt lat="45.6294" lon="6.04169">
        <ele>1742</ele>
        <time>2010-11-28T15:35:05Z</time>
      </trkpt>
      <trkpt lat="45.6294" lon="6.04171">
        <ele>1742</ele>
        <time>2010-11-28T15:35:14Z</time>
      </trkpt>
      <trkpt lat="45.6294" lon="6.04172">
        <ele>1742</ele>
        <time>2010-11-28T15:35:17Z</time>
      </trkpt>
      <trkpt lat="45.62939" lon="6.04174">
        <ele>1742</ele>
        <time>2010-11-28T15:35:22Z</time>
      </trkpt>
      <trkpt lat="45.62938" lon="6.04175">
        <ele>1743</ele>
        <time>2010-11-28T15:35:47Z</time>
      </trkpt>
      <trkpt lat="45.62938" lon="6.04173">
        <ele>1743</ele>
        <time>2010-11-28T15:35:53Z</time>
      </trkpt>
      <trkpt lat="45.62939" lon="6.04172">
        <ele>1743</ele>
        <time>2010-11-28T15:36:01Z</time>
      </trkpt>
      <trkpt lat="45.62938" lon="6.04172">
        <ele>1743</ele>
        <time>2010-11-28T15:36:16Z</time>
      </trkpt>
      <trkpt lat="45.62938" lon="6.04171">
        <ele>1743</ele>
        <time>2010-11-28T15:36:23Z</time>
      </trkpt>
      <trkpt lat="45.62939" lon="6.04169">
        <ele>1743</ele>
        <time>2010-11-28T15:36:26Z</time>
      </trkpt>
      <trkpt lat="45.6294" lon="6.04167">
        <ele>1743</ele>
        <time>2010-11-28T15:36:28Z</time>
      </trkpt>
      <trkpt lat="45.62941" lon="6.04163">
        <ele>1743</ele>
        <time>2010-11-28T15:36:32Z</time>
      </trkpt>
      <trkpt lat="45.62941" lon="6.04161">
        <ele>1743</ele>
        <time>2010-11-28T15:36:34Z</time>
      </trkpt>
      <trkpt lat="45.62942" lon="6.04159">
        <ele>1743</ele>
        <time>2010-11-28T15:36:36Z</time>
      </trkpt>
      <trkpt lat="45.62944" lon="6.04155">
        <ele>1743</ele>
        <time>2010-11-28T15:36:41Z</time>
      </trkpt>
      <trkpt lat="45.62945" lon="6.04153">
        <ele>1743</ele>
        <time>2010-11-28T15:36:43Z</time>
      </trkpt>
      <trkpt lat="45.62946" lon="6.0415">
        <ele>1743</ele>
        <time>2010-11-28T15:36:48Z</time>
      </trkpt>
      <trkpt lat="45.62947" lon="6.04148">
        <ele>1743</ele>
        <time>2010-11-28T15:36:51Z</time>
      </trkpt>
      <trkpt lat="45.62947" lon="6.04146">
        <ele>1743</ele>
        <time>2010-11-28T15:36:53Z</time>
      </trkpt>
      <trkpt lat="45.62947" lon="6.04142">
        <ele>1744</ele>
        <time>2010-11-28T15:36:57Z</time>
      </trkpt>
      <trkpt lat="45.62947" lon="6.04139">
        <ele>1745</ele>
        <time>2010-11-28T15:36:59Z</time>
      </trkpt>
      <trkpt lat="45.62948" lon="6.04136">
        <ele>1745</ele>
        <time>2010-11-28T15:37:03Z</time>
      </trkpt>
      <trkpt lat="45.62948" lon="6.04134">
        <ele>1745</ele>
        <time>2010-11-28T15:37:05Z</time>
      </trkpt>
      <trkpt lat="45.62949" lon="6.04132">
        <ele>1745</ele>
        <time>2010-11-28T15:37:07Z</time>
      </trkpt>
      <trkpt lat="45.6295" lon="6.0413">
        <ele>1746</ele>
        <time>2010-11-28T15:37:10Z</time>
      </trkpt>
      <trkpt lat="45.62951" lon="6.04126">
        <ele>1746</ele>
        <time>2010-11-28T15:37:14Z</time>
      </trkpt>
      <trkpt lat="45.62952" lon="6.04125">
        <ele>1746</ele>
        <time>2010-11-28T15:37:16Z</time>
      </trkpt>
      <trkpt lat="45.62954" lon="6.04122">
        <ele>1746</ele>
        <time>2010-11-28T15:37:20Z</time>
      </trkpt>
      <trkpt lat="45.62954" lon="6.0412">
        <ele>1746</ele>
        <time>2010-11-28T15:37:23Z</time>
      </trkpt>
      <trkpt lat="45.62957" lon="6.04117">
        <ele>1746</ele>
        <time>2010-11-28T15:37:28Z</time>
      </trkpt>
      <trkpt lat="45.62957" lon="6.04119">
        <ele>1746</ele>
        <time>2010-11-28T15:37:35Z</time>
      </trkpt>
      <trkpt lat="45.62958" lon="6.04119">
        <ele>1746</ele>
        <time>2010-11-28T15:37:42Z</time>
      </trkpt>
      <trkpt lat="45.62959" lon="6.04117">
        <ele>1746</ele>
        <time>2010-11-28T15:37:46Z</time>
      </trkpt>
      <trkpt lat="45.62959" lon="6.04115">
        <ele>1746</ele>
        <time>2010-11-28T15:37:48Z</time>
      </trkpt>
      <trkpt lat="45.6296" lon="6.04112">
        <ele>1746</ele>
        <time>2010-11-28T15:37:53Z</time>
      </trkpt>
      <trkpt lat="45.62962" lon="6.04112">
        <ele>1746</ele>
        <time>2010-11-28T15:37:56Z</time>
      </trkpt>
      <trkpt lat="45.62963" lon="6.04111">
        <ele>1746</ele>
        <time>2010-11-28T15:37:58Z</time>
      </trkpt>
      <trkpt lat="45.62966" lon="6.04111">
        <ele>1746</ele>
        <time>2010-11-28T15:38:04Z</time>
      </trkpt>
      <trkpt lat="45.62969" lon="6.04111">
        <ele>1746</ele>
        <time>2010-11-28T15:38:08Z</time>
      </trkpt>
      <trkpt lat="45.6297" lon="6.0411">
        <ele>1746</ele>
        <time>2010-11-28T15:38:10Z</time>
      </trkpt>
      <trkpt lat="45.62973" lon="6.04109">
        <ele>1746</ele>
        <time>2010-11-28T15:38:15Z</time>
      </trkpt>
      <trkpt lat="45.62974" lon="6.04109">
        <ele>1746</ele>
        <time>2010-11-28T15:38:18Z</time>
      </trkpt>
      <trkpt lat="45.62976" lon="6.04108">
        <ele>1746</ele>
        <time>2010-11-28T15:38:20Z</time>
      </trkpt>
      <trkpt lat="45.62979" lon="6.0411">
        <ele>1746</ele>
        <time>2010-11-28T15:38:24Z</time>
      </trkpt>
      <trkpt lat="45.62981" lon="6.0411">
        <ele>1746</ele>
        <time>2010-11-28T15:38:26Z</time>
      </trkpt>
      <trkpt lat="45.62982" lon="6.0411">
        <ele>1746</ele>
        <time>2010-11-28T15:38:28Z</time>
      </trkpt>
      <trkpt lat="45.62983" lon="6.0411">
        <ele>1746</ele>
        <time>2010-11-28T15:38:30Z</time>
      </trkpt>
      <trkpt lat="45.62984" lon="6.0411">
        <ele>1746</ele>
        <time>2010-11-28T15:38:33Z</time>
      </trkpt>
      <trkpt lat="45.62986" lon="6.0411">
        <ele>1746</ele>
        <time>2010-11-28T15:38:35Z</time>
      </trkpt>
      <trkpt lat="45.62987" lon="6.0411">
        <ele>1746</ele>
        <time>2010-11-28T15:38:37Z</time>
      </trkpt>
      <trkpt lat="45.62989" lon="6.04109">
        <ele>1746</ele>
        <time>2010-11-28T15:38:39Z</time>
      </trkpt>
      <trkpt lat="45.6299" lon="6.04109">
        <ele>1746</ele>
        <time>2010-11-28T15:38:41Z</time>
      </trkpt>
      <trkpt lat="45.62991" lon="6.04108">
        <ele>1746</ele>
        <time>2010-11-28T15:38:43Z</time>
      </trkpt>
      <trkpt lat="45.62992" lon="6.04107">
        <ele>1746</ele>
        <time>2010-11-28T15:38:46Z</time>
      </trkpt>
      <trkpt lat="45.62993" lon="6.04105">
        <ele>1746</ele>
        <time>2010-11-28T15:38:53Z</time>
      </trkpt>
      <trkpt lat="45.62995" lon="6.04103">
        <ele>1746</ele>
        <time>2010-11-28T15:38:57Z</time>
      </trkpt>
      <trkpt lat="45.62997" lon="6.04101">
        <ele>1746</ele>
        <time>2010-11-28T15:39:00Z</time>
      </trkpt>
      <trkpt lat="45.62999" lon="6.04099">
        <ele>1746</ele>
        <time>2010-11-28T15:39:04Z</time>
      </trkpt>
      <trkpt lat="45.63" lon="6.04098">
        <ele>1746</ele>
        <time>2010-11-28T15:39:06Z</time>
      </trkpt>
      <trkpt lat="45.63003" lon="6.04095">
        <ele>1746</ele>
        <time>2010-11-28T15:39:10Z</time>
      </trkpt>
      <trkpt lat="45.63004" lon="6.04093">
        <ele>1746</ele>
        <time>2010-11-28T15:39:12Z</time>
      </trkpt>
      <trkpt lat="45.63007" lon="6.0409">
        <ele>1746</ele>
        <time>2010-11-28T15:39:16Z</time>
      </trkpt>
      <trkpt lat="45.63008" lon="6.04089">
        <ele>1746</ele>
        <time>2010-11-28T15:39:19Z</time>
      </trkpt>
      <trkpt lat="45.6301" lon="6.04086">
        <ele>1746</ele>
        <time>2010-11-28T15:39:23Z</time>
      </trkpt>
      <trkpt lat="45.63011" lon="6.04084">
        <ele>1746</ele>
        <time>2010-11-28T15:39:25Z</time>
      </trkpt>
      <trkpt lat="45.63013" lon="6.0408">
        <ele>1746</ele>
        <time>2010-11-28T15:39:29Z</time>
      </trkpt>
      <trkpt lat="45.63014" lon="6.04078">
        <ele>1746</ele>
        <time>2010-11-28T15:39:31Z</time>
      </trkpt>
      <trkpt lat="45.63015" lon="6.04076">
        <ele>1746</ele>
        <time>2010-11-28T15:39:34Z</time>
      </trkpt>
      <trkpt lat="45.63016" lon="6.04073">
        <ele>1746</ele>
        <time>2010-11-28T15:39:36Z</time>
      </trkpt>
      <trkpt lat="45.63017" lon="6.0407">
        <ele>1746</ele>
        <time>2010-11-28T15:39:40Z</time>
      </trkpt>
      <trkpt lat="45.63018" lon="6.04068">
        <ele>1746</ele>
        <time>2010-11-28T15:39:42Z</time>
      </trkpt>
      <trkpt lat="45.63019" lon="6.04063">
        <ele>1746</ele>
        <time>2010-11-28T15:39:46Z</time>
      </trkpt>
      <trkpt lat="45.6302" lon="6.0406">
        <ele>1746</ele>
        <time>2010-11-28T15:39:49Z</time>
      </trkpt>
      <trkpt lat="45.6302" lon="6.04058">
        <ele>1746</ele>
        <time>2010-11-28T15:39:51Z</time>
      </trkpt>
      <trkpt lat="45.63021" lon="6.04056">
        <ele>1746</ele>
        <time>2010-11-28T15:39:53Z</time>
      </trkpt>
      <trkpt lat="45.63022" lon="6.04052">
        <ele>1746</ele>
        <time>2010-11-28T15:39:57Z</time>
      </trkpt>
      <trkpt lat="45.63022" lon="6.0405">
        <ele>1746</ele>
        <time>2010-11-28T15:40:00Z</time>
      </trkpt>
      <trkpt lat="45.63023" lon="6.04047">
        <ele>1747</ele>
        <time>2010-11-28T15:40:04Z</time>
      </trkpt>
      <trkpt lat="45.63024" lon="6.04045">
        <ele>1747</ele>
        <time>2010-11-28T15:40:06Z</time>
      </trkpt>
      <trkpt lat="45.63025" lon="6.04041">
        <ele>1747</ele>
        <time>2010-11-28T15:40:10Z</time>
      </trkpt>
      <trkpt lat="45.63025" lon="6.04039">
        <ele>1747</ele>
        <time>2010-11-28T15:40:12Z</time>
      </trkpt>
      <trkpt lat="45.63026" lon="6.04036">
        <ele>1747</ele>
        <time>2010-11-28T15:40:16Z</time>
      </trkpt>
      <trkpt lat="45.63026" lon="6.04034">
        <ele>1747</ele>
        <time>2010-11-28T15:40:18Z</time>
      </trkpt>
      <trkpt lat="45.63028" lon="6.0403">
        <ele>1747</ele>
        <time>2010-11-28T15:40:22Z</time>
      </trkpt>
      <trkpt lat="45.63028" lon="6.04028">
        <ele>1747</ele>
        <time>2010-11-28T15:40:24Z</time>
      </trkpt>
      <trkpt lat="45.63029" lon="6.04025">
        <ele>1747</ele>
        <time>2010-11-28T15:40:28Z</time>
      </trkpt>
      <trkpt lat="45.6303" lon="6.04023">
        <ele>1747</ele>
        <time>2010-11-28T15:40:30Z</time>
      </trkpt>
      <trkpt lat="45.63031" lon="6.04021">
        <ele>1747</ele>
        <time>2010-11-28T15:40:32Z</time>
      </trkpt>
      <trkpt lat="45.63031" lon="6.04019">
        <ele>1747</ele>
        <time>2010-11-28T15:40:34Z</time>
      </trkpt>
      <trkpt lat="45.63032" lon="6.04017">
        <ele>1747</ele>
        <time>2010-11-28T15:40:36Z</time>
      </trkpt>
      <trkpt lat="45.63033" lon="6.04015">
        <ele>1747</ele>
        <time>2010-11-28T15:40:38Z</time>
      </trkpt>
      <trkpt lat="45.63034" lon="6.04013">
        <ele>1747</ele>
        <time>2010-11-28T15:40:40Z</time>
      </trkpt>
      <trkpt lat="45.63034" lon="6.04011">
        <ele>1747</ele>
        <time>2010-11-28T15:40:42Z</time>
      </trkpt>
      <trkpt lat="45.63036" lon="6.04007">
        <ele>1747</ele>
        <time>2010-11-28T15:40:46Z</time>
      </trkpt>
      <trkpt lat="45.63037" lon="6.04005">
        <ele>1747</ele>
        <time>2010-11-28T15:40:48Z</time>
      </trkpt>
      <trkpt lat="45.63037" lon="6.04003">
        <ele>1747</ele>
        <time>2010-11-28T15:40:50Z</time>
      </trkpt>
      <trkpt lat="45.63038" lon="6.04001">
        <ele>1747</ele>
        <time>2010-11-28T15:40:52Z</time>
      </trkpt>
      <trkpt lat="45.63039" lon="6.03999">
        <ele>1747</ele>
        <time>2010-11-28T15:40:54Z</time>
      </trkpt>
      <trkpt lat="45.6304" lon="6.03995">
        <ele>1747</ele>
        <time>2010-11-28T15:40:58Z</time>
      </trkpt>
      <trkpt lat="45.63041" lon="6.03993">
        <ele>1747</ele>
        <time>2010-11-28T15:41:00Z</time>
      </trkpt>
      <trkpt lat="45.63042" lon="6.03989">
        <ele>1747</ele>
        <time>2010-11-28T15:41:04Z</time>
      </trkpt>
      <trkpt lat="45.63042" lon="6.03987">
        <ele>1747</ele>
        <time>2010-11-28T15:41:06Z</time>
      </trkpt>
      <trkpt lat="45.63043" lon="6.03982">
        <ele>1747</ele>
        <time>2010-11-28T15:41:10Z</time>
      </trkpt>
      <trkpt lat="45.63044" lon="6.0398">
        <ele>1747</ele>
        <time>2010-11-28T15:41:12Z</time>
      </trkpt>
      <trkpt lat="45.63044" lon="6.03977">
        <ele>1747</ele>
        <time>2010-11-28T15:41:16Z</time>
      </trkpt>
      <trkpt lat="45.63044" lon="6.03975">
        <ele>1747</ele>
        <time>2010-11-28T15:41:18Z</time>
      </trkpt>
      <trkpt lat="45.63045" lon="6.03973">
        <ele>1747</ele>
        <time>2010-11-28T15:41:20Z</time>
      </trkpt>
      <trkpt lat="45.63045" lon="6.03972">
        <ele>1747</ele>
        <time>2010-11-28T15:41:22Z</time>
      </trkpt>
      <trkpt lat="45.63046" lon="6.0397">
        <ele>1747</ele>
        <time>2010-11-28T15:41:25Z</time>
      </trkpt>
      <trkpt lat="45.63046" lon="6.03968">
        <ele>1747</ele>
        <time>2010-11-28T15:41:28Z</time>
      </trkpt>
      <trkpt lat="45.63047" lon="6.03966">
        <ele>1747</ele>
        <time>2010-11-28T15:41:31Z</time>
      </trkpt>
      <trkpt lat="45.63048" lon="6.03963">
        <ele>1747</ele>
        <time>2010-11-28T15:41:35Z</time>
      </trkpt>
      <trkpt lat="45.63049" lon="6.03961">
        <ele>1747</ele>
        <time>2010-11-28T15:41:37Z</time>
      </trkpt>
      <trkpt lat="45.6305" lon="6.03959">
        <ele>1747</ele>
        <time>2010-11-28T15:41:43Z</time>
      </trkpt>
      <trkpt lat="45.6305" lon="6.03957">
        <ele>1748</ele>
        <time>2010-11-28T15:41:45Z</time>
      </trkpt>
      <trkpt lat="45.63051" lon="6.03955">
        <ele>1748</ele>
        <time>2010-11-28T15:41:47Z</time>
      </trkpt>
      <trkpt lat="45.63051" lon="6.03953">
        <ele>1748</ele>
        <time>2010-11-28T15:41:50Z</time>
      </trkpt>
      <trkpt lat="45.63052" lon="6.03952">
        <ele>1748</ele>
        <time>2010-11-28T15:41:54Z</time>
      </trkpt>
      <trkpt lat="45.63052" lon="6.0395">
        <ele>1748</ele>
        <time>2010-11-28T15:41:56Z</time>
      </trkpt>
      <trkpt lat="45.63052" lon="6.03948">
        <ele>1749</ele>
        <time>2010-11-28T15:41:58Z</time>
      </trkpt>
      <trkpt lat="45.63052" lon="6.03947">
        <ele>1749</ele>
        <time>2010-11-28T15:42:00Z</time>
      </trkpt>
      <trkpt lat="45.63053" lon="6.03943">
        <ele>1749</ele>
        <time>2010-11-28T15:42:04Z</time>
      </trkpt>
      <trkpt lat="45.63053" lon="6.03941">
        <ele>1749</ele>
        <time>2010-11-28T15:42:06Z</time>
      </trkpt>
      <trkpt lat="45.63053" lon="6.03939">
        <ele>1749</ele>
        <time>2010-11-28T15:42:08Z</time>
      </trkpt>
      <trkpt lat="45.63053" lon="6.03937">
        <ele>1749</ele>
        <time>2010-11-28T15:42:10Z</time>
      </trkpt>
      <trkpt lat="45.63053" lon="6.03935">
        <ele>1749</ele>
        <time>2010-11-28T15:42:12Z</time>
      </trkpt>
      <trkpt lat="45.63054" lon="6.03933">
        <ele>1750</ele>
        <time>2010-11-28T15:42:14Z</time>
      </trkpt>
      <trkpt lat="45.63054" lon="6.03932">
        <ele>1750</ele>
        <time>2010-11-28T15:42:16Z</time>
      </trkpt>
      <trkpt lat="45.63054" lon="6.03929">
        <ele>1750</ele>
        <time>2010-11-28T15:42:18Z</time>
      </trkpt>
      <trkpt lat="45.63055" lon="6.03925">
        <ele>1750</ele>
        <time>2010-11-28T15:42:22Z</time>
      </trkpt>
      <trkpt lat="45.63055" lon="6.03923">
        <ele>1750</ele>
        <time>2010-11-28T15:42:24Z</time>
      </trkpt>
      <trkpt lat="45.63055" lon="6.03921">
        <ele>1750</ele>
        <time>2010-11-28T15:42:26Z</time>
      </trkpt>
      <trkpt lat="45.63056" lon="6.03919">
        <ele>1750</ele>
        <time>2010-11-28T15:42:28Z</time>
      </trkpt>
      <trkpt lat="45.63056" lon="6.03916">
        <ele>1750</ele>
        <time>2010-11-28T15:42:30Z</time>
      </trkpt>
      <trkpt lat="45.63056" lon="6.03914">
        <ele>1750</ele>
        <time>2010-11-28T15:42:32Z</time>
      </trkpt>
      <trkpt lat="45.63057" lon="6.03912">
        <ele>1750</ele>
        <time>2010-11-28T15:42:34Z</time>
      </trkpt>
      <trkpt lat="45.63057" lon="6.0391">
        <ele>1750</ele>
        <time>2010-11-28T15:42:36Z</time>
      </trkpt>
      <trkpt lat="45.63057" lon="6.03909">
        <ele>1752</ele>
        <time>2010-11-28T15:42:48Z</time>
      </trkpt>
      <trkpt lat="45.63058" lon="6.03907">
        <ele>1752</ele>
        <time>2010-11-28T15:42:50Z</time>
      </trkpt>
      <trkpt lat="45.63058" lon="6.03905">
        <ele>1752</ele>
        <time>2010-11-28T15:42:53Z</time>
      </trkpt>
      <trkpt lat="45.63058" lon="6.03903">
        <ele>1752</ele>
        <time>2010-11-28T15:42:55Z</time>
      </trkpt>
      <trkpt lat="45.63058" lon="6.03901">
        <ele>1752</ele>
        <time>2010-11-28T15:42:58Z</time>
      </trkpt>
      <trkpt lat="45.63058" lon="6.039">
        <ele>1752</ele>
        <time>2010-11-28T15:43:04Z</time>
      </trkpt>
      <trkpt lat="45.63058" lon="6.03898">
        <ele>1753</ele>
        <time>2010-11-28T15:43:07Z</time>
      </trkpt>
      <trkpt lat="45.63058" lon="6.03896">
        <ele>1753</ele>
        <time>2010-11-28T15:43:09Z</time>
      </trkpt>
      <trkpt lat="45.63058" lon="6.03895">
        <ele>1753</ele>
        <time>2010-11-28T15:43:12Z</time>
      </trkpt>
      <trkpt lat="45.63059" lon="6.03893">
        <ele>1754</ele>
        <time>2010-11-28T15:43:14Z</time>
      </trkpt>
      <trkpt lat="45.63059" lon="6.03891">
        <ele>1754</ele>
        <time>2010-11-28T15:43:16Z</time>
      </trkpt>
      <trkpt lat="45.63059" lon="6.0389">
        <ele>1755</ele>
        <time>2010-11-28T15:43:19Z</time>
      </trkpt>
      <trkpt lat="45.6306" lon="6.03888">
        <ele>1755</ele>
        <time>2010-11-28T15:43:21Z</time>
      </trkpt>
      <trkpt lat="45.6306" lon="6.03887">
        <ele>1755</ele>
        <time>2010-11-28T15:43:23Z</time>
      </trkpt>
      <trkpt lat="45.6306" lon="6.03885">
        <ele>1755</ele>
        <time>2010-11-28T15:43:25Z</time>
      </trkpt>
      <trkpt lat="45.63061" lon="6.03883">
        <ele>1756</ele>
        <time>2010-11-28T15:43:27Z</time>
      </trkpt>
      <trkpt lat="45.63061" lon="6.03882">
        <ele>1756</ele>
        <time>2010-11-28T15:43:29Z</time>
      </trkpt>
      <trkpt lat="45.63062" lon="6.0388">
        <ele>1756</ele>
        <time>2010-11-28T15:43:31Z</time>
      </trkpt>
      <trkpt lat="45.63062" lon="6.03877">
        <ele>1756</ele>
        <time>2010-11-28T15:43:33Z</time>
      </trkpt>
      <trkpt lat="45.63063" lon="6.03876">
        <ele>1757</ele>
        <time>2010-11-28T15:43:35Z</time>
      </trkpt>
      <trkpt lat="45.63063" lon="6.03874">
        <ele>1757</ele>
        <time>2010-11-28T15:43:37Z</time>
      </trkpt>
      <trkpt lat="45.63063" lon="6.03873">
        <ele>1757</ele>
        <time>2010-11-28T15:43:39Z</time>
      </trkpt>
      <trkpt lat="45.63063" lon="6.03871">
        <ele>1757</ele>
        <time>2010-11-28T15:43:42Z</time>
      </trkpt>
      <trkpt lat="45.63064" lon="6.03869">
        <ele>1757</ele>
        <time>2010-11-28T15:43:44Z</time>
      </trkpt>
      <trkpt lat="45.63064" lon="6.03867">
        <ele>1757</ele>
        <time>2010-11-28T15:43:46Z</time>
      </trkpt>
      <trkpt lat="45.63064" lon="6.03866">
        <ele>1757</ele>
        <time>2010-11-28T15:43:48Z</time>
      </trkpt>
      <trkpt lat="45.63064" lon="6.03864">
        <ele>1757</ele>
        <time>2010-11-28T15:43:50Z</time>
      </trkpt>
      <trkpt lat="45.63064" lon="6.03862">
        <ele>1757</ele>
        <time>2010-11-28T15:43:52Z</time>
      </trkpt>
      <trkpt lat="45.63065" lon="6.0386">
        <ele>1757</ele>
        <time>2010-11-28T15:43:54Z</time>
      </trkpt>
      <trkpt lat="45.63065" lon="6.03858">
        <ele>1758</ele>
        <time>2010-11-28T15:43:56Z</time>
      </trkpt>
      <trkpt lat="45.63065" lon="6.03856">
        <ele>1758</ele>
        <time>2010-11-28T15:43:58Z</time>
      </trkpt>
      <trkpt lat="45.63066" lon="6.03855">
        <ele>1758</ele>
        <time>2010-11-28T15:44:00Z</time>
      </trkpt>
      <trkpt lat="45.63067" lon="6.03854">
        <ele>1758</ele>
        <time>2010-11-28T15:44:02Z</time>
      </trkpt>
      <trkpt lat="45.63066" lon="6.03852">
        <ele>1759</ele>
        <time>2010-11-28T15:44:12Z</time>
      </trkpt>
      <trkpt lat="45.63066" lon="6.0385">
        <ele>1759</ele>
        <time>2010-11-28T15:44:14Z</time>
      </trkpt>
      <trkpt lat="45.63066" lon="6.03848">
        <ele>1759</ele>
        <time>2010-11-28T15:44:16Z</time>
      </trkpt>
      <trkpt lat="45.63066" lon="6.03846">
        <ele>1759</ele>
        <time>2010-11-28T15:44:18Z</time>
      </trkpt>
      <trkpt lat="45.63067" lon="6.03844">
        <ele>1759</ele>
        <time>2010-11-28T15:44:20Z</time>
      </trkpt>
      <trkpt lat="45.63067" lon="6.03843">
        <ele>1759</ele>
        <time>2010-11-28T15:44:22Z</time>
      </trkpt>
      <trkpt lat="45.63067" lon="6.03841">
        <ele>1759</ele>
        <time>2010-11-28T15:44:24Z</time>
      </trkpt>
      <trkpt lat="45.63067" lon="6.03839">
        <ele>1759</ele>
        <time>2010-11-28T15:44:26Z</time>
      </trkpt>
      <trkpt lat="45.63067" lon="6.03837">
        <ele>1759</ele>
        <time>2010-11-28T15:44:28Z</time>
      </trkpt>
      <trkpt lat="45.63067" lon="6.03835">
        <ele>1759</ele>
        <time>2010-11-28T15:44:31Z</time>
      </trkpt>
      <trkpt lat="45.63066" lon="6.03835">
        <ele>1760</ele>
        <time>2010-11-28T15:44:39Z</time>
      </trkpt>
      <trkpt lat="45.63065" lon="6.03834">
        <ele>1760</ele>
        <time>2010-11-28T15:44:51Z</time>
      </trkpt>
      <trkpt lat="45.63064" lon="6.03834">
        <ele>1760</ele>
        <time>2010-11-28T15:45:19Z</time>
      </trkpt>
      <trkpt lat="45.63063" lon="6.03832">
        <ele>1761</ele>
        <time>2010-11-28T15:46:08Z</time>
      </trkpt>
      <trkpt lat="45.63063" lon="6.0383">
        <ele>1761</ele>
        <time>2010-11-28T15:46:11Z</time>
      </trkpt>
      <trkpt lat="45.63063" lon="6.03828">
        <ele>1762</ele>
        <time>2010-11-28T15:46:13Z</time>
      </trkpt>
      <trkpt lat="45.63063" lon="6.03826">
        <ele>1762</ele>
        <time>2010-11-28T15:46:15Z</time>
      </trkpt>
      <trkpt lat="45.63063" lon="6.03824">
        <ele>1762</ele>
        <time>2010-11-28T15:46:17Z</time>
      </trkpt>
      <trkpt lat="45.63063" lon="6.03821">
        <ele>1762</ele>
        <time>2010-11-28T15:46:19Z</time>
      </trkpt>
      <trkpt lat="45.63062" lon="6.03819">
        <ele>1762</ele>
        <time>2010-11-28T15:46:21Z</time>
      </trkpt>
      <trkpt lat="45.63062" lon="6.03817">
        <ele>1762</ele>
        <time>2010-11-28T15:46:23Z</time>
      </trkpt>
      <trkpt lat="45.63061" lon="6.03815">
        <ele>1762</ele>
        <time>2010-11-28T15:46:25Z</time>
      </trkpt>
      <trkpt lat="45.6306" lon="6.03813">
        <ele>1762</ele>
        <time>2010-11-28T15:46:27Z</time>
      </trkpt>
      <trkpt lat="45.63059" lon="6.03811">
        <ele>1762</ele>
        <time>2010-11-28T15:46:29Z</time>
      </trkpt>
      <trkpt lat="45.63058" lon="6.03809">
        <ele>1762</ele>
        <time>2010-11-28T15:46:31Z</time>
      </trkpt>
      <trkpt lat="45.63057" lon="6.03807">
        <ele>1762</ele>
        <time>2010-11-28T15:46:33Z</time>
      </trkpt>
      <trkpt lat="45.63056" lon="6.03806">
        <ele>1762</ele>
        <time>2010-11-28T15:46:36Z</time>
      </trkpt>
      <trkpt lat="45.63055" lon="6.03805">
        <ele>1762</ele>
        <time>2010-11-28T15:46:38Z</time>
      </trkpt>
      <trkpt lat="45.63055" lon="6.03803">
        <ele>1762</ele>
        <time>2010-11-28T15:46:40Z</time>
      </trkpt>
      <trkpt lat="45.63054" lon="6.03801">
        <ele>1762</ele>
        <time>2010-11-28T15:46:42Z</time>
      </trkpt>
      <trkpt lat="45.63053" lon="6.038">
        <ele>1762</ele>
        <time>2010-11-28T15:46:44Z</time>
      </trkpt>
      <trkpt lat="45.63052" lon="6.03798">
        <ele>1762</ele>
        <time>2010-11-28T15:46:46Z</time>
      </trkpt>
      <trkpt lat="45.63051" lon="6.03796">
        <ele>1762</ele>
        <time>2010-11-28T15:46:48Z</time>
      </trkpt>
      <trkpt lat="45.6305" lon="6.03795">
        <ele>1762</ele>
        <time>2010-11-28T15:46:51Z</time>
      </trkpt>
      <trkpt lat="45.63049" lon="6.03793">
        <ele>1762</ele>
        <time>2010-11-28T15:46:53Z</time>
      </trkpt>
      <trkpt lat="45.63048" lon="6.03791">
        <ele>1762</ele>
        <time>2010-11-28T15:46:55Z</time>
      </trkpt>
      <trkpt lat="45.63047" lon="6.03789">
        <ele>1762</ele>
        <time>2010-11-28T15:46:57Z</time>
      </trkpt>
      <trkpt lat="45.63047" lon="6.03787">
        <ele>1762</ele>
        <time>2010-11-28T15:46:59Z</time>
      </trkpt>
      <trkpt lat="45.63046" lon="6.03785">
        <ele>1762</ele>
        <time>2010-11-28T15:47:01Z</time>
      </trkpt>
      <trkpt lat="45.63046" lon="6.03784">
        <ele>1762</ele>
        <time>2010-11-28T15:47:03Z</time>
      </trkpt>
      <trkpt lat="45.63045" lon="6.03781">
        <ele>1762</ele>
        <time>2010-11-28T15:47:05Z</time>
      </trkpt>
      <trkpt lat="45.63044" lon="6.03778">
        <ele>1762</ele>
        <time>2010-11-28T15:47:07Z</time>
      </trkpt>
      <trkpt lat="45.63043" lon="6.03775">
        <ele>1762</ele>
        <time>2010-11-28T15:47:09Z</time>
      </trkpt>
      <trkpt lat="45.63042" lon="6.03773">
        <ele>1762</ele>
        <time>2010-11-28T15:47:11Z</time>
      </trkpt>
      <trkpt lat="45.63042" lon="6.03771">
        <ele>1762</ele>
        <time>2010-11-28T15:47:13Z</time>
      </trkpt>
      <trkpt lat="45.63041" lon="6.03769">
        <ele>1762</ele>
        <time>2010-11-28T15:47:16Z</time>
      </trkpt>
      <trkpt lat="45.63041" lon="6.03767">
        <ele>1762</ele>
        <time>2010-11-28T15:47:18Z</time>
      </trkpt>
      <trkpt lat="45.63039" lon="6.03765">
        <ele>1762</ele>
        <time>2010-11-28T15:47:21Z</time>
      </trkpt>
      <trkpt lat="45.63039" lon="6.03763">
        <ele>1762</ele>
        <time>2010-11-28T15:47:23Z</time>
      </trkpt>
      <trkpt lat="45.63038" lon="6.03762">
        <ele>1762</ele>
        <time>2010-11-28T15:47:25Z</time>
      </trkpt>
      <trkpt lat="45.63037" lon="6.0376">
        <ele>1762</ele>
        <time>2010-11-28T15:47:28Z</time>
      </trkpt>
      <trkpt lat="45.63036" lon="6.03759">
        <ele>1763</ele>
        <time>2010-11-28T15:47:30Z</time>
      </trkpt>
      <trkpt lat="45.63036" lon="6.03757">
        <ele>1763</ele>
        <time>2010-11-28T15:47:33Z</time>
      </trkpt>
      <trkpt lat="45.63035" lon="6.03756">
        <ele>1764</ele>
        <time>2010-11-28T15:47:36Z</time>
      </trkpt>
      <trkpt lat="45.63034" lon="6.03754">
        <ele>1765</ele>
        <time>2010-11-28T15:47:51Z</time>
      </trkpt>
      <trkpt lat="45.63033" lon="6.03753">
        <ele>1765</ele>
        <time>2010-11-28T15:47:54Z</time>
      </trkpt>
      <trkpt lat="45.63031" lon="6.03751">
        <ele>1765</ele>
        <time>2010-11-28T15:47:57Z</time>
      </trkpt>
      <trkpt lat="45.63031" lon="6.03749">
        <ele>1765</ele>
        <time>2010-11-28T15:48:00Z</time>
      </trkpt>
      <trkpt lat="45.63029" lon="6.03748">
        <ele>1765</ele>
        <time>2010-11-28T15:48:03Z</time>
      </trkpt>
      <trkpt lat="45.63028" lon="6.03746">
        <ele>1765</ele>
        <time>2010-11-28T15:48:05Z</time>
      </trkpt>
      <trkpt lat="45.63026" lon="6.03744">
        <ele>1765</ele>
        <time>2010-11-28T15:48:08Z</time>
      </trkpt>
      <trkpt lat="45.63025" lon="6.03742">
        <ele>1765</ele>
        <time>2010-11-28T15:48:10Z</time>
      </trkpt>
      <trkpt lat="45.63024" lon="6.03741">
        <ele>1765</ele>
        <time>2010-11-28T15:48:13Z</time>
      </trkpt>
      <trkpt lat="45.63023" lon="6.03739">
        <ele>1765</ele>
        <time>2010-11-28T15:48:16Z</time>
      </trkpt>
      <trkpt lat="45.63022" lon="6.03737">
        <ele>1765</ele>
        <time>2010-11-28T15:48:19Z</time>
      </trkpt>
      <trkpt lat="45.63021" lon="6.03736">
        <ele>1765</ele>
        <time>2010-11-28T15:48:21Z</time>
      </trkpt>
      <trkpt lat="45.6302" lon="6.03734">
        <ele>1765</ele>
        <time>2010-11-28T15:48:26Z</time>
      </trkpt>
      <trkpt lat="45.63018" lon="6.03732">
        <ele>1765</ele>
        <time>2010-11-28T15:48:31Z</time>
      </trkpt>
      <trkpt lat="45.63017" lon="6.0373">
        <ele>1766</ele>
        <time>2010-11-28T15:48:35Z</time>
      </trkpt>
      <trkpt lat="45.63016" lon="6.03729">
        <ele>1766</ele>
        <time>2010-11-28T15:48:38Z</time>
      </trkpt>
      <trkpt lat="45.63015" lon="6.03727">
        <ele>1766</ele>
        <time>2010-11-28T15:48:40Z</time>
      </trkpt>
      <trkpt lat="45.63015" lon="6.03725">
        <ele>1766</ele>
        <time>2010-11-28T15:48:43Z</time>
      </trkpt>
      <trkpt lat="45.63013" lon="6.03723">
        <ele>1766</ele>
        <time>2010-11-28T15:48:46Z</time>
      </trkpt>
      <trkpt lat="45.63012" lon="6.03722">
        <ele>1766</ele>
        <time>2010-11-28T15:48:48Z</time>
      </trkpt>
      <trkpt lat="45.63012" lon="6.0372">
        <ele>1766</ele>
        <time>2010-11-28T15:48:51Z</time>
      </trkpt>
      <trkpt lat="45.63011" lon="6.03718">
        <ele>1766</ele>
        <time>2010-11-28T15:48:54Z</time>
      </trkpt>
      <trkpt lat="45.6301" lon="6.03716">
        <ele>1766</ele>
        <time>2010-11-28T15:48:56Z</time>
      </trkpt>
      <trkpt lat="45.6301" lon="6.03714">
        <ele>1766</ele>
        <time>2010-11-28T15:48:58Z</time>
      </trkpt>
      <trkpt lat="45.6301" lon="6.03712">
        <ele>1766</ele>
        <time>2010-11-28T15:49:00Z</time>
      </trkpt>
      <trkpt lat="45.63009" lon="6.0371">
        <ele>1767</ele>
        <time>2010-11-28T15:49:02Z</time>
      </trkpt>
      <trkpt lat="45.63008" lon="6.03709">
        <ele>1768</ele>
        <time>2010-11-28T15:49:04Z</time>
      </trkpt>
      <trkpt lat="45.63007" lon="6.03707">
        <ele>1769</ele>
        <time>2010-11-28T15:49:06Z</time>
      </trkpt>
      <trkpt lat="45.63007" lon="6.03703">
        <ele>1771</ele>
        <time>2010-11-28T15:49:12Z</time>
      </trkpt>
      <trkpt lat="45.63006" lon="6.03702">
        <ele>1773</ele>
        <time>2010-11-28T15:49:23Z</time>
      </trkpt>
      <trkpt lat="45.63007" lon="6.037">
        <ele>1774</ele>
        <time>2010-11-28T15:49:26Z</time>
      </trkpt>
      <trkpt lat="45.63006" lon="6.03698">
        <ele>1774</ele>
        <time>2010-11-28T15:49:28Z</time>
      </trkpt>
      <trkpt lat="45.63006" lon="6.03697">
        <ele>1774</ele>
        <time>2010-11-28T15:49:31Z</time>
      </trkpt>
      <trkpt lat="45.63006" lon="6.03695">
        <ele>1774</ele>
        <time>2010-11-28T15:49:33Z</time>
      </trkpt>
      <trkpt lat="45.63006" lon="6.03693">
        <ele>1774</ele>
        <time>2010-11-28T15:49:35Z</time>
      </trkpt>
      <trkpt lat="45.63006" lon="6.03691">
        <ele>1774</ele>
        <time>2010-11-28T15:49:37Z</time>
      </trkpt>
      <trkpt lat="45.63006" lon="6.03689">
        <ele>1774</ele>
        <time>2010-11-28T15:49:39Z</time>
      </trkpt>
      <trkpt lat="45.63007" lon="6.03688">
        <ele>1774</ele>
        <time>2010-11-28T15:49:41Z</time>
      </trkpt>
      <trkpt lat="45.63007" lon="6.03686">
        <ele>1774</ele>
        <time>2010-11-28T15:49:43Z</time>
      </trkpt>
      <trkpt lat="45.63007" lon="6.03685">
        <ele>1774</ele>
        <time>2010-11-28T15:49:45Z</time>
      </trkpt>
      <trkpt lat="45.63007" lon="6.03683">
        <ele>1774</ele>
        <time>2010-11-28T15:49:47Z</time>
      </trkpt>
      <trkpt lat="45.63008" lon="6.03682">
        <ele>1775</ele>
        <time>2010-11-28T15:49:49Z</time>
      </trkpt>
      <trkpt lat="45.63008" lon="6.03679">
        <ele>1775</ele>
        <time>2010-11-28T15:49:51Z</time>
      </trkpt>
      <trkpt lat="45.63008" lon="6.03678">
        <ele>1776</ele>
        <time>2010-11-28T15:49:53Z</time>
      </trkpt>
      <trkpt lat="45.63008" lon="6.03676">
        <ele>1776</ele>
        <time>2010-11-28T15:49:55Z</time>
      </trkpt>
      <trkpt lat="45.63008" lon="6.03674">
        <ele>1776</ele>
        <time>2010-11-28T15:49:57Z</time>
      </trkpt>
      <trkpt lat="45.63008" lon="6.03673">
        <ele>1776</ele>
        <time>2010-11-28T15:49:59Z</time>
      </trkpt>
      <trkpt lat="45.63008" lon="6.03671">
        <ele>1776</ele>
        <time>2010-11-28T15:50:01Z</time>
      </trkpt>
      <trkpt lat="45.63008" lon="6.03669">
        <ele>1776</ele>
        <time>2010-11-28T15:50:03Z</time>
      </trkpt>
      <trkpt lat="45.63008" lon="6.03667">
        <ele>1776</ele>
        <time>2010-11-28T15:50:05Z</time>
      </trkpt>
      <trkpt lat="45.63009" lon="6.03665">
        <ele>1777</ele>
        <time>2010-11-28T15:50:07Z</time>
      </trkpt>
      <trkpt lat="45.63009" lon="6.03663">
        <ele>1777</ele>
        <time>2010-11-28T15:50:09Z</time>
      </trkpt>
      <trkpt lat="45.63009" lon="6.03661">
        <ele>1777</ele>
        <time>2010-11-28T15:50:11Z</time>
      </trkpt>
      <trkpt lat="45.63009" lon="6.0366">
        <ele>1777</ele>
        <time>2010-11-28T15:50:13Z</time>
      </trkpt>
      <trkpt lat="45.63008" lon="6.03658">
        <ele>1777</ele>
        <time>2010-11-28T15:50:22Z</time>
      </trkpt>
      <trkpt lat="45.63007" lon="6.03657">
        <ele>1777</ele>
        <time>2010-11-28T15:50:29Z</time>
      </trkpt>
      <trkpt lat="45.63007" lon="6.03655">
        <ele>1777</ele>
        <time>2010-11-28T15:50:31Z</time>
      </trkpt>
      <trkpt lat="45.63007" lon="6.03654">
        <ele>1777</ele>
        <time>2010-11-28T15:50:33Z</time>
      </trkpt>
      <trkpt lat="45.63007" lon="6.03652">
        <ele>1777</ele>
        <time>2010-11-28T15:50:35Z</time>
      </trkpt>
      <trkpt lat="45.63007" lon="6.03651">
        <ele>1777</ele>
        <time>2010-11-28T15:50:37Z</time>
      </trkpt>
      <trkpt lat="45.63007" lon="6.03649">
        <ele>1777</ele>
        <time>2010-11-28T15:50:39Z</time>
      </trkpt>
      <trkpt lat="45.63008" lon="6.03647">
        <ele>1777</ele>
        <time>2010-11-28T15:50:42Z</time>
      </trkpt>
      <trkpt lat="45.63008" lon="6.03645">
        <ele>1777</ele>
        <time>2010-11-28T15:50:45Z</time>
      </trkpt>
      <trkpt lat="45.63009" lon="6.03644">
        <ele>1777</ele>
        <time>2010-11-28T15:50:48Z</time>
      </trkpt>
      <trkpt lat="45.6301" lon="6.03642">
        <ele>1777</ele>
        <time>2010-11-28T15:50:51Z</time>
      </trkpt>
      <trkpt lat="45.63011" lon="6.0364">
        <ele>1778</ele>
        <time>2010-11-28T15:50:54Z</time>
      </trkpt>
      <trkpt lat="45.63012" lon="6.03638">
        <ele>1778</ele>
        <time>2010-11-28T15:50:56Z</time>
      </trkpt>
      <trkpt lat="45.63012" lon="6.03636">
        <ele>1778</ele>
        <time>2010-11-28T15:50:59Z</time>
      </trkpt>
      <trkpt lat="45.63013" lon="6.03635">
        <ele>1778</ele>
        <time>2010-11-28T15:51:01Z</time>
      </trkpt>
      <trkpt lat="45.63013" lon="6.03633">
        <ele>1778</ele>
        <time>2010-11-28T15:51:04Z</time>
      </trkpt>
      <trkpt lat="45.63014" lon="6.03631">
        <ele>1778</ele>
        <time>2010-11-28T15:51:06Z</time>
      </trkpt>
      <trkpt lat="45.63015" lon="6.03629">
        <ele>1779</ele>
        <time>2010-11-28T15:51:08Z</time>
      </trkpt>
      <trkpt lat="45.63015" lon="6.03628">
        <ele>1779</ele>
        <time>2010-11-28T15:51:10Z</time>
      </trkpt>
      <trkpt lat="45.63016" lon="6.03625">
        <ele>1779</ele>
        <time>2010-11-28T15:51:13Z</time>
      </trkpt>
      <trkpt lat="45.63017" lon="6.03624">
        <ele>1780</ele>
        <time>2010-11-28T15:51:15Z</time>
      </trkpt>
      <trkpt lat="45.63018" lon="6.03622">
        <ele>1780</ele>
        <time>2010-11-28T15:51:18Z</time>
      </trkpt>
      <trkpt lat="45.63018" lon="6.0362">
        <ele>1780</ele>
        <time>2010-11-28T15:51:20Z</time>
      </trkpt>
      <trkpt lat="45.63019" lon="6.03618">
        <ele>1781</ele>
        <time>2010-11-28T15:51:22Z</time>
      </trkpt>
      <trkpt lat="45.6302" lon="6.03617">
        <ele>1781</ele>
        <time>2010-11-28T15:51:24Z</time>
      </trkpt>
      <trkpt lat="45.6302" lon="6.03615">
        <ele>1781</ele>
        <time>2010-11-28T15:51:26Z</time>
      </trkpt>
      <trkpt lat="45.63021" lon="6.03613">
        <ele>1781</ele>
        <time>2010-11-28T15:51:29Z</time>
      </trkpt>
      <trkpt lat="45.63021" lon="6.03611">
        <ele>1781</ele>
        <time>2010-11-28T15:51:31Z</time>
      </trkpt>
      <trkpt lat="45.63022" lon="6.03609">
        <ele>1781</ele>
        <time>2010-11-28T15:51:34Z</time>
      </trkpt>
      <trkpt lat="45.63023" lon="6.03607">
        <ele>1782</ele>
        <time>2010-11-28T15:51:37Z</time>
      </trkpt>
      <trkpt lat="45.63024" lon="6.03606">
        <ele>1782</ele>
        <time>2010-11-28T15:51:39Z</time>
      </trkpt>
      <trkpt lat="45.63025" lon="6.03604">
        <ele>1782</ele>
        <time>2010-11-28T15:51:41Z</time>
      </trkpt>
      <trkpt lat="45.63025" lon="6.03602">
        <ele>1782</ele>
        <time>2010-11-28T15:51:43Z</time>
      </trkpt>
      <trkpt lat="45.63027" lon="6.036">
        <ele>1782</ele>
        <time>2010-11-28T15:51:46Z</time>
      </trkpt>
      <trkpt lat="45.63028" lon="6.03599">
        <ele>1782</ele>
        <time>2010-11-28T15:51:48Z</time>
      </trkpt>
      <trkpt lat="45.63029" lon="6.03597">
        <ele>1782</ele>
        <time>2010-11-28T15:51:51Z</time>
      </trkpt>
      <trkpt lat="45.6303" lon="6.03595">
        <ele>1782</ele>
        <time>2010-11-28T15:51:53Z</time>
      </trkpt>
      <trkpt lat="45.63031" lon="6.03593">
        <ele>1782</ele>
        <time>2010-11-28T15:51:56Z</time>
      </trkpt>
      <trkpt lat="45.63032" lon="6.03591">
        <ele>1782</ele>
        <time>2010-11-28T15:51:59Z</time>
      </trkpt>
      <trkpt lat="45.63033" lon="6.0359">
        <ele>1782</ele>
        <time>2010-11-28T15:52:02Z</time>
      </trkpt>
      <trkpt lat="45.63034" lon="6.03588">
        <ele>1782</ele>
        <time>2010-11-28T15:52:06Z</time>
      </trkpt>
      <trkpt lat="45.63035" lon="6.03586">
        <ele>1783</ele>
        <time>2010-11-28T15:52:09Z</time>
      </trkpt>
      <trkpt lat="45.63036" lon="6.03585">
        <ele>1783</ele>
        <time>2010-11-28T15:52:12Z</time>
      </trkpt>
      <trkpt lat="45.63037" lon="6.03583">
        <ele>1783</ele>
        <time>2010-11-28T15:52:15Z</time>
      </trkpt>
      <trkpt lat="45.63037" lon="6.03581">
        <ele>1784</ele>
        <time>2010-11-28T15:52:17Z</time>
      </trkpt>
      <trkpt lat="45.63039" lon="6.03581">
        <ele>1784</ele>
        <time>2010-11-28T15:52:19Z</time>
      </trkpt>
      <trkpt lat="45.6304" lon="6.03581">
        <ele>1784</ele>
        <time>2010-11-28T15:52:25Z</time>
      </trkpt>
      <trkpt lat="45.63041" lon="6.03581">
        <ele>1784</ele>
        <time>2010-11-28T15:52:33Z</time>
      </trkpt>
      <trkpt lat="45.63043" lon="6.03581">
        <ele>1784</ele>
        <time>2010-11-28T15:52:35Z</time>
      </trkpt>
      <trkpt lat="45.63044" lon="6.03581">
        <ele>1784</ele>
        <time>2010-11-28T15:52:37Z</time>
      </trkpt>
      <trkpt lat="45.63046" lon="6.0358">
        <ele>1784</ele>
        <time>2010-11-28T15:52:39Z</time>
      </trkpt>
      <trkpt lat="45.63047" lon="6.03581">
        <ele>1784</ele>
        <time>2010-11-28T15:52:41Z</time>
      </trkpt>
      <trkpt lat="45.63049" lon="6.0358">
        <ele>1784</ele>
        <time>2010-11-28T15:52:43Z</time>
      </trkpt>
      <trkpt lat="45.6305" lon="6.0358">
        <ele>1784</ele>
        <time>2010-11-28T15:52:45Z</time>
      </trkpt>
      <trkpt lat="45.63052" lon="6.0358">
        <ele>1784</ele>
        <time>2010-11-28T15:52:47Z</time>
      </trkpt>
      <trkpt lat="45.63053" lon="6.0358">
        <ele>1784</ele>
        <time>2010-11-28T15:52:49Z</time>
      </trkpt>
      <trkpt lat="45.63055" lon="6.03581">
        <ele>1784</ele>
        <time>2010-11-28T15:52:51Z</time>
      </trkpt>
      <trkpt lat="45.63056" lon="6.03581">
        <ele>1784</ele>
        <time>2010-11-28T15:52:53Z</time>
      </trkpt>
      <trkpt lat="45.63058" lon="6.03582">
        <ele>1784</ele>
        <time>2010-11-28T15:52:55Z</time>
      </trkpt>
      <trkpt lat="45.63059" lon="6.03582">
        <ele>1784</ele>
        <time>2010-11-28T15:52:57Z</time>
      </trkpt>
      <trkpt lat="45.6306" lon="6.03583">
        <ele>1784</ele>
        <time>2010-11-28T15:52:59Z</time>
      </trkpt>
      <trkpt lat="45.63062" lon="6.03583">
        <ele>1784</ele>
        <time>2010-11-28T15:53:01Z</time>
      </trkpt>
      <trkpt lat="45.63061" lon="6.03581">
        <ele>1784</ele>
        <time>2010-11-28T15:53:16Z</time>
      </trkpt>
      <trkpt lat="45.63061" lon="6.0358">
        <ele>1784</ele>
        <time>2010-11-28T15:53:38Z</time>
      </trkpt>
      <trkpt lat="45.63061" lon="6.03578">
        <ele>1784</ele>
        <time>2010-11-28T15:53:48Z</time>
      </trkpt>
      <trkpt lat="45.63062" lon="6.0358">
        <ele>1789</ele>
        <time>2010-11-28T15:54:44Z</time>
      </trkpt>
      <trkpt lat="45.63063" lon="6.0358">
        <ele>1789</ele>
        <time>2010-11-28T15:55:41Z</time>
      </trkpt>
      <trkpt lat="45.63063" lon="6.03581">
        <ele>1789</ele>
        <time>2010-11-28T15:55:51Z</time>
      </trkpt>
      <trkpt lat="45.63065" lon="6.03582">
        <ele>1789</ele>
        <time>2010-11-28T15:56:04Z</time>
      </trkpt>
      <trkpt lat="45.63064" lon="6.03582">
        <ele>1789</ele>
        <time>2010-11-28T15:56:35Z</time>
      </trkpt>
      <trkpt lat="45.63062" lon="6.03582">
        <ele>1789</ele>
        <time>2010-11-28T15:56:39Z</time>
      </trkpt>
      <trkpt lat="45.63062" lon="6.03584">
        <ele>1789</ele>
        <time>2010-11-28T15:56:48Z</time>
      </trkpt>
      <trkpt lat="45.63062" lon="6.03586">
        <ele>1789</ele>
        <time>2010-11-28T15:56:56Z</time>
      </trkpt>
      <trkpt lat="45.63061" lon="6.03585">
        <ele>1789</ele>
        <time>2010-11-28T15:57:34Z</time>
      </trkpt>
      <trkpt lat="45.63062" lon="6.03585">
        <ele>1789</ele>
        <time>2010-11-28T15:57:50Z</time>
      </trkpt>
      <trkpt lat="45.63064" lon="6.03586">
        <ele>1788</ele>
        <time>2010-11-28T15:58:11Z</time>
      </trkpt>
      <trkpt lat="45.63063" lon="6.03584">
        <ele>1788</ele>
        <time>2010-11-28T15:58:13Z</time>
      </trkpt>
      <trkpt lat="45.63063" lon="6.03586">
        <ele>1788</ele>
        <time>2010-11-28T15:58:20Z</time>
      </trkpt>
      <trkpt lat="45.63063" lon="6.03584">
        <ele>1788</ele>
        <time>2010-11-28T15:58:28Z</time>
      </trkpt>
      <trkpt lat="45.63062" lon="6.03584">
        <ele>1788</ele>
        <time>2010-11-28T16:00:40Z</time>
      </trkpt>
      <trkpt lat="45.63064" lon="6.03583">
        <ele>1788</ele>
        <time>2010-11-28T16:00:54Z</time>
      </trkpt>
      <trkpt lat="45.63063" lon="6.03582">
        <ele>1788</ele>
        <time>2010-11-28T16:00:56Z</time>
      </trkpt>
      <trkpt lat="45.63062" lon="6.03583">
        <ele>1788</ele>
        <time>2010-11-28T16:01:16Z</time>
      </trkpt>
      <trkpt lat="45.63063" lon="6.03583">
        <ele>1788</ele>
        <time>2010-11-28T16:01:31Z</time>
      </trkpt>
      <trkpt lat="45.63064" lon="6.03583">
        <ele>1788</ele>
        <time>2010-11-28T16:01:41Z</time>
      </trkpt>
      <trkpt lat="45.63063" lon="6.03584">
        <ele>1788</ele>
        <time>2010-11-28T16:01:46Z</time>
      </trkpt>
      <trkpt lat="45.63064" lon="6.03584">
        <ele>1788</ele>
        <time>2010-11-28T16:02:03Z</time>
      </trkpt>
      <trkpt lat="45.63063" lon="6.03584">
        <ele>1788</ele>
        <time>2010-11-28T16:03:33Z</time>
      </trkpt>
      <trkpt lat="45.63063" lon="6.03582">
        <ele>1788</ele>
        <time>2010-11-28T16:03:42Z</time>
      </trkpt>
      <trkpt lat="45.63062" lon="6.03582">
        <ele>1788</ele>
        <time>2010-11-28T16:04:22Z</time>
      </trkpt>
      <trkpt lat="45.6306" lon="6.03581">
        <ele>1788</ele>
        <time>2010-11-28T16:04:45Z</time>
      </trkpt>
      <trkpt lat="45.63061" lon="6.03581">
        <ele>1789</ele>
        <time>2010-11-28T16:04:59Z</time>
      </trkpt>
      <trkpt lat="45.6306" lon="6.03581">
        <ele>1789</ele>
        <time>2010-11-28T16:05:08Z</time>
      </trkpt>
      <trkpt lat="45.63061" lon="6.03582">
        <ele>1789</ele>
        <time>2010-11-28T16:05:22Z</time>
      </trkpt>
      <trkpt lat="45.63063" lon="6.03583">
        <ele>1789</ele>
        <time>2010-11-28T16:05:47Z</time>
      </trkpt>
      <trkpt lat="45.63063" lon="6.03585">
        <ele>1789</ele>
        <time>2010-11-28T16:06:15Z</time>
      </trkpt>
      <trkpt lat="45.63063" lon="6.03583">
        <ele>1789</ele>
        <time>2010-11-28T16:06:30Z</time>
      </trkpt>
      <trkpt lat="45.63062" lon="6.03583">
        <ele>1789</ele>
        <time>2010-11-28T16:07:00Z</time>
      </trkpt>
      <trkpt lat="45.63062" lon="6.03585">
        <ele>1789</ele>
        <time>2010-11-28T16:07:14Z</time>
      </trkpt>
      <trkpt lat="45.63063" lon="6.03583">
        <ele>1789</ele>
        <time>2010-11-28T16:07:38Z</time>
      </trkpt>
      <trkpt lat="45.63063" lon="6.03585">
        <ele>1789</ele>
        <time>2010-11-28T16:07:59Z</time>
      </trkpt>
      <trkpt lat="45.63062" lon="6.03585">
        <ele>1789</ele>
        <time>2010-11-28T16:08:13Z</time>
      </trkpt>
      <trkpt lat="45.63063" lon="6.03584">
        <ele>1789</ele>
        <time>2010-11-28T16:09:19Z</time>
      </trkpt>
      <trkpt lat="45.63063" lon="6.03586">
        <ele>1789</ele>
        <time>2010-11-28T16:09:43Z</time>
      </trkpt>
      <trkpt lat="45.63062" lon="6.03586">
        <ele>1789</ele>
        <time>2010-11-28T16:09:54Z</time>
      </trkpt>
      <trkpt lat="45.63062" lon="6.03585">
        <ele>1789</ele>
        <time>2010-11-28T16:10:10Z</time>
      </trkpt>
      <trkpt lat="45.63063" lon="6.03583">
        <ele>1789</ele>
        <time>2010-11-28T16:10:27Z</time>
      </trkpt>
      <trkpt lat="45.63063" lon="6.03581">
        <ele>1789</ele>
        <time>2010-11-28T16:10:39Z</time>
      </trkpt>
      <trkpt lat="45.63064" lon="6.03582">
        <ele>1789</ele>
        <time>2010-11-28T16:10:48Z</time>
      </trkpt>
      <trkpt lat="45.63063" lon="6.03583">
        <ele>1789</ele>
        <time>2010-11-28T16:11:16Z</time>
      </trkpt>
      <trkpt lat="45.63064" lon="6.03584">
        <ele>1789</ele>
        <time>2010-11-28T16:11:26Z</time>
      </trkpt>
      <trkpt lat="45.63065" lon="6.03583">
        <ele>1789</ele>
        <time>2010-11-28T16:11:42Z</time>
      </trkpt>
      <trkpt lat="45.63065" lon="6.03584">
        <ele>1789</ele>
        <time>2010-11-28T16:11:55Z</time>
      </trkpt>
      <trkpt lat="45.63066" lon="6.03585">
        <ele>1789</ele>
        <time>2010-11-28T16:12:12Z</time>
      </trkpt>
      <trkpt lat="45.63066" lon="6.03583">
        <ele>1789</ele>
        <time>2010-11-28T16:12:24Z</time>
      </trkpt>
      <trkpt lat="45.63065" lon="6.03583">
        <ele>1789</ele>
        <time>2010-11-28T16:12:35Z</time>
      </trkpt>
      <trkpt lat="45.63065" lon="6.03586">
        <ele>1789</ele>
        <time>2010-11-28T16:12:47Z</time>
      </trkpt>
      <trkpt lat="45.63062" lon="6.03588">
        <ele>1789</ele>
        <time>2010-11-28T16:12:49Z</time>
      </trkpt>
      <trkpt lat="45.63062" lon="6.03586">
        <ele>1789</ele>
        <time>2010-11-28T16:12:56Z</time>
      </trkpt>
      <trkpt lat="45.63062" lon="6.03584">
        <ele>1789</ele>
        <time>2010-11-28T16:13:08Z</time>
      </trkpt>
      <trkpt lat="45.63063" lon="6.03585">
        <ele>1789</ele>
        <time>2010-11-28T16:13:14Z</time>
      </trkpt>
      <trkpt lat="45.63064" lon="6.03586">
        <ele>1789</ele>
        <time>2010-11-28T16:13:33Z</time>
      </trkpt>
      <trkpt lat="45.63065" lon="6.03587">
        <ele>1789</ele>
        <time>2010-11-28T16:13:38Z</time>
      </trkpt>
      <trkpt lat="45.63067" lon="6.03588">
        <ele>1789</ele>
        <time>2010-11-28T16:13:43Z</time>
      </trkpt>
      <trkpt lat="45.6307" lon="6.03592">
        <ele>1789</ele>
        <time>2010-11-28T16:13:45Z</time>
      </trkpt>
      <trkpt lat="45.63075" lon="6.03596">
        <ele>1789</ele>
        <time>2010-11-28T16:13:47Z</time>
      </trkpt>
      <trkpt lat="45.63079" lon="6.03604">
        <ele>1789</ele>
        <time>2010-11-28T16:13:49Z</time>
      </trkpt>
      <trkpt lat="45.63084" lon="6.03617">
        <ele>1789</ele>
        <time>2010-11-28T16:13:51Z</time>
      </trkpt>
      <trkpt lat="45.63091" lon="6.0363">
        <ele>1788</ele>
        <time>2010-11-28T16:13:53Z</time>
      </trkpt>
      <trkpt lat="45.63099" lon="6.03646">
        <ele>1786</ele>
        <time>2010-11-28T16:13:55Z</time>
      </trkpt>
      <trkpt lat="45.63108" lon="6.03664">
        <ele>1784</ele>
        <time>2010-11-28T16:13:57Z</time>
      </trkpt>
      <trkpt lat="45.63117" lon="6.03682">
        <ele>1782</ele>
        <time>2010-11-28T16:13:59Z</time>
      </trkpt>
      <trkpt lat="45.63124" lon="6.03698">
        <ele>1780</ele>
        <time>2010-11-28T16:14:01Z</time>
      </trkpt>
      <trkpt lat="45.6313" lon="6.03712">
        <ele>1778</ele>
        <time>2010-11-28T16:14:03Z</time>
      </trkpt>
      <trkpt lat="45.63135" lon="6.03721">
        <ele>1776</ele>
        <time>2010-11-28T16:14:05Z</time>
      </trkpt>
      <trkpt lat="45.63138" lon="6.03728">
        <ele>1774</ele>
        <time>2010-11-28T16:14:07Z</time>
      </trkpt>
      <trkpt lat="45.6314" lon="6.03734">
        <ele>1774</ele>
        <time>2010-11-28T16:14:09Z</time>
      </trkpt>
      <trkpt lat="45.63139" lon="6.03735">
        <ele>1774</ele>
        <time>2010-11-28T16:14:13Z</time>
      </trkpt>
      <trkpt lat="45.6314" lon="6.03734">
        <ele>1773</ele>
        <time>2010-11-28T16:14:17Z</time>
      </trkpt>
      <trkpt lat="45.6314" lon="6.03736">
        <ele>1773</ele>
        <time>2010-11-28T16:14:19Z</time>
      </trkpt>
      <trkpt lat="45.63138" lon="6.03736">
        <ele>1772</ele>
        <time>2010-11-28T16:14:25Z</time>
      </trkpt>
      <trkpt lat="45.63139" lon="6.03736">
        <ele>1772</ele>
        <time>2010-11-28T16:14:28Z</time>
      </trkpt>
      <trkpt lat="45.6314" lon="6.03738">
        <ele>1772</ele>
        <time>2010-11-28T16:14:32Z</time>
      </trkpt>
      <trkpt lat="45.63141" lon="6.0374">
        <ele>1772</ele>
        <time>2010-11-28T16:14:35Z</time>
      </trkpt>
      <trkpt lat="45.63141" lon="6.03742">
        <ele>1772</ele>
        <time>2010-11-28T16:14:37Z</time>
      </trkpt>
      <trkpt lat="45.63142" lon="6.03744">
        <ele>1772</ele>
        <time>2010-11-28T16:14:39Z</time>
      </trkpt>
      <trkpt lat="45.63142" lon="6.03746">
        <ele>1772</ele>
        <time>2010-11-28T16:14:41Z</time>
      </trkpt>
      <trkpt lat="45.63142" lon="6.03747">
        <ele>1772</ele>
        <time>2010-11-28T16:14:43Z</time>
      </trkpt>
      <trkpt lat="45.63142" lon="6.03749">
        <ele>1772</ele>
        <time>2010-11-28T16:14:45Z</time>
      </trkpt>
      <trkpt lat="45.63143" lon="6.03753">
        <ele>1772</ele>
        <time>2010-11-28T16:14:48Z</time>
      </trkpt>
      <trkpt lat="45.63142" lon="6.03755">
        <ele>1772</ele>
        <time>2010-11-28T16:14:50Z</time>
      </trkpt>
      <trkpt lat="45.63142" lon="6.03757">
        <ele>1772</ele>
        <time>2010-11-28T16:14:52Z</time>
      </trkpt>
      <trkpt lat="45.63143" lon="6.03759">
        <ele>1772</ele>
        <time>2010-11-28T16:14:54Z</time>
      </trkpt>
      <trkpt lat="45.63144" lon="6.03761">
        <ele>1772</ele>
        <time>2010-11-28T16:14:56Z</time>
      </trkpt>
      <trkpt lat="45.63144" lon="6.03763">
        <ele>1772</ele>
        <time>2010-11-28T16:14:58Z</time>
      </trkpt>
      <trkpt lat="45.63145" lon="6.03763">
        <ele>1772</ele>
        <time>2010-11-28T16:15:06Z</time>
      </trkpt>
      <trkpt lat="45.63147" lon="6.03763">
        <ele>1772</ele>
        <time>2010-11-28T16:15:13Z</time>
      </trkpt>
      <trkpt lat="45.63148" lon="6.03762">
        <ele>1772</ele>
        <time>2010-11-28T16:15:22Z</time>
      </trkpt>
      <trkpt lat="45.63148" lon="6.03764">
        <ele>1772</ele>
        <time>2010-11-28T16:15:33Z</time>
      </trkpt>
      <trkpt lat="45.63148" lon="6.03762">
        <ele>1772</ele>
        <time>2010-11-28T16:15:39Z</time>
      </trkpt>
      <trkpt lat="45.63148" lon="6.03764">
        <ele>1772</ele>
        <time>2010-11-28T16:15:53Z</time>
      </trkpt>
      <trkpt lat="45.63147" lon="6.03762">
        <ele>1772</ele>
        <time>2010-11-28T16:16:05Z</time>
      </trkpt>
      <trkpt lat="45.63148" lon="6.03762">
        <ele>1772</ele>
        <time>2010-11-28T16:16:11Z</time>
      </trkpt>
      <trkpt lat="45.63149" lon="6.03762">
        <ele>1772</ele>
        <time>2010-11-28T16:16:18Z</time>
      </trkpt>
      <trkpt lat="45.63151" lon="6.03764">
        <ele>1772</ele>
        <time>2010-11-28T16:16:26Z</time>
      </trkpt>
      <trkpt lat="45.6315" lon="6.03763">
        <ele>1772</ele>
        <time>2010-11-28T16:16:38Z</time>
      </trkpt>
      <trkpt lat="45.63149" lon="6.03762">
        <ele>1772</ele>
        <time>2010-11-28T16:16:52Z</time>
      </trkpt>
      <trkpt lat="45.6315" lon="6.03764">
        <ele>1772</ele>
        <time>2010-11-28T16:17:08Z</time>
      </trkpt>
      <trkpt lat="45.63151" lon="6.03766">
        <ele>1772</ele>
        <time>2010-11-28T16:17:12Z</time>
      </trkpt>
      <trkpt lat="45.63152" lon="6.03768">
        <ele>1772</ele>
        <time>2010-11-28T16:17:15Z</time>
      </trkpt>
      <trkpt lat="45.63152" lon="6.0377">
        <ele>1772</ele>
        <time>2010-11-28T16:17:17Z</time>
      </trkpt>
      <trkpt lat="45.63152" lon="6.03772">
        <ele>1772</ele>
        <time>2010-11-28T16:17:20Z</time>
      </trkpt>
      <trkpt lat="45.63153" lon="6.03773">
        <ele>1772</ele>
        <time>2010-11-28T16:17:23Z</time>
      </trkpt>
      <trkpt lat="45.63154" lon="6.03775">
        <ele>1772</ele>
        <time>2010-11-28T16:17:25Z</time>
      </trkpt>
      <trkpt lat="45.63155" lon="6.03778">
        <ele>1772</ele>
        <time>2010-11-28T16:17:27Z</time>
      </trkpt>
      <trkpt lat="45.63156" lon="6.03782">
        <ele>1772</ele>
        <time>2010-11-28T16:17:29Z</time>
      </trkpt>
      <trkpt lat="45.63158" lon="6.03785">
        <ele>1772</ele>
        <time>2010-11-28T16:17:31Z</time>
      </trkpt>
      <trkpt lat="45.6316" lon="6.03788">
        <ele>1772</ele>
        <time>2010-11-28T16:17:33Z</time>
      </trkpt>
      <trkpt lat="45.63161" lon="6.0379">
        <ele>1772</ele>
        <time>2010-11-28T16:17:35Z</time>
      </trkpt>
      <trkpt lat="45.63163" lon="6.03794">
        <ele>1772</ele>
        <time>2010-11-28T16:17:37Z</time>
      </trkpt>
      <trkpt lat="45.63166" lon="6.03799">
        <ele>1772</ele>
        <time>2010-11-28T16:17:39Z</time>
      </trkpt>
      <trkpt lat="45.63169" lon="6.03806">
        <ele>1772</ele>
        <time>2010-11-28T16:17:41Z</time>
      </trkpt>
      <trkpt lat="45.63173" lon="6.03813">
        <ele>1771</ele>
        <time>2010-11-28T16:17:43Z</time>
      </trkpt>
      <trkpt lat="45.63179" lon="6.03817">
        <ele>1771</ele>
        <time>2010-11-28T16:17:45Z</time>
      </trkpt>
      <trkpt lat="45.63185" lon="6.03821">
        <ele>1770</ele>
        <time>2010-11-28T16:17:47Z</time>
      </trkpt>
      <trkpt lat="45.63192" lon="6.03827">
        <ele>1770</ele>
        <time>2010-11-28T16:17:49Z</time>
      </trkpt>
      <trkpt lat="45.63199" lon="6.03836">
        <ele>1769</ele>
        <time>2010-11-28T16:17:51Z</time>
      </trkpt>
      <trkpt lat="45.63204" lon="6.03839">
        <ele>1768</ele>
        <time>2010-11-28T16:17:53Z</time>
      </trkpt>
      <trkpt lat="45.63208" lon="6.03841">
        <ele>1766</ele>
        <time>2010-11-28T16:17:55Z</time>
      </trkpt>
      <trkpt lat="45.63214" lon="6.03843">
        <ele>1765</ele>
        <time>2010-11-28T16:17:57Z</time>
      </trkpt>
      <trkpt lat="45.63218" lon="6.03846">
        <ele>1765</ele>
        <time>2010-11-28T16:17:59Z</time>
      </trkpt>
      <trkpt lat="45.63221" lon="6.03848">
        <ele>1764</ele>
        <time>2010-11-28T16:18:01Z</time>
      </trkpt>
      <trkpt lat="45.63224" lon="6.03851">
        <ele>1764</ele>
        <time>2010-11-28T16:18:03Z</time>
      </trkpt>
      <trkpt lat="45.63229" lon="6.03854">
        <ele>1763</ele>
        <time>2010-11-28T16:18:05Z</time>
      </trkpt>
      <trkpt lat="45.63237" lon="6.03855">
        <ele>1763</ele>
        <time>2010-11-28T16:18:07Z</time>
      </trkpt>
      <trkpt lat="45.63243" lon="6.03855">
        <ele>1762</ele>
        <time>2010-11-28T16:18:09Z</time>
      </trkpt>
      <trkpt lat="45.63246" lon="6.03856">
        <ele>1761</ele>
        <time>2010-11-28T16:18:12Z</time>
      </trkpt>
      <trkpt lat="45.63248" lon="6.03858">
        <ele>1760</ele>
        <time>2010-11-28T16:18:18Z</time>
      </trkpt>
      <trkpt lat="45.63248" lon="6.03859">
        <ele>1759</ele>
        <time>2010-11-28T16:18:21Z</time>
      </trkpt>
      <trkpt lat="45.63247" lon="6.03862">
        <ele>1758</ele>
        <time>2010-11-28T16:18:23Z</time>
      </trkpt>
      <trkpt lat="45.63248" lon="6.03861">
        <ele>1757</ele>
        <time>2010-11-28T16:18:26Z</time>
      </trkpt>
      <trkpt lat="45.6325" lon="6.03861">
        <ele>1757</ele>
        <time>2010-11-28T16:18:29Z</time>
      </trkpt>
      <trkpt lat="45.63251" lon="6.03861">
        <ele>1757</ele>
        <time>2010-11-28T16:18:32Z</time>
      </trkpt>
      <trkpt lat="45.63253" lon="6.03861">
        <ele>1757</ele>
        <time>2010-11-28T16:18:34Z</time>
      </trkpt>
      <trkpt lat="45.63255" lon="6.03861">
        <ele>1757</ele>
        <time>2010-11-28T16:18:36Z</time>
      </trkpt>
      <trkpt lat="45.63257" lon="6.03861">
        <ele>1756</ele>
        <time>2010-11-28T16:18:38Z</time>
      </trkpt>
      <trkpt lat="45.63258" lon="6.03862">
        <ele>1756</ele>
        <time>2010-11-28T16:18:40Z</time>
      </trkpt>
      <trkpt lat="45.63259" lon="6.03863">
        <ele>1756</ele>
        <time>2010-11-28T16:18:42Z</time>
      </trkpt>
      <trkpt lat="45.63259" lon="6.03864">
        <ele>1756</ele>
        <time>2010-11-28T16:19:00Z</time>
      </trkpt>
      <trkpt lat="45.63261" lon="6.03864">
        <ele>1756</ele>
        <time>2010-11-28T16:19:17Z</time>
      </trkpt>
      <trkpt lat="45.63262" lon="6.03864">
        <ele>1756</ele>
        <time>2010-11-28T16:19:20Z</time>
      </trkpt>
      <trkpt lat="45.63264" lon="6.03866">
        <ele>1756</ele>
        <time>2010-11-28T16:19:22Z</time>
      </trkpt>
      <trkpt lat="45.63268" lon="6.03868">
        <ele>1756</ele>
        <time>2010-11-28T16:19:24Z</time>
      </trkpt>
      <trkpt lat="45.63276" lon="6.03871">
        <ele>1756</ele>
        <time>2010-11-28T16:19:26Z</time>
      </trkpt>
      <trkpt lat="45.63285" lon="6.03876">
        <ele>1755</ele>
        <time>2010-11-28T16:19:28Z</time>
      </trkpt>
      <trkpt lat="45.63295" lon="6.0388">
        <ele>1753</ele>
        <time>2010-11-28T16:19:30Z</time>
      </trkpt>
      <trkpt lat="45.63307" lon="6.03884">
        <ele>1752</ele>
        <time>2010-11-28T16:19:32Z</time>
      </trkpt>
      <trkpt lat="45.63319" lon="6.0389">
        <ele>1750</ele>
        <time>2010-11-28T16:19:34Z</time>
      </trkpt>
      <trkpt lat="45.63332" lon="6.03892">
        <ele>1748</ele>
        <time>2010-11-28T16:19:36Z</time>
      </trkpt>
      <trkpt lat="45.63344" lon="6.03895">
        <ele>1747</ele>
        <time>2010-11-28T16:19:38Z</time>
      </trkpt>
      <trkpt lat="45.63355" lon="6.03902">
        <ele>1746</ele>
        <time>2010-11-28T16:19:40Z</time>
      </trkpt>
      <trkpt lat="45.63365" lon="6.03906">
        <ele>1745</ele>
        <time>2010-11-28T16:19:42Z</time>
      </trkpt>
      <trkpt lat="45.63375" lon="6.03913">
        <ele>1744</ele>
        <time>2010-11-28T16:19:44Z</time>
      </trkpt>
      <trkpt lat="45.63384" lon="6.03922">
        <ele>1744</ele>
        <time>2010-11-28T16:19:46Z</time>
      </trkpt>
      <trkpt lat="45.63388" lon="6.03936">
        <ele>1742</ele>
        <time>2010-11-28T16:19:48Z</time>
      </trkpt>
      <trkpt lat="45.6339" lon="6.03951">
        <ele>1741</ele>
        <time>2010-11-28T16:19:50Z</time>
      </trkpt>
      <trkpt lat="45.63391" lon="6.03968">
        <ele>1739</ele>
        <time>2010-11-28T16:19:52Z</time>
      </trkpt>
      <trkpt lat="45.63393" lon="6.03987">
        <ele>1737</ele>
        <time>2010-11-28T16:19:54Z</time>
      </trkpt>
      <trkpt lat="45.63389" lon="6.04009">
        <ele>1735</ele>
        <time>2010-11-28T16:19:56Z</time>
      </trkpt>
      <trkpt lat="45.63383" lon="6.04033">
        <ele>1733</ele>
        <time>2010-11-28T16:19:58Z</time>
      </trkpt>
      <trkpt lat="45.63372" lon="6.04071">
        <ele>1729</ele>
        <time>2010-11-28T16:20:01Z</time>
      </trkpt>
      <trkpt lat="45.63365" lon="6.04096">
        <ele>1725</ele>
        <time>2010-11-28T16:20:03Z</time>
      </trkpt>
      <trkpt lat="45.6336" lon="6.04119">
        <ele>1721</ele>
        <time>2010-11-28T16:20:05Z</time>
      </trkpt>
      <trkpt lat="45.63358" lon="6.04138">
        <ele>1718</ele>
        <time>2010-11-28T16:20:07Z</time>
      </trkpt>
      <trkpt lat="45.63356" lon="6.04153">
        <ele>1716</ele>
        <time>2010-11-28T16:20:09Z</time>
      </trkpt>
      <trkpt lat="45.63357" lon="6.04164">
        <ele>1714</ele>
        <time>2010-11-28T16:20:11Z</time>
      </trkpt>
      <trkpt lat="45.63358" lon="6.04172">
        <ele>1712</ele>
        <time>2010-11-28T16:20:13Z</time>
      </trkpt>
      <trkpt lat="45.63361" lon="6.04181">
        <ele>1710</ele>
        <time>2010-11-28T16:20:15Z</time>
      </trkpt>
      <trkpt lat="45.63365" lon="6.04192">
        <ele>1708</ele>
        <time>2010-11-28T16:20:17Z</time>
      </trkpt>
      <trkpt lat="45.63366" lon="6.04208">
        <ele>1706</ele>
        <time>2010-11-28T16:20:19Z</time>
      </trkpt>
      <trkpt lat="45.63369" lon="6.04228">
        <ele>1704</ele>
        <time>2010-11-28T16:20:21Z</time>
      </trkpt>
      <trkpt lat="45.63372" lon="6.04248">
        <ele>1702</ele>
        <time>2010-11-28T16:20:23Z</time>
      </trkpt>
      <trkpt lat="45.63377" lon="6.04265">
        <ele>1700</ele>
        <time>2010-11-28T16:20:25Z</time>
      </trkpt>
      <trkpt lat="45.63383" lon="6.04282">
        <ele>1698</ele>
        <time>2010-11-28T16:20:27Z</time>
      </trkpt>
      <trkpt lat="45.63388" lon="6.043">
        <ele>1696</ele>
        <time>2010-11-28T16:20:29Z</time>
      </trkpt>
      <trkpt lat="45.63393" lon="6.04319">
        <ele>1694</ele>
        <time>2010-11-28T16:20:31Z</time>
      </trkpt>
      <trkpt lat="45.63395" lon="6.04339">
        <ele>1692</ele>
        <time>2010-11-28T16:20:33Z</time>
      </trkpt>
      <trkpt lat="45.63396" lon="6.04359">
        <ele>1690</ele>
        <time>2010-11-28T16:20:35Z</time>
      </trkpt>
      <trkpt lat="45.63395" lon="6.04379">
        <ele>1688</ele>
        <time>2010-11-28T16:20:37Z</time>
      </trkpt>
      <trkpt lat="45.63394" lon="6.04398">
        <ele>1686</ele>
        <time>2010-11-28T16:20:39Z</time>
      </trkpt>
      <trkpt lat="45.63395" lon="6.04415">
        <ele>1684</ele>
        <time>2010-11-28T16:20:41Z</time>
      </trkpt>
      <trkpt lat="45.63394" lon="6.04427">
        <ele>1682</ele>
        <time>2010-11-28T16:20:43Z</time>
      </trkpt>
      <trkpt lat="45.6339" lon="6.04438">
        <ele>1680</ele>
        <time>2010-11-28T16:20:45Z</time>
      </trkpt>
      <trkpt lat="45.63383" lon="6.0445">
        <ele>1678</ele>
        <time>2010-11-28T16:20:47Z</time>
      </trkpt>
      <trkpt lat="45.63374" lon="6.0446">
        <ele>1676</ele>
        <time>2010-11-28T16:20:49Z</time>
      </trkpt>
      <trkpt lat="45.63365" lon="6.04471">
        <ele>1674</ele>
        <time>2010-11-28T16:20:51Z</time>
      </trkpt>
      <trkpt lat="45.63361" lon="6.04486">
        <ele>1672</ele>
        <time>2010-11-28T16:20:53Z</time>
      </trkpt>
      <trkpt lat="45.63359" lon="6.04504">
        <ele>1670</ele>
        <time>2010-11-28T16:20:55Z</time>
      </trkpt>
      <trkpt lat="45.63359" lon="6.04528">
        <ele>1668</ele>
        <time>2010-11-28T16:20:57Z</time>
      </trkpt>
      <trkpt lat="45.63361" lon="6.04551">
        <ele>1666</ele>
        <time>2010-11-28T16:20:59Z</time>
      </trkpt>
      <trkpt lat="45.63365" lon="6.04572">
        <ele>1664</ele>
        <time>2010-11-28T16:21:01Z</time>
      </trkpt>
      <trkpt lat="45.63371" lon="6.04592">
        <ele>1662</ele>
        <time>2010-11-28T16:21:03Z</time>
      </trkpt>
      <trkpt lat="45.63378" lon="6.0461">
        <ele>1660</ele>
        <time>2010-11-28T16:21:05Z</time>
      </trkpt>
      <trkpt lat="45.63385" lon="6.04626">
        <ele>1658</ele>
        <time>2010-11-28T16:21:07Z</time>
      </trkpt>
      <trkpt lat="45.63388" lon="6.04636">
        <ele>1656</ele>
        <time>2010-11-28T16:21:09Z</time>
      </trkpt>
      <trkpt lat="45.63389" lon="6.04645">
        <ele>1654</ele>
        <time>2010-11-28T16:21:11Z</time>
      </trkpt>
      <trkpt lat="45.63392" lon="6.04659">
        <ele>1652</ele>
        <time>2010-11-28T16:21:13Z</time>
      </trkpt>
      <trkpt lat="45.634" lon="6.04672">
        <ele>1650</ele>
        <time>2010-11-28T16:21:15Z</time>
      </trkpt>
      <trkpt lat="45.63409" lon="6.0469">
        <ele>1648</ele>
        <time>2010-11-28T16:21:17Z</time>
      </trkpt>
      <trkpt lat="45.63418" lon="6.04711">
        <ele>1646</ele>
        <time>2010-11-28T16:21:19Z</time>
      </trkpt>
      <trkpt lat="45.63434" lon="6.04745">
        <ele>1642</ele>
        <time>2010-11-28T16:21:22Z</time>
      </trkpt>
      <trkpt lat="45.63448" lon="6.04763">
        <ele>1638</ele>
        <time>2010-11-28T16:21:24Z</time>
      </trkpt>
      <trkpt lat="45.63459" lon="6.04782">
        <ele>1634</ele>
        <time>2010-11-28T16:21:26Z</time>
      </trkpt>
      <trkpt lat="45.63468" lon="6.04797">
        <ele>1630</ele>
        <time>2010-11-28T16:21:28Z</time>
      </trkpt>
      <trkpt lat="45.63474" lon="6.04809">
        <ele>1628</ele>
        <time>2010-11-28T16:21:30Z</time>
      </trkpt>
      <trkpt lat="45.63473" lon="6.04811">
        <ele>1619</ele>
        <time>2010-11-28T16:21:55Z</time>
      </trkpt>
      <trkpt lat="45.63473" lon="6.04809">
        <ele>1619</ele>
        <time>2010-11-28T16:22:01Z</time>
      </trkpt>
      <trkpt lat="45.63473" lon="6.04808">
        <ele>1619</ele>
        <time>2010-11-28T16:22:08Z</time>
      </trkpt>
      <trkpt lat="45.63471" lon="6.04808">
        <ele>1619</ele>
        <time>2010-11-28T16:22:46Z</time>
      </trkpt>
      <trkpt lat="45.6347" lon="6.04809">
        <ele>1619</ele>
        <time>2010-11-28T16:23:33Z</time>
      </trkpt>
      <trkpt lat="45.63472" lon="6.04808">
        <ele>1619</ele>
        <time>2010-11-28T16:23:44Z</time>
      </trkpt>
      <trkpt lat="45.63473" lon="6.04808">
        <ele>1619</ele>
        <time>2010-11-28T16:24:19Z</time>
      </trkpt>
      <trkpt lat="45.63472" lon="6.04809">
        <ele>1619</ele>
        <time>2010-11-28T16:24:31Z</time>
      </trkpt>
      <trkpt lat="45.63472" lon="6.04812">
        <ele>1619</ele>
        <time>2010-11-28T16:24:46Z</time>
      </trkpt>
      <trkpt lat="45.63472" lon="6.0482">
        <ele>1619</ele>
        <time>2010-11-28T16:24:48Z</time>
      </trkpt>
      <trkpt lat="45.63469" lon="6.04833">
        <ele>1619</ele>
        <time>2010-11-28T16:24:50Z</time>
      </trkpt>
      <trkpt lat="45.63462" lon="6.0485">
        <ele>1618</ele>
        <time>2010-11-28T16:24:52Z</time>
      </trkpt>
      <trkpt lat="45.63452" lon="6.04868">
        <ele>1616</ele>
        <time>2010-11-28T16:24:54Z</time>
      </trkpt>
      <trkpt lat="45.63437" lon="6.04877">
        <ele>1614</ele>
        <time>2010-11-28T16:24:56Z</time>
      </trkpt>
      <trkpt lat="45.6342" lon="6.04882">
        <ele>1612</ele>
        <time>2010-11-28T16:24:58Z</time>
      </trkpt>
      <trkpt lat="45.63405" lon="6.04895">
        <ele>1610</ele>
        <time>2010-11-28T16:25:00Z</time>
      </trkpt>
      <trkpt lat="45.63404" lon="6.04941">
        <ele>1606</ele>
        <time>2010-11-28T16:25:03Z</time>
      </trkpt>
      <trkpt lat="45.63407" lon="6.04976">
        <ele>1602</ele>
        <time>2010-11-28T16:25:05Z</time>
      </trkpt>
      <trkpt lat="45.6341" lon="6.05009">
        <ele>1598</ele>
        <time>2010-11-28T16:25:07Z</time>
      </trkpt>
      <trkpt lat="45.63414" lon="6.05041">
        <ele>1594</ele>
        <time>2010-11-28T16:25:09Z</time>
      </trkpt>
      <trkpt lat="45.63417" lon="6.0507">
        <ele>1590</ele>
        <time>2010-11-28T16:25:11Z</time>
      </trkpt>
      <trkpt lat="45.63422" lon="6.05097">
        <ele>1586</ele>
        <time>2010-11-28T16:25:13Z</time>
      </trkpt>
      <trkpt lat="45.63428" lon="6.05123">
        <ele>1582</ele>
        <time>2010-11-28T16:25:15Z</time>
      </trkpt>
      <trkpt lat="45.63433" lon="6.05147">
        <ele>1578</ele>
        <time>2010-11-28T16:25:17Z</time>
      </trkpt>
      <trkpt lat="45.63439" lon="6.05165">
        <ele>1574</ele>
        <time>2010-11-28T16:25:19Z</time>
      </trkpt>
      <trkpt lat="45.63443" lon="6.05181">
        <ele>1570</ele>
        <time>2010-11-28T16:25:21Z</time>
      </trkpt>
      <trkpt lat="45.63447" lon="6.05193">
        <ele>1568</ele>
        <time>2010-11-28T16:25:23Z</time>
      </trkpt>
      <trkpt lat="45.63448" lon="6.05194">
        <ele>1561</ele>
        <time>2010-11-28T16:25:40Z</time>
      </trkpt>
      <trkpt lat="45.63449" lon="6.05193">
        <ele>1561</ele>
        <time>2010-11-28T16:25:48Z</time>
      </trkpt>
      <trkpt lat="45.63449" lon="6.05194">
        <ele>1561</ele>
        <time>2010-11-28T16:26:09Z</time>
      </trkpt>
      <trkpt lat="45.63449" lon="6.05197">
        <ele>1561</ele>
        <time>2010-11-28T16:26:11Z</time>
      </trkpt>
      <trkpt lat="45.63448" lon="6.05202">
        <ele>1561</ele>
        <time>2010-11-28T16:26:13Z</time>
      </trkpt>
      <trkpt lat="45.63448" lon="6.05203">
        <ele>1561</ele>
        <time>2010-11-28T16:26:17Z</time>
      </trkpt>
      <trkpt lat="45.63448" lon="6.05206">
        <ele>1561</ele>
        <time>2010-11-28T16:26:19Z</time>
      </trkpt>
      <trkpt lat="45.63447" lon="6.05208">
        <ele>1561</ele>
        <time>2010-11-28T16:26:25Z</time>
      </trkpt>
      <trkpt lat="45.63446" lon="6.05211">
        <ele>1561</ele>
        <time>2010-11-28T16:26:27Z</time>
      </trkpt>
      <trkpt lat="45.63443" lon="6.05214">
        <ele>1561</ele>
        <time>2010-11-28T16:26:29Z</time>
      </trkpt>
      <trkpt lat="45.6344" lon="6.05217">
        <ele>1561</ele>
        <time>2010-11-28T16:26:31Z</time>
      </trkpt>
      <trkpt lat="45.63437" lon="6.05224">
        <ele>1561</ele>
        <time>2010-11-28T16:26:33Z</time>
      </trkpt>
      <trkpt lat="45.6344" lon="6.05233">
        <ele>1560</ele>
        <time>2010-11-28T16:26:35Z</time>
      </trkpt>
      <trkpt lat="45.63441" lon="6.05243">
        <ele>1559</ele>
        <time>2010-11-28T16:26:37Z</time>
      </trkpt>
      <trkpt lat="45.63443" lon="6.05254">
        <ele>1558</ele>
        <time>2010-11-28T16:26:39Z</time>
      </trkpt>
      <trkpt lat="45.63444" lon="6.05264">
        <ele>1557</ele>
        <time>2010-11-28T16:26:41Z</time>
      </trkpt>
      <trkpt lat="45.6344" lon="6.05272">
        <ele>1555</ele>
        <time>2010-11-28T16:26:43Z</time>
      </trkpt>
      <trkpt lat="45.63439" lon="6.05283">
        <ele>1554</ele>
        <time>2010-11-28T16:26:45Z</time>
      </trkpt>
      <trkpt lat="45.63438" lon="6.053">
        <ele>1553</ele>
        <time>2010-11-28T16:26:47Z</time>
      </trkpt>
      <trkpt lat="45.63438" lon="6.05322">
        <ele>1551</ele>
        <time>2010-11-28T16:26:49Z</time>
      </trkpt>
      <trkpt lat="45.63441" lon="6.05344">
        <ele>1549</ele>
        <time>2010-11-28T16:26:51Z</time>
      </trkpt>
      <trkpt lat="45.63442" lon="6.05368">
        <ele>1547</ele>
        <time>2010-11-28T16:26:53Z</time>
      </trkpt>
      <trkpt lat="45.63442" lon="6.05395">
        <ele>1545</ele>
        <time>2010-11-28T16:26:55Z</time>
      </trkpt>
      <trkpt lat="45.63438" lon="6.05422">
        <ele>1543</ele>
        <time>2010-11-28T16:26:57Z</time>
      </trkpt>
      <trkpt lat="45.6344" lon="6.05447">
        <ele>1541</ele>
        <time>2010-11-28T16:26:59Z</time>
      </trkpt>
      <trkpt lat="45.63446" lon="6.05465">
        <ele>1538</ele>
        <time>2010-11-28T16:27:01Z</time>
      </trkpt>
      <trkpt lat="45.63448" lon="6.05481">
        <ele>1536</ele>
        <time>2010-11-28T16:27:03Z</time>
      </trkpt>
      <trkpt lat="45.63447" lon="6.05488">
        <ele>1533</ele>
        <time>2010-11-28T16:27:05Z</time>
      </trkpt>
      <trkpt lat="45.63447" lon="6.0549">
        <ele>1531</ele>
        <time>2010-11-28T16:27:07Z</time>
      </trkpt>
      <trkpt lat="45.63448" lon="6.05487">
        <ele>1526</ele>
        <time>2010-11-28T16:27:12Z</time>
      </trkpt>
      <trkpt lat="45.63448" lon="6.05485">
        <ele>1524</ele>
        <time>2010-11-28T16:27:14Z</time>
      </trkpt>
      <trkpt lat="45.63448" lon="6.05484">
        <ele>1523</ele>
        <time>2010-11-28T16:27:16Z</time>
      </trkpt>
      <trkpt lat="45.63447" lon="6.05482">
        <ele>1523</ele>
        <time>2010-11-28T16:27:19Z</time>
      </trkpt>
      <trkpt lat="45.63446" lon="6.05481">
        <ele>1523</ele>
        <time>2010-11-28T16:27:30Z</time>
      </trkpt>
      <trkpt lat="45.63446" lon="6.05482">
        <ele>1524</ele>
        <time>2010-11-28T16:28:25Z</time>
      </trkpt>
      <trkpt lat="45.63448" lon="6.05481">
        <ele>1524</ele>
        <time>2010-11-28T16:28:31Z</time>
      </trkpt>
      <trkpt lat="45.63447" lon="6.0548">
        <ele>1524</ele>
        <time>2010-11-28T16:28:36Z</time>
      </trkpt>
      <trkpt lat="45.63446" lon="6.05478">
        <ele>1524</ele>
        <time>2010-11-28T16:29:52Z</time>
      </trkpt>
      <trkpt lat="45.63445" lon="6.05477">
        <ele>1524</ele>
        <time>2010-11-28T16:30:02Z</time>
      </trkpt>
      <trkpt lat="45.63444" lon="6.05477">
        <ele>1524</ele>
        <time>2010-11-28T16:30:08Z</time>
      </trkpt>
      <trkpt lat="45.63443" lon="6.05478">
        <ele>1524</ele>
        <time>2010-11-28T16:30:16Z</time>
      </trkpt>
      <trkpt lat="45.63443" lon="6.0548">
        <ele>1524</ele>
        <time>2010-11-28T16:30:21Z</time>
      </trkpt>
      <trkpt lat="45.63441" lon="6.05479">
        <ele>1524</ele>
        <time>2010-11-28T16:30:25Z</time>
      </trkpt>
      <trkpt lat="45.63441" lon="6.05478">
        <ele>1525</ele>
        <time>2010-11-28T16:30:30Z</time>
      </trkpt>
      <trkpt lat="45.63441" lon="6.0548">
        <ele>1525</ele>
        <time>2010-11-28T16:30:34Z</time>
      </trkpt>
      <trkpt lat="45.63441" lon="6.05482">
        <ele>1525</ele>
        <time>2010-11-28T16:30:36Z</time>
      </trkpt>
      <trkpt lat="45.6344" lon="6.05482">
        <ele>1525</ele>
        <time>2010-11-28T16:30:40Z</time>
      </trkpt>
      <trkpt lat="45.63439" lon="6.05481">
        <ele>1525</ele>
        <time>2010-11-28T16:30:44Z</time>
      </trkpt>
      <trkpt lat="45.63438" lon="6.05481">
        <ele>1525</ele>
        <time>2010-11-28T16:30:47Z</time>
      </trkpt>
      <trkpt lat="45.63437" lon="6.05479">
        <ele>1525</ele>
        <time>2010-11-28T16:30:50Z</time>
      </trkpt>
      <trkpt lat="45.63436" lon="6.0548">
        <ele>1525</ele>
        <time>2010-11-28T16:30:55Z</time>
      </trkpt>
      <trkpt lat="45.63437" lon="6.0548">
        <ele>1525</ele>
        <time>2010-11-28T16:31:01Z</time>
      </trkpt>
      <trkpt lat="45.63436" lon="6.05481">
        <ele>1525</ele>
        <time>2010-11-28T16:31:10Z</time>
      </trkpt>
      <trkpt lat="45.63434" lon="6.05482">
        <ele>1525</ele>
        <time>2010-11-28T16:31:13Z</time>
      </trkpt>
      <trkpt lat="45.63432" lon="6.05482">
        <ele>1525</ele>
        <time>2010-11-28T16:31:16Z</time>
      </trkpt>
      <trkpt lat="45.63432" lon="6.05484">
        <ele>1525</ele>
        <time>2010-11-28T16:31:20Z</time>
      </trkpt>
      <trkpt lat="45.63432" lon="6.05485">
        <ele>1525</ele>
        <time>2010-11-28T16:31:22Z</time>
      </trkpt>
      <trkpt lat="45.63432" lon="6.05487">
        <ele>1525</ele>
        <time>2010-11-28T16:31:24Z</time>
      </trkpt>
      <trkpt lat="45.63431" lon="6.05491">
        <ele>1525</ele>
        <time>2010-11-28T16:31:26Z</time>
      </trkpt>
      <trkpt lat="45.6343" lon="6.055">
        <ele>1525</ele>
        <time>2010-11-28T16:31:28Z</time>
      </trkpt>
      <trkpt lat="45.63429" lon="6.05512">
        <ele>1525</ele>
        <time>2010-11-28T16:31:30Z</time>
      </trkpt>
      <trkpt lat="45.6343" lon="6.05524">
        <ele>1525</ele>
        <time>2010-11-28T16:31:32Z</time>
      </trkpt>
      <trkpt lat="45.63434" lon="6.05541">
        <ele>1523</ele>
        <time>2010-11-28T16:31:35Z</time>
      </trkpt>
      <trkpt lat="45.63432" lon="6.05549">
        <ele>1521</ele>
        <time>2010-11-28T16:31:37Z</time>
      </trkpt>
      <trkpt lat="45.63431" lon="6.05554">
        <ele>1521</ele>
        <time>2010-11-28T16:31:39Z</time>
      </trkpt>
      <trkpt lat="45.6343" lon="6.05559">
        <ele>1520</ele>
        <time>2010-11-28T16:31:41Z</time>
      </trkpt>
      <trkpt lat="45.63428" lon="6.05565">
        <ele>1519</ele>
        <time>2010-11-28T16:31:43Z</time>
      </trkpt>
      <trkpt lat="45.63428" lon="6.05577">
        <ele>1518</ele>
        <time>2010-11-28T16:31:45Z</time>
      </trkpt>
      <trkpt lat="45.6343" lon="6.05587">
        <ele>1517</ele>
        <time>2010-11-28T16:31:47Z</time>
      </trkpt>
      <trkpt lat="45.6343" lon="6.05591">
        <ele>1515</ele>
        <time>2010-11-28T16:31:51Z</time>
      </trkpt>
      <trkpt lat="45.63429" lon="6.0559">
        <ele>1515</ele>
        <time>2010-11-28T16:31:59Z</time>
      </trkpt>
      <trkpt lat="45.63428" lon="6.0559">
        <ele>1515</ele>
        <time>2010-11-28T16:32:09Z</time>
      </trkpt>
      <trkpt lat="45.63428" lon="6.05592">
        <ele>1515</ele>
        <time>2010-11-28T16:32:11Z</time>
      </trkpt>
      <trkpt lat="45.63429" lon="6.05596">
        <ele>1515</ele>
        <time>2010-11-28T16:32:13Z</time>
      </trkpt>
      <trkpt lat="45.63433" lon="6.05604">
        <ele>1515</ele>
        <time>2010-11-28T16:32:15Z</time>
      </trkpt>
      <trkpt lat="45.63439" lon="6.05614">
        <ele>1515</ele>
        <time>2010-11-28T16:32:17Z</time>
      </trkpt>
      <trkpt lat="45.63447" lon="6.05625">
        <ele>1513</ele>
        <time>2010-11-28T16:32:19Z</time>
      </trkpt>
      <trkpt lat="45.63457" lon="6.05635">
        <ele>1512</ele>
        <time>2010-11-28T16:32:21Z</time>
      </trkpt>
      <trkpt lat="45.63465" lon="6.05648">
        <ele>1510</ele>
        <time>2010-11-28T16:32:23Z</time>
      </trkpt>
      <trkpt lat="45.63472" lon="6.05662">
        <ele>1508</ele>
        <time>2010-11-28T16:32:25Z</time>
      </trkpt>
      <trkpt lat="45.63481" lon="6.05675">
        <ele>1506</ele>
        <time>2010-11-28T16:32:27Z</time>
      </trkpt>
      <trkpt lat="45.63491" lon="6.0569">
        <ele>1504</ele>
        <time>2010-11-28T16:32:29Z</time>
      </trkpt>
      <trkpt lat="45.63501" lon="6.05706">
        <ele>1502</ele>
        <time>2010-11-28T16:32:31Z</time>
      </trkpt>
      <trkpt lat="45.63512" lon="6.05721">
        <ele>1500</ele>
        <time>2010-11-28T16:32:33Z</time>
      </trkpt>
      <trkpt lat="45.63523" lon="6.05738">
        <ele>1498</ele>
        <time>2010-11-28T16:32:35Z</time>
      </trkpt>
      <trkpt lat="45.63536" lon="6.05751">
        <ele>1495</ele>
        <time>2010-11-28T16:32:37Z</time>
      </trkpt>
      <trkpt lat="45.63549" lon="6.0576">
        <ele>1492</ele>
        <time>2010-11-28T16:32:39Z</time>
      </trkpt>
      <trkpt lat="45.63559" lon="6.05759">
        <ele>1490</ele>
        <time>2010-11-28T16:32:41Z</time>
      </trkpt>
      <trkpt lat="45.63565" lon="6.05756">
        <ele>1488</ele>
        <time>2010-11-28T16:32:43Z</time>
      </trkpt>
      <trkpt lat="45.63567" lon="6.05754">
        <ele>1482</ele>
        <time>2010-11-28T16:33:16Z</time>
      </trkpt>
      <trkpt lat="45.63568" lon="6.05752">
        <ele>1482</ele>
        <time>2010-11-28T16:33:18Z</time>
      </trkpt>
      <trkpt lat="45.6357" lon="6.05748">
        <ele>1482</ele>
        <time>2010-11-28T16:33:20Z</time>
      </trkpt>
      <trkpt lat="45.63571" lon="6.05746">
        <ele>1482</ele>
        <time>2010-11-28T16:33:22Z</time>
      </trkpt>
      <trkpt lat="45.63571" lon="6.05744">
        <ele>1482</ele>
        <time>2010-11-28T16:33:24Z</time>
      </trkpt>
      <trkpt lat="45.63572" lon="6.05743">
        <ele>1482</ele>
        <time>2010-11-28T16:33:27Z</time>
      </trkpt>
      <trkpt lat="45.63572" lon="6.05741">
        <ele>1482</ele>
        <time>2010-11-28T16:33:31Z</time>
      </trkpt>
      <trkpt lat="45.6357" lon="6.0574">
        <ele>1483</ele>
        <time>2010-11-28T16:33:43Z</time>
      </trkpt>
      <trkpt lat="45.63569" lon="6.05739">
        <ele>1483</ele>
        <time>2010-11-28T16:33:45Z</time>
      </trkpt>
      <trkpt lat="45.63568" lon="6.05737">
        <ele>1484</ele>
        <time>2010-11-28T16:33:47Z</time>
      </trkpt>
      <trkpt lat="45.63566" lon="6.05734">
        <ele>1485</ele>
        <time>2010-11-28T16:33:49Z</time>
      </trkpt>
      <trkpt lat="45.63567" lon="6.05734">
        <ele>1486</ele>
        <time>2010-11-28T16:33:56Z</time>
      </trkpt>
      <trkpt lat="45.63567" lon="6.05736">
        <ele>1486</ele>
        <time>2010-11-28T16:33:59Z</time>
      </trkpt>
      <trkpt lat="45.63568" lon="6.05739">
        <ele>1486</ele>
        <time>2010-11-28T16:34:01Z</time>
      </trkpt>
      <trkpt lat="45.63568" lon="6.05741">
        <ele>1486</ele>
        <time>2010-11-28T16:34:08Z</time>
      </trkpt>
      <trkpt lat="45.63569" lon="6.05743">
        <ele>1486</ele>
        <time>2010-11-28T16:34:11Z</time>
      </trkpt>
      <trkpt lat="45.6357" lon="6.05743">
        <ele>1486</ele>
        <time>2010-11-28T16:34:14Z</time>
      </trkpt>
      <trkpt lat="45.63572" lon="6.05743">
        <ele>1486</ele>
        <time>2010-11-28T16:34:16Z</time>
      </trkpt>
      <trkpt lat="45.63578" lon="6.05745">
        <ele>1486</ele>
        <time>2010-11-28T16:34:18Z</time>
      </trkpt>
      <trkpt lat="45.63588" lon="6.0575">
        <ele>1486</ele>
        <time>2010-11-28T16:34:20Z</time>
      </trkpt>
      <trkpt lat="45.63596" lon="6.05758">
        <ele>1486</ele>
        <time>2010-11-28T16:34:22Z</time>
      </trkpt>
      <trkpt lat="45.63604" lon="6.0577">
        <ele>1485</ele>
        <time>2010-11-28T16:34:24Z</time>
      </trkpt>
      <trkpt lat="45.63613" lon="6.05778">
        <ele>1483</ele>
        <time>2010-11-28T16:34:26Z</time>
      </trkpt>
      <trkpt lat="45.63624" lon="6.05786">
        <ele>1482</ele>
        <time>2010-11-28T16:34:28Z</time>
      </trkpt>
      <trkpt lat="45.63634" lon="6.0579">
        <ele>1480</ele>
        <time>2010-11-28T16:34:30Z</time>
      </trkpt>
      <trkpt lat="45.63644" lon="6.05793">
        <ele>1479</ele>
        <time>2010-11-28T16:34:32Z</time>
      </trkpt>
      <trkpt lat="45.63654" lon="6.05796">
        <ele>1478</ele>
        <time>2010-11-28T16:34:34Z</time>
      </trkpt>
      <trkpt lat="45.63663" lon="6.058">
        <ele>1477</ele>
        <time>2010-11-28T16:34:36Z</time>
      </trkpt>
      <trkpt lat="45.63673" lon="6.05804">
        <ele>1476</ele>
        <time>2010-11-28T16:34:38Z</time>
      </trkpt>
      <trkpt lat="45.63681" lon="6.05812">
        <ele>1475</ele>
        <time>2010-11-28T16:34:40Z</time>
      </trkpt>
      <trkpt lat="45.63689" lon="6.05822">
        <ele>1473</ele>
        <time>2010-11-28T16:34:42Z</time>
      </trkpt>
      <trkpt lat="45.63696" lon="6.05834">
        <ele>1472</ele>
        <time>2010-11-28T16:34:44Z</time>
      </trkpt>
      <trkpt lat="45.637" lon="6.05844">
        <ele>1471</ele>
        <time>2010-11-28T16:34:46Z</time>
      </trkpt>
      <trkpt lat="45.63701" lon="6.05855">
        <ele>1470</ele>
        <time>2010-11-28T16:34:48Z</time>
      </trkpt>
      <trkpt lat="45.63702" lon="6.05863">
        <ele>1470</ele>
        <time>2010-11-28T16:34:50Z</time>
      </trkpt>
      <trkpt lat="45.63703" lon="6.05869">
        <ele>1469</ele>
        <time>2010-11-28T16:34:52Z</time>
      </trkpt>
      <trkpt lat="45.63705" lon="6.05874">
        <ele>1468</ele>
        <time>2010-11-28T16:34:54Z</time>
      </trkpt>
      <trkpt lat="45.63707" lon="6.05881">
        <ele>1467</ele>
        <time>2010-11-28T16:34:56Z</time>
      </trkpt>
      <trkpt lat="45.63709" lon="6.05893">
        <ele>1465</ele>
        <time>2010-11-28T16:34:58Z</time>
      </trkpt>
      <trkpt lat="45.63713" lon="6.05907">
        <ele>1464</ele>
        <time>2010-11-28T16:35:00Z</time>
      </trkpt>
      <trkpt lat="45.63718" lon="6.05922">
        <ele>1462</ele>
        <time>2010-11-28T16:35:02Z</time>
      </trkpt>
      <trkpt lat="45.63723" lon="6.05937">
        <ele>1460</ele>
        <time>2010-11-28T16:35:04Z</time>
      </trkpt>
      <trkpt lat="45.63728" lon="6.0595">
        <ele>1458</ele>
        <time>2010-11-28T16:35:06Z</time>
      </trkpt>
      <trkpt lat="45.63735" lon="6.05959">
        <ele>1456</ele>
        <time>2010-11-28T16:35:08Z</time>
      </trkpt>
      <trkpt lat="45.63742" lon="6.05966">
        <ele>1454</ele>
        <time>2010-11-28T16:35:10Z</time>
      </trkpt>
      <trkpt lat="45.63743" lon="6.05972">
        <ele>1452</ele>
        <time>2010-11-28T16:35:13Z</time>
      </trkpt>
      <trkpt lat="45.63745" lon="6.05979">
        <ele>1451</ele>
        <time>2010-11-28T16:35:15Z</time>
      </trkpt>
      <trkpt lat="45.63747" lon="6.05989">
        <ele>1449</ele>
        <time>2010-11-28T16:35:17Z</time>
      </trkpt>
      <trkpt lat="45.6375" lon="6.06">
        <ele>1448</ele>
        <time>2010-11-28T16:35:19Z</time>
      </trkpt>
      <trkpt lat="45.63754" lon="6.06012">
        <ele>1447</ele>
        <time>2010-11-28T16:35:21Z</time>
      </trkpt>
      <trkpt lat="45.6376" lon="6.06022">
        <ele>1446</ele>
        <time>2010-11-28T16:35:23Z</time>
      </trkpt>
      <trkpt lat="45.63765" lon="6.06033">
        <ele>1444</ele>
        <time>2010-11-28T16:35:25Z</time>
      </trkpt>
      <trkpt lat="45.63773" lon="6.06037">
        <ele>1442</ele>
        <time>2010-11-28T16:35:27Z</time>
      </trkpt>
      <trkpt lat="45.63774" lon="6.0604">
        <ele>1440</ele>
        <time>2010-11-28T16:35:30Z</time>
      </trkpt>
      <trkpt lat="45.63775" lon="6.06042">
        <ele>1439</ele>
        <time>2010-11-28T16:35:32Z</time>
      </trkpt>
      <trkpt lat="45.63779" lon="6.0605">
        <ele>1437</ele>
        <time>2010-11-28T16:35:35Z</time>
      </trkpt>
      <trkpt lat="45.63786" lon="6.06055">
        <ele>1436</ele>
        <time>2010-11-28T16:35:37Z</time>
      </trkpt>
      <trkpt lat="45.63793" lon="6.06058">
        <ele>1434</ele>
        <time>2010-11-28T16:35:39Z</time>
      </trkpt>
      <trkpt lat="45.63801" lon="6.06062">
        <ele>1433</ele>
        <time>2010-11-28T16:35:41Z</time>
      </trkpt>
      <trkpt lat="45.63815" lon="6.06065">
        <ele>1431</ele>
        <time>2010-11-28T16:35:44Z</time>
      </trkpt>
      <trkpt lat="45.63828" lon="6.06071">
        <ele>1429</ele>
        <time>2010-11-28T16:35:47Z</time>
      </trkpt>
      <trkpt lat="45.63838" lon="6.06075">
        <ele>1427</ele>
        <time>2010-11-28T16:35:49Z</time>
      </trkpt>
      <trkpt lat="45.63848" lon="6.06078">
        <ele>1426</ele>
        <time>2010-11-28T16:35:51Z</time>
      </trkpt>
      <trkpt lat="45.63859" lon="6.06082">
        <ele>1424</ele>
        <time>2010-11-28T16:35:53Z</time>
      </trkpt>
      <trkpt lat="45.63869" lon="6.06086">
        <ele>1422</ele>
        <time>2010-11-28T16:35:55Z</time>
      </trkpt>
      <trkpt lat="45.63871" lon="6.06089">
        <ele>1420</ele>
        <time>2010-11-28T16:35:58Z</time>
      </trkpt>
      <trkpt lat="45.6387" lon="6.0609">
        <ele>1419</ele>
        <time>2010-11-28T16:36:06Z</time>
      </trkpt>
      <trkpt lat="45.63869" lon="6.0609">
        <ele>1419</ele>
        <time>2010-11-28T16:36:10Z</time>
      </trkpt>
      <trkpt lat="45.6387" lon="6.06091">
        <ele>1419</ele>
        <time>2010-11-28T16:36:16Z</time>
      </trkpt>
      <trkpt lat="45.63869" lon="6.0609">
        <ele>1419</ele>
        <time>2010-11-28T16:36:26Z</time>
      </trkpt>
      <trkpt lat="45.63867" lon="6.06091">
        <ele>1422</ele>
        <time>2010-11-28T16:36:30Z</time>
      </trkpt>
      <trkpt lat="45.63867" lon="6.06093">
        <ele>1425</ele>
        <time>2010-11-28T16:36:33Z</time>
      </trkpt>
      <trkpt lat="45.63866" lon="6.06094">
        <ele>1429</ele>
        <time>2010-11-28T16:36:37Z</time>
      </trkpt>
      <trkpt lat="45.63864" lon="6.06093">
        <ele>1432</ele>
        <time>2010-11-28T16:36:41Z</time>
      </trkpt>
      <trkpt lat="45.63863" lon="6.0609">
        <ele>1434</ele>
        <time>2010-11-28T16:36:44Z</time>
      </trkpt>
      <trkpt lat="45.63861" lon="6.06089">
        <ele>1436</ele>
        <time>2010-11-28T16:36:47Z</time>
      </trkpt>
      <trkpt lat="45.6386" lon="6.06089">
        <ele>1438</ele>
        <time>2010-11-28T16:36:50Z</time>
      </trkpt>
      <trkpt lat="45.6386" lon="6.06091">
        <ele>1441</ele>
        <time>2010-11-28T16:36:54Z</time>
      </trkpt>
      <trkpt lat="45.63861" lon="6.06093">
        <ele>1441</ele>
        <time>2010-11-28T16:36:57Z</time>
      </trkpt>
      <trkpt lat="45.63862" lon="6.06095">
        <ele>1441</ele>
        <time>2010-11-28T16:37:00Z</time>
      </trkpt>
      <trkpt lat="45.63863" lon="6.06098">
        <ele>1441</ele>
        <time>2010-11-28T16:37:02Z</time>
      </trkpt>
      <trkpt lat="45.63872" lon="6.06111">
        <ele>1438</ele>
        <time>2010-11-28T16:37:05Z</time>
      </trkpt>
      <trkpt lat="45.63884" lon="6.06129">
        <ele>1435</ele>
        <time>2010-11-28T16:37:08Z</time>
      </trkpt>
      <trkpt lat="45.63892" lon="6.06142">
        <ele>1433</ele>
        <time>2010-11-28T16:37:10Z</time>
      </trkpt>
      <trkpt lat="45.63904" lon="6.06165">
        <ele>1430</ele>
        <time>2010-11-28T16:37:13Z</time>
      </trkpt>
      <trkpt lat="45.63912" lon="6.06179">
        <ele>1427</ele>
        <time>2010-11-28T16:37:15Z</time>
      </trkpt>
      <trkpt lat="45.63919" lon="6.06193">
        <ele>1423</ele>
        <time>2010-11-28T16:37:17Z</time>
      </trkpt>
      <trkpt lat="45.63932" lon="6.06213">
        <ele>1418</ele>
        <time>2010-11-28T16:37:20Z</time>
      </trkpt>
      <trkpt lat="45.63942" lon="6.06233">
        <ele>1413</ele>
        <time>2010-11-28T16:37:23Z</time>
      </trkpt>
      <trkpt lat="45.6395" lon="6.06243">
        <ele>1410</ele>
        <time>2010-11-28T16:37:25Z</time>
      </trkpt>
      <trkpt lat="45.63959" lon="6.06255">
        <ele>1406</ele>
        <time>2010-11-28T16:37:28Z</time>
      </trkpt>
      <trkpt lat="45.63964" lon="6.0626">
        <ele>1404</ele>
        <time>2010-11-28T16:37:30Z</time>
      </trkpt>
      <trkpt lat="45.63969" lon="6.06264">
        <ele>1401</ele>
        <time>2010-11-28T16:37:33Z</time>
      </trkpt>
      <trkpt lat="45.63972" lon="6.06268">
        <ele>1399</ele>
        <time>2010-11-28T16:37:35Z</time>
      </trkpt>
      <trkpt lat="45.6398" lon="6.06276">
        <ele>1396</ele>
        <time>2010-11-28T16:37:38Z</time>
      </trkpt>
      <trkpt lat="45.63985" lon="6.06281">
        <ele>1394</ele>
        <time>2010-11-28T16:37:40Z</time>
      </trkpt>
      <trkpt lat="45.63991" lon="6.06289">
        <ele>1391</ele>
        <time>2010-11-28T16:37:43Z</time>
      </trkpt>
      <trkpt lat="45.63995" lon="6.06294">
        <ele>1390</ele>
        <time>2010-11-28T16:37:45Z</time>
      </trkpt>
      <trkpt lat="45.64003" lon="6.06304">
        <ele>1389</ele>
        <time>2010-11-28T16:37:48Z</time>
      </trkpt>
      <trkpt lat="45.64008" lon="6.06312">
        <ele>1388</ele>
        <time>2010-11-28T16:37:50Z</time>
      </trkpt>
      <trkpt lat="45.64016" lon="6.06322">
        <ele>1387</ele>
        <time>2010-11-28T16:37:53Z</time>
      </trkpt>
      <trkpt lat="45.64022" lon="6.06326">
        <ele>1386</ele>
        <time>2010-11-28T16:37:55Z</time>
      </trkpt>
      <trkpt lat="45.64028" lon="6.06333">
        <ele>1385</ele>
        <time>2010-11-28T16:37:58Z</time>
      </trkpt>
      <trkpt lat="45.64033" lon="6.06337">
        <ele>1385</ele>
        <time>2010-11-28T16:38:00Z</time>
      </trkpt>
      <trkpt lat="45.64043" lon="6.06347">
        <ele>1384</ele>
        <time>2010-11-28T16:38:03Z</time>
      </trkpt>
      <trkpt lat="45.64048" lon="6.06352">
        <ele>1384</ele>
        <time>2010-11-28T16:38:05Z</time>
      </trkpt>
      <trkpt lat="45.64054" lon="6.06354">
        <ele>1383</ele>
        <time>2010-11-28T16:38:07Z</time>
      </trkpt>
      <trkpt lat="45.64059" lon="6.06355">
        <ele>1383</ele>
        <time>2010-11-28T16:38:10Z</time>
      </trkpt>
      <trkpt lat="45.64062" lon="6.06357">
        <ele>1383</ele>
        <time>2010-11-28T16:38:13Z</time>
      </trkpt>
      <trkpt lat="45.64065" lon="6.06359">
        <ele>1383</ele>
        <time>2010-11-28T16:38:17Z</time>
      </trkpt>
      <trkpt lat="45.64065" lon="6.06361">
        <ele>1383</ele>
        <time>2010-11-28T16:38:27Z</time>
      </trkpt>
      <trkpt lat="45.64065" lon="6.06362">
        <ele>1383</ele>
        <time>2010-11-28T16:38:48Z</time>
      </trkpt>
      <trkpt lat="45.64067" lon="6.06364">
        <ele>1383</ele>
        <time>2010-11-28T16:38:55Z</time>
      </trkpt>
      <trkpt lat="45.6407" lon="6.06365">
        <ele>1383</ele>
        <time>2010-11-28T16:38:59Z</time>
      </trkpt>
      <trkpt lat="45.64073" lon="6.06365">
        <ele>1383</ele>
        <time>2010-11-28T16:39:02Z</time>
      </trkpt>
      <trkpt lat="45.64075" lon="6.06366">
        <ele>1383</ele>
        <time>2010-11-28T16:39:04Z</time>
      </trkpt>
      <trkpt lat="45.64076" lon="6.06365">
        <ele>1383</ele>
        <time>2010-11-28T16:39:07Z</time>
      </trkpt>
      <trkpt lat="45.64078" lon="6.06362">
        <ele>1383</ele>
        <time>2010-11-28T16:39:14Z</time>
      </trkpt>
      <trkpt lat="45.6408" lon="6.0636">
        <ele>1383</ele>
        <time>2010-11-28T16:39:18Z</time>
      </trkpt>
      <trkpt lat="45.64081" lon="6.0636">
        <ele>1383</ele>
        <time>2010-11-28T16:39:23Z</time>
      </trkpt>
      <trkpt lat="45.64084" lon="6.06358">
        <ele>1383</ele>
        <time>2010-11-28T16:39:28Z</time>
      </trkpt>
      <trkpt lat="45.64087" lon="6.06355">
        <ele>1383</ele>
        <time>2010-11-28T16:39:32Z</time>
      </trkpt>
      <trkpt lat="45.64089" lon="6.06355">
        <ele>1383</ele>
        <time>2010-11-28T16:39:34Z</time>
      </trkpt>
      <trkpt lat="45.64091" lon="6.06353">
        <ele>1383</ele>
        <time>2010-11-28T16:39:38Z</time>
      </trkpt>
      <trkpt lat="45.64093" lon="6.06352">
        <ele>1383</ele>
        <time>2010-11-28T16:39:40Z</time>
      </trkpt>
      <trkpt lat="45.64094" lon="6.0635">
        <ele>1383</ele>
        <time>2010-11-28T16:39:43Z</time>
      </trkpt>
      <trkpt lat="45.64095" lon="6.0635">
        <ele>1383</ele>
        <time>2010-11-28T16:39:47Z</time>
      </trkpt>
      <trkpt lat="45.64096" lon="6.06351">
        <ele>1383</ele>
        <time>2010-11-28T16:39:53Z</time>
      </trkpt>
      <trkpt lat="45.64097" lon="6.06349">
        <ele>1383</ele>
        <time>2010-11-28T16:39:59Z</time>
      </trkpt>
      <trkpt lat="45.64098" lon="6.06348">
        <ele>1383</ele>
        <time>2010-11-28T16:40:06Z</time>
      </trkpt>
      <trkpt lat="45.64098" lon="6.06346">
        <ele>1383</ele>
        <time>2010-11-28T16:40:22Z</time>
      </trkpt>
      <trkpt lat="45.64096" lon="6.06347">
        <ele>1383</ele>
        <time>2010-11-28T16:40:43Z</time>
      </trkpt>
      <trkpt lat="45.64095" lon="6.06348">
        <ele>1383</ele>
        <time>2010-11-28T16:40:52Z</time>
      </trkpt>
      <trkpt lat="45.64095" lon="6.0635">
        <ele>1383</ele>
        <time>2010-11-28T16:40:57Z</time>
      </trkpt>
      <trkpt lat="45.64095" lon="6.06353">
        <ele>1383</ele>
        <time>2010-11-28T16:41:02Z</time>
      </trkpt>
      <trkpt lat="45.64097" lon="6.06351">
        <ele>1383</ele>
        <time>2010-11-28T16:41:06Z</time>
      </trkpt>
      <trkpt lat="45.64098" lon="6.0635">
        <ele>1383</ele>
        <time>2010-11-28T16:41:09Z</time>
      </trkpt>
      <trkpt lat="45.64101" lon="6.0635">
        <ele>1383</ele>
        <time>2010-11-28T16:41:12Z</time>
      </trkpt>
      <trkpt lat="45.64102" lon="6.06351">
        <ele>1383</ele>
        <time>2010-11-28T16:41:14Z</time>
      </trkpt>
      <trkpt lat="45.64101" lon="6.06349">
        <ele>1383</ele>
        <time>2010-11-28T16:41:19Z</time>
      </trkpt>
      <trkpt lat="45.64102" lon="6.0635">
        <ele>1383</ele>
        <time>2010-11-28T16:41:22Z</time>
      </trkpt>
      <trkpt lat="45.64106" lon="6.06352">
        <ele>1383</ele>
        <time>2010-11-28T16:41:24Z</time>
      </trkpt>
      <trkpt lat="45.64112" lon="6.06356">
        <ele>1383</ele>
        <time>2010-11-28T16:41:27Z</time>
      </trkpt>
      <trkpt lat="45.64117" lon="6.06359">
        <ele>1382</ele>
        <time>2010-11-28T16:41:29Z</time>
      </trkpt>
      <trkpt lat="45.64122" lon="6.06362">
        <ele>1381</ele>
        <time>2010-11-28T16:41:32Z</time>
      </trkpt>
      <trkpt lat="45.64126" lon="6.06364">
        <ele>1381</ele>
        <time>2010-11-28T16:41:34Z</time>
      </trkpt>
      <trkpt lat="45.64133" lon="6.06366">
        <ele>1380</ele>
        <time>2010-11-28T16:41:37Z</time>
      </trkpt>
      <trkpt lat="45.64137" lon="6.06366">
        <ele>1379</ele>
        <time>2010-11-28T16:41:39Z</time>
      </trkpt>
      <trkpt lat="45.6414" lon="6.06367">
        <ele>1377</ele>
        <time>2010-11-28T16:41:42Z</time>
      </trkpt>
      <trkpt lat="45.64141" lon="6.06368">
        <ele>1376</ele>
        <time>2010-11-28T16:41:44Z</time>
      </trkpt>
      <trkpt lat="45.64143" lon="6.06369">
        <ele>1374</ele>
        <time>2010-11-28T16:41:46Z</time>
      </trkpt>
      <trkpt lat="45.64144" lon="6.06368">
        <ele>1374</ele>
        <time>2010-11-28T16:41:53Z</time>
      </trkpt>
      <trkpt lat="45.64143" lon="6.06369">
        <ele>1374</ele>
        <time>2010-11-28T16:41:59Z</time>
      </trkpt>
      <trkpt lat="45.64141" lon="6.0637">
        <ele>1374</ele>
        <time>2010-11-28T16:42:01Z</time>
      </trkpt>
      <trkpt lat="45.64139" lon="6.06372">
        <ele>1373</ele>
        <time>2010-11-28T16:42:04Z</time>
      </trkpt>
      <trkpt lat="45.6414" lon="6.06372">
        <ele>1371</ele>
        <time>2010-11-28T16:42:10Z</time>
      </trkpt>
      <trkpt lat="45.64143" lon="6.0637">
        <ele>1371</ele>
        <time>2010-11-28T16:42:13Z</time>
      </trkpt>
      <trkpt lat="45.64146" lon="6.06371">
        <ele>1371</ele>
        <time>2010-11-28T16:42:16Z</time>
      </trkpt>
      <trkpt lat="45.64148" lon="6.06372">
        <ele>1371</ele>
        <time>2010-11-28T16:42:18Z</time>
      </trkpt>
      <trkpt lat="45.6415" lon="6.06372">
        <ele>1371</ele>
        <time>2010-11-28T16:42:20Z</time>
      </trkpt>
      <trkpt lat="45.64152" lon="6.06373">
        <ele>1371</ele>
        <time>2010-11-28T16:42:22Z</time>
      </trkpt>
      <trkpt lat="45.64154" lon="6.06374">
        <ele>1371</ele>
        <time>2010-11-28T16:42:24Z</time>
      </trkpt>
      <trkpt lat="45.64155" lon="6.06377">
        <ele>1372</ele>
        <time>2010-11-28T16:42:26Z</time>
      </trkpt>
      <trkpt lat="45.64157" lon="6.06376">
        <ele>1372</ele>
        <time>2010-11-28T16:42:28Z</time>
      </trkpt>
      <trkpt lat="45.64157" lon="6.06372">
        <ele>1373</ele>
        <time>2010-11-28T16:42:31Z</time>
      </trkpt>
      <trkpt lat="45.64159" lon="6.06375">
        <ele>1373</ele>
        <time>2010-11-28T16:42:34Z</time>
      </trkpt>
      <trkpt lat="45.64161" lon="6.06376">
        <ele>1373</ele>
        <time>2010-11-28T16:42:37Z</time>
      </trkpt>
      <trkpt lat="45.64161" lon="6.06374">
        <ele>1373</ele>
        <time>2010-11-28T16:42:40Z</time>
      </trkpt>
      <trkpt lat="45.64162" lon="6.06373">
        <ele>1373</ele>
        <time>2010-11-28T16:42:47Z</time>
      </trkpt>
      <trkpt lat="45.64165" lon="6.06374">
        <ele>1373</ele>
        <time>2010-11-28T16:42:49Z</time>
      </trkpt>
      <trkpt lat="45.64167" lon="6.06376">
        <ele>1373</ele>
        <time>2010-11-28T16:42:51Z</time>
      </trkpt>
      <trkpt lat="45.64168" lon="6.06377">
        <ele>1373</ele>
        <time>2010-11-28T16:42:53Z</time>
      </trkpt>
      <trkpt lat="45.64169" lon="6.06378">
        <ele>1373</ele>
        <time>2010-11-28T16:42:57Z</time>
      </trkpt>
      <trkpt lat="45.64168" lon="6.06377">
        <ele>1373</ele>
        <time>2010-11-28T16:43:03Z</time>
      </trkpt>
      <trkpt lat="45.64168" lon="6.06376">
        <ele>1373</ele>
        <time>2010-11-28T16:43:11Z</time>
      </trkpt>
      <trkpt lat="45.64167" lon="6.06374">
        <ele>1374</ele>
        <time>2010-11-28T16:43:18Z</time>
      </trkpt>
      <trkpt lat="45.64169" lon="6.06375">
        <ele>1374</ele>
        <time>2010-11-28T16:43:25Z</time>
      </trkpt>
      <trkpt lat="45.64169" lon="6.06377">
        <ele>1374</ele>
        <time>2010-11-28T16:43:32Z</time>
      </trkpt>
      <trkpt lat="45.64171" lon="6.06376">
        <ele>1374</ele>
        <time>2010-11-28T16:43:36Z</time>
      </trkpt>
      <trkpt lat="45.64173" lon="6.06376">
        <ele>1374</ele>
        <time>2010-11-28T16:43:38Z</time>
      </trkpt>
      <trkpt lat="45.64175" lon="6.06376">
        <ele>1374</ele>
        <time>2010-11-28T16:43:40Z</time>
      </trkpt>
      <trkpt lat="45.64178" lon="6.06376">
        <ele>1374</ele>
        <time>2010-11-28T16:43:43Z</time>
      </trkpt>
      <trkpt lat="45.6418" lon="6.06377">
        <ele>1374</ele>
        <time>2010-11-28T16:43:45Z</time>
      </trkpt>
      <trkpt lat="45.64182" lon="6.06376">
        <ele>1373</ele>
        <time>2010-11-28T16:43:47Z</time>
      </trkpt>
      <trkpt lat="45.64183" lon="6.06375">
        <ele>1373</ele>
        <time>2010-11-28T16:43:49Z</time>
      </trkpt>
      <trkpt lat="45.64186" lon="6.06373">
        <ele>1372</ele>
        <time>2010-11-28T16:43:53Z</time>
      </trkpt>
      <trkpt lat="45.64188" lon="6.06373">
        <ele>1371</ele>
        <time>2010-11-28T16:43:55Z</time>
      </trkpt>
      <trkpt lat="45.6419" lon="6.06372">
        <ele>1371</ele>
        <time>2010-11-28T16:43:57Z</time>
      </trkpt>
      <trkpt lat="45.64193" lon="6.06373">
        <ele>1371</ele>
        <time>2010-11-28T16:44:00Z</time>
      </trkpt>
      <trkpt lat="45.64194" lon="6.06374">
        <ele>1371</ele>
        <time>2010-11-28T16:44:02Z</time>
      </trkpt>
      <trkpt lat="45.64196" lon="6.06374">
        <ele>1371</ele>
        <time>2010-11-28T16:44:04Z</time>
      </trkpt>
      <trkpt lat="45.64199" lon="6.06373">
        <ele>1371</ele>
        <time>2010-11-28T16:44:06Z</time>
      </trkpt>
      <trkpt lat="45.64201" lon="6.06373">
        <ele>1371</ele>
        <time>2010-11-28T16:44:08Z</time>
      </trkpt>
      <trkpt lat="45.64203" lon="6.06372">
        <ele>1371</ele>
        <time>2010-11-28T16:44:10Z</time>
      </trkpt>
      <trkpt lat="45.64204" lon="6.06373">
        <ele>1371</ele>
        <time>2010-11-28T16:44:12Z</time>
      </trkpt>
      <trkpt lat="45.64206" lon="6.06372">
        <ele>1371</ele>
        <time>2010-11-28T16:44:14Z</time>
      </trkpt>
      <trkpt lat="45.64208" lon="6.06372">
        <ele>1371</ele>
        <time>2010-11-28T16:44:16Z</time>
      </trkpt>
      <trkpt lat="45.64209" lon="6.06372">
        <ele>1371</ele>
        <time>2010-11-28T16:44:18Z</time>
      </trkpt>
      <trkpt lat="45.64211" lon="6.06372">
        <ele>1371</ele>
        <time>2010-11-28T16:44:20Z</time>
      </trkpt>
      <trkpt lat="45.64212" lon="6.06372">
        <ele>1371</ele>
        <time>2010-11-28T16:44:22Z</time>
      </trkpt>
      <trkpt lat="45.64214" lon="6.06374">
        <ele>1371</ele>
        <time>2010-11-28T16:44:26Z</time>
      </trkpt>
      <trkpt lat="45.64216" lon="6.06374">
        <ele>1371</ele>
        <time>2010-11-28T16:44:28Z</time>
      </trkpt>
      <trkpt lat="45.64218" lon="6.06375">
        <ele>1371</ele>
        <time>2010-11-28T16:44:30Z</time>
      </trkpt>
      <trkpt lat="45.6422" lon="6.06375">
        <ele>1371</ele>
        <time>2010-11-28T16:44:32Z</time>
      </trkpt>
      <trkpt lat="45.64222" lon="6.06375">
        <ele>1371</ele>
        <time>2010-11-28T16:44:34Z</time>
      </trkpt>
      <trkpt lat="45.64225" lon="6.06372">
        <ele>1371</ele>
        <time>2010-11-28T16:44:37Z</time>
      </trkpt>
      <trkpt lat="45.64227" lon="6.06372">
        <ele>1371</ele>
        <time>2010-11-28T16:44:39Z</time>
      </trkpt>
      <trkpt lat="45.64228" lon="6.06374">
        <ele>1371</ele>
        <time>2010-11-28T16:44:41Z</time>
      </trkpt>
      <trkpt lat="45.64229" lon="6.06377">
        <ele>1371</ele>
        <time>2010-11-28T16:44:43Z</time>
      </trkpt>
      <trkpt lat="45.6423" lon="6.06378">
        <ele>1371</ele>
        <time>2010-11-28T16:44:45Z</time>
      </trkpt>
      <trkpt lat="45.64231" lon="6.0638">
        <ele>1371</ele>
        <time>2010-11-28T16:44:47Z</time>
      </trkpt>
      <trkpt lat="45.64233" lon="6.06382">
        <ele>1371</ele>
        <time>2010-11-28T16:44:49Z</time>
      </trkpt>
      <trkpt lat="45.64234" lon="6.06382">
        <ele>1371</ele>
        <time>2010-11-28T16:44:51Z</time>
      </trkpt>
      <trkpt lat="45.64238" lon="6.06384">
        <ele>1371</ele>
        <time>2010-11-28T16:44:54Z</time>
      </trkpt>
      <trkpt lat="45.6424" lon="6.06387">
        <ele>1371</ele>
        <time>2010-11-28T16:44:57Z</time>
      </trkpt>
      <trkpt lat="45.64243" lon="6.06389">
        <ele>1371</ele>
        <time>2010-11-28T16:44:59Z</time>
      </trkpt>
      <trkpt lat="45.64244" lon="6.06391">
        <ele>1371</ele>
        <time>2010-11-28T16:45:01Z</time>
      </trkpt>
      <trkpt lat="45.64246" lon="6.06394">
        <ele>1371</ele>
        <time>2010-11-28T16:45:03Z</time>
      </trkpt>
      <trkpt lat="45.64248" lon="6.06394">
        <ele>1371</ele>
        <time>2010-11-28T16:45:05Z</time>
      </trkpt>
      <trkpt lat="45.6425" lon="6.06396">
        <ele>1371</ele>
        <time>2010-11-28T16:45:07Z</time>
      </trkpt>
      <trkpt lat="45.64252" lon="6.06397">
        <ele>1371</ele>
        <time>2010-11-28T16:45:09Z</time>
      </trkpt>
      <trkpt lat="45.64256" lon="6.06399">
        <ele>1371</ele>
        <time>2010-11-28T16:45:12Z</time>
      </trkpt>
      <trkpt lat="45.64258" lon="6.06399">
        <ele>1371</ele>
        <time>2010-11-28T16:45:14Z</time>
      </trkpt>
      <trkpt lat="45.64261" lon="6.064">
        <ele>1371</ele>
        <time>2010-11-28T16:45:21Z</time>
      </trkpt>
      <trkpt lat="45.64261" lon="6.06398">
        <ele>1371</ele>
        <time>2010-11-28T16:45:31Z</time>
      </trkpt>
      <trkpt lat="45.6426" lon="6.06397">
        <ele>1371</ele>
        <time>2010-11-28T16:45:45Z</time>
      </trkpt>
      <trkpt lat="45.64262" lon="6.06397">
        <ele>1371</ele>
        <time>2010-11-28T16:45:47Z</time>
      </trkpt>
      <trkpt lat="45.64264" lon="6.06397">
        <ele>1371</ele>
        <time>2010-11-28T16:45:51Z</time>
      </trkpt>
      <trkpt lat="45.64265" lon="6.06395">
        <ele>1371</ele>
        <time>2010-11-28T16:45:53Z</time>
      </trkpt>
      <trkpt lat="45.64264" lon="6.06394">
        <ele>1371</ele>
        <time>2010-11-28T16:45:57Z</time>
      </trkpt>
      <trkpt lat="45.64263" lon="6.06396">
        <ele>1371</ele>
        <time>2010-11-28T16:46:06Z</time>
      </trkpt>
      <trkpt lat="45.64263" lon="6.06394">
        <ele>1371</ele>
        <time>2010-11-28T16:46:16Z</time>
      </trkpt>
      <trkpt lat="45.64264" lon="6.06396">
        <ele>1371</ele>
        <time>2010-11-28T16:46:19Z</time>
      </trkpt>
      <trkpt lat="45.64265" lon="6.06395">
        <ele>1371</ele>
        <time>2010-11-28T16:46:23Z</time>
      </trkpt>
      <trkpt lat="45.64265" lon="6.06393">
        <ele>1371</ele>
        <time>2010-11-28T16:46:31Z</time>
      </trkpt>
      <trkpt lat="45.64265" lon="6.06395">
        <ele>1371</ele>
        <time>2010-11-28T16:46:35Z</time>
      </trkpt>
      <trkpt lat="45.64264" lon="6.06396">
        <ele>1371</ele>
        <time>2010-11-28T16:46:43Z</time>
      </trkpt>
      <trkpt lat="45.64262" lon="6.06397">
        <ele>1371</ele>
        <time>2010-11-28T16:46:51Z</time>
      </trkpt>
      <trkpt lat="45.64261" lon="6.06396">
        <ele>1371</ele>
        <time>2010-11-28T16:46:54Z</time>
      </trkpt>
      <trkpt lat="45.64262" lon="6.06397">
        <ele>1371</ele>
        <time>2010-11-28T16:46:59Z</time>
      </trkpt>
      <trkpt lat="45.64262" lon="6.06395">
        <ele>1371</ele>
        <time>2010-11-28T16:47:05Z</time>
      </trkpt>
      <trkpt lat="45.64264" lon="6.06396">
        <ele>1371</ele>
        <time>2010-11-28T16:47:10Z</time>
      </trkpt>
      <trkpt lat="45.64263" lon="6.06393">
        <ele>1371</ele>
        <time>2010-11-28T16:47:12Z</time>
      </trkpt>
      <trkpt lat="45.64263" lon="6.06391">
        <ele>1371</ele>
        <time>2010-11-28T16:47:23Z</time>
      </trkpt>
      <trkpt lat="45.64263" lon="6.06393">
        <ele>1371</ele>
        <time>2010-11-28T16:47:30Z</time>
      </trkpt>
      <trkpt lat="45.64264" lon="6.06394">
        <ele>1371</ele>
        <time>2010-11-28T16:47:35Z</time>
      </trkpt>
      <trkpt lat="45.64265" lon="6.06396">
        <ele>1371</ele>
        <time>2010-11-28T16:47:37Z</time>
      </trkpt>
      <trkpt lat="45.64265" lon="6.06394">
        <ele>1371</ele>
        <time>2010-11-28T16:47:39Z</time>
      </trkpt>
      <trkpt lat="45.64265" lon="6.06395">
        <ele>1371</ele>
        <time>2010-11-28T16:47:43Z</time>
      </trkpt>
      <trkpt lat="45.64263" lon="6.06395">
        <ele>1371</ele>
        <time>2010-11-28T16:47:52Z</time>
      </trkpt>
      <trkpt lat="45.64264" lon="6.06393">
        <ele>1372</ele>
        <time>2010-11-28T16:47:58Z</time>
      </trkpt>
      <trkpt lat="45.64265" lon="6.0639">
        <ele>1372</ele>
        <time>2010-11-28T16:48:07Z</time>
      </trkpt>
      <trkpt lat="45.64264" lon="6.06388">
        <ele>1372</ele>
        <time>2010-11-28T16:48:11Z</time>
      </trkpt>
      <trkpt lat="45.64265" lon="6.06389">
        <ele>1365</ele>
        <time>2010-11-28T16:48:21Z</time>
      </trkpt>
      <trkpt lat="45.64264" lon="6.06387">
        <ele>1359</ele>
        <time>2010-11-28T16:48:31Z</time>
      </trkpt>
      <trkpt lat="45.64263" lon="6.06386">
        <ele>1358</ele>
        <time>2010-11-28T16:48:40Z</time>
      </trkpt>
      <trkpt lat="45.64262" lon="6.06385">
        <ele>1358</ele>
        <time>2010-11-28T16:48:49Z</time>
      </trkpt>
      <trkpt lat="45.64261" lon="6.06383">
        <ele>1358</ele>
        <time>2010-11-28T16:49:01Z</time>
      </trkpt>
      <trkpt lat="45.64263" lon="6.06383">
        <ele>1357</ele>
        <time>2010-11-28T16:49:27Z</time>
      </trkpt>
      <trkpt lat="45.64262" lon="6.06384">
        <ele>1357</ele>
        <time>2010-11-28T16:49:35Z</time>
      </trkpt>
      <trkpt lat="45.6426" lon="6.06383">
        <ele>1357</ele>
        <time>2010-11-28T16:49:38Z</time>
      </trkpt>
      <trkpt lat="45.64259" lon="6.06384">
        <ele>1357</ele>
        <time>2010-11-28T16:49:43Z</time>
      </trkpt>
      <trkpt lat="45.64258" lon="6.06385">
        <ele>1360</ele>
        <time>2010-11-28T16:49:50Z</time>
      </trkpt>
      <trkpt lat="45.64257" lon="6.06385">
        <ele>1362</ele>
        <time>2010-11-28T16:49:55Z</time>
      </trkpt>
      <trkpt lat="45.64257" lon="6.06387">
        <ele>1366</ele>
        <time>2010-11-28T16:49:59Z</time>
      </trkpt>
      <trkpt lat="45.64256" lon="6.06385">
        <ele>1368</ele>
        <time>2010-11-28T16:50:03Z</time>
      </trkpt>
      <trkpt lat="45.64255" lon="6.06383">
        <ele>1370</ele>
        <time>2010-11-28T16:50:08Z</time>
      </trkpt>
      <trkpt lat="45.64254" lon="6.06381">
        <ele>1373</ele>
        <time>2010-11-28T16:50:11Z</time>
      </trkpt>
      <trkpt lat="45.64254" lon="6.06383">
        <ele>1376</ele>
        <time>2010-11-28T16:50:16Z</time>
      </trkpt>
      <trkpt lat="45.64255" lon="6.06384">
        <ele>1377</ele>
        <time>2010-11-28T16:50:23Z</time>
      </trkpt>
      <trkpt lat="45.64257" lon="6.06385">
        <ele>1377</ele>
        <time>2010-11-28T16:50:34Z</time>
      </trkpt>
      <trkpt lat="45.64257" lon="6.06387">
        <ele>1377</ele>
        <time>2010-11-28T16:50:38Z</time>
      </trkpt>
      <trkpt lat="45.64259" lon="6.06388">
        <ele>1371</ele>
        <time>2010-11-28T16:50:50Z</time>
      </trkpt>
      <trkpt lat="45.64258" lon="6.06386">
        <ele>1367</ele>
        <time>2010-11-28T16:50:55Z</time>
      </trkpt>
      <trkpt lat="45.64259" lon="6.06388">
        <ele>1365</ele>
        <time>2010-11-28T16:51:00Z</time>
      </trkpt>
      <trkpt lat="45.6426" lon="6.06391">
        <ele>1365</ele>
        <time>2010-11-28T16:51:02Z</time>
      </trkpt>
      <trkpt lat="45.6426" lon="6.06393">
        <ele>1365</ele>
        <time>2010-11-28T16:51:04Z</time>
      </trkpt>
      <trkpt lat="45.64261" lon="6.06395">
        <ele>1365</ele>
        <time>2010-11-28T16:51:06Z</time>
      </trkpt>
      <trkpt lat="45.64263" lon="6.06398">
        <ele>1365</ele>
        <time>2010-11-28T16:51:08Z</time>
      </trkpt>
      <trkpt lat="45.64262" lon="6.06397">
        <ele>1372</ele>
        <time>2010-11-28T16:51:21Z</time>
      </trkpt>
      <trkpt lat="45.64262" lon="6.06395">
        <ele>1372</ele>
        <time>2010-11-28T16:51:28Z</time>
      </trkpt>
      <trkpt lat="45.64262" lon="6.06397">
        <ele>1372</ele>
        <time>2010-11-28T16:51:53Z</time>
      </trkpt>
      <trkpt lat="45.64261" lon="6.06395">
        <ele>1372</ele>
        <time>2010-11-28T16:52:10Z</time>
      </trkpt>
      <trkpt lat="45.6426" lon="6.06393">
        <ele>1372</ele>
        <time>2010-11-28T16:52:13Z</time>
      </trkpt>
      <trkpt lat="45.64259" lon="6.06391">
        <ele>1372</ele>
        <time>2010-11-28T16:52:26Z</time>
      </trkpt>
      <trkpt lat="45.64258" lon="6.06391">
        <ele>1372</ele>
        <time>2010-11-28T16:52:40Z</time>
      </trkpt>
      <trkpt lat="45.64257" lon="6.06392">
        <ele>1372</ele>
        <time>2010-11-28T16:52:54Z</time>
      </trkpt>
      <trkpt lat="45.64257" lon="6.06394">
        <ele>1374</ele>
        <time>2010-11-28T16:53:13Z</time>
      </trkpt>
      <trkpt lat="45.64257" lon="6.06392">
        <ele>1376</ele>
        <time>2010-11-28T16:53:22Z</time>
      </trkpt>
      <trkpt lat="45.64257" lon="6.0639">
        <ele>1376</ele>
        <time>2010-11-28T16:53:25Z</time>
      </trkpt>
      <trkpt lat="45.64257" lon="6.06389">
        <ele>1376</ele>
        <time>2010-11-28T16:53:29Z</time>
      </trkpt>
      <trkpt lat="45.64258" lon="6.06389">
        <ele>1376</ele>
        <time>2010-11-28T16:53:35Z</time>
      </trkpt>
      <trkpt lat="45.64259" lon="6.0639">
        <ele>1375</ele>
        <time>2010-11-28T16:53:41Z</time>
      </trkpt>
      <trkpt lat="45.6426" lon="6.06391">
        <ele>1374</ele>
        <time>2010-11-28T16:53:47Z</time>
      </trkpt>
      <trkpt lat="45.64262" lon="6.06392">
        <ele>1372</ele>
        <time>2010-11-28T16:53:52Z</time>
      </trkpt>
      <trkpt lat="45.64263" lon="6.06393">
        <ele>1370</ele>
        <time>2010-11-28T16:53:58Z</time>
      </trkpt>
      <trkpt lat="45.64264" lon="6.06394">
        <ele>1368</ele>
        <time>2010-11-28T16:54:09Z</time>
      </trkpt>
      <trkpt lat="45.64263" lon="6.06395">
        <ele>1368</ele>
        <time>2010-11-28T16:54:30Z</time>
      </trkpt>
      <trkpt lat="45.64262" lon="6.06396">
        <ele>1368</ele>
        <time>2010-11-28T16:54:39Z</time>
      </trkpt>
      <trkpt lat="45.64263" lon="6.06397">
        <ele>1369</ele>
        <time>2010-11-28T16:54:49Z</time>
      </trkpt>
      <trkpt lat="45.64264" lon="6.06398">
        <ele>1369</ele>
        <time>2010-11-28T16:54:54Z</time>
      </trkpt>
      <trkpt lat="45.64265" lon="6.06398">
        <ele>1369</ele>
        <time>2010-11-28T16:54:58Z</time>
      </trkpt>
      <trkpt lat="45.64264" lon="6.06397">
        <ele>1369</ele>
        <time>2010-11-28T16:55:03Z</time>
      </trkpt>
      <trkpt lat="45.64265" lon="6.06396">
        <ele>1371</ele>
        <time>2010-11-28T16:55:14Z</time>
      </trkpt>
      <trkpt lat="45.64265" lon="6.06394">
        <ele>1371</ele>
        <time>2010-11-28T16:55:16Z</time>
      </trkpt>
      <trkpt lat="45.64267" lon="6.06391">
        <ele>1369</ele>
        <time>2010-11-28T16:55:21Z</time>
      </trkpt>
      <trkpt lat="45.64267" lon="6.06393">
        <ele>1366</ele>
        <time>2010-11-28T16:55:26Z</time>
      </trkpt>
      <trkpt lat="45.64265" lon="6.06395">
        <ele>1365</ele>
        <time>2010-11-28T16:55:29Z</time>
      </trkpt>
      <trkpt lat="45.64267" lon="6.06396">
        <ele>1365</ele>
        <time>2010-11-28T16:55:34Z</time>
      </trkpt>
      <trkpt lat="45.64268" lon="6.06396">
        <ele>1365</ele>
        <time>2010-11-28T16:55:36Z</time>
      </trkpt>
      <trkpt lat="45.64268" lon="6.064">
        <ele>1365</ele>
        <time>2010-11-28T16:55:39Z</time>
      </trkpt>
      <trkpt lat="45.64267" lon="6.06397">
        <ele>1365</ele>
        <time>2010-11-28T16:55:45Z</time>
      </trkpt>
      <trkpt lat="45.64266" lon="6.06396">
        <ele>1365</ele>
        <time>2010-11-28T16:55:51Z</time>
      </trkpt>
      <trkpt lat="45.64265" lon="6.06395">
        <ele>1366</ele>
        <time>2010-11-28T16:55:55Z</time>
      </trkpt>
    </trkseg>
  </trk>
</gpx>